<?xml version='1.0' encoding='UTF-8'?><gpx version="1.1" creator="JPX - https://github.com/jenetics/jpx" xmlns="http://www.topografix.com/GPX/1/1"><trk><trkseg><trkpt lat="45.57664393154753" lon="10.754167595243304"><ele>210.0</ele><time>2026-03-28T12:39:25Z</time></trkpt><trkpt lat="45.57670186474699" lon="10.754101059197811"><ele>210.0</ele><time>2026-03-28T12:39:28Z</time></trkpt><trkpt lat="45.57680226757788" lon="10.75410318407147"><ele>210.0</ele><time>2026-03-28T12:39:31Z</time></trkpt><trkpt lat="45.57688741132392" lon="10.754127139471654"><ele>210.0</ele><time>2026-03-28T12:39:38Z</time></trkpt><trkpt lat="45.57695674981713" lon="10.75415998837603"><ele>210.0</ele><time>2026-03-28T12:39:40.999Z</time></trkpt><trkpt lat="45.57701835140764" lon="10.754300673788206"><ele>209.25</ele><time>2026-03-28T12:39:43.999Z</time></trkpt><trkpt lat="45.57706221781322" lon="10.754475968980714"><ele>208.5</ele><time>2026-03-28T12:39:45.999Z</time></trkpt><trkpt lat="45.57709998095536" lon="10.75463643762526"><ele>207.75</ele><time>2026-03-28T12:39:47.999Z</time></trkpt><trkpt lat="45.57712339689196" lon="10.75478345851188"><ele>207.0</ele><time>2026-03-28T12:39:49.999Z</time></trkpt><trkpt lat="45.57714320731262" lon="10.754944622089344"><ele>207.0</ele><time>2026-03-28T12:39:51.999Z</time></trkpt><trkpt lat="45.57715279656041" lon="10.755036672146982"><ele>207.0</ele><time>2026-03-28T12:39:52.999Z</time></trkpt><trkpt lat="45.577173625715" lon="10.755136650621123"><ele>207.0</ele><time>2026-03-28T12:39:53.999Z</time></trkpt><trkpt lat="45.57718705658099" lon="10.755249229828836"><ele>207.0</ele><time>2026-03-28T12:39:54.999Z</time></trkpt><trkpt lat="45.5771985988869" lon="10.755357825006136"><ele>207.0</ele><time>2026-03-28T12:39:55.999Z</time></trkpt><trkpt lat="45.577211801261456" lon="10.755474732838794"><ele>207.0</ele><time>2026-03-28T12:39:56.999Z</time></trkpt><trkpt lat="45.57722294448612" lon="10.755586766236272"><ele>206.83333333333334</ele><time>2026-03-28T12:39:57.999Z</time></trkpt><trkpt lat="45.57722857388478" lon="10.75571290707608"><ele>206.66666666666669</ele><time>2026-03-28T12:39:58.999Z</time></trkpt><trkpt lat="45.577226072529534" lon="10.755838322749817"><ele>206.5</ele><time>2026-03-28T12:39:59.999Z</time></trkpt><trkpt lat="45.57721359600781" lon="10.755952974962657"><ele>206.33333333333334</ele><time>2026-03-28T12:40:00.999Z</time></trkpt><trkpt lat="45.57719640804565" lon="10.756061879257912"><ele>206.16666666666669</ele><time>2026-03-28T12:40:01.999Z</time></trkpt><trkpt lat="45.5771712680724" lon="10.75615880437242"><ele>206.0</ele><time>2026-03-28T12:40:02.999Z</time></trkpt><trkpt lat="45.57714484926114" lon="10.756246701909824"><ele>206.0</ele><time>2026-03-28T12:40:03.999Z</time></trkpt><trkpt lat="45.57711421647405" lon="10.756327406976276"><ele>206.0</ele><time>2026-03-28T12:40:04.999Z</time></trkpt><trkpt lat="45.577079793006305" lon="10.75640362153758"><ele>206.0</ele><time>2026-03-28T12:40:05.999Z</time></trkpt><trkpt lat="45.577012223149666" lon="10.756509757263665"><ele>206.0</ele><time>2026-03-28T12:40:07.999Z</time></trkpt><trkpt lat="45.5769581374796" lon="10.756592122440075"><ele>206.0</ele><time>2026-03-28T12:40:09.999Z</time></trkpt><trkpt lat="45.577079498608" lon="10.756763440662755"><ele>206.0</ele><time>2026-03-28T12:40:23.999Z</time></trkpt><trkpt lat="45.57718554759004" lon="10.756729206505396"><ele>206.0</ele><time>2026-03-28T12:40:24.999Z</time></trkpt><trkpt lat="45.57727920452475" lon="10.756684804072357"><ele>206.0</ele><time>2026-03-28T12:40:25.999Z</time></trkpt><trkpt lat="45.577387738994396" lon="10.756639618654777"><ele>206.0</ele><time>2026-03-28T12:40:26.999Z</time></trkpt><trkpt lat="45.57750721562981" lon="10.756594272015327"><ele>206.0</ele><time>2026-03-28T12:40:27.999Z</time></trkpt><trkpt lat="45.577637185370406" lon="10.75655364934272"><ele>206.0</ele><time>2026-03-28T12:40:28.999Z</time></trkpt><trkpt lat="45.57777396046993" lon="10.756507420719668"><ele>206.0</ele><time>2026-03-28T12:40:29.999Z</time></trkpt><trkpt lat="45.57792555113758" lon="10.756451625868063"><ele>206.0</ele><time>2026-03-28T12:40:30.999Z</time></trkpt><trkpt lat="45.578074227344786" lon="10.756402731274472"><ele>205.66666666666669</ele><time>2026-03-28T12:40:31.999Z</time></trkpt><trkpt lat="45.57823775483546" lon="10.756342886804925"><ele>205.33333333333331</ele><time>2026-03-28T12:40:32.999Z</time></trkpt><trkpt lat="45.57839357574566" lon="10.756283718704726"><ele>205.0</ele><time>2026-03-28T12:40:33.999Z</time></trkpt><trkpt lat="45.578553038027266" lon="10.756227371022586"><ele>205.33333333333331</ele><time>2026-03-28T12:40:34.999Z</time></trkpt><trkpt lat="45.578710154624275" lon="10.756161176590435"><ele>205.66666666666669</ele><time>2026-03-28T12:40:35.999Z</time></trkpt><trkpt lat="45.57886136375033" lon="10.756079295293217"><ele>206.0</ele><time>2026-03-28T12:40:36.999Z</time></trkpt><trkpt lat="45.57901730025907" lon="10.755989817249997"><ele>206.66666666666669</ele><time>2026-03-28T12:40:37.999Z</time></trkpt><trkpt lat="45.57914901767068" lon="10.755893800740855"><ele>207.33333333333331</ele><time>2026-03-28T12:40:38.999Z</time></trkpt><trkpt lat="45.57928652408504" lon="10.755784808938706"><ele>208.0</ele><time>2026-03-28T12:40:39.999Z</time></trkpt><trkpt lat="45.5794196698704" lon="10.755670279953371"><ele>207.66666666666666</ele><time>2026-03-28T12:40:40.999Z</time></trkpt><trkpt lat="45.579552049562515" lon="10.755559051778251"><ele>207.33333333333331</ele><time>2026-03-28T12:40:41.999Z</time></trkpt><trkpt lat="45.579689972359255" lon="10.755444623218276"><ele>207.0</ele><time>2026-03-28T12:40:42.999Z</time></trkpt><trkpt lat="45.57981240492108" lon="10.755319801692945"><ele>207.33333333333331</ele><time>2026-03-28T12:40:43.999Z</time></trkpt><trkpt lat="45.57992976986412" lon="10.755188003733327"><ele>207.66666666666666</ele><time>2026-03-28T12:40:44.999Z</time></trkpt><trkpt lat="45.58006471059657" lon="10.755069495786255"><ele>208.0</ele><time>2026-03-28T12:40:45.999Z</time></trkpt><trkpt lat="45.58019655821827" lon="10.754947220319952"><ele>208.0</ele><time>2026-03-28T12:40:46.999Z</time></trkpt><trkpt lat="45.58032884162343" lon="10.754824651044391"><ele>208.0</ele><time>2026-03-28T12:40:47.999Z</time></trkpt><trkpt lat="45.58045972158372" lon="10.75470470388322"><ele>208.0</ele><time>2026-03-28T12:40:48.999Z</time></trkpt><trkpt lat="45.580588432108264" lon="10.75458335210286"><ele>208.0</ele><time>2026-03-28T12:40:49.999Z</time></trkpt><trkpt lat="45.580718599186696" lon="10.754458877477894"><ele>208.0</ele><time>2026-03-28T12:40:50.999Z</time></trkpt><trkpt lat="45.58084827481546" lon="10.754339492036545"><ele>208.0</ele><time>2026-03-28T12:40:51.999Z</time></trkpt><trkpt lat="45.58097787719398" lon="10.754218096646499"><ele>208.0</ele><time>2026-03-28T12:40:52.999Z</time></trkpt><trkpt lat="45.58110700334753" lon="10.754097634395698"><ele>208.0</ele><time>2026-03-28T12:40:53.999Z</time></trkpt><trkpt lat="45.581235425914976" lon="10.753975757112013"><ele>208.0</ele><time>2026-03-28T12:40:54.999Z</time></trkpt><trkpt lat="45.58136292798701" lon="10.753856128744127"><ele>208.25</ele><time>2026-03-28T12:40:55.999Z</time></trkpt><trkpt lat="45.581492986537455" lon="10.753742173823355"><ele>208.5</ele><time>2026-03-28T12:40:56.999Z</time></trkpt><trkpt lat="45.581609054207014" lon="10.753603789547281"><ele>208.75</ele><time>2026-03-28T12:40:57.999Z</time></trkpt><trkpt lat="45.581726558168654" lon="10.75354997103801"><ele>209.0</ele><time>2026-03-28T12:40:58.999Z</time></trkpt><trkpt lat="45.581832827083694" lon="10.753464095948724"><ele>209.0</ele><time>2026-03-28T12:40:59.999Z</time></trkpt><trkpt lat="45.581926672633784" lon="10.753375077124986"><ele>209.0</ele><time>2026-03-28T12:41:00.999Z</time></trkpt><trkpt lat="45.582035126869414" lon="10.753285870653466"><ele>209.0</ele><time>2026-03-28T12:41:01.999Z</time></trkpt><trkpt lat="45.58213799594267" lon="10.753195860844848"><ele>209.0</ele><time>2026-03-28T12:41:02.999Z</time></trkpt><trkpt lat="45.58222731259554" lon="10.753115214976027"><ele>209.39999999999998</ele><time>2026-03-28T12:41:03.999Z</time></trkpt><trkpt lat="45.58230330424438" lon="10.753038636533704"><ele>209.8</ele><time>2026-03-28T12:41:04.999Z</time></trkpt><trkpt lat="45.58237128440832" lon="10.75297655235091"><ele>210.2</ele><time>2026-03-28T12:41:05.999Z</time></trkpt><trkpt lat="45.58243629623315" lon="10.75294302622203"><ele>210.60000000000002</ele><time>2026-03-28T12:41:06.999Z</time></trkpt><trkpt lat="45.58253615033718" lon="10.753037307938285"><ele>211.0</ele><time>2026-03-28T12:41:08.999Z</time></trkpt><trkpt lat="45.582601694633475" lon="10.753154230755852"><ele>211.0</ele><time>2026-03-28T12:41:09.999Z</time></trkpt><trkpt lat="45.58268399896057" lon="10.753272438385801"><ele>211.0</ele><time>2026-03-28T12:41:10.999Z</time></trkpt><trkpt lat="45.58275918686091" lon="10.753423747758031"><ele>211.0</ele><time>2026-03-28T12:41:12Z</time></trkpt><trkpt lat="45.582842812194016" lon="10.753586805429155"><ele>211.0</ele><time>2026-03-28T12:41:13Z</time></trkpt><trkpt lat="45.582928857384395" lon="10.753749217082206"><ele>210.0</ele><time>2026-03-28T12:41:14Z</time></trkpt><trkpt lat="45.583021482061696" lon="10.753922492386808"><ele>209.0</ele><time>2026-03-28T12:41:15Z</time></trkpt><trkpt lat="45.58311620801765" lon="10.754093376506102"><ele>208.0</ele><time>2026-03-28T12:41:16Z</time></trkpt><trkpt lat="45.58320808516538" lon="10.754269962566251"><ele>208.5</ele><time>2026-03-28T12:41:17Z</time></trkpt><trkpt lat="45.583299100618824" lon="10.75442937394422"><ele>209.0</ele><time>2026-03-28T12:41:18Z</time></trkpt><trkpt lat="45.58338526276443" lon="10.75458274025757"><ele>209.5</ele><time>2026-03-28T12:41:19Z</time></trkpt><trkpt lat="45.58346327989076" lon="10.754723063149957"><ele>210.0</ele><time>2026-03-28T12:41:20Z</time></trkpt><trkpt lat="45.58353757437174" lon="10.75485609789338"><ele>210.0</ele><time>2026-03-28T12:41:21Z</time></trkpt><trkpt lat="45.58361387955845" lon="10.755003145209328"><ele>210.0</ele><time>2026-03-28T12:41:22Z</time></trkpt><trkpt lat="45.58366051445277" lon="10.75508330146891"><ele>210.0</ele><time>2026-03-28T12:41:23Z</time></trkpt><trkpt lat="45.58371029433534" lon="10.755202814645786"><ele>210.0</ele><time>2026-03-28T12:41:24Z</time></trkpt><trkpt lat="45.58376729327671" lon="10.75533611871191"><ele>210.0</ele><time>2026-03-28T12:41:25Z</time></trkpt><trkpt lat="45.58382088148634" lon="10.755482352938063"><ele>210.0</ele><time>2026-03-28T12:41:26Z</time></trkpt><trkpt lat="45.58387986844029" lon="10.755629220594477"><ele>210.0</ele><time>2026-03-28T12:41:27Z</time></trkpt><trkpt lat="45.583948352759954" lon="10.75577253304416"><ele>210.0</ele><time>2026-03-28T12:41:28Z</time></trkpt><trkpt lat="45.58403308071117" lon="10.755916490677516"><ele>210.0</ele><time>2026-03-28T12:41:29Z</time></trkpt><trkpt lat="45.58412190768068" lon="10.756064004071392"><ele>210.0</ele><time>2026-03-28T12:41:30Z</time></trkpt><trkpt lat="45.58420332015613" lon="10.75620639235649"><ele>210.0</ele><time>2026-03-28T12:41:31Z</time></trkpt><trkpt lat="45.58428227675588" lon="10.756332256741175"><ele>210.0</ele><time>2026-03-28T12:41:32Z</time></trkpt><trkpt lat="45.584359356191186" lon="10.75645336123891"><ele>210.0</ele><time>2026-03-28T12:41:33Z</time></trkpt><trkpt lat="45.5844352483109" lon="10.756576943620546"><ele>209.75</ele><time>2026-03-28T12:41:34Z</time></trkpt><trkpt lat="45.584517579823235" lon="10.756705690155506"><ele>209.5</ele><time>2026-03-28T12:41:35Z</time></trkpt><trkpt lat="45.58460129185682" lon="10.756830481754902"><ele>209.25</ele><time>2026-03-28T12:41:36Z</time></trkpt><trkpt lat="45.584682037451124" lon="10.756964835103457"><ele>209.0</ele><time>2026-03-28T12:41:37Z</time></trkpt><trkpt lat="45.58475320739464" lon="10.757069577726522"><ele>209.0</ele><time>2026-03-28T12:41:38Z</time></trkpt><trkpt lat="45.58482186555355" lon="10.75717362567977"><ele>209.0</ele><time>2026-03-28T12:41:39Z</time></trkpt><trkpt lat="45.58490041504155" lon="10.757244215571655"><ele>209.0</ele><time>2026-03-28T12:41:40Z</time></trkpt><trkpt lat="45.584988441757034" lon="10.757312298376057"><ele>209.0</ele><time>2026-03-28T12:41:41Z</time></trkpt><trkpt lat="45.58507172697472" lon="10.757386654332679"><ele>209.0</ele><time>2026-03-28T12:41:42Z</time></trkpt><trkpt lat="45.58514715367728" lon="10.75743997160114"><ele>209.0</ele><time>2026-03-28T12:41:43Z</time></trkpt><trkpt lat="45.58523137553649" lon="10.75747762070861"><ele>209.0</ele><time>2026-03-28T12:41:44Z</time></trkpt><trkpt lat="45.58533157171735" lon="10.757508039670572"><ele>209.0</ele><time>2026-03-28T12:41:45Z</time></trkpt><trkpt lat="45.58542539928789" lon="10.757549797607115"><ele>209.0</ele><time>2026-03-28T12:41:46Z</time></trkpt><trkpt lat="45.58550904862456" lon="10.757615503595359"><ele>209.0</ele><time>2026-03-28T12:41:47Z</time></trkpt><trkpt lat="45.585600109940614" lon="10.757694616479302"><ele>209.2</ele><time>2026-03-28T12:41:48Z</time></trkpt><trkpt lat="45.58569069617478" lon="10.757781993061052"><ele>209.39999999999998</ele><time>2026-03-28T12:41:49Z</time></trkpt><trkpt lat="45.58578325690558" lon="10.757862972777449"><ele>209.6</ele><time>2026-03-28T12:41:50Z</time></trkpt><trkpt lat="45.58587161927862" lon="10.757918637228283"><ele>209.8</ele><time>2026-03-28T12:41:51Z</time></trkpt><trkpt lat="45.58597145871127" lon="10.757959819488812"><ele>210.0</ele><time>2026-03-28T12:41:52Z</time></trkpt><trkpt lat="45.58608063136287" lon="10.75799579022477"><ele>210.0</ele><time>2026-03-28T12:41:53Z</time></trkpt><trkpt lat="45.586197694649485" lon="10.758021382821704"><ele>210.0</ele><time>2026-03-28T12:41:54Z</time></trkpt><trkpt lat="45.586311026286715" lon="10.758050577736578"><ele>210.0</ele><time>2026-03-28T12:41:55Z</time></trkpt><trkpt lat="45.58642316401473" lon="10.758075116915615"><ele>210.0</ele><time>2026-03-28T12:41:56Z</time></trkpt><trkpt lat="45.58653807537375" lon="10.758100881763438"><ele>210.0</ele><time>2026-03-28T12:41:57Z</time></trkpt><trkpt lat="45.58665281623105" lon="10.758133331863334"><ele>210.0</ele><time>2026-03-28T12:41:58Z</time></trkpt><trkpt lat="45.58676960959282" lon="10.758165487613912"><ele>210.0</ele><time>2026-03-28T12:41:59Z</time></trkpt><trkpt lat="45.58688062622821" lon="10.758198091916997"><ele>210.0</ele><time>2026-03-28T12:42:00Z</time></trkpt><trkpt lat="45.586988463951975" lon="10.758225072566093"><ele>210.2</ele><time>2026-03-28T12:42:01Z</time></trkpt><trkpt lat="45.58710236062091" lon="10.758252218258184"><ele>210.4</ele><time>2026-03-28T12:42:02Z</time></trkpt><trkpt lat="45.58720686030845" lon="10.758277480852122"><ele>210.60000000000002</ele><time>2026-03-28T12:42:03Z</time></trkpt><trkpt lat="45.58729717342552" lon="10.758305973378645"><ele>210.8</ele><time>2026-03-28T12:42:04Z</time></trkpt><trkpt lat="45.58737413749228" lon="10.75833544012714"><ele>211.0</ele><time>2026-03-28T12:42:05Z</time></trkpt><trkpt lat="45.58743379651046" lon="10.758377498708763"><ele>210.99999999999997</ele><time>2026-03-28T12:42:06Z</time></trkpt><trkpt lat="45.58748272569201" lon="10.758439999762246"><ele>211.0</ele><time>2026-03-28T12:42:07Z</time></trkpt><trkpt lat="45.587535135517484" lon="10.758515659579837"><ele>211.0</ele><time>2026-03-28T12:42:08Z</time></trkpt><trkpt lat="45.58757705216096" lon="10.758609274278482"><ele>211.0</ele><time>2026-03-28T12:42:09Z</time></trkpt><trkpt lat="45.58759850654041" lon="10.758718964210729"><ele>210.99999999999997</ele><time>2026-03-28T12:42:10Z</time></trkpt><trkpt lat="45.58759261566138" lon="10.758850577541793"><ele>211.0</ele><time>2026-03-28T12:42:11Z</time></trkpt><trkpt lat="45.587566635382686" lon="10.75901034313788"><ele>210.66666666666666</ele><time>2026-03-28T12:42:12Z</time></trkpt><trkpt lat="45.587543872539015" lon="10.75919921299849"><ele>210.33333333333331</ele><time>2026-03-28T12:42:13Z</time></trkpt><trkpt lat="45.587535339240404" lon="10.759430929755293"><ele>210.0</ele><time>2026-03-28T12:42:14Z</time></trkpt><trkpt lat="45.587533964774444" lon="10.759694753954486"><ele>210.0</ele><time>2026-03-28T12:42:15Z</time></trkpt><trkpt lat="45.58753192286398" lon="10.759962638379292"><ele>210.0</ele><time>2026-03-28T12:42:16Z</time></trkpt><trkpt lat="45.587531020113815" lon="10.760234690450359"><ele>210.0</ele><time>2026-03-28T12:42:17Z</time></trkpt><trkpt lat="45.58752993834625" lon="10.760496820611927"><ele>210.0</ele><time>2026-03-28T12:42:18Z</time></trkpt><trkpt lat="45.5875256532962" lon="10.760741575872174"><ele>210.0</ele><time>2026-03-28T12:42:19Z</time></trkpt><trkpt lat="45.587521053317886" lon="10.760971000690082"><ele>210.0</ele><time>2026-03-28T12:42:20Z</time></trkpt><trkpt lat="45.58751482412461" lon="10.761184075242912"><ele>210.25</ele><time>2026-03-28T12:42:21Z</time></trkpt><trkpt lat="45.58750564397738" lon="10.761395897285757"><ele>210.5</ele><time>2026-03-28T12:42:22Z</time></trkpt><trkpt lat="45.587485091329455" lon="10.761608215247492"><ele>210.75</ele><time>2026-03-28T12:42:23Z</time></trkpt><trkpt lat="45.587450719032276" lon="10.761817484096074"><ele>211.0</ele><time>2026-03-28T12:42:24Z</time></trkpt><trkpt lat="45.58740436507865" lon="10.762022499125038"><ele>211.33333333333331</ele><time>2026-03-28T12:42:25Z</time></trkpt><trkpt lat="45.587344888220706" lon="10.7622230240482"><ele>211.66666666666669</ele><time>2026-03-28T12:42:26Z</time></trkpt><trkpt lat="45.58727120747652" lon="10.762414252280166"><ele>212.0</ele><time>2026-03-28T12:42:27Z</time></trkpt><trkpt lat="45.58718928193259" lon="10.762586323371256"><ele>212.0</ele><time>2026-03-28T12:42:28Z</time></trkpt><trkpt lat="45.587107210282554" lon="10.762729835312665"><ele>212.0</ele><time>2026-03-28T12:42:29Z</time></trkpt><trkpt lat="45.58703733814103" lon="10.762844855170519"><ele>212.0</ele><time>2026-03-28T12:42:29.999Z</time></trkpt><trkpt lat="45.58697196198874" lon="10.76294864603235"><ele>212.0</ele><time>2026-03-28T12:42:30.999Z</time></trkpt><trkpt lat="45.58689743332372" lon="10.763048033638237"><ele>212.0</ele><time>2026-03-28T12:42:31.999Z</time></trkpt><trkpt lat="45.58680546905466" lon="10.76314959736106"><ele>212.0</ele><time>2026-03-28T12:42:32.999Z</time></trkpt><trkpt lat="45.58670048713598" lon="10.763250200959696"><ele>212.0</ele><time>2026-03-28T12:42:33.999Z</time></trkpt><trkpt lat="45.586588138694964" lon="10.763351306536778"><ele>212.0</ele><time>2026-03-28T12:42:34.999Z</time></trkpt><trkpt lat="45.586475754245654" lon="10.763464451467854"><ele>212.0</ele><time>2026-03-28T12:42:35.999Z</time></trkpt><trkpt lat="45.58636322638759" lon="10.76359075709859"><ele>212.0</ele><time>2026-03-28T12:42:36.999Z</time></trkpt><trkpt lat="45.586258008678655" lon="10.76372054955799"><ele>212.0</ele><time>2026-03-28T12:42:37.999Z</time></trkpt><trkpt lat="45.5861568782503" lon="10.763866989146972"><ele>212.0</ele><time>2026-03-28T12:42:38.999Z</time></trkpt><trkpt lat="45.586064613761955" lon="10.764007819033823"><ele>212.0</ele><time>2026-03-28T12:42:39.999Z</time></trkpt><trkpt lat="45.58597996470215" lon="10.764137669429584"><ele>212.0</ele><time>2026-03-28T12:42:40.999Z</time></trkpt><trkpt lat="45.58589024535506" lon="10.764274650615235"><ele>212.0</ele><time>2026-03-28T12:42:41.999Z</time></trkpt><trkpt lat="45.58580756361384" lon="10.764419361878423"><ele>212.0</ele><time>2026-03-28T12:42:42.999Z</time></trkpt><trkpt lat="45.58572738382175" lon="10.7645751035852"><ele>212.0</ele><time>2026-03-28T12:42:43.999Z</time></trkpt><trkpt lat="45.58565115398549" lon="10.764738095455709"><ele>212.25</ele><time>2026-03-28T12:42:44.999Z</time></trkpt><trkpt lat="45.58557585879296" lon="10.764894954067964"><ele>212.5</ele><time>2026-03-28T12:42:45.999Z</time></trkpt><trkpt lat="45.58549734715247" lon="10.76505786508768"><ele>212.75</ele><time>2026-03-28T12:42:46.999Z</time></trkpt><trkpt lat="45.58541254230643" lon="10.765225129690123"><ele>213.0</ele><time>2026-03-28T12:42:47.999Z</time></trkpt><trkpt lat="45.58532201029941" lon="10.765393648684265"><ele>213.0</ele><time>2026-03-28T12:42:48.999Z</time></trkpt><trkpt lat="45.58523028330489" lon="10.765559585923159"><ele>213.0</ele><time>2026-03-28T12:42:49.999Z</time></trkpt><trkpt lat="45.58513861902032" lon="10.765730278224238"><ele>213.0</ele><time>2026-03-28T12:42:50.999Z</time></trkpt><trkpt lat="45.58504836283415" lon="10.765893699181794"><ele>213.0</ele><time>2026-03-28T12:42:51.999Z</time></trkpt><trkpt lat="45.584962549573596" lon="10.766049699874058"><ele>213.25</ele><time>2026-03-28T12:42:52.999Z</time></trkpt><trkpt lat="45.584876224534035" lon="10.766205007437696"><ele>213.5</ele><time>2026-03-28T12:42:53.999Z</time></trkpt><trkpt lat="45.584789864396235" lon="10.76635923259334"><ele>213.75</ele><time>2026-03-28T12:42:54.999Z</time></trkpt><trkpt lat="45.58470701257582" lon="10.766515354241921"><ele>214.0</ele><time>2026-03-28T12:42:55.999Z</time></trkpt><trkpt lat="45.58461433667945" lon="10.766638431909795"><ele>214.0</ele><time>2026-03-28T12:42:56.999Z</time></trkpt><trkpt lat="45.58454168840402" lon="10.766751813392093"><ele>213.99999999999997</ele><time>2026-03-28T12:42:57.999Z</time></trkpt><trkpt lat="45.5844747492935" lon="10.76687327316364"><ele>213.99999999999997</ele><time>2026-03-28T12:42:58.999Z</time></trkpt><trkpt lat="45.58438575347702" lon="10.76696845204925"><ele>214.0</ele><time>2026-03-28T12:42:59.999Z</time></trkpt><trkpt lat="45.58429339953376" lon="10.767060737451802"><ele>214.0</ele><time>2026-03-28T12:43:00.999Z</time></trkpt><trkpt lat="45.584209267388026" lon="10.767162865669592"><ele>214.0</ele><time>2026-03-28T12:43:01.999Z</time></trkpt><trkpt lat="45.5841172468601" lon="10.767269746858693"><ele>214.0</ele><time>2026-03-28T12:43:02.999Z</time></trkpt><trkpt lat="45.58406601367833" lon="10.767440010709675"><ele>214.0</ele><time>2026-03-28T12:43:03.999Z</time></trkpt><trkpt lat="45.584014420666705" lon="10.767616048205392"><ele>214.0</ele><time>2026-03-28T12:43:04.999Z</time></trkpt><trkpt lat="45.583976984595324" lon="10.767791770590811"><ele>213.75</ele><time>2026-03-28T12:43:05.999Z</time></trkpt><trkpt lat="45.58394521703673" lon="10.7679831013138"><ele>213.5</ele><time>2026-03-28T12:43:06.999Z</time></trkpt><trkpt lat="45.58391059716494" lon="10.76819217172857"><ele>213.25</ele><time>2026-03-28T12:43:07.999Z</time></trkpt><trkpt lat="45.58388220454816" lon="10.768414969037364"><ele>213.0</ele><time>2026-03-28T12:43:08.999Z</time></trkpt><trkpt lat="45.58386725895276" lon="10.768652287808868"><ele>214.0</ele><time>2026-03-28T12:43:09.999Z</time></trkpt><trkpt lat="45.583853683534414" lon="10.768893612417509"><ele>215.0</ele><time>2026-03-28T12:43:10.999Z</time></trkpt><trkpt lat="45.58383143023048" lon="10.769117880109219"><ele>216.0</ele><time>2026-03-28T12:43:11.999Z</time></trkpt><trkpt lat="45.583810365363824" lon="10.769347951508255"><ele>217.0</ele><time>2026-03-28T12:43:12.999Z</time></trkpt><trkpt lat="45.58378518980772" lon="10.769585273625852"><ele>218.0</ele><time>2026-03-28T12:43:13.999Z</time></trkpt><trkpt lat="45.5837551398399" lon="10.769820868508276"><ele>219.0</ele><time>2026-03-28T12:43:14.999Z</time></trkpt><trkpt lat="45.58372242409031" lon="10.770052370691653"><ele>219.0</ele><time>2026-03-28T12:43:15.999Z</time></trkpt><trkpt lat="45.58369090736598" lon="10.770280398367394"><ele>219.0</ele><time>2026-03-28T12:43:16.999Z</time></trkpt><trkpt lat="45.58366694834558" lon="10.770511457861447"><ele>219.0</ele><time>2026-03-28T12:43:17.999Z</time></trkpt><trkpt lat="45.583646359098815" lon="10.770740082411242"><ele>218.66666666666669</ele><time>2026-03-28T12:43:18.999Z</time></trkpt><trkpt lat="45.583629336980046" lon="10.770966615134261"><ele>218.33333333333334</ele><time>2026-03-28T12:43:19.999Z</time></trkpt><trkpt lat="45.583615415508305" lon="10.77119475182466"><ele>218.0</ele><time>2026-03-28T12:43:20.999Z</time></trkpt><trkpt lat="45.58360263554998" lon="10.77141811651594"><ele>218.5</ele><time>2026-03-28T12:43:21.999Z</time></trkpt><trkpt lat="45.58358982635098" lon="10.771634334824352"><ele>219.0</ele><time>2026-03-28T12:43:22.999Z</time></trkpt><trkpt lat="45.583572867002665" lon="10.771842623390265"><ele>219.5</ele><time>2026-03-28T12:43:23.999Z</time></trkpt><trkpt lat="45.58354968348459" lon="10.772050889319114"><ele>220.0</ele><time>2026-03-28T12:43:25Z</time></trkpt><trkpt lat="45.58351634278371" lon="10.772253606465181"><ele>220.75</ele><time>2026-03-28T12:43:26Z</time></trkpt><trkpt lat="45.58346417834325" lon="10.772446746228331"><ele>221.5</ele><time>2026-03-28T12:43:27Z</time></trkpt><trkpt lat="45.58339842937233" lon="10.772627353286051"><ele>222.25</ele><time>2026-03-28T12:43:28Z</time></trkpt><trkpt lat="45.5833163754245" lon="10.772797835511131"><ele>223.0</ele><time>2026-03-28T12:43:29Z</time></trkpt><trkpt lat="45.5832216812372" lon="10.772957003681698"><ele>223.66666666666666</ele><time>2026-03-28T12:43:30Z</time></trkpt><trkpt lat="45.58312114161523" lon="10.773111337321382"><ele>224.33333333333331</ele><time>2026-03-28T12:43:31Z</time></trkpt><trkpt lat="45.5830105200368" lon="10.773259972099634"><ele>225.0</ele><time>2026-03-28T12:43:32Z</time></trkpt><trkpt lat="45.582894452626036" lon="10.773407026341143"><ele>225.5</ele><time>2026-03-28T12:43:33Z</time></trkpt><trkpt lat="45.58278740211143" lon="10.773558018372158"><ele>226.0</ele><time>2026-03-28T12:43:34Z</time></trkpt><trkpt lat="45.58269443531832" lon="10.773715441399295"><ele>226.5</ele><time>2026-03-28T12:43:35Z</time></trkpt><trkpt lat="45.58260604512018" lon="10.773878298147457"><ele>227.0</ele><time>2026-03-28T12:43:36Z</time></trkpt><trkpt lat="45.58254165631434" lon="10.774069860229234"><ele>227.0</ele><time>2026-03-28T12:43:37Z</time></trkpt><trkpt lat="45.58251118067028" lon="10.774276281536181"><ele>227.0</ele><time>2026-03-28T12:43:38Z</time></trkpt><trkpt lat="45.582478287342525" lon="10.77447441288128"><ele>227.0</ele><time>2026-03-28T12:43:39Z</time></trkpt><trkpt lat="45.582454964838846" lon="10.77466211061704"><ele>227.0</ele><time>2026-03-28T12:43:40Z</time></trkpt><trkpt lat="45.58244151618659" lon="10.774847584182785"><ele>227.2</ele><time>2026-03-28T12:43:41Z</time></trkpt><trkpt lat="45.582427026564034" lon="10.775025035487165"><ele>227.39999999999998</ele><time>2026-03-28T12:43:42Z</time></trkpt><trkpt lat="45.58241177921092" lon="10.775180217301042"><ele>227.60000000000002</ele><time>2026-03-28T12:43:43Z</time></trkpt><trkpt lat="45.5823986676129" lon="10.775318091505444"><ele>227.8</ele><time>2026-03-28T12:43:44Z</time></trkpt><trkpt lat="45.58238556745633" lon="10.775440108038344"><ele>228.0</ele><time>2026-03-28T12:43:45Z</time></trkpt><trkpt lat="45.582369299015795" lon="10.775547851261273"><ele>228.5</ele><time>2026-03-28T12:43:46Z</time></trkpt><trkpt lat="45.58234412496575" lon="10.775685873820583"><ele>229.0</ele><time>2026-03-28T12:43:48Z</time></trkpt><trkpt lat="45.582331481795435" lon="10.775792074800876"><ele>229.5</ele><time>2026-03-28T12:43:50Z</time></trkpt><trkpt lat="45.58229505475997" lon="10.775958916395131"><ele>230.0</ele><time>2026-03-28T12:43:52Z</time></trkpt><trkpt lat="45.58243449418663" lon="10.776112221582727"><ele>230.0</ele><time>2026-03-28T12:43:53Z</time></trkpt><trkpt lat="45.5824999980261" lon="10.776223939378854"><ele>230.0</ele><time>2026-03-28T12:43:54Z</time></trkpt><trkpt lat="45.58258177539804" lon="10.776346649190224"><ele>230.0</ele><time>2026-03-28T12:43:55Z</time></trkpt><trkpt lat="45.582664118795215" lon="10.776484133113277"><ele>230.0</ele><time>2026-03-28T12:43:56Z</time></trkpt><trkpt lat="45.58273373778365" lon="10.776624195283002"><ele>230.0</ele><time>2026-03-28T12:43:57Z</time></trkpt><trkpt lat="45.5828013091836" lon="10.776771373897278"><ele>230.0</ele><time>2026-03-28T12:43:58Z</time></trkpt><trkpt lat="45.58287620659276" lon="10.77692999746495"><ele>230.0</ele><time>2026-03-28T12:43:59Z</time></trkpt><trkpt lat="45.5829521344071" lon="10.777093770150518"><ele>230.0</ele><time>2026-03-28T12:44:00Z</time></trkpt><trkpt lat="45.58303120215528" lon="10.777260900970056"><ele>231.0</ele><time>2026-03-28T12:44:01Z</time></trkpt><trkpt lat="45.58311395015323" lon="10.777435940873387"><ele>232.0</ele><time>2026-03-28T12:44:02Z</time></trkpt><trkpt lat="45.58319954170179" lon="10.777610648749853"><ele>233.0</ele><time>2026-03-28T12:44:03Z</time></trkpt><trkpt lat="45.583281143911" lon="10.777782053159296"><ele>234.0</ele><time>2026-03-28T12:44:04Z</time></trkpt><trkpt lat="45.5833656838854" lon="10.77794571272249"><ele>234.0</ele><time>2026-03-28T12:44:05Z</time></trkpt><trkpt lat="45.58345812852997" lon="10.77810913209171"><ele>234.0</ele><time>2026-03-28T12:44:06Z</time></trkpt><trkpt lat="45.58355402123955" lon="10.778270136050908"><ele>234.0</ele><time>2026-03-28T12:44:07Z</time></trkpt><trkpt lat="45.58365856908492" lon="10.778424250663342"><ele>234.0</ele><time>2026-03-28T12:44:08Z</time></trkpt><trkpt lat="45.583777548849476" lon="10.778571392688354"><ele>237.0</ele><time>2026-03-28T12:44:09Z</time></trkpt><trkpt lat="45.58390844185905" lon="10.778711789041946"><ele>240.0</ele><time>2026-03-28T12:44:10Z</time></trkpt><trkpt lat="45.5840389860518" lon="10.778829960515546"><ele>243.0</ele><time>2026-03-28T12:44:11Z</time></trkpt><trkpt lat="45.58418065503545" lon="10.778953998633417"><ele>243.0</ele><time>2026-03-28T12:44:12Z</time></trkpt><trkpt lat="45.58433055844693" lon="10.77906845202585"><ele>243.0</ele><time>2026-03-28T12:44:13Z</time></trkpt><trkpt lat="45.58448429313624" lon="10.779174328678405"><ele>243.0</ele><time>2026-03-28T12:44:14Z</time></trkpt><trkpt lat="45.584642787726246" lon="10.779280974964808"><ele>244.0</ele><time>2026-03-28T12:44:15Z</time></trkpt><trkpt lat="45.58480004256004" lon="10.779388758798795"><ele>245.0</ele><time>2026-03-28T12:44:16Z</time></trkpt><trkpt lat="45.584957749020546" lon="10.779494643067952"><ele>246.0</ele><time>2026-03-28T12:44:17Z</time></trkpt><trkpt lat="45.585116450762406" lon="10.77960311045022"><ele>246.0</ele><time>2026-03-28T12:44:18Z</time></trkpt><trkpt lat="45.58527522215489" lon="10.779712860880474"><ele>246.0</ele><time>2026-03-28T12:44:19Z</time></trkpt><trkpt lat="45.585430128656114" lon="10.779818564400344"><ele>246.0</ele><time>2026-03-28T12:44:20Z</time></trkpt><trkpt lat="45.5855833997798" lon="10.779922700129545"><ele>245.66666666666669</ele><time>2026-03-28T12:44:21Z</time></trkpt><trkpt lat="45.585735936694526" lon="10.78002699979723"><ele>245.33333333333334</ele><time>2026-03-28T12:44:22Z</time></trkpt><trkpt lat="45.585888299283084" lon="10.780134433209103"><ele>245.0</ele><time>2026-03-28T12:44:23Z</time></trkpt><trkpt lat="45.58603962366763" lon="10.780241275147063"><ele>246.0</ele><time>2026-03-28T12:44:24Z</time></trkpt><trkpt lat="45.58619060977458" lon="10.780348250251745"><ele>247.0</ele><time>2026-03-28T12:44:25Z</time></trkpt><trkpt lat="45.586344575948736" lon="10.780455176249154"><ele>248.0</ele><time>2026-03-28T12:44:26Z</time></trkpt><trkpt lat="45.58649761064794" lon="10.780562548497082"><ele>248.0</ele><time>2026-03-28T12:44:27Z</time></trkpt><trkpt lat="45.58665002963361" lon="10.78066799294579"><ele>248.0</ele><time>2026-03-28T12:44:28Z</time></trkpt><trkpt lat="45.586800551960174" lon="10.780775279223002"><ele>248.0</ele><time>2026-03-28T12:44:29Z</time></trkpt><trkpt lat="45.58695026111317" lon="10.780884313253095"><ele>246.66666666666669</ele><time>2026-03-28T12:44:29.999Z</time></trkpt><trkpt lat="45.58709911943774" lon="10.78099450800107"><ele>245.33333333333331</ele><time>2026-03-28T12:44:30.999Z</time></trkpt><trkpt lat="45.5872443107521" lon="10.781106617239605"><ele>244.0</ele><time>2026-03-28T12:44:31.999Z</time></trkpt><trkpt lat="45.58739082438024" lon="10.781213769533109"><ele>246.66666666666666</ele><time>2026-03-28T12:44:32.999Z</time></trkpt><trkpt lat="45.587536565729906" lon="10.781323247607954"><ele>249.33333333333331</ele><time>2026-03-28T12:44:33.999Z</time></trkpt><trkpt lat="45.58768194823624" lon="10.781432100058643"><ele>252.0</ele><time>2026-03-28T12:44:34.999Z</time></trkpt><trkpt lat="45.58782397207379" lon="10.78153453861055"><ele>249.66666666666669</ele><time>2026-03-28T12:44:35.999Z</time></trkpt><trkpt lat="45.58796987803591" lon="10.781647213808965"><ele>247.33333333333334</ele><time>2026-03-28T12:44:36.999Z</time></trkpt><trkpt lat="45.588106043686544" lon="10.781751812280081"><ele>245.0</ele><time>2026-03-28T12:44:37.999Z</time></trkpt><trkpt lat="45.588227011156626" lon="10.781844713797117"><ele>246.0</ele><time>2026-03-28T12:44:38.999Z</time></trkpt><trkpt lat="45.588340273926676" lon="10.781933533584846"><ele>247.0</ele><time>2026-03-28T12:44:39.999Z</time></trkpt><trkpt lat="45.588457917820925" lon="10.782019208788894"><ele>248.0</ele><time>2026-03-28T12:44:40.999Z</time></trkpt><trkpt lat="45.58857759080724" lon="10.782112809864243"><ele>249.0</ele><time>2026-03-28T12:44:41.999Z</time></trkpt><trkpt lat="45.58869816146771" lon="10.78220557811917"><ele>249.0</ele><time>2026-03-28T12:44:42.999Z</time></trkpt><trkpt lat="45.58881238977386" lon="10.782291133004245"><ele>249.0</ele><time>2026-03-28T12:44:43.999Z</time></trkpt><trkpt lat="45.588916596854894" lon="10.782366825475993"><ele>249.0</ele><time>2026-03-28T12:44:44.999Z</time></trkpt><trkpt lat="45.58901703248206" lon="10.782436466301327"><ele>249.0</ele><time>2026-03-28T12:44:45.999Z</time></trkpt><trkpt lat="45.58910730244485" lon="10.78250014029309"><ele>249.0</ele><time>2026-03-28T12:44:46.999Z</time></trkpt><trkpt lat="45.58918677617915" lon="10.782560766967928"><ele>248.99999999999997</ele><time>2026-03-28T12:44:47.999Z</time></trkpt><trkpt lat="45.58925465872638" lon="10.782622532598443"><ele>248.99999999999997</ele><time>2026-03-28T12:44:48.999Z</time></trkpt><trkpt lat="45.58930029850069" lon="10.782692416865544"><ele>249.0</ele><time>2026-03-28T12:44:49.999Z</time></trkpt><trkpt lat="45.58934780566532" lon="10.7827817627713"><ele>249.0</ele><time>2026-03-28T12:44:51.999Z</time></trkpt><trkpt lat="45.58927252868156" lon="10.782983149932234"><ele>250.39999999999998</ele><time>2026-03-28T12:44:52.999Z</time></trkpt><trkpt lat="45.58921839678565" lon="10.783050928151917"><ele>251.79999999999998</ele><time>2026-03-28T12:44:53.999Z</time></trkpt><trkpt lat="45.58915792000193" lon="10.783156208139651"><ele>253.20000000000002</ele><time>2026-03-28T12:44:54.999Z</time></trkpt><trkpt lat="45.589093989576575" lon="10.783286666826529"><ele>254.60000000000002</ele><time>2026-03-28T12:44:55.999Z</time></trkpt><trkpt lat="45.58903301162423" lon="10.783402726357648"><ele>256.0</ele><time>2026-03-28T12:44:56.999Z</time></trkpt><trkpt lat="45.58896229493273" lon="10.783540171646884"><ele>256.40000000000003</ele><time>2026-03-28T12:44:57.999Z</time></trkpt><trkpt lat="45.58889242443117" lon="10.783678920078545"><ele>256.8</ele><time>2026-03-28T12:44:58.999Z</time></trkpt><trkpt lat="45.588825475962004" lon="10.783800540268786"><ele>257.20000000000005</ele><time>2026-03-28T12:44:59.999Z</time></trkpt><trkpt lat="45.58876167064311" lon="10.78391387869677"><ele>257.6</ele><time>2026-03-28T12:45:00.999Z</time></trkpt><trkpt lat="45.58870390742154" lon="10.784011948560321"><ele>258.0</ele><time>2026-03-28T12:45:01.999Z</time></trkpt><trkpt lat="45.58865245410957" lon="10.78410102460445"><ele>258.0</ele><time>2026-03-28T12:45:02.999Z</time></trkpt><trkpt lat="45.58860628242994" lon="10.784181820173902"><ele>258.0</ele><time>2026-03-28T12:45:03.999Z</time></trkpt><trkpt lat="45.588544908043055" lon="10.784287735155186"><ele>258.0</ele><time>2026-03-28T12:45:05.999Z</time></trkpt><trkpt lat="45.58849298018922" lon="10.784381615013006"><ele>258.0</ele><time>2026-03-28T12:45:08.999Z</time></trkpt><trkpt lat="45.58857537468936" lon="10.784540482083157"><ele>258.0</ele><time>2026-03-28T12:45:11.999Z</time></trkpt><trkpt lat="45.588645019912114" lon="10.7846088380139"><ele>258.6</ele><time>2026-03-28T12:45:12.999Z</time></trkpt><trkpt lat="45.588745689244135" lon="10.784657711779094"><ele>259.20000000000005</ele><time>2026-03-28T12:45:13.999Z</time></trkpt><trkpt lat="45.5888411373819" lon="10.784717268820255"><ele>259.8</ele><time>2026-03-28T12:45:14.999Z</time></trkpt><trkpt lat="45.58893574327082" lon="10.784784926112172"><ele>260.40000000000003</ele><time>2026-03-28T12:45:15.999Z</time></trkpt><trkpt lat="45.58901259436505" lon="10.78489317762811"><ele>261.0</ele><time>2026-03-28T12:45:16.999Z</time></trkpt><trkpt lat="45.58909963155632" lon="10.784998651793458"><ele>261.0</ele><time>2026-03-28T12:45:17.999Z</time></trkpt><trkpt lat="45.58919367902989" lon="10.785114287908696"><ele>261.0</ele><time>2026-03-28T12:45:18.999Z</time></trkpt><trkpt lat="45.58929252744635" lon="10.78523477769356"><ele>261.0</ele><time>2026-03-28T12:45:19.999Z</time></trkpt><trkpt lat="45.5893995388308" lon="10.785336759200094"><ele>261.0</ele><time>2026-03-28T12:45:20.999Z</time></trkpt><trkpt lat="45.589492971039604" lon="10.785453293573346"><ele>262.0</ele><time>2026-03-28T12:45:21.999Z</time></trkpt><trkpt lat="45.58958108639007" lon="10.785571281544588"><ele>263.0</ele><time>2026-03-28T12:45:22.999Z</time></trkpt><trkpt lat="45.58966645132077" lon="10.785694304727931"><ele>264.0</ele><time>2026-03-28T12:45:23.999Z</time></trkpt><trkpt lat="45.58976196274407" lon="10.785796395009108"><ele>265.0</ele><time>2026-03-28T12:45:24.999Z</time></trkpt><trkpt lat="45.5898543634945" lon="10.785889138264006"><ele>265.0</ele><time>2026-03-28T12:45:25.999Z</time></trkpt><trkpt lat="45.58995058077575" lon="10.785978201782369"><ele>265.0</ele><time>2026-03-28T12:45:26.999Z</time></trkpt><trkpt lat="45.59005162988015" lon="10.786072321254379"><ele>265.0</ele><time>2026-03-28T12:45:27.999Z</time></trkpt><trkpt lat="45.59015137532201" lon="10.786168895612045"><ele>265.0</ele><time>2026-03-28T12:45:28.999Z</time></trkpt><trkpt lat="45.59024794639106" lon="10.786270015181934"><ele>265.5</ele><time>2026-03-28T12:45:29.999Z</time></trkpt><trkpt lat="45.5903470767886" lon="10.78637900761639"><ele>266.0</ele><time>2026-03-28T12:45:30.999Z</time></trkpt><trkpt lat="45.59044437145318" lon="10.786489349457659"><ele>266.5</ele><time>2026-03-28T12:45:31.999Z</time></trkpt><trkpt lat="45.590538222324604" lon="10.786605470220987"><ele>267.0</ele><time>2026-03-28T12:45:32.999Z</time></trkpt><trkpt lat="45.59062799908026" lon="10.786715508682034"><ele>267.0</ele><time>2026-03-28T12:45:33.999Z</time></trkpt><trkpt lat="45.590718472574224" lon="10.7868339861612"><ele>267.0</ele><time>2026-03-28T12:45:34.999Z</time></trkpt><trkpt lat="45.590813545949075" lon="10.786950460615834"><ele>267.0</ele><time>2026-03-28T12:45:35.999Z</time></trkpt><trkpt lat="45.5909032807905" lon="10.787068106631054"><ele>267.0</ele><time>2026-03-28T12:45:36.999Z</time></trkpt><trkpt lat="45.590993919046866" lon="10.787185823982664"><ele>268.0</ele><time>2026-03-28T12:45:37.999Z</time></trkpt><trkpt lat="45.591094754397496" lon="10.78731326541628"><ele>269.0</ele><time>2026-03-28T12:45:38.999Z</time></trkpt><trkpt lat="45.5911988613739" lon="10.78744456321146"><ele>270.0</ele><time>2026-03-28T12:45:39.999Z</time></trkpt><trkpt lat="45.59129890357475" lon="10.787570618899817"><ele>271.0</ele><time>2026-03-28T12:45:40.999Z</time></trkpt><trkpt lat="45.591391954799896" lon="10.787683725184893"><ele>271.25</ele><time>2026-03-28T12:45:41.999Z</time></trkpt><trkpt lat="45.5914835781424" lon="10.787790701207369"><ele>271.5</ele><time>2026-03-28T12:45:43Z</time></trkpt><trkpt lat="45.59157098540895" lon="10.78792993121809"><ele>271.75</ele><time>2026-03-28T12:45:44Z</time></trkpt><trkpt lat="45.59168455164546" lon="10.788035479785929"><ele>272.0</ele><time>2026-03-28T12:45:45Z</time></trkpt><trkpt lat="45.591797855398674" lon="10.788161707303574"><ele>272.0</ele><time>2026-03-28T12:45:46Z</time></trkpt><trkpt lat="45.59192098571211" lon="10.788285137986524"><ele>272.0</ele><time>2026-03-28T12:45:47Z</time></trkpt><trkpt lat="45.59203038449509" lon="10.788398292016007"><ele>272.0</ele><time>2026-03-28T12:45:48Z</time></trkpt><trkpt lat="45.5921193136257" lon="10.788504918172986"><ele>272.0</ele><time>2026-03-28T12:45:49Z</time></trkpt><trkpt lat="45.59219929224983" lon="10.788616681985328"><ele>272.1666666666667</ele><time>2026-03-28T12:45:50Z</time></trkpt><trkpt lat="45.59225563843992" lon="10.788735947586538"><ele>272.33333333333337</ele><time>2026-03-28T12:45:51Z</time></trkpt><trkpt lat="45.59232931296794" lon="10.788806477583462"><ele>272.5</ele><time>2026-03-28T12:45:52Z</time></trkpt><trkpt lat="45.59239495500702" lon="10.788853783603907"><ele>272.6666666666667</ele><time>2026-03-28T12:45:53Z</time></trkpt><trkpt lat="45.59249057643416" lon="10.788895059749073"><ele>272.8333333333333</ele><time>2026-03-28T12:45:54Z</time></trkpt><trkpt lat="45.592552812125234" lon="10.788978429833683"><ele>273.0</ele><time>2026-03-28T12:45:55Z</time></trkpt><trkpt lat="45.59261461790948" lon="10.789059467326197"><ele>273.0</ele><time>2026-03-28T12:45:56Z</time></trkpt><trkpt lat="45.5926832214924" lon="10.789150883816841"><ele>273.0</ele><time>2026-03-28T12:45:57Z</time></trkpt><trkpt lat="45.59276109952754" lon="10.78924912278348"><ele>273.0</ele><time>2026-03-28T12:45:58Z</time></trkpt><trkpt lat="45.59285227278523" lon="10.7893621385653"><ele>273.0</ele><time>2026-03-28T12:45:59Z</time></trkpt><trkpt lat="45.59292671662749" lon="10.78945616446196"><ele>273.0</ele><time>2026-03-28T12:46:00Z</time></trkpt><trkpt lat="45.59299234131279" lon="10.789509510818146"><ele>274.0</ele><time>2026-03-28T12:46:01Z</time></trkpt><trkpt lat="45.593061133230975" lon="10.789638144301442"><ele>275.0</ele><time>2026-03-28T12:46:03Z</time></trkpt><trkpt lat="45.593027486392515" lon="10.789754491823237"><ele>276.0</ele><time>2026-03-28T12:46:05Z</time></trkpt><trkpt lat="45.59296991751021" lon="10.789821237264904"><ele>277.0</ele><time>2026-03-28T12:46:07Z</time></trkpt><trkpt lat="45.59295571647489" lon="10.790285348818697"><ele>277.4</ele><time>2026-03-28T12:46:09Z</time></trkpt><trkpt lat="45.59301691825857" lon="10.790365909241679"><ele>277.79999999999995</ele><time>2026-03-28T12:46:10Z</time></trkpt><trkpt lat="45.59308214999955" lon="10.790451774322426"><ele>278.2</ele><time>2026-03-28T12:46:11Z</time></trkpt><trkpt lat="45.593143818628185" lon="10.790532949221019"><ele>278.59999999999997</ele><time>2026-03-28T12:46:12Z</time></trkpt><trkpt lat="45.59320670186165" lon="10.790620985290058"><ele>279.0</ele><time>2026-03-28T12:46:14Z</time></trkpt><trkpt lat="45.593498600949616" lon="10.790452873992908"><ele>279.0</ele><time>2026-03-28T12:46:15Z</time></trkpt><trkpt lat="45.59354847146605" lon="10.790374928501944"><ele>279.0</ele><time>2026-03-28T12:46:17Z</time></trkpt><trkpt lat="45.593591763629306" lon="10.790291658176695"><ele>279.0</ele><time>2026-03-28T12:46:19Z</time></trkpt><trkpt lat="45.59355218134254" lon="10.790367792718362"><ele>279.0</ele><time>2026-03-28T12:46:38Z</time></trkpt><trkpt lat="45.59350744808393" lon="10.790453834871135"><ele>279.0</ele><time>2026-03-28T12:46:42Z</time></trkpt><trkpt lat="45.59345733619086" lon="10.790547215645107"><ele>279.0</ele><time>2026-03-28T12:47:08Z</time></trkpt><trkpt lat="45.593407013202636" lon="10.790638121076684"><ele>279.0</ele><time>2026-03-28T12:47:10Z</time></trkpt><trkpt lat="45.59336323049783" lon="10.790720942180172"><ele>279.0</ele><time>2026-03-28T12:47:12Z</time></trkpt><trkpt lat="45.593513230876994" lon="10.790762656817469"><ele>279.0</ele><time>2026-03-28T12:47:16Z</time></trkpt><trkpt lat="45.593597853092675" lon="10.790867466775993"><ele>279.0</ele><time>2026-03-28T12:47:17Z</time></trkpt><trkpt lat="45.59364116131839" lon="10.791222136420027"><ele>279.5</ele><time>2026-03-28T12:47:19Z</time></trkpt><trkpt lat="45.59369609080288" lon="10.791290840177355"><ele>280.0</ele><time>2026-03-28T12:47:20Z</time></trkpt><trkpt lat="45.59378969628047" lon="10.791416030036386"><ele>280.5</ele><time>2026-03-28T12:47:22Z</time></trkpt><trkpt lat="45.593838846081894" lon="10.791491053678095"><ele>281.0</ele><time>2026-03-28T12:47:23Z</time></trkpt><trkpt lat="45.593884913211355" lon="10.791571502491749"><ele>281.5</ele><time>2026-03-28T12:47:24Z</time></trkpt><trkpt lat="45.59392367860704" lon="10.791666603189686"><ele>282.0</ele><time>2026-03-28T12:47:25Z</time></trkpt><trkpt lat="45.593963884703115" lon="10.791779125122629"><ele>282.8</ele><time>2026-03-28T12:47:26Z</time></trkpt><trkpt lat="45.59400346856977" lon="10.791905191973182"><ele>283.6</ele><time>2026-03-28T12:47:27Z</time></trkpt><trkpt lat="45.5940446298446" lon="10.792014203691226"><ele>284.40000000000003</ele><time>2026-03-28T12:47:28Z</time></trkpt><trkpt lat="45.59410499961961" lon="10.792120118871368"><ele>285.2</ele><time>2026-03-28T12:47:29Z</time></trkpt><trkpt lat="45.59417917650978" lon="10.792211848735414"><ele>286.0</ele><time>2026-03-28T12:47:30Z</time></trkpt><trkpt lat="45.59424811818599" lon="10.792279165272861"><ele>286.0</ele><time>2026-03-28T12:47:31Z</time></trkpt><trkpt lat="45.59431563334721" lon="10.792352061132034"><ele>286.0</ele><time>2026-03-28T12:47:32Z</time></trkpt><trkpt lat="45.594365190892006" lon="10.792435524709031"><ele>286.0</ele><time>2026-03-28T12:47:33Z</time></trkpt><trkpt lat="45.594418625250675" lon="10.792525579438799"><ele>286.0</ele><time>2026-03-28T12:47:34Z</time></trkpt><trkpt lat="45.59446658231982" lon="10.792601520512642"><ele>286.0</ele><time>2026-03-28T12:47:35Z</time></trkpt><trkpt lat="45.59453087104458" lon="10.792702665978808"><ele>286.0</ele><time>2026-03-28T12:47:36Z</time></trkpt><trkpt lat="45.59458271312603" lon="10.79280331842366"><ele>285.8333333333333</ele><time>2026-03-28T12:47:37Z</time></trkpt><trkpt lat="45.59463773758414" lon="10.792899747156596"><ele>285.66666666666663</ele><time>2026-03-28T12:47:38Z</time></trkpt><trkpt lat="45.59469276311642" lon="10.792999307868328"><ele>285.5</ele><time>2026-03-28T12:47:39Z</time></trkpt><trkpt lat="45.59474336347157" lon="10.79310263137982"><ele>285.3333333333333</ele><time>2026-03-28T12:47:40Z</time></trkpt><trkpt lat="45.59477482292897" lon="10.79320633184118"><ele>285.1666666666667</ele><time>2026-03-28T12:47:41Z</time></trkpt><trkpt lat="45.59482953426817" lon="10.793306082694322"><ele>285.0</ele><time>2026-03-28T12:47:42Z</time></trkpt><trkpt lat="45.59487995923726" lon="10.793391989551832"><ele>285.0</ele><time>2026-03-28T12:47:43Z</time></trkpt><trkpt lat="45.59494411325682" lon="10.793483109865667"><ele>285.0</ele><time>2026-03-28T12:47:44Z</time></trkpt><trkpt lat="45.59502583753055" lon="10.79358038284743"><ele>285.0</ele><time>2026-03-28T12:47:45Z</time></trkpt><trkpt lat="45.59509877573419" lon="10.793667864924364"><ele>285.0</ele><time>2026-03-28T12:47:46Z</time></trkpt><trkpt lat="45.59517072534762" lon="10.79374740451212"><ele>285.0</ele><time>2026-03-28T12:47:47Z</time></trkpt><trkpt lat="45.595227772326865" lon="10.793819868725459"><ele>284.8333333333333</ele><time>2026-03-28T12:47:48Z</time></trkpt><trkpt lat="45.595273652892644" lon="10.793892101394173"><ele>284.6666666666667</ele><time>2026-03-28T12:47:49Z</time></trkpt><trkpt lat="45.595321983287185" lon="10.793952304959165"><ele>284.5</ele><time>2026-03-28T12:47:50Z</time></trkpt><trkpt lat="45.59537419929497" lon="10.794029971423438"><ele>284.33333333333337</ele><time>2026-03-28T12:47:51Z</time></trkpt><trkpt lat="45.595436506763335" lon="10.794137737446004"><ele>284.1666666666667</ele><time>2026-03-28T12:47:52Z</time></trkpt><trkpt lat="45.59549037316452" lon="10.794214594300383"><ele>284.0</ele><time>2026-03-28T12:47:53Z</time></trkpt><trkpt lat="45.59556183505379" lon="10.794340063557927"><ele>284.0</ele><time>2026-03-28T12:47:55Z</time></trkpt><trkpt lat="45.595620179063964" lon="10.794407582122595"><ele>284.0</ele><time>2026-03-28T12:47:57Z</time></trkpt><trkpt lat="45.59568684747482" lon="10.794444359727054"><ele>284.0</ele><time>2026-03-28T12:47:58Z</time></trkpt><trkpt lat="45.59578325327486" lon="10.7945153089357"><ele>284.0</ele><time>2026-03-28T12:47:59Z</time></trkpt><trkpt lat="45.59587187888219" lon="10.794492627385688"><ele>284.0</ele><time>2026-03-28T12:48:00Z</time></trkpt><trkpt lat="45.59595988560961" lon="10.794471590101878"><ele>284.0</ele><time>2026-03-28T12:48:01Z</time></trkpt><trkpt lat="45.59605670570736" lon="10.794448446054279"><ele>284.0</ele><time>2026-03-28T12:48:02Z</time></trkpt><trkpt lat="45.596146639357386" lon="10.794409229688737"><ele>284.0</ele><time>2026-03-28T12:48:03Z</time></trkpt><trkpt lat="45.59622842179734" lon="10.794401460787796"><ele>284.0</ele><time>2026-03-28T12:48:04Z</time></trkpt><trkpt lat="45.59631243408992" lon="10.794375868383002"><ele>284.0</ele><time>2026-03-28T12:48:05Z</time></trkpt><trkpt lat="45.596406747798405" lon="10.794377064122818"><ele>284.0</ele><time>2026-03-28T12:48:06Z</time></trkpt><trkpt lat="45.596497312152835" lon="10.794355915416798"><ele>284.0</ele><time>2026-03-28T12:48:07Z</time></trkpt><trkpt lat="45.59658245937861" lon="10.794313054956087"><ele>282.33333333333337</ele><time>2026-03-28T12:48:08Z</time></trkpt><trkpt lat="45.59665827656074" lon="10.794309103352104"><ele>280.6666666666667</ele><time>2026-03-28T12:48:09Z</time></trkpt><trkpt lat="45.59674141353308" lon="10.794297473513563"><ele>279.0</ele><time>2026-03-28T12:48:10Z</time></trkpt><trkpt lat="45.59682239514911" lon="10.794283597399312"><ele>277.3333333333333</ele><time>2026-03-28T12:48:11Z</time></trkpt><trkpt lat="45.596899439292386" lon="10.794274696077967"><ele>275.66666666666663</ele><time>2026-03-28T12:48:12Z</time></trkpt><trkpt lat="45.59698308914173" lon="10.794286550728643"><ele>274.0</ele><time>2026-03-28T12:48:13Z</time></trkpt><trkpt lat="45.59706270913281" lon="10.794286263425532"><ele>272.66666666666663</ele><time>2026-03-28T12:48:14Z</time></trkpt><trkpt lat="45.59714428077914" lon="10.79429583307963"><ele>271.3333333333333</ele><time>2026-03-28T12:48:15Z</time></trkpt><trkpt lat="45.59722098263891" lon="10.794312806339379"><ele>270.0</ele><time>2026-03-28T12:48:16Z</time></trkpt><trkpt lat="45.59730377104093" lon="10.794364266280002"><ele>268.6666666666667</ele><time>2026-03-28T12:48:17Z</time></trkpt><trkpt lat="45.597389731198014" lon="10.794425234198876"><ele>267.33333333333337</ele><time>2026-03-28T12:48:18Z</time></trkpt><trkpt lat="45.59747098697135" lon="10.794511134907884"><ele>266.0</ele><time>2026-03-28T12:48:19Z</time></trkpt><trkpt lat="45.59756780337227" lon="10.794588412001856"><ele>266.0</ele><time>2026-03-28T12:48:20Z</time></trkpt><trkpt lat="45.59767603669969" lon="10.7946567699815"><ele>266.0</ele><time>2026-03-28T12:48:21Z</time></trkpt><trkpt lat="45.59777931053593" lon="10.79469540235983"><ele>266.0</ele><time>2026-03-28T12:48:22Z</time></trkpt><trkpt lat="45.597872715051516" lon="10.794752945283445"><ele>266.0</ele><time>2026-03-28T12:48:23Z</time></trkpt><trkpt lat="45.59795666575432" lon="10.794806177305128"><ele>266.0</ele><time>2026-03-28T12:48:24Z</time></trkpt><trkpt lat="45.59803219427276" lon="10.794852907789288"><ele>264.6</ele><time>2026-03-28T12:48:25Z</time></trkpt><trkpt lat="45.59808993899307" lon="10.794909788170287"><ele>263.20000000000005</ele><time>2026-03-28T12:48:26Z</time></trkpt><trkpt lat="45.59813750723729" lon="10.794972639342557"><ele>261.79999999999995</ele><time>2026-03-28T12:48:27Z</time></trkpt><trkpt lat="45.59821246270637" lon="10.795089397120714"><ele>260.4</ele><time>2026-03-28T12:48:29Z</time></trkpt><trkpt lat="45.598175517831145" lon="10.795247029291374"><ele>259.0</ele><time>2026-03-28T12:48:32Z</time></trkpt><trkpt lat="45.598077763523214" lon="10.79532836124941"><ele>259.0</ele><time>2026-03-28T12:48:34Z</time></trkpt><trkpt lat="45.597974739960364" lon="10.795349800234222"><ele>259.0</ele><time>2026-03-28T12:48:36Z</time></trkpt><trkpt lat="45.59783411035462" lon="10.795361807269362"><ele>259.0</ele><time>2026-03-28T12:48:38Z</time></trkpt><trkpt lat="45.59776433392962" lon="10.795367955535534"><ele>259.0</ele><time>2026-03-28T12:48:39Z</time></trkpt><trkpt lat="45.5976925107467" lon="10.79538261501844"><ele>259.0</ele><time>2026-03-28T12:48:40Z</time></trkpt><trkpt lat="45.59761901813696" lon="10.795407766789847"><ele>261.5</ele><time>2026-03-28T12:48:41Z</time></trkpt><trkpt lat="45.59754496998146" lon="10.795430005624311"><ele>264.0</ele><time>2026-03-28T12:48:42Z</time></trkpt><trkpt lat="45.597466025124" lon="10.795467687231136"><ele>266.5</ele><time>2026-03-28T12:48:43Z</time></trkpt><trkpt lat="45.59739822104861" lon="10.795521326241102"><ele>269.0</ele><time>2026-03-28T12:48:44Z</time></trkpt><trkpt lat="45.59734526399359" lon="10.795591702852361"><ele>271.5</ele><time>2026-03-28T12:48:45Z</time></trkpt><trkpt lat="45.59728911324939" lon="10.795666911321105"><ele>274.0</ele><time>2026-03-28T12:48:46Z</time></trkpt><trkpt lat="45.597224117928626" lon="10.795761854079009"><ele>274.0</ele><time>2026-03-28T12:48:47Z</time></trkpt><trkpt lat="45.59716247151497" lon="10.795872051220677"><ele>274.0</ele><time>2026-03-28T12:48:48Z</time></trkpt><trkpt lat="45.597111880180464" lon="10.795976178834165"><ele>274.0</ele><time>2026-03-28T12:48:49Z</time></trkpt><trkpt lat="45.597074104230266" lon="10.796089284074267"><ele>274.0</ele><time>2026-03-28T12:48:50Z</time></trkpt><trkpt lat="45.59701451962144" lon="10.796215579186587"><ele>274.0</ele><time>2026-03-28T12:48:51Z</time></trkpt><trkpt lat="45.59696516565723" lon="10.796338801777928"><ele>275.0</ele><time>2026-03-28T12:48:52Z</time></trkpt><trkpt lat="45.59691470334349" lon="10.796469513892845"><ele>276.0</ele><time>2026-03-28T12:48:53Z</time></trkpt><trkpt lat="45.59687379889322" lon="10.796577855001106"><ele>277.0</ele><time>2026-03-28T12:48:54Z</time></trkpt><trkpt lat="45.59681908842695" lon="10.796674646465734"><ele>278.0</ele><time>2026-03-28T12:48:55Z</time></trkpt><trkpt lat="45.59678218771783" lon="10.796769483141805"><ele>279.0</ele><time>2026-03-28T12:48:56Z</time></trkpt><trkpt lat="45.59672313071314" lon="10.79692126231992"><ele>281.0</ele><time>2026-03-28T12:48:58Z</time></trkpt><trkpt lat="45.596813541692036" lon="10.79718362218046"><ele>283.0</ele><time>2026-03-28T12:49:00Z</time></trkpt><trkpt lat="45.59682350503384" lon="10.797285988551987"><ele>285.0</ele><time>2026-03-28T12:49:01Z</time></trkpt><trkpt lat="45.59683941651412" lon="10.797438306586765"><ele>287.0</ele><time>2026-03-28T12:49:03Z</time></trkpt><trkpt lat="45.59685841545927" lon="10.797535664147949"><ele>287.33333333333337</ele><time>2026-03-28T12:49:05Z</time></trkpt><trkpt lat="45.596888434582894" lon="10.797689563073517"><ele>287.6666666666667</ele><time>2026-03-28T12:49:07Z</time></trkpt><trkpt lat="45.59688670015167" lon="10.797786340540814"><ele>288.0</ele><time>2026-03-28T12:49:08Z</time></trkpt><trkpt lat="45.59686303394561" lon="10.797896249865445"><ele>288.3333333333333</ele><time>2026-03-28T12:49:09Z</time></trkpt><trkpt lat="45.59684923923106" lon="10.798003634158938"><ele>288.66666666666663</ele><time>2026-03-28T12:49:10Z</time></trkpt><trkpt lat="45.59681047679899" lon="10.798152578200792"><ele>289.0</ele><time>2026-03-28T12:49:12Z</time></trkpt><trkpt lat="45.59677610538413" lon="10.798309540596103"><ele>289.0</ele><time>2026-03-28T12:49:14Z</time></trkpt><trkpt lat="45.596745628288744" lon="10.798459265046976"><ele>289.0</ele><time>2026-03-28T12:49:16Z</time></trkpt><trkpt lat="45.596717020680316" lon="10.7985960810241"><ele>289.0</ele><time>2026-03-28T12:49:18Z</time></trkpt><trkpt lat="45.59669475476078" lon="10.798681388735599"><ele>289.0</ele><time>2026-03-28T12:49:19Z</time></trkpt><trkpt lat="45.596645042885804" lon="10.798829177461213"><ele>289.0</ele><time>2026-03-28T12:49:21Z</time></trkpt><trkpt lat="45.59658675854783" lon="10.798967284234092"><ele>289.59999999999997</ele><time>2026-03-28T12:49:23Z</time></trkpt><trkpt lat="45.59653567645325" lon="10.799121483432828"><ele>290.2</ele><time>2026-03-28T12:49:25Z</time></trkpt><trkpt lat="45.596496662991136" lon="10.799197094958126"><ele>290.79999999999995</ele><time>2026-03-28T12:49:26Z</time></trkpt><trkpt lat="45.59642490242986" lon="10.7992725643602"><ele>291.4</ele><time>2026-03-28T12:49:27Z</time></trkpt><trkpt lat="45.596358952414896" lon="10.799362255780883"><ele>292.0</ele><time>2026-03-28T12:49:28Z</time></trkpt><trkpt lat="45.59629574062478" lon="10.799489037449122"><ele>292.8333333333333</ele><time>2026-03-28T12:49:29Z</time></trkpt><trkpt lat="45.59624597209386" lon="10.799601782511935"><ele>293.66666666666663</ele><time>2026-03-28T12:49:30Z</time></trkpt><trkpt lat="45.59620032496466" lon="10.799687073466973"><ele>294.5</ele><time>2026-03-28T12:49:31Z</time></trkpt><trkpt lat="45.5961390435936" lon="10.79976165651642"><ele>295.3333333333333</ele><time>2026-03-28T12:49:32Z</time></trkpt><trkpt lat="45.59606358793753" lon="10.799827883450664"><ele>296.1666666666667</ele><time>2026-03-28T12:49:33Z</time></trkpt><trkpt lat="45.595976801222015" lon="10.799890255246414"><ele>297.0</ele><time>2026-03-28T12:49:34Z</time></trkpt><trkpt lat="45.59587470036214" lon="10.799975998730241"><ele>298.8</ele><time>2026-03-28T12:49:35Z</time></trkpt><trkpt lat="45.59576978204736" lon="10.8000399508169"><ele>300.6</ele><time>2026-03-28T12:49:36Z</time></trkpt><trkpt lat="45.595680238511115" lon="10.800102881321243"><ele>302.40000000000003</ele><time>2026-03-28T12:49:37Z</time></trkpt><trkpt lat="45.59559499265594" lon="10.800160442342557"><ele>304.2</ele><time>2026-03-28T12:49:38Z</time></trkpt><trkpt lat="45.59550970871181" lon="10.800208839917456"><ele>306.0</ele><time>2026-03-28T12:49:39Z</time></trkpt><trkpt lat="45.59544401958962" lon="10.800254253923308"><ele>306.40000000000003</ele><time>2026-03-28T12:49:40Z</time></trkpt><trkpt lat="45.59537722166336" lon="10.800266318256275"><ele>306.8</ele><time>2026-03-28T12:49:41Z</time></trkpt><trkpt lat="45.595280031370415" lon="10.80041253597938"><ele>307.20000000000005</ele><time>2026-03-28T12:49:43Z</time></trkpt><trkpt lat="45.59522086507858" lon="10.800566369924988"><ele>307.6</ele><time>2026-03-28T12:49:45Z</time></trkpt><trkpt lat="45.59520678015613" lon="10.800655392535317"><ele>308.0</ele><time>2026-03-28T12:49:46Z</time></trkpt><trkpt lat="45.595204755649746" lon="10.800767688941706"><ele>307.42857142857144</ele><time>2026-03-28T12:49:47Z</time></trkpt><trkpt lat="45.59522223398287" lon="10.800885156441929"><ele>306.8571428571429</ele><time>2026-03-28T12:49:48Z</time></trkpt><trkpt lat="45.595244398974806" lon="10.800997713517155"><ele>306.2857142857143</ele><time>2026-03-28T12:49:49Z</time></trkpt><trkpt lat="45.595264302674906" lon="10.801091151316696"><ele>305.7142857142857</ele><time>2026-03-28T12:49:50Z</time></trkpt><trkpt lat="45.59528582966743" lon="10.801192209665517"><ele>305.14285714285717</ele><time>2026-03-28T12:49:51Z</time></trkpt><trkpt lat="45.595305926435245" lon="10.80128718146036"><ele>304.57142857142856</ele><time>2026-03-28T12:49:52Z</time></trkpt><trkpt lat="45.59532452312184" lon="10.801375258542215"><ele>304.0</ele><time>2026-03-28T12:49:53Z</time></trkpt><trkpt lat="45.59535000728975" lon="10.801540143406177"><ele>301.59999999999997</ele><time>2026-03-28T12:49:55Z</time></trkpt><trkpt lat="45.59533656452534" lon="10.80163784874271"><ele>299.2</ele><time>2026-03-28T12:49:56Z</time></trkpt><trkpt lat="45.59528584510675" lon="10.801717520313826"><ele>296.79999999999995</ele><time>2026-03-28T12:49:57Z</time></trkpt><trkpt lat="45.59526465293913" lon="10.801822715965411"><ele>294.4</ele><time>2026-03-28T12:49:58Z</time></trkpt><trkpt lat="45.595259040948804" lon="10.801988475884643"><ele>292.0</ele><time>2026-03-28T12:50:00Z</time></trkpt><trkpt lat="45.595298599413816" lon="10.802140022804084"><ele>294.5</ele><time>2026-03-28T12:50:02Z</time></trkpt><trkpt lat="45.5953832684278" lon="10.802239447019282"><ele>297.0</ele><time>2026-03-28T12:50:04Z</time></trkpt><trkpt lat="45.59545668901873" lon="10.802212579802646"><ele>299.5</ele><time>2026-03-28T12:50:05Z</time></trkpt><trkpt lat="45.59552335142971" lon="10.80218101716572"><ele>302.0</ele><time>2026-03-28T12:50:06Z</time></trkpt><trkpt lat="45.595604917141074" lon="10.802141166804708"><ele>304.5</ele><time>2026-03-28T12:50:07Z</time></trkpt><trkpt lat="45.59568621645739" lon="10.802103562613016"><ele>307.0</ele><time>2026-03-28T12:50:08Z</time></trkpt><trkpt lat="45.59576489770707" lon="10.80208812935033"><ele>306.99999999999994</ele><time>2026-03-28T12:50:09Z</time></trkpt><trkpt lat="45.59583786001685" lon="10.802081135633484"><ele>307.0</ele><time>2026-03-28T12:50:10Z</time></trkpt><trkpt lat="45.59590171821824" lon="10.802102851987513"><ele>307.0</ele><time>2026-03-28T12:50:11Z</time></trkpt><trkpt lat="45.59596223753483" lon="10.80213012690517"><ele>307.0</ele><time>2026-03-28T12:50:12Z</time></trkpt><trkpt lat="45.59602396555233" lon="10.80217355369217"><ele>307.0</ele><time>2026-03-28T12:50:13Z</time></trkpt><trkpt lat="45.59608470334644" lon="10.80220434873853"><ele>306.99999999999994</ele><time>2026-03-28T12:50:14Z</time></trkpt><trkpt lat="45.59612538156311" lon="10.802281428275352"><ele>307.0</ele><time>2026-03-28T12:50:15Z</time></trkpt><trkpt lat="45.596164910360066" lon="10.802372671756679"><ele>306.4</ele><time>2026-03-28T12:50:16Z</time></trkpt><trkpt lat="45.59622215577999" lon="10.802490347964632"><ele>305.79999999999995</ele><time>2026-03-28T12:50:17Z</time></trkpt><trkpt lat="45.59625009216812" lon="10.802622726259619"><ele>305.2</ele><time>2026-03-28T12:50:18Z</time></trkpt><trkpt lat="45.59629803206363" lon="10.802721066931777"><ele>304.59999999999997</ele><time>2026-03-28T12:50:19Z</time></trkpt><trkpt lat="45.59632839713908" lon="10.802857913168161"><ele>304.0</ele><time>2026-03-28T12:50:20Z</time></trkpt><trkpt lat="45.59635507009509" lon="10.802968934694631"><ele>303.7142857142857</ele><time>2026-03-28T12:50:21Z</time></trkpt><trkpt lat="45.59638254031493" lon="10.803060901882748"><ele>303.42857142857144</ele><time>2026-03-28T12:50:22Z</time></trkpt><trkpt lat="45.596387700787716" lon="10.803160014002358"><ele>303.14285714285717</ele><time>2026-03-28T12:50:23Z</time></trkpt><trkpt lat="45.596406407857984" lon="10.803253737202965"><ele>302.8571428571429</ele><time>2026-03-28T12:50:24Z</time></trkpt><trkpt lat="45.596427463063456" lon="10.803361240808142"><ele>302.57142857142856</ele><time>2026-03-28T12:50:25Z</time></trkpt><trkpt lat="45.59644570626487" lon="10.803457477640634"><ele>302.28571428571433</ele><time>2026-03-28T12:50:26Z</time></trkpt><trkpt lat="45.59646356376627" lon="10.803551679835422"><ele>302.0</ele><time>2026-03-28T12:50:27Z</time></trkpt><trkpt lat="45.596480109706576" lon="10.803638963254283"><ele>301.8</ele><time>2026-03-28T12:50:28Z</time></trkpt><trkpt lat="45.59651119450145" lon="10.803808486879698"><ele>301.6</ele><time>2026-03-28T12:50:30Z</time></trkpt><trkpt lat="45.596551150056335" lon="10.803957546826872"><ele>301.40000000000003</ele><time>2026-03-28T12:50:32Z</time></trkpt><trkpt lat="45.59656326510727" lon="10.804096033200436"><ele>301.2</ele><time>2026-03-28T12:50:34Z</time></trkpt><trkpt lat="45.59658656049022" lon="10.804236748855127"><ele>301.0</ele><time>2026-03-28T12:50:36Z</time></trkpt><trkpt lat="45.59660815678861" lon="10.804376604994353"><ele>299.8</ele><time>2026-03-28T12:50:38Z</time></trkpt><trkpt lat="45.596642379811335" lon="10.804534589645623"><ele>298.6</ele><time>2026-03-28T12:50:40Z</time></trkpt><trkpt lat="45.59665971975778" lon="10.80468219932011"><ele>297.4</ele><time>2026-03-28T12:50:42Z</time></trkpt><trkpt lat="45.596676864831004" lon="10.804807648797317"><ele>296.2</ele><time>2026-03-28T12:50:44Z</time></trkpt><trkpt lat="45.59669163289407" lon="10.80493005060673"><ele>295.0</ele><time>2026-03-28T12:50:46Z</time></trkpt><trkpt lat="45.59683697827291" lon="10.80493926460136"><ele>295.0</ele><time>2026-03-28T12:50:48Z</time></trkpt><trkpt lat="45.59693422585512" lon="10.804919180301967"><ele>295.0</ele><time>2026-03-28T12:50:49Z</time></trkpt><trkpt lat="45.597019377068825" lon="10.804891084608936"><ele>295.0</ele><time>2026-03-28T12:50:50Z</time></trkpt><trkpt lat="45.5971014410273" lon="10.804854085745836"><ele>295.0</ele><time>2026-03-28T12:50:51Z</time></trkpt><trkpt lat="45.59716555315876" lon="10.804802906104175"><ele>295.0</ele><time>2026-03-28T12:50:52Z</time></trkpt><trkpt lat="45.59721966410523" lon="10.804742734861449"><ele>295.0</ele><time>2026-03-28T12:50:53Z</time></trkpt><trkpt lat="45.597269450127214" lon="10.804661131974186"><ele>293.4</ele><time>2026-03-28T12:50:54Z</time></trkpt><trkpt lat="45.59731521560956" lon="10.804563110875527"><ele>291.8</ele><time>2026-03-28T12:50:55Z</time></trkpt><trkpt lat="45.59735473447306" lon="10.804462390056257"><ele>290.2</ele><time>2026-03-28T12:50:56Z</time></trkpt><trkpt lat="45.597397215502305" lon="10.80434954626383"><ele>288.6</ele><time>2026-03-28T12:50:57Z</time></trkpt><trkpt lat="45.59745038345005" lon="10.804210353321439"><ele>287.0</ele><time>2026-03-28T12:50:58Z</time></trkpt><trkpt lat="45.59749728626979" lon="10.804093681916967"><ele>287.0</ele><time>2026-03-28T12:50:59Z</time></trkpt><trkpt lat="45.59755355566973" lon="10.80396973588537"><ele>287.0</ele><time>2026-03-28T12:51:00Z</time></trkpt><trkpt lat="45.59760568548886" lon="10.803837793782451"><ele>287.0</ele><time>2026-03-28T12:51:01Z</time></trkpt><trkpt lat="45.5976763301324" lon="10.80373147283382"><ele>287.0</ele><time>2026-03-28T12:51:02Z</time></trkpt><trkpt lat="45.597744653139614" lon="10.803644243218521"><ele>287.0</ele><time>2026-03-28T12:51:03Z</time></trkpt><trkpt lat="45.597832517075105" lon="10.803560892991282"><ele>285.6</ele><time>2026-03-28T12:51:04Z</time></trkpt><trkpt lat="45.597928588084834" lon="10.80352018241224"><ele>284.2</ele><time>2026-03-28T12:51:05Z</time></trkpt><trkpt lat="45.59802881252869" lon="10.803497641573001"><ele>282.8</ele><time>2026-03-28T12:51:06Z</time></trkpt><trkpt lat="45.598132722293975" lon="10.803494292234632"><ele>281.4</ele><time>2026-03-28T12:51:07Z</time></trkpt><trkpt lat="45.5982393378856" lon="10.803497061030141"><ele>280.0</ele><time>2026-03-28T12:51:08Z</time></trkpt><trkpt lat="45.598339008265604" lon="10.80350739243607"><ele>280.0</ele><time>2026-03-28T12:51:09Z</time></trkpt><trkpt lat="45.59842978966412" lon="10.803548040612718"><ele>280.0</ele><time>2026-03-28T12:51:10Z</time></trkpt><trkpt lat="45.59852424401618" lon="10.80356987777315"><ele>280.0</ele><time>2026-03-28T12:51:11Z</time></trkpt><trkpt lat="45.598618709117495" lon="10.803567202881247"><ele>280.0</ele><time>2026-03-28T12:51:12Z</time></trkpt><trkpt lat="45.598713341926526" lon="10.803538822684876"><ele>280.0</ele><time>2026-03-28T12:51:13Z</time></trkpt><trkpt lat="45.598813905222215" lon="10.803531413612838"><ele>278.4</ele><time>2026-03-28T12:51:14Z</time></trkpt><trkpt lat="45.59891456214601" lon="10.803548240682774"><ele>276.8</ele><time>2026-03-28T12:51:15Z</time></trkpt><trkpt lat="45.59901210465253" lon="10.803541387666582"><ele>275.2</ele><time>2026-03-28T12:51:16Z</time></trkpt><trkpt lat="45.59909809191432" lon="10.803518645976974"><ele>273.6</ele><time>2026-03-28T12:51:17Z</time></trkpt><trkpt lat="45.59917222785321" lon="10.803463034925466"><ele>272.0</ele><time>2026-03-28T12:51:18Z</time></trkpt><trkpt lat="45.599221015572084" lon="10.803322664059358"><ele>271.4</ele><time>2026-03-28T12:51:19Z</time></trkpt><trkpt lat="45.59930165533409" lon="10.803254825353651"><ele>270.79999999999995</ele><time>2026-03-28T12:51:20Z</time></trkpt><trkpt lat="45.59939186913451" lon="10.803210878772191"><ele>270.2</ele><time>2026-03-28T12:51:21Z</time></trkpt><trkpt lat="45.599482474000034" lon="10.803175910783343"><ele>269.59999999999997</ele><time>2026-03-28T12:51:22Z</time></trkpt><trkpt lat="45.599570318456855" lon="10.803146901803343"><ele>269.0</ele><time>2026-03-28T12:51:23Z</time></trkpt><trkpt lat="45.59965068705173" lon="10.803120361589524"><ele>268.1666666666667</ele><time>2026-03-28T12:51:24Z</time></trkpt><trkpt lat="45.599729782400416" lon="10.803069950283245"><ele>267.33333333333337</ele><time>2026-03-28T12:51:25Z</time></trkpt><trkpt lat="45.59981835358522" lon="10.803066128980488"><ele>266.5</ele><time>2026-03-28T12:51:26Z</time></trkpt><trkpt lat="45.59991585141511" lon="10.803048965656243"><ele>265.6666666666667</ele><time>2026-03-28T12:51:27Z</time></trkpt><trkpt lat="45.600000424192295" lon="10.803054402007094"><ele>264.8333333333333</ele><time>2026-03-28T12:51:28Z</time></trkpt><trkpt lat="45.60008358269736" lon="10.803085332790197"><ele>264.0</ele><time>2026-03-28T12:51:29Z</time></trkpt><trkpt lat="45.600169144635444" lon="10.803125052756082"><ele>264.0</ele><time>2026-03-28T12:51:30Z</time></trkpt><trkpt lat="45.60025870874506" lon="10.803160467918303"><ele>264.0</ele><time>2026-03-28T12:51:31Z</time></trkpt><trkpt lat="45.600352567867745" lon="10.80315193715025"><ele>264.0</ele><time>2026-03-28T12:51:32Z</time></trkpt><trkpt lat="45.600439515428235" lon="10.803177699350062"><ele>264.0</ele><time>2026-03-28T12:51:33Z</time></trkpt><trkpt lat="45.60050840318019" lon="10.803183045467279"><ele>264.0</ele><time>2026-03-28T12:51:34Z</time></trkpt><trkpt lat="45.600575260509046" lon="10.803188217661637"><ele>264.0</ele><time>2026-03-28T12:51:35Z</time></trkpt><trkpt lat="45.600699611213706" lon="10.803190514337265"><ele>262.8</ele><time>2026-03-28T12:51:37Z</time></trkpt><trkpt lat="45.60077660828052" lon="10.803181331873542"><ele>261.59999999999997</ele><time>2026-03-28T12:51:39Z</time></trkpt><trkpt lat="45.600827745517115" lon="10.80297350433549"><ele>260.4</ele><time>2026-03-28T12:51:41Z</time></trkpt><trkpt lat="45.60080293305903" lon="10.802839939787683"><ele>259.2</ele><time>2026-03-28T12:51:42Z</time></trkpt><trkpt lat="45.60076836564178" lon="10.80269462318812"><ele>258.0</ele><time>2026-03-28T12:51:43Z</time></trkpt><trkpt lat="45.60072492713333" lon="10.802537368449329"><ele>257.25</ele><time>2026-03-28T12:51:44Z</time></trkpt><trkpt lat="45.600675361343654" lon="10.802356966234717"><ele>256.5</ele><time>2026-03-28T12:51:45Z</time></trkpt><trkpt lat="45.60063061592279" lon="10.802172521416525"><ele>255.75</ele><time>2026-03-28T12:51:46Z</time></trkpt><trkpt lat="45.6005831570241" lon="10.801977770088644"><ele>255.0</ele><time>2026-03-28T12:51:47Z</time></trkpt><trkpt lat="45.600535142265436" lon="10.801789639768408"><ele>254.75</ele><time>2026-03-28T12:51:48Z</time></trkpt><trkpt lat="45.60048929744305" lon="10.801610678772375"><ele>254.5</ele><time>2026-03-28T12:51:49Z</time></trkpt><trkpt lat="45.600446495683705" lon="10.801437806973778"><ele>254.25</ele><time>2026-03-28T12:51:50Z</time></trkpt><trkpt lat="45.60040400555455" lon="10.801267903085108"><ele>254.0</ele><time>2026-03-28T12:51:51Z</time></trkpt><trkpt lat="45.600360042062306" lon="10.801097765370667"><ele>255.5</ele><time>2026-03-28T12:51:52Z</time></trkpt><trkpt lat="45.600317901050225" lon="10.80092790867313"><ele>257.0</ele><time>2026-03-28T12:51:53Z</time></trkpt><trkpt lat="45.60027529048537" lon="10.800753993655652"><ele>258.5</ele><time>2026-03-28T12:51:54Z</time></trkpt><trkpt lat="45.60023002772244" lon="10.80057788431459"><ele>260.0</ele><time>2026-03-28T12:51:55Z</time></trkpt><trkpt lat="45.60018263141149" lon="10.800394297775101"><ele>260.0</ele><time>2026-03-28T12:51:56Z</time></trkpt><trkpt lat="45.60013595514877" lon="10.800201393212687"><ele>260.0</ele><time>2026-03-28T12:51:57Z</time></trkpt><trkpt lat="45.60009113956745" lon="10.799999998551286"><ele>260.0</ele><time>2026-03-28T12:51:58Z</time></trkpt><trkpt lat="45.60004884834483" lon="10.799786823740485"><ele>260.0</ele><time>2026-03-28T12:51:59Z</time></trkpt><trkpt lat="45.60000610546054" lon="10.799557645780137"><ele>258.33333333333337</ele><time>2026-03-28T12:52:00Z</time></trkpt><trkpt lat="45.59998571381324" lon="10.799329796989799"><ele>256.6666666666667</ele><time>2026-03-28T12:52:01Z</time></trkpt><trkpt lat="45.59995457629354" lon="10.799113931555427"><ele>255.0</ele><time>2026-03-28T12:52:02Z</time></trkpt><trkpt lat="45.59992583447294" lon="10.79889414285596"><ele>255.0</ele><time>2026-03-28T12:52:03Z</time></trkpt><trkpt lat="45.599885415842635" lon="10.798681600703102"><ele>255.0</ele><time>2026-03-28T12:52:04Z</time></trkpt><trkpt lat="45.599865070089926" lon="10.798471958940732"><ele>255.0</ele><time>2026-03-28T12:52:05Z</time></trkpt><trkpt lat="45.59984346896335" lon="10.798264445392201"><ele>255.0</ele><time>2026-03-28T12:52:06Z</time></trkpt><trkpt lat="45.599822140362235" lon="10.798059731277462"><ele>254.25</ele><time>2026-03-28T12:52:07Z</time></trkpt><trkpt lat="45.59979819042263" lon="10.797855016431749"><ele>253.5</ele><time>2026-03-28T12:52:08Z</time></trkpt><trkpt lat="45.599775419907616" lon="10.797649275464261"><ele>252.75</ele><time>2026-03-28T12:52:09Z</time></trkpt><trkpt lat="45.59975761262801" lon="10.797449684966978"><ele>252.0</ele><time>2026-03-28T12:52:10Z</time></trkpt><trkpt lat="45.599749021336564" lon="10.797255929811216"><ele>252.0</ele><time>2026-03-28T12:52:11Z</time></trkpt><trkpt lat="45.599754106699194" lon="10.797063206416322"><ele>252.0</ele><time>2026-03-28T12:52:12Z</time></trkpt><trkpt lat="45.59976367347749" lon="10.796867189930035"><ele>252.0</ele><time>2026-03-28T12:52:13Z</time></trkpt><trkpt lat="45.599774373521385" lon="10.796665132590352"><ele>252.0</ele><time>2026-03-28T12:52:14Z</time></trkpt><trkpt lat="45.59978521789585" lon="10.796457506450553"><ele>251.75</ele><time>2026-03-28T12:52:15Z</time></trkpt><trkpt lat="45.599794472987426" lon="10.796250757579486"><ele>251.5</ele><time>2026-03-28T12:52:16Z</time></trkpt><trkpt lat="45.59980328814543" lon="10.796052226799237"><ele>251.25</ele><time>2026-03-28T12:52:17Z</time></trkpt><trkpt lat="45.59981062642338" lon="10.795858278726408"><ele>251.0</ele><time>2026-03-28T12:52:18Z</time></trkpt><trkpt lat="45.59981434297809" lon="10.795666073956912"><ele>250.75</ele><time>2026-03-28T12:52:19Z</time></trkpt><trkpt lat="45.59982202181619" lon="10.795476474031371"><ele>250.5</ele><time>2026-03-28T12:52:20Z</time></trkpt><trkpt lat="45.59982880350354" lon="10.795295338552638"><ele>250.25</ele><time>2026-03-28T12:52:21Z</time></trkpt><trkpt lat="45.59983279935791" lon="10.795135232950615"><ele>250.0</ele><time>2026-03-28T12:52:22Z</time></trkpt><trkpt lat="45.599837589011216" lon="10.794984509197366"><ele>249.8</ele><time>2026-03-28T12:52:23Z</time></trkpt><trkpt lat="45.59984063072982" lon="10.794871350712961"><ele>249.6</ele><time>2026-03-28T12:52:24Z</time></trkpt><trkpt lat="45.599852207822714" lon="10.794773252819008"><ele>249.39999999999998</ele><time>2026-03-28T12:52:25Z</time></trkpt><trkpt lat="45.59989569464411" lon="10.79468986505558"><ele>249.2</ele><time>2026-03-28T12:52:26Z</time></trkpt><trkpt lat="45.600050294767726" lon="10.794631068525193"><ele>249.0</ele><time>2026-03-28T12:52:28Z</time></trkpt><trkpt lat="45.600158985248065" lon="10.794623569078489"><ele>249.0</ele><time>2026-03-28T12:52:29Z</time></trkpt><trkpt lat="45.60026204441993" lon="10.794610794668746"><ele>249.0</ele><time>2026-03-28T12:52:30Z</time></trkpt><trkpt lat="45.600358576370795" lon="10.794590120817075"><ele>249.0</ele><time>2026-03-28T12:52:31Z</time></trkpt><trkpt lat="45.60044516856792" lon="10.794571923071304"><ele>249.0</ele><time>2026-03-28T12:52:32Z</time></trkpt><trkpt lat="45.600523887320186" lon="10.794552354886104"><ele>249.0</ele><time>2026-03-28T12:52:33Z</time></trkpt><trkpt lat="45.6005936492298" lon="10.79452864218472"><ele>249.0</ele><time>2026-03-28T12:52:34Z</time></trkpt><trkpt lat="45.60065688013448" lon="10.79450386069007"><ele>249.0</ele><time>2026-03-28T12:52:35Z</time></trkpt><trkpt lat="45.60073900204773" lon="10.794429465254897"><ele>248.99999999999997</ele><time>2026-03-28T12:52:37Z</time></trkpt><trkpt lat="45.60080311482735" lon="10.794520608466842"><ele>248.99999999999997</ele><time>2026-03-28T12:52:38Z</time></trkpt><trkpt lat="45.60089212306977" lon="10.794605538947906"><ele>249.0</ele><time>2026-03-28T12:52:39Z</time></trkpt><trkpt lat="45.600967431181985" lon="10.794703606966399"><ele>249.0</ele><time>2026-03-28T12:52:40Z</time></trkpt><trkpt lat="45.601058473109845" lon="10.794816982284413"><ele>249.0</ele><time>2026-03-28T12:52:41Z</time></trkpt><trkpt lat="45.601154923239946" lon="10.79493109759842"><ele>249.0</ele><time>2026-03-28T12:52:42Z</time></trkpt><trkpt lat="45.60125861317098" lon="10.795037982709811"><ele>249.0</ele><time>2026-03-28T12:52:43Z</time></trkpt><trkpt lat="45.60137417174175" lon="10.795117869350367"><ele>249.0</ele><time>2026-03-28T12:52:44Z</time></trkpt><trkpt lat="45.60148821676657" lon="10.795161033314045"><ele>249.25</ele><time>2026-03-28T12:52:45Z</time></trkpt><trkpt lat="45.601613247465494" lon="10.795180860623605"><ele>249.5</ele><time>2026-03-28T12:52:46Z</time></trkpt><trkpt lat="45.60174205304654" lon="10.795181900908931"><ele>249.75</ele><time>2026-03-28T12:52:47Z</time></trkpt><trkpt lat="45.60187598464064" lon="10.795168140151413"><ele>250.0</ele><time>2026-03-28T12:52:48Z</time></trkpt><trkpt lat="45.60200355954527" lon="10.795166697146756"><ele>250.0</ele><time>2026-03-28T12:52:49Z</time></trkpt><trkpt lat="45.60212343875173" lon="10.795163880449326"><ele>250.0</ele><time>2026-03-28T12:52:50Z</time></trkpt><trkpt lat="45.60223282421435" lon="10.795170615946946"><ele>250.0</ele><time>2026-03-28T12:52:51Z</time></trkpt><trkpt lat="45.60232906916941" lon="10.79517690220428"><ele>250.0</ele><time>2026-03-28T12:52:52Z</time></trkpt><trkpt lat="45.602416824558865" lon="10.795193527959801"><ele>250.0</ele><time>2026-03-28T12:52:53Z</time></trkpt><trkpt lat="45.602494108617364" lon="10.795221180759757"><ele>250.2</ele><time>2026-03-28T12:52:54Z</time></trkpt><trkpt lat="45.60256137968884" lon="10.795280992921711"><ele>250.4</ele><time>2026-03-28T12:52:55Z</time></trkpt><trkpt lat="45.602632511964615" lon="10.795377659047842"><ele>250.60000000000002</ele><time>2026-03-28T12:52:56Z</time></trkpt><trkpt lat="45.60268489327177" lon="10.79551073025602"><ele>250.8</ele><time>2026-03-28T12:52:57Z</time></trkpt><trkpt lat="45.60271967757825" lon="10.795650177376316"><ele>251.0</ele><time>2026-03-28T12:52:58Z</time></trkpt><trkpt lat="45.60273905008917" lon="10.795801110803348"><ele>251.0</ele><time>2026-03-28T12:52:59Z</time></trkpt><trkpt lat="45.602738967845646" lon="10.795965978026738"><ele>251.0</ele><time>2026-03-28T12:53:00Z</time></trkpt><trkpt lat="45.60272573282614" lon="10.796140270222242"><ele>251.0</ele><time>2026-03-28T12:53:01Z</time></trkpt><trkpt lat="45.602727317660204" lon="10.796306088130388"><ele>251.0</ele><time>2026-03-28T12:53:02Z</time></trkpt><trkpt lat="45.602735489990025" lon="10.796452398165313"><ele>251.0</ele><time>2026-03-28T12:53:03Z</time></trkpt><trkpt lat="45.60274365682662" lon="10.79659111533453"><ele>251.00000000000003</ele><time>2026-03-28T12:53:04Z</time></trkpt><trkpt lat="45.602752217151654" lon="10.796719443271815"><ele>251.00000000000003</ele><time>2026-03-28T12:53:05Z</time></trkpt><trkpt lat="45.60276211292988" lon="10.796855910796056"><ele>251.0</ele><time>2026-03-28T12:53:06Z</time></trkpt><trkpt lat="45.60277381141266" lon="10.796990297328293"><ele>251.0</ele><time>2026-03-28T12:53:07Z</time></trkpt><trkpt lat="45.60280270783534" lon="10.797103000091935"><ele>250.8</ele><time>2026-03-28T12:53:08Z</time></trkpt><trkpt lat="45.60283873181953" lon="10.797218683373835"><ele>250.60000000000002</ele><time>2026-03-28T12:53:09Z</time></trkpt><trkpt lat="45.60293577219473" lon="10.797264627498697"><ele>250.4</ele><time>2026-03-28T12:53:10Z</time></trkpt><trkpt lat="45.60303014304729" lon="10.797306934019874"><ele>250.2</ele><time>2026-03-28T12:53:11Z</time></trkpt><trkpt lat="45.60311492681186" lon="10.797352287232815"><ele>250.0</ele><time>2026-03-28T12:53:12Z</time></trkpt><trkpt lat="45.6031661881883" lon="10.797425615951584"><ele>249.99999999999997</ele><time>2026-03-28T12:53:13Z</time></trkpt><trkpt lat="45.603200022761264" lon="10.797531236668863"><ele>250.0</ele><time>2026-03-28T12:53:14Z</time></trkpt><trkpt lat="45.60320827659146" lon="10.797667281660884"><ele>250.0</ele><time>2026-03-28T12:53:15Z</time></trkpt><trkpt lat="45.60319753955349" lon="10.79780308112542"><ele>250.0</ele><time>2026-03-28T12:53:16Z</time></trkpt><trkpt lat="45.60319236435901" lon="10.797920366417797"><ele>249.99999999999997</ele><time>2026-03-28T12:53:17Z</time></trkpt><trkpt lat="45.60321271336074" lon="10.798025418041794"><ele>250.0</ele><time>2026-03-28T12:53:18Z</time></trkpt><trkpt lat="45.603247943608075" lon="10.79813033434489"><ele>250.2</ele><time>2026-03-28T12:53:19Z</time></trkpt><trkpt lat="45.603338226498984" lon="10.798176731320485"><ele>250.4</ele><time>2026-03-28T12:53:20Z</time></trkpt><trkpt lat="45.60342655322229" lon="10.798215751356539"><ele>250.60000000000002</ele><time>2026-03-28T12:53:21Z</time></trkpt><trkpt lat="45.60350947319312" lon="10.798278858040977"><ele>250.8</ele><time>2026-03-28T12:53:22Z</time></trkpt><trkpt lat="45.60359573950857" lon="10.798325803134706"><ele>251.0</ele><time>2026-03-28T12:53:23Z</time></trkpt><trkpt lat="45.603684854632185" lon="10.798338815841474"><ele>251.20000000000002</ele><time>2026-03-28T12:53:24Z</time></trkpt><trkpt lat="45.603775599346584" lon="10.798385175126072"><ele>251.40000000000003</ele><time>2026-03-28T12:53:25Z</time></trkpt><trkpt lat="45.60385246238542" lon="10.798423382633176"><ele>251.6</ele><time>2026-03-28T12:53:26Z</time></trkpt><trkpt lat="45.60394383639231" lon="10.798475736778704"><ele>251.8</ele><time>2026-03-28T12:53:27Z</time></trkpt><trkpt lat="45.60403874154994" lon="10.798529991377425"><ele>252.0</ele><time>2026-03-28T12:53:28Z</time></trkpt><trkpt lat="45.60412339892771" lon="10.798577116000253"><ele>252.0</ele><time>2026-03-28T12:53:29Z</time></trkpt><trkpt lat="45.60422623381258" lon="10.798633018070394"><ele>252.0</ele><time>2026-03-28T12:53:30Z</time></trkpt><trkpt lat="45.60433794328122" lon="10.798697117094951"><ele>252.0</ele><time>2026-03-28T12:53:31Z</time></trkpt><trkpt lat="45.60447947154519" lon="10.798778954686702"><ele>252.0</ele><time>2026-03-28T12:53:32Z</time></trkpt><trkpt lat="45.60460022179055" lon="10.798852523198198"><ele>252.0</ele><time>2026-03-28T12:53:33Z</time></trkpt><trkpt lat="45.60470746096638" lon="10.798912587882127"><ele>252.0</ele><time>2026-03-28T12:53:34Z</time></trkpt><trkpt lat="45.60481776286924" lon="10.7989778064324"><ele>252.0</ele><time>2026-03-28T12:53:35Z</time></trkpt><trkpt lat="45.60492456983635" lon="10.799040656714709"><ele>252.0</ele><time>2026-03-28T12:53:36Z</time></trkpt><trkpt lat="45.60503040449018" lon="10.799099621344002"><ele>252.0</ele><time>2026-03-28T12:53:37Z</time></trkpt><trkpt lat="45.605135672152755" lon="10.799163436051789"><ele>252.0</ele><time>2026-03-28T12:53:38Z</time></trkpt><trkpt lat="45.60523925299884" lon="10.799228628325471"><ele>252.0</ele><time>2026-03-28T12:53:39Z</time></trkpt><trkpt lat="45.60533035414473" lon="10.799287947910928"><ele>252.0</ele><time>2026-03-28T12:53:40Z</time></trkpt><trkpt lat="45.605408951854486" lon="10.799347428442303"><ele>252.0</ele><time>2026-03-28T12:53:41Z</time></trkpt><trkpt lat="45.60547613108671" lon="10.799362317977124"><ele>255.0</ele><time>2026-03-28T12:53:42Z</time></trkpt><trkpt lat="45.60552616377945" lon="10.79970749132937"><ele>258.0</ele><time>2026-03-28T12:53:44Z</time></trkpt><trkpt lat="45.60552944778294" lon="10.799882112514293"><ele>261.0</ele><time>2026-03-28T12:53:45Z</time></trkpt><trkpt lat="45.605517697114465" lon="10.800074947604458"><ele>261.5</ele><time>2026-03-28T12:53:46Z</time></trkpt><trkpt lat="45.6054887955462" lon="10.800282253627316"><ele>262.0</ele><time>2026-03-28T12:53:47Z</time></trkpt><trkpt lat="45.60546239139034" lon="10.80047377405796"><ele>262.5</ele><time>2026-03-28T12:53:48Z</time></trkpt><trkpt lat="45.60543784228571" lon="10.80067302770128"><ele>263.0</ele><time>2026-03-28T12:53:49Z</time></trkpt><trkpt lat="45.605415999300554" lon="10.800873136479073"><ele>264.25</ele><time>2026-03-28T12:53:50Z</time></trkpt><trkpt lat="45.605377628945476" lon="10.801070515791958"><ele>265.5</ele><time>2026-03-28T12:53:51Z</time></trkpt><trkpt lat="45.60535657214641" lon="10.801274416117867"><ele>266.75</ele><time>2026-03-28T12:53:52Z</time></trkpt><trkpt lat="45.60533779869297" lon="10.801480989305503"><ele>268.0</ele><time>2026-03-28T12:53:53Z</time></trkpt><trkpt lat="45.60533620002156" lon="10.801690241559506"><ele>265.0</ele><time>2026-03-28T12:53:54Z</time></trkpt><trkpt lat="45.60531302207459" lon="10.801895696973068"><ele>262.0</ele><time>2026-03-28T12:53:55Z</time></trkpt><trkpt lat="45.60529314347233" lon="10.802089353961932"><ele>259.0</ele><time>2026-03-28T12:53:56Z</time></trkpt><trkpt lat="45.605267039928144" lon="10.802250217461511"><ele>256.0</ele><time>2026-03-28T12:53:57Z</time></trkpt><trkpt lat="45.60524530039373" lon="10.80240129216406"><ele>255.99999999999997</ele><time>2026-03-28T12:53:58Z</time></trkpt><trkpt lat="45.60523422054137" lon="10.802534028816408"><ele>256.0</ele><time>2026-03-28T12:53:59Z</time></trkpt><trkpt lat="45.605223628026096" lon="10.802665786213783"><ele>256.0</ele><time>2026-03-28T12:54:00Z</time></trkpt><trkpt lat="45.605213868864304" lon="10.802797567214148"><ele>256.0</ele><time>2026-03-28T12:54:01Z</time></trkpt><trkpt lat="45.6052077807755" lon="10.80291776266801"><ele>255.99999999999997</ele><time>2026-03-28T12:54:02Z</time></trkpt><trkpt lat="45.60520855375955" lon="10.803028709267647"><ele>256.0</ele><time>2026-03-28T12:54:03Z</time></trkpt><trkpt lat="45.60521140576526" lon="10.803154207505898"><ele>256.25</ele><time>2026-03-28T12:54:04Z</time></trkpt><trkpt lat="45.60522433931321" lon="10.80328911544957"><ele>256.5</ele><time>2026-03-28T12:54:05Z</time></trkpt><trkpt lat="45.605216019244565" lon="10.803443152304977"><ele>256.75</ele><time>2026-03-28T12:54:06Z</time></trkpt><trkpt lat="45.605201768355954" lon="10.803619463557478"><ele>257.0</ele><time>2026-03-28T12:54:07Z</time></trkpt><trkpt lat="45.605184728845806" lon="10.803807303509661"><ele>257.75</ele><time>2026-03-28T12:54:08Z</time></trkpt><trkpt lat="45.60516783380538" lon="10.80397810122207"><ele>258.5</ele><time>2026-03-28T12:54:09Z</time></trkpt><trkpt lat="45.605148482133394" lon="10.804155550442374"><ele>259.25</ele><time>2026-03-28T12:54:10Z</time></trkpt><trkpt lat="45.60512491756433" lon="10.80433955822689"><ele>260.0</ele><time>2026-03-28T12:54:11Z</time></trkpt><trkpt lat="45.60511571495086" lon="10.804522188966194"><ele>260.2</ele><time>2026-03-28T12:54:12Z</time></trkpt><trkpt lat="45.60511141540595" lon="10.804697254255801"><ele>260.4</ele><time>2026-03-28T12:54:13Z</time></trkpt><trkpt lat="45.60510857711034" lon="10.804831642531344"><ele>260.6</ele><time>2026-03-28T12:54:14Z</time></trkpt><trkpt lat="45.60511036172575" lon="10.804978061807622"><ele>260.8</ele><time>2026-03-28T12:54:16Z</time></trkpt><trkpt lat="45.60511534761251" lon="10.805110961775936"><ele>261.0</ele><time>2026-03-28T12:54:19Z</time></trkpt><trkpt lat="45.60512567533685" lon="10.805214511647613"><ele>261.0</ele><time>2026-03-28T12:54:23Z</time></trkpt><trkpt lat="45.6051768506247" lon="10.805298241883342"><ele>261.0</ele><time>2026-03-28T12:54:27Z</time></trkpt><trkpt lat="45.605218476408176" lon="10.805368860700604"><ele>261.0</ele><time>2026-03-28T12:54:28Z</time></trkpt><trkpt lat="45.605277616603466" lon="10.805436556980721"><ele>261.0</ele><time>2026-03-28T12:54:29Z</time></trkpt><trkpt lat="45.605345709018394" lon="10.805514500498527"><ele>261.0</ele><time>2026-03-28T12:54:30Z</time></trkpt><trkpt lat="45.60542757509486" lon="10.805613812858025"><ele>261.0</ele><time>2026-03-28T12:54:31Z</time></trkpt><trkpt lat="45.60549611130566" lon="10.805723146264633"><ele>261.8</ele><time>2026-03-28T12:54:32Z</time></trkpt><trkpt lat="45.605544129257986" lon="10.805864166624106"><ele>262.6</ele><time>2026-03-28T12:54:33Z</time></trkpt><trkpt lat="45.605588031440305" lon="10.806019979437552"><ele>263.4</ele><time>2026-03-28T12:54:34Z</time></trkpt><trkpt lat="45.60562945392425" lon="10.806168642817479"><ele>264.2</ele><time>2026-03-28T12:54:35Z</time></trkpt><trkpt lat="45.60568250967078" lon="10.806287570797581"><ele>265.0</ele><time>2026-03-28T12:54:36Z</time></trkpt><trkpt lat="45.60570898142561" lon="10.80640579783064"><ele>265.0</ele><time>2026-03-28T12:54:37Z</time></trkpt><trkpt lat="45.605737545288655" lon="10.806522934494454"><ele>265.0</ele><time>2026-03-28T12:54:38Z</time></trkpt><trkpt lat="45.605768125522566" lon="10.806639132735231"><ele>265.0</ele><time>2026-03-28T12:54:39Z</time></trkpt><trkpt lat="45.60580184567137" lon="10.806772233699359"><ele>265.0</ele><time>2026-03-28T12:54:40Z</time></trkpt><trkpt lat="45.60583815938116" lon="10.806922271145146"><ele>265.0</ele><time>2026-03-28T12:54:41Z</time></trkpt><trkpt lat="45.605877641841126" lon="10.807085589138378"><ele>264.75</ele><time>2026-03-28T12:54:42Z</time></trkpt><trkpt lat="45.60592434014464" lon="10.807265468833425"><ele>264.5</ele><time>2026-03-28T12:54:43Z</time></trkpt><trkpt lat="45.60595482766179" lon="10.807435720406273"><ele>264.25</ele><time>2026-03-28T12:54:44Z</time></trkpt><trkpt lat="45.606002895246576" lon="10.807608087891658"><ele>264.0</ele><time>2026-03-28T12:54:45Z</time></trkpt><trkpt lat="45.6060552130467" lon="10.807781139895857"><ele>264.0</ele><time>2026-03-28T12:54:46Z</time></trkpt><trkpt lat="45.606104463701264" lon="10.8079605920309"><ele>264.0</ele><time>2026-03-28T12:54:47Z</time></trkpt><trkpt lat="45.606146702304684" lon="10.808139351534058"><ele>264.0</ele><time>2026-03-28T12:54:48Z</time></trkpt><trkpt lat="45.60617604898885" lon="10.80830620190614"><ele>264.0</ele><time>2026-03-28T12:54:49Z</time></trkpt><trkpt lat="45.606213524029876" lon="10.808463307095685"><ele>264.59999999999997</ele><time>2026-03-28T12:54:50Z</time></trkpt><trkpt lat="45.6062580019572" lon="10.808587007424151"><ele>265.2</ele><time>2026-03-28T12:54:51Z</time></trkpt><trkpt lat="45.60631938512649" lon="10.80870315929814"><ele>265.79999999999995</ele><time>2026-03-28T12:54:52Z</time></trkpt><trkpt lat="45.60639267038174" lon="10.808810953995849"><ele>266.4</ele><time>2026-03-28T12:54:53Z</time></trkpt><trkpt lat="45.60646926625613" lon="10.808918943743269"><ele>267.0</ele><time>2026-03-28T12:54:54Z</time></trkpt><trkpt lat="45.60655219003868" lon="10.809026199843723"><ele>267.0</ele><time>2026-03-28T12:54:55Z</time></trkpt><trkpt lat="45.606645044002086" lon="10.80913811231795"><ele>267.0</ele><time>2026-03-28T12:54:56Z</time></trkpt><trkpt lat="45.60673723175996" lon="10.809240700477886"><ele>267.0</ele><time>2026-03-28T12:54:57Z</time></trkpt><trkpt lat="45.60681578870547" lon="10.809339649914536"><ele>267.0</ele><time>2026-03-28T12:54:58Z</time></trkpt><trkpt lat="45.6068806789297" lon="10.809431297614342"><ele>267.0</ele><time>2026-03-28T12:54:59Z</time></trkpt><trkpt lat="45.60692539572825" lon="10.809536926197572"><ele>267.0</ele><time>2026-03-28T12:55:00Z</time></trkpt><trkpt lat="45.60698224100709" lon="10.809594735174045"><ele>267.0</ele><time>2026-03-28T12:55:01Z</time></trkpt><trkpt lat="45.60703460160402" lon="10.809693858880648"><ele>267.0</ele><time>2026-03-28T12:55:03Z</time></trkpt><trkpt lat="45.60725007981268" lon="10.809704966860686"><ele>267.0</ele><time>2026-03-28T12:55:07Z</time></trkpt><trkpt lat="45.60694275672724" lon="10.809839399329597"><ele>267.0</ele><time>2026-03-28T12:55:08Z</time></trkpt><trkpt lat="45.60684705432777" lon="10.809894950712795"><ele>267.0</ele><time>2026-03-28T12:55:10Z</time></trkpt><trkpt lat="45.60673979170101" lon="10.809982229128487"><ele>267.0</ele><time>2026-03-28T12:55:12Z</time></trkpt><trkpt lat="45.60667199419648" lon="10.810024501393402"><ele>267.0</ele><time>2026-03-28T12:55:13Z</time></trkpt><trkpt lat="45.60661123214317" lon="10.810086070836439"><ele>267.0</ele><time>2026-03-28T12:55:14Z</time></trkpt><trkpt lat="45.60656165051731" lon="10.810156846306914"><ele>267.0</ele><time>2026-03-28T12:55:15Z</time></trkpt><trkpt lat="45.606507386349065" lon="10.810295998889169"><ele>267.2</ele><time>2026-03-28T12:55:17Z</time></trkpt><trkpt lat="45.60646914943339" lon="10.810378291692233"><ele>267.4</ele><time>2026-03-28T12:55:18Z</time></trkpt><trkpt lat="45.606401359684604" lon="10.810528832666657"><ele>267.6</ele><time>2026-03-28T12:55:20Z</time></trkpt><trkpt lat="45.606357387342086" lon="10.810603402958922"><ele>267.8</ele><time>2026-03-28T12:55:21Z</time></trkpt><trkpt lat="45.60628408401573" lon="10.81072733917247"><ele>268.0</ele><time>2026-03-28T12:55:23Z</time></trkpt><trkpt lat="45.606207420804004" lon="10.810849994615827"><ele>268.0</ele><time>2026-03-28T12:55:25Z</time></trkpt><trkpt lat="45.60616497719281" lon="10.810935636767645"><ele>268.0</ele><time>2026-03-28T12:55:27Z</time></trkpt><trkpt lat="45.606119553104364" lon="10.811022111682576"><ele>268.0</ele><time>2026-03-28T12:55:29Z</time></trkpt><trkpt lat="45.60607113227389" lon="10.811105253432837"><ele>268.0</ele><time>2026-03-28T12:55:31Z</time></trkpt><trkpt lat="45.606020033703516" lon="10.811185364791413"><ele>268.0</ele><time>2026-03-28T12:55:34Z</time></trkpt><trkpt lat="45.60597403807391" lon="10.811260114067954"><ele>268.0</ele><time>2026-03-28T12:55:37Z</time></trkpt><trkpt lat="45.605903544455835" lon="10.811362780857733"><ele>268.16666666666663</ele><time>2026-03-28T12:55:39Z</time></trkpt><trkpt lat="45.60584762939239" lon="10.811444134165825"><ele>268.3333333333333</ele><time>2026-03-28T12:55:41Z</time></trkpt><trkpt lat="45.60579548455808" lon="10.811526856122923"><ele>268.5</ele><time>2026-03-28T12:55:43Z</time></trkpt><trkpt lat="45.60574317490735" lon="10.8116126160107"><ele>268.6666666666667</ele><time>2026-03-28T12:55:45Z</time></trkpt><trkpt lat="45.60570130143666" lon="10.811698248329645"><ele>268.83333333333337</ele><time>2026-03-28T12:55:47Z</time></trkpt><trkpt lat="45.605667417709924" lon="10.811835084777213"><ele>269.0</ele><time>2026-03-28T12:55:49Z</time></trkpt><trkpt lat="45.605634013248356" lon="10.812000345608592"><ele>269.1666666666667</ele><time>2026-03-28T12:55:51Z</time></trkpt><trkpt lat="45.60561734675202" lon="10.812091283569401"><ele>269.33333333333337</ele><time>2026-03-28T12:55:52Z</time></trkpt><trkpt lat="45.605589844846044" lon="10.812229773659652"><ele>269.5</ele><time>2026-03-28T12:55:54Z</time></trkpt><trkpt lat="45.60557135324529" lon="10.812329526247549"><ele>269.6666666666667</ele><time>2026-03-28T12:55:56Z</time></trkpt><trkpt lat="45.60554449459952" lon="10.812426872270429"><ele>269.8333333333333</ele><time>2026-03-28T12:55:58Z</time></trkpt><trkpt lat="45.605480013745876" lon="10.812534162940505"><ele>270.0</ele><time>2026-03-28T12:56:00Z</time></trkpt><trkpt lat="45.605390576089206" lon="10.812630249996351"><ele>269.6</ele><time>2026-03-28T12:56:02Z</time></trkpt><trkpt lat="45.6053233556454" lon="10.812783601976749"><ele>269.2</ele><time>2026-03-28T12:56:04Z</time></trkpt><trkpt lat="45.605284996237344" lon="10.812897142946305"><ele>268.8</ele><time>2026-03-28T12:56:05Z</time></trkpt><trkpt lat="45.6052410283007" lon="10.813014516159663"><ele>268.4</ele><time>2026-03-28T12:56:06Z</time></trkpt><trkpt lat="45.605199179826585" lon="10.81312926501644"><ele>268.0</ele><time>2026-03-28T12:56:07Z</time></trkpt><trkpt lat="45.60516258410293" lon="10.813250958495635"><ele>268.0</ele><time>2026-03-28T12:56:08Z</time></trkpt><trkpt lat="45.60512378021" lon="10.813368592257605"><ele>268.0</ele><time>2026-03-28T12:56:09Z</time></trkpt><trkpt lat="45.605091459049795" lon="10.813475929117201"><ele>268.0</ele><time>2026-03-28T12:56:10Z</time></trkpt><trkpt lat="45.60506263782694" lon="10.813578767867092"><ele>268.0</ele><time>2026-03-28T12:56:11Z</time></trkpt><trkpt lat="45.60503540798215" lon="10.813679501549872"><ele>268.0</ele><time>2026-03-28T12:56:12Z</time></trkpt><trkpt lat="45.60500598433865" lon="10.813786446030441"><ele>268.0</ele><time>2026-03-28T12:56:13Z</time></trkpt><trkpt lat="45.60497225559848" lon="10.813908892993094"><ele>268.0</ele><time>2026-03-28T12:56:14Z</time></trkpt><trkpt lat="45.60493676882395" lon="10.81403272942598"><ele>268.0</ele><time>2026-03-28T12:56:15Z</time></trkpt><trkpt lat="45.60490344060001" lon="10.81416687342723"><ele>268.0</ele><time>2026-03-28T12:56:16Z</time></trkpt><trkpt lat="45.60487163998589" lon="10.814291228863292"><ele>268.0</ele><time>2026-03-28T12:56:17Z</time></trkpt><trkpt lat="45.60483892796701" lon="10.814404997543347"><ele>268.0</ele><time>2026-03-28T12:56:18Z</time></trkpt><trkpt lat="45.60481084130321" lon="10.814525234560055"><ele>268.2</ele><time>2026-03-28T12:56:19Z</time></trkpt><trkpt lat="45.60478420169883" lon="10.814661965672311"><ele>268.4</ele><time>2026-03-28T12:56:20Z</time></trkpt><trkpt lat="45.60475937525987" lon="10.81480653799354"><ele>268.59999999999997</ele><time>2026-03-28T12:56:21Z</time></trkpt><trkpt lat="45.604726142577775" lon="10.814953896624086"><ele>268.8</ele><time>2026-03-28T12:56:22Z</time></trkpt><trkpt lat="45.604698691701" lon="10.815078186532673"><ele>269.0</ele><time>2026-03-28T12:56:23Z</time></trkpt><trkpt lat="45.604677005571666" lon="10.81521792135219"><ele>269.2</ele><time>2026-03-28T12:56:24Z</time></trkpt><trkpt lat="45.604659933436594" lon="10.815336078877305"><ele>269.4</ele><time>2026-03-28T12:56:25Z</time></trkpt><trkpt lat="45.60464813724641" lon="10.81545967190385"><ele>269.6</ele><time>2026-03-28T12:56:26Z</time></trkpt><trkpt lat="45.604638459881706" lon="10.815574596115049"><ele>269.8</ele><time>2026-03-28T12:56:27Z</time></trkpt><trkpt lat="45.604634262548146" lon="10.815676778753312"><ele>270.0</ele><time>2026-03-28T12:56:28Z</time></trkpt><trkpt lat="45.60470331447454" lon="10.815868463840243"><ele>270.0</ele><time>2026-03-28T12:56:30Z</time></trkpt><trkpt lat="45.604672554129166" lon="10.81597874691984"><ele>270.0</ele><time>2026-03-28T12:56:32Z</time></trkpt><trkpt lat="45.60464893087487" lon="10.81616827145475"><ele>270.0</ele><time>2026-03-28T12:56:34Z</time></trkpt><trkpt lat="45.6046323522675" lon="10.816300335908814"><ele>270.0</ele><time>2026-03-28T12:56:35Z</time></trkpt><trkpt lat="45.60462675558435" lon="10.816427750497683"><ele>270.0</ele><time>2026-03-28T12:56:36Z</time></trkpt><trkpt lat="45.60462675558307" lon="10.81653369494935"><ele>269.85714285714283</ele><time>2026-03-28T12:56:37Z</time></trkpt><trkpt lat="45.60462889744319" lon="10.816632125770587"><ele>269.71428571428567</ele><time>2026-03-28T12:56:38Z</time></trkpt><trkpt lat="45.60463191278927" lon="10.816722221160097"><ele>269.57142857142856</ele><time>2026-03-28T12:56:39Z</time></trkpt><trkpt lat="45.60463922331375" lon="10.816817945737128"><ele>269.42857142857144</ele><time>2026-03-28T12:56:40Z</time></trkpt><trkpt lat="45.604655324832144" lon="10.816937153041842"><ele>269.28571428571433</ele><time>2026-03-28T12:56:41Z</time></trkpt><trkpt lat="45.604677723186434" lon="10.817054697219588"><ele>269.14285714285717</ele><time>2026-03-28T12:56:42Z</time></trkpt><trkpt lat="45.604701890921895" lon="10.817162111408125"><ele>269.0</ele><time>2026-03-28T12:56:43Z</time></trkpt><trkpt lat="45.604726422678176" lon="10.81725468851793"><ele>269.6666666666667</ele><time>2026-03-28T12:56:44Z</time></trkpt><trkpt lat="45.60475033781424" lon="10.817344938077454"><ele>270.33333333333337</ele><time>2026-03-28T12:56:45Z</time></trkpt><trkpt lat="45.60478362955787" lon="10.817508937632665"><ele>271.0</ele><time>2026-03-28T12:56:47Z</time></trkpt><trkpt lat="45.60478454931161" lon="10.81762688429263"><ele>271.6666666666667</ele><time>2026-03-28T12:56:49Z</time></trkpt><trkpt lat="45.60476065490709" lon="10.817746855380745"><ele>272.3333333333333</ele><time>2026-03-28T12:56:51Z</time></trkpt><trkpt lat="45.60473793868524" lon="10.817837795561307"><ele>273.0</ele><time>2026-03-28T12:56:52Z</time></trkpt><trkpt lat="45.60469827581681" lon="10.817944949091526"><ele>273.1666666666667</ele><time>2026-03-28T12:56:53Z</time></trkpt><trkpt lat="45.604653261325026" lon="10.818052592310881"><ele>273.3333333333333</ele><time>2026-03-28T12:56:54Z</time></trkpt><trkpt lat="45.604609692626454" lon="10.81815677834823"><ele>273.5</ele><time>2026-03-28T12:56:55Z</time></trkpt><trkpt lat="45.60457105105912" lon="10.818254639951107"><ele>273.66666666666663</ele><time>2026-03-28T12:56:56Z</time></trkpt><trkpt lat="45.60453725285935" lon="10.818343432829801"><ele>273.8333333333333</ele><time>2026-03-28T12:56:57Z</time></trkpt><trkpt lat="45.60450585644975" lon="10.818427830692144"><ele>274.0</ele><time>2026-03-28T12:56:58Z</time></trkpt><trkpt lat="45.604471605435684" lon="10.818525071417366"><ele>273.5</ele><time>2026-03-28T12:56:59Z</time></trkpt><trkpt lat="45.60443952207788" lon="10.818628921137606"><ele>273.0</ele><time>2026-03-28T12:57:00Z</time></trkpt><trkpt lat="45.60441521439041" lon="10.8187477626323"><ele>272.5</ele><time>2026-03-28T12:57:01Z</time></trkpt><trkpt lat="45.60440169607138" lon="10.818859741861734"><ele>272.0</ele><time>2026-03-28T12:57:02Z</time></trkpt><trkpt lat="45.604395017853435" lon="10.81896931143846"><ele>271.5</ele><time>2026-03-28T12:57:03Z</time></trkpt><trkpt lat="45.60439097905218" lon="10.81911944986308"><ele>271.0</ele><time>2026-03-28T12:57:05Z</time></trkpt><trkpt lat="45.60440733522492" lon="10.819306013176663"><ele>271.40000000000003</ele><time>2026-03-28T12:57:07Z</time></trkpt><trkpt lat="45.604447446398765" lon="10.819459834273893"><ele>271.8</ele><time>2026-03-28T12:57:09Z</time></trkpt><trkpt lat="45.60447314532221" lon="10.819548792246543"><ele>272.20000000000005</ele><time>2026-03-28T12:57:10Z</time></trkpt><trkpt lat="45.604499609341076" lon="10.819669600046975"><ele>272.6</ele><time>2026-03-28T12:57:12Z</time></trkpt><trkpt lat="45.60451160092738" lon="10.819801242006475"><ele>273.0</ele><time>2026-03-28T12:57:14Z</time></trkpt><trkpt lat="45.604504867675516" lon="10.819969248127723"><ele>273.0</ele><time>2026-03-28T12:57:16Z</time></trkpt><trkpt lat="45.604476779248465" lon="10.820149411448137"><ele>273.0</ele><time>2026-03-28T12:57:18Z</time></trkpt><trkpt lat="45.60445774947428" lon="10.820253806806432"><ele>273.0</ele><time>2026-03-28T12:57:19Z</time></trkpt><trkpt lat="45.60443730749539" lon="10.820365949387678"><ele>273.0</ele><time>2026-03-28T12:57:20Z</time></trkpt><trkpt lat="45.604418756617264" lon="10.820466891832593"><ele>273.0</ele><time>2026-03-28T12:57:21Z</time></trkpt><trkpt lat="45.60440011408441" lon="10.820565269419527"><ele>273.0</ele><time>2026-03-28T12:57:22Z</time></trkpt><trkpt lat="45.60438042317427" lon="10.820669179236544"><ele>273.8</ele><time>2026-03-28T12:57:23Z</time></trkpt><trkpt lat="45.60435707084733" lon="10.820795389761294"><ele>274.6</ele><time>2026-03-28T12:57:24Z</time></trkpt><trkpt lat="45.60433556741004" lon="10.82092279054709"><ele>275.4</ele><time>2026-03-28T12:57:25Z</time></trkpt><trkpt lat="45.604313846957915" lon="10.821058838636107"><ele>276.2</ele><time>2026-03-28T12:57:26Z</time></trkpt><trkpt lat="45.604294756630516" lon="10.82118718936793"><ele>277.0</ele><time>2026-03-28T12:57:27Z</time></trkpt><trkpt lat="45.604279203730776" lon="10.821300930698687"><ele>277.8</ele><time>2026-03-28T12:57:28Z</time></trkpt><trkpt lat="45.60426681823398" lon="10.82139673330189"><ele>278.6</ele><time>2026-03-28T12:57:29Z</time></trkpt><trkpt lat="45.60424760074499" lon="10.821572504856736"><ele>279.40000000000003</ele><time>2026-03-28T12:57:31Z</time></trkpt><trkpt lat="45.6042440163586" lon="10.821689760087311"><ele>280.2</ele><time>2026-03-28T12:57:33Z</time></trkpt><trkpt lat="45.604156601266794" lon="10.821832612979062"><ele>281.0</ele><time>2026-03-28T12:58:09Z</time></trkpt><trkpt lat="45.60407278662548" lon="10.821842935560298"><ele>281.6</ele><time>2026-03-28T12:58:10Z</time></trkpt><trkpt lat="45.60399029747559" lon="10.821853094831763"><ele>282.20000000000005</ele><time>2026-03-28T12:58:11Z</time></trkpt><trkpt lat="45.60390943828226" lon="10.821863053358806"><ele>282.79999999999995</ele><time>2026-03-28T12:58:12Z</time></trkpt><trkpt lat="45.60384521425717" lon="10.821870963118425"><ele>283.4</ele><time>2026-03-28T12:58:13Z</time></trkpt><trkpt lat="45.60380275042634" lon="10.822083099558382"><ele>284.0</ele><time>2026-03-28T12:58:14Z</time></trkpt><trkpt lat="45.60373179559797" lon="10.822108303642972"><ele>283.0</ele><time>2026-03-28T12:58:17Z</time></trkpt><trkpt lat="45.603650161491366" lon="10.822127469452806"><ele>282.0</ele><time>2026-03-28T12:58:34Z</time></trkpt><trkpt lat="45.603577113195435" lon="10.822131655371559"><ele>281.0</ele><time>2026-03-28T12:58:40Z</time></trkpt><trkpt lat="45.603492033164024" lon="10.822161504138476"><ele>280.0</ele><time>2026-03-28T12:58:43Z</time></trkpt><trkpt lat="45.603426231989395" lon="10.822174619664192"><ele>279.0</ele><time>2026-03-28T12:58:44Z</time></trkpt><trkpt lat="45.60336221996423" lon="10.82220419941638"><ele>278.0</ele><time>2026-03-28T12:58:45Z</time></trkpt><trkpt lat="45.60325762334214" lon="10.822249295290769"><ele>278.0</ele><time>2026-03-28T12:58:47Z</time></trkpt><trkpt lat="45.603197940034676" lon="10.822288343866479"><ele>278.0</ele><time>2026-03-28T12:58:49Z</time></trkpt><trkpt lat="45.60331298414375" lon="10.82223161643885"><ele>278.0</ele><time>2026-03-28T12:59:48Z</time></trkpt><trkpt lat="45.603390401551714" lon="10.822203312141946"><ele>278.0</ele><time>2026-03-28T12:59:49Z</time></trkpt><trkpt lat="45.60345583459664" lon="10.822183091623371"><ele>278.0</ele><time>2026-03-28T12:59:50Z</time></trkpt><trkpt lat="45.60359071585211" lon="10.822147755779309"><ele>279.0</ele><time>2026-03-28T12:59:52Z</time></trkpt><trkpt lat="45.603676691763745" lon="10.82212960705962"><ele>280.0</ele><time>2026-03-28T12:59:53Z</time></trkpt><trkpt lat="45.60375045967959" lon="10.822111106078914"><ele>281.0</ele><time>2026-03-28T12:59:54Z</time></trkpt><trkpt lat="45.60381271763709" lon="10.822095756721328"><ele>282.0</ele><time>2026-03-28T12:59:55Z</time></trkpt><trkpt lat="45.60388786014964" lon="10.82207940948632"><ele>283.0</ele><time>2026-03-28T12:59:56Z</time></trkpt><trkpt lat="45.60400340036901" lon="10.822071891680816"><ele>284.0</ele><time>2026-03-28T12:59:58Z</time></trkpt><trkpt lat="45.60410720371989" lon="10.82206660465361"><ele>284.0</ele><time>2026-03-28T13:00:00Z</time></trkpt><trkpt lat="45.60422554333573" lon="10.822046749123336"><ele>284.0</ele><time>2026-03-28T13:00:02Z</time></trkpt><trkpt lat="45.604309577127566" lon="10.821968279070935"><ele>284.0</ele><time>2026-03-28T13:00:04Z</time></trkpt><trkpt lat="45.604373060231694" lon="10.821890137772067"><ele>284.0</ele><time>2026-03-28T13:00:06Z</time></trkpt><trkpt lat="45.604463603195036" lon="10.821826855692983"><ele>284.0</ele><time>2026-03-28T13:00:08Z</time></trkpt><trkpt lat="45.60452774042288" lon="10.821793815804572"><ele>286.0</ele><time>2026-03-28T13:00:09Z</time></trkpt><trkpt lat="45.604593871357885" lon="10.821771247154901"><ele>288.0</ele><time>2026-03-28T13:00:10Z</time></trkpt><trkpt lat="45.60466303030394" lon="10.821751019587136"><ele>290.0</ele><time>2026-03-28T13:00:11Z</time></trkpt><trkpt lat="45.6047293476019" lon="10.82173933711377"><ele>292.0</ele><time>2026-03-28T13:00:12Z</time></trkpt><trkpt lat="45.60479691301155" lon="10.821737434031405"><ele>294.0</ele><time>2026-03-28T13:00:13Z</time></trkpt><trkpt lat="45.60486633722038" lon="10.821748378477002"><ele>296.0</ele><time>2026-03-28T13:00:14Z</time></trkpt><trkpt lat="45.605019272651305" lon="10.82175688682487"><ele>296.0</ele><time>2026-03-28T13:00:15Z</time></trkpt><trkpt lat="45.60510071504399" lon="10.82177824333264"><ele>296.0</ele><time>2026-03-28T13:00:16Z</time></trkpt><trkpt lat="45.60518311120588" lon="10.821721992229037"><ele>296.0</ele><time>2026-03-28T13:00:17Z</time></trkpt><trkpt lat="45.60523108113983" lon="10.821634273520475"><ele>296.0</ele><time>2026-03-28T13:00:18Z</time></trkpt><trkpt lat="45.60526663314274" lon="10.821527610594451"><ele>296.0</ele><time>2026-03-28T13:00:20Z</time></trkpt><trkpt lat="45.605299871137944" lon="10.821430069548196"><ele>296.0</ele><time>2026-03-28T13:00:27Z</time></trkpt><trkpt lat="45.60528581586019" lon="10.821749567347696"><ele>296.0</ele><time>2026-03-28T13:00:30Z</time></trkpt><trkpt lat="45.60528633560822" lon="10.821937249282968"><ele>296.0</ele><time>2026-03-28T13:00:31Z</time></trkpt><trkpt lat="45.60529872738974" lon="10.82215965547203"><ele>296.0</ele><time>2026-03-28T13:00:32Z</time></trkpt><trkpt lat="45.60531404463647" lon="10.82238596703316"><ele>296.0</ele><time>2026-03-28T13:00:33Z</time></trkpt><trkpt lat="45.60532779947314" lon="10.82259761428647"><ele>299.5</ele><time>2026-03-28T13:00:34Z</time></trkpt><trkpt lat="45.60534067900865" lon="10.8227914422645"><ele>303.0</ele><time>2026-03-28T13:00:35Z</time></trkpt><trkpt lat="45.605351185007876" lon="10.822979872784137"><ele>306.5</ele><time>2026-03-28T13:00:36Z</time></trkpt><trkpt lat="45.60536012216074" lon="10.823168449248403"><ele>310.0</ele><time>2026-03-28T13:00:37Z</time></trkpt><trkpt lat="45.60537042377188" lon="10.823363765380604"><ele>309.5</ele><time>2026-03-28T13:00:38Z</time></trkpt><trkpt lat="45.60538277889925" lon="10.823569128924017"><ele>309.0</ele><time>2026-03-28T13:00:39Z</time></trkpt><trkpt lat="45.605395582132985" lon="10.823782214864867"><ele>308.5</ele><time>2026-03-28T13:00:40Z</time></trkpt><trkpt lat="45.605403610752006" lon="10.823988915336644"><ele>308.0</ele><time>2026-03-28T13:00:41Z</time></trkpt><trkpt lat="45.60540399380211" lon="10.824183243555353"><ele>307.75</ele><time>2026-03-28T13:00:42Z</time></trkpt><trkpt lat="45.60538733142873" lon="10.824364900582992"><ele>307.5</ele><time>2026-03-28T13:00:43Z</time></trkpt><trkpt lat="45.60533994383244" lon="10.824516542177642"><ele>307.25</ele><time>2026-03-28T13:00:44Z</time></trkpt><trkpt lat="45.60524650307746" lon="10.824610940201314"><ele>307.0</ele><time>2026-03-28T13:00:45Z</time></trkpt><trkpt lat="45.60514468733052" lon="10.824730131829986"><ele>305.25</ele><time>2026-03-28T13:00:46Z</time></trkpt><trkpt lat="45.6050189086266" lon="10.824813712190883"><ele>303.5</ele><time>2026-03-28T13:00:47Z</time></trkpt><trkpt lat="45.60489593647894" lon="10.824866445360412"><ele>301.75</ele><time>2026-03-28T13:00:48Z</time></trkpt><trkpt lat="45.604788277683234" lon="10.824890858944375"><ele>300.0</ele><time>2026-03-28T13:00:49Z</time></trkpt><trkpt lat="45.60468840116589" lon="10.824946805707585"><ele>300.0</ele><time>2026-03-28T13:00:50Z</time></trkpt><trkpt lat="45.60460159821508" lon="10.825062078602064"><ele>300.0</ele><time>2026-03-28T13:00:51Z</time></trkpt><trkpt lat="45.6045305434827" lon="10.825209117229143"><ele>300.0</ele><time>2026-03-28T13:00:52Z</time></trkpt><trkpt lat="45.604486738876375" lon="10.825380563934255"><ele>300.0</ele><time>2026-03-28T13:00:53Z</time></trkpt><trkpt lat="45.60444622557407" lon="10.825566638252752"><ele>300.0</ele><time>2026-03-28T13:00:54Z</time></trkpt><trkpt lat="45.60438009823895" lon="10.825732572320888"><ele>300.0</ele><time>2026-03-28T13:00:55Z</time></trkpt><trkpt lat="45.604294952740716" lon="10.825872983193662"><ele>300.0</ele><time>2026-03-28T13:00:56Z</time></trkpt><trkpt lat="45.604176747025186" lon="10.825969991227765"><ele>300.0</ele><time>2026-03-28T13:00:57Z</time></trkpt><trkpt lat="45.604048960196806" lon="10.826069840260171"><ele>300.75</ele><time>2026-03-28T13:00:58Z</time></trkpt><trkpt lat="45.60392687172558" lon="10.826174147449954"><ele>301.5</ele><time>2026-03-28T13:00:59Z</time></trkpt><trkpt lat="45.603806563405676" lon="10.826261906699765"><ele>302.25</ele><time>2026-03-28T13:01:00Z</time></trkpt><trkpt lat="45.603688079613775" lon="10.826342528992598"><ele>303.0</ele><time>2026-03-28T13:01:01Z</time></trkpt><trkpt lat="45.603573534118446" lon="10.8264129526017"><ele>303.0</ele><time>2026-03-28T13:01:02Z</time></trkpt><trkpt lat="45.603461819270926" lon="10.82647327922556"><ele>303.0</ele><time>2026-03-28T13:01:03Z</time></trkpt><trkpt lat="45.60335277971198" lon="10.826523913836397"><ele>303.0</ele><time>2026-03-28T13:01:04Z</time></trkpt><trkpt lat="45.6032568733682" lon="10.826563639466206"><ele>303.0</ele><time>2026-03-28T13:01:05Z</time></trkpt><trkpt lat="45.60317391496828" lon="10.826585791728187"><ele>303.0</ele><time>2026-03-28T13:01:06Z</time></trkpt><trkpt lat="45.6031038625545" lon="10.826584149657341"><ele>303.0</ele><time>2026-03-28T13:01:07Z</time></trkpt><trkpt lat="45.603021263545244" lon="10.826617210514671"><ele>303.0</ele><time>2026-03-28T13:01:09Z</time></trkpt><trkpt lat="45.603031322000284" lon="10.82680312003001"><ele>303.0</ele><time>2026-03-28T13:01:12Z</time></trkpt><trkpt lat="45.60307267931544" lon="10.826882346325702"><ele>303.0</ele><time>2026-03-28T13:01:13Z</time></trkpt><trkpt lat="45.603136246577535" lon="10.826950868680374"><ele>303.0</ele><time>2026-03-28T13:01:14Z</time></trkpt><trkpt lat="45.60321994842893" lon="10.827011717098822"><ele>305.4</ele><time>2026-03-28T13:01:15Z</time></trkpt><trkpt lat="45.60332057669124" lon="10.827033777837004"><ele>307.8</ele><time>2026-03-28T13:01:16Z</time></trkpt><trkpt lat="45.60341639455609" lon="10.827102284986555"><ele>310.2</ele><time>2026-03-28T13:01:17Z</time></trkpt><trkpt lat="45.60351430484108" lon="10.827162381253496"><ele>312.6</ele><time>2026-03-28T13:01:18Z</time></trkpt><trkpt lat="45.60361137082386" lon="10.82721708687692"><ele>315.0</ele><time>2026-03-28T13:01:19Z</time></trkpt><trkpt lat="45.60369982963682" lon="10.827252014647769"><ele>315.0</ele><time>2026-03-28T13:01:20Z</time></trkpt><trkpt lat="45.603791931450914" lon="10.827279288600588"><ele>315.0</ele><time>2026-03-28T13:01:21Z</time></trkpt><trkpt lat="45.60388247307418" lon="10.827278134884498"><ele>315.0</ele><time>2026-03-28T13:01:22Z</time></trkpt><trkpt lat="45.60396357123526" lon="10.82726965715728"><ele>315.0</ele><time>2026-03-28T13:01:23Z</time></trkpt><trkpt lat="45.60404441362024" lon="10.827246481849002"><ele>315.0</ele><time>2026-03-28T13:01:24Z</time></trkpt><trkpt lat="45.60410867365635" lon="10.827227646884454"><ele>315.0</ele><time>2026-03-28T13:01:25Z</time></trkpt><trkpt lat="45.604174102738966" lon="10.82720846801667"><ele>315.0</ele><time>2026-03-28T13:01:26Z</time></trkpt><trkpt lat="45.604261536255834" lon="10.827164943053413"><ele>315.0</ele><time>2026-03-28T13:01:27Z</time></trkpt><trkpt lat="45.60433972485021" lon="10.82708053759467"><ele>315.0</ele><time>2026-03-28T13:01:28Z</time></trkpt><trkpt lat="45.60442284108599" lon="10.826983840462734"><ele>315.0</ele><time>2026-03-28T13:01:29Z</time></trkpt><trkpt lat="45.60450057632711" lon="10.826883448022999"><ele>315.0</ele><time>2026-03-28T13:01:30Z</time></trkpt><trkpt lat="45.60455426917935" lon="10.826774991130607"><ele>314.5</ele><time>2026-03-28T13:01:31Z</time></trkpt><trkpt lat="45.604600508024944" lon="10.82670556829498"><ele>314.0</ele><time>2026-03-28T13:01:32Z</time></trkpt><trkpt lat="45.60467154365353" lon="10.826584354742664"><ele>313.5</ele><time>2026-03-28T13:01:34Z</time></trkpt><trkpt lat="45.60473665222" lon="10.826527611548434"><ele>313.0</ele><time>2026-03-28T13:01:35Z</time></trkpt><trkpt lat="45.604808994244436" lon="10.826492007600795"><ele>312.5</ele><time>2026-03-28T13:01:36Z</time></trkpt><trkpt lat="45.60489060950309" lon="10.826476107396193"><ele>312.0</ele><time>2026-03-28T13:01:37Z</time></trkpt><trkpt lat="45.60497258592767" lon="10.826474103560775"><ele>312.0</ele><time>2026-03-28T13:01:38Z</time></trkpt><trkpt lat="45.6050441490712" lon="10.826464261449098"><ele>312.0</ele><time>2026-03-28T13:01:39Z</time></trkpt><trkpt lat="45.60510601049607" lon="10.826425059827649"><ele>312.0</ele><time>2026-03-28T13:01:40Z</time></trkpt><trkpt lat="45.60516079640292" lon="10.82634532625865"><ele>312.0</ele><time>2026-03-28T13:01:41Z</time></trkpt><trkpt lat="45.60522004624055" lon="10.826233377976658"><ele>312.0</ele><time>2026-03-28T13:01:42Z</time></trkpt><trkpt lat="45.605294236704175" lon="10.82611855401069"><ele>312.0</ele><time>2026-03-28T13:01:43Z</time></trkpt><trkpt lat="45.60537112450888" lon="10.82605381008719"><ele>313.5</ele><time>2026-03-28T13:01:44Z</time></trkpt><trkpt lat="45.60545694984814" lon="10.82604306535718"><ele>315.0</ele><time>2026-03-28T13:01:45Z</time></trkpt><trkpt lat="45.60554230987845" lon="10.826033045866522"><ele>316.5</ele><time>2026-03-28T13:01:46Z</time></trkpt><trkpt lat="45.60562752240669" lon="10.82602357228308"><ele>318.0</ele><time>2026-03-28T13:01:47Z</time></trkpt><trkpt lat="45.60570194016564" lon="10.826007632311901"><ele>319.5</ele><time>2026-03-28T13:01:48Z</time></trkpt><trkpt lat="45.6057463387511" lon="10.826078963087971"><ele>321.0</ele><time>2026-03-28T13:01:49Z</time></trkpt><trkpt lat="45.60582745466621" lon="10.826136616304664"><ele>321.0</ele><time>2026-03-28T13:01:50Z</time></trkpt><trkpt lat="45.60592130183306" lon="10.826215009817195"><ele>321.0</ele><time>2026-03-28T13:01:51Z</time></trkpt><trkpt lat="45.60604032813061" lon="10.826280171754286"><ele>321.0</ele><time>2026-03-28T13:01:52Z</time></trkpt><trkpt lat="45.6061680840098" lon="10.826333111661336"><ele>321.0</ele><time>2026-03-28T13:01:53Z</time></trkpt><trkpt lat="45.60628876555849" lon="10.82638801891632"><ele>322.0</ele><time>2026-03-28T13:01:54Z</time></trkpt><trkpt lat="45.606406264946024" lon="10.826447214729935"><ele>323.0</ele><time>2026-03-28T13:01:55Z</time></trkpt><trkpt lat="45.60652641528561" lon="10.826509081824588"><ele>324.0</ele><time>2026-03-28T13:01:56Z</time></trkpt><trkpt lat="45.60664280441084" lon="10.82657104604331"><ele>325.0</ele><time>2026-03-28T13:01:57Z</time></trkpt><trkpt lat="45.60675118081498" lon="10.82666179508831"><ele>325.0</ele><time>2026-03-28T13:01:58Z</time></trkpt><trkpt lat="45.606865441128456" lon="10.826705533668838"><ele>325.0</ele><time>2026-03-28T13:01:59Z</time></trkpt><trkpt lat="45.60696886476893" lon="10.826772972059686"><ele>325.0</ele><time>2026-03-28T13:02:00Z</time></trkpt><trkpt lat="45.607057875935354" lon="10.826828122196423"><ele>325.0</ele><time>2026-03-28T13:02:01Z</time></trkpt><trkpt lat="45.607153586189604" lon="10.826883789837346"><ele>325.0</ele><time>2026-03-28T13:02:02Z</time></trkpt><trkpt lat="45.607257893335756" lon="10.82693368246564"><ele>327.4</ele><time>2026-03-28T13:02:03Z</time></trkpt><trkpt lat="45.60736425174343" lon="10.826976713672332"><ele>329.8</ele><time>2026-03-28T13:02:04Z</time></trkpt><trkpt lat="45.6074694606468" lon="10.827012483194846"><ele>332.20000000000005</ele><time>2026-03-28T13:02:05Z</time></trkpt><trkpt lat="45.607577670525224" lon="10.827031208810848"><ele>334.6</ele><time>2026-03-28T13:02:06Z</time></trkpt><trkpt lat="45.60768811015605" lon="10.827044458746801"><ele>337.0</ele><time>2026-03-28T13:02:07Z</time></trkpt><trkpt lat="45.60779434217181" lon="10.827059331634379"><ele>336.66666666666663</ele><time>2026-03-28T13:02:08Z</time></trkpt><trkpt lat="45.607879234007974" lon="10.82707728831489"><ele>336.3333333333333</ele><time>2026-03-28T13:02:09Z</time></trkpt><trkpt lat="45.60794621843151" lon="10.827100692620817"><ele>336.0</ele><time>2026-03-28T13:02:10Z</time></trkpt><trkpt lat="45.60803550717789" lon="10.827135898718147"><ele>335.6666666666667</ele><time>2026-03-28T13:02:12Z</time></trkpt><trkpt lat="45.60810907287874" lon="10.827168370534292"><ele>335.33333333333337</ele><time>2026-03-28T13:02:14Z</time></trkpt><trkpt lat="45.60817661336085" lon="10.827177443714026"><ele>335.0</ele><time>2026-03-28T13:02:16Z</time></trkpt><trkpt lat="45.60824555729817" lon="10.82717298560815"><ele>335.0</ele><time>2026-03-28T13:02:17Z</time></trkpt><trkpt lat="45.60832665622289" lon="10.8271424160494"><ele>335.0</ele><time>2026-03-28T13:02:18Z</time></trkpt><trkpt lat="45.60839416883355" lon="10.827057653884024"><ele>335.0</ele><time>2026-03-28T13:02:19Z</time></trkpt><trkpt lat="45.6084463714028" lon="10.826937493829677"><ele>335.0</ele><time>2026-03-28T13:02:20Z</time></trkpt><trkpt lat="45.608498525829646" lon="10.826798099866338"><ele>335.0</ele><time>2026-03-28T13:02:21Z</time></trkpt><trkpt lat="45.6085366658585" lon="10.826676526379964"><ele>333.8</ele><time>2026-03-28T13:02:22Z</time></trkpt><trkpt lat="45.60854526953668" lon="10.826526799742084"><ele>332.6</ele><time>2026-03-28T13:02:23Z</time></trkpt><trkpt lat="45.608527783381525" lon="10.826373893545304"><ele>331.4</ele><time>2026-03-28T13:02:24Z</time></trkpt><trkpt lat="45.60852428571746" lon="10.826218314660464"><ele>330.2</ele><time>2026-03-28T13:02:25Z</time></trkpt><trkpt lat="45.608519370553054" lon="10.826070653024297"><ele>329.0</ele><time>2026-03-28T13:02:26Z</time></trkpt><trkpt lat="45.60851447217292" lon="10.825929265078969"><ele>329.0</ele><time>2026-03-28T13:02:27Z</time></trkpt><trkpt lat="45.60851632121244" lon="10.825787504999738"><ele>329.0</ele><time>2026-03-28T13:02:28Z</time></trkpt><trkpt lat="45.608526057636226" lon="10.825648496379236"><ele>329.0</ele><time>2026-03-28T13:02:29Z</time></trkpt><trkpt lat="45.608540046160414" lon="10.825506100221213"><ele>329.0</ele><time>2026-03-28T13:02:30Z</time></trkpt><trkpt lat="45.60855679982213" lon="10.825350780031451"><ele>329.0</ele><time>2026-03-28T13:02:31Z</time></trkpt><trkpt lat="45.608573277393276" lon="10.82519846543108"><ele>328.6</ele><time>2026-03-28T13:02:32Z</time></trkpt><trkpt lat="45.60860193788573" lon="10.825054440141589"><ele>328.2</ele><time>2026-03-28T13:02:33Z</time></trkpt><trkpt lat="45.60861958217438" lon="10.824899101838373"><ele>327.8</ele><time>2026-03-28T13:02:34Z</time></trkpt><trkpt lat="45.608609014028545" lon="10.824746790609822"><ele>327.40000000000003</ele><time>2026-03-28T13:02:35Z</time></trkpt><trkpt lat="45.60860305913948" lon="10.824600234629326"><ele>327.0</ele><time>2026-03-28T13:02:36Z</time></trkpt><trkpt lat="45.608574681951254" lon="10.824473543436717"><ele>327.0</ele><time>2026-03-28T13:02:37Z</time></trkpt><trkpt lat="45.608529947507314" lon="10.82434533372203"><ele>327.0</ele><time>2026-03-28T13:02:38Z</time></trkpt><trkpt lat="45.608456895461615" lon="10.824192321832243"><ele>327.0</ele><time>2026-03-28T13:02:39Z</time></trkpt><trkpt lat="45.60838714678753" lon="10.82405712840429"><ele>327.0</ele><time>2026-03-28T13:02:40Z</time></trkpt><trkpt lat="45.608321977337944" lon="10.823932898226522"><ele>326.5</ele><time>2026-03-28T13:02:41Z</time></trkpt><trkpt lat="45.60824989327152" lon="10.823793526267236"><ele>326.0</ele><time>2026-03-28T13:02:42Z</time></trkpt><trkpt lat="45.608181822712545" lon="10.823652424610126"><ele>325.5</ele><time>2026-03-28T13:02:43Z</time></trkpt><trkpt lat="45.60810697105079" lon="10.823503297955764"><ele>325.0</ele><time>2026-03-28T13:02:44Z</time></trkpt><trkpt lat="45.6080311364017" lon="10.823352116499727"><ele>324.66666666666663</ele><time>2026-03-28T13:02:45Z</time></trkpt><trkpt lat="45.60795392330949" lon="10.823189642932096"><ele>324.3333333333333</ele><time>2026-03-28T13:02:46Z</time></trkpt><trkpt lat="45.60786763428195" lon="10.82300055905184"><ele>324.0</ele><time>2026-03-28T13:02:47Z</time></trkpt><trkpt lat="45.60778046461829" lon="10.82278205022949"><ele>322.0</ele><time>2026-03-28T13:02:48Z</time></trkpt><trkpt lat="45.607689180061136" lon="10.822556890175825"><ele>320.0</ele><time>2026-03-28T13:02:49Z</time></trkpt><trkpt lat="45.60760022661977" lon="10.822326224668828"><ele>318.0</ele><time>2026-03-28T13:02:50Z</time></trkpt><trkpt lat="45.60752179516426" lon="10.822111007087283"><ele>318.0</ele><time>2026-03-28T13:02:51Z</time></trkpt><trkpt lat="45.60745723976126" lon="10.821901823034372"><ele>318.0</ele><time>2026-03-28T13:02:52Z</time></trkpt><trkpt lat="45.60740820784606" lon="10.821695773150193"><ele>318.0</ele><time>2026-03-28T13:02:53Z</time></trkpt><trkpt lat="45.60736316800421" lon="10.821495522210375"><ele>315.75</ele><time>2026-03-28T13:02:54Z</time></trkpt><trkpt lat="45.60731526450845" lon="10.821304176319702"><ele>313.5</ele><time>2026-03-28T13:02:55Z</time></trkpt><trkpt lat="45.60726437982459" lon="10.821127077724034"><ele>311.25</ele><time>2026-03-28T13:02:56Z</time></trkpt><trkpt lat="45.60721032589384" lon="10.820950931454684"><ele>309.0</ele><time>2026-03-28T13:02:57Z</time></trkpt><trkpt lat="45.607164760567095" lon="10.820773859508405"><ele>307.75</ele><time>2026-03-28T13:02:58Z</time></trkpt><trkpt lat="45.60710938386688" lon="10.820595592425434"><ele>306.5</ele><time>2026-03-28T13:02:59Z</time></trkpt><trkpt lat="45.607086788520554" lon="10.82041430864451"><ele>305.25</ele><time>2026-03-28T13:03:00Z</time></trkpt><trkpt lat="45.60708501166595" lon="10.820223102553612"><ele>304.0</ele><time>2026-03-28T13:03:01Z</time></trkpt><trkpt lat="45.60712349467682" lon="10.820036191386281"><ele>302.75</ele><time>2026-03-28T13:03:02Z</time></trkpt><trkpt lat="45.607181539244706" lon="10.819840334499581"><ele>301.5</ele><time>2026-03-28T13:03:03Z</time></trkpt><trkpt lat="45.607246828889856" lon="10.819667228745118"><ele>300.25</ele><time>2026-03-28T13:03:04Z</time></trkpt><trkpt lat="45.60730519332318" lon="10.819505212909448"><ele>299.0</ele><time>2026-03-28T13:03:05Z</time></trkpt><trkpt lat="45.6073505661895" lon="10.819379659790371"><ele>298.2</ele><time>2026-03-28T13:03:06Z</time></trkpt><trkpt lat="45.60739194040873" lon="10.819272199000974"><ele>297.4</ele><time>2026-03-28T13:03:07Z</time></trkpt><trkpt lat="45.607438916712105" lon="10.81913354167843"><ele>296.6</ele><time>2026-03-28T13:03:08Z</time></trkpt><trkpt lat="45.60748814761744" lon="10.818967836050511"><ele>295.8</ele><time>2026-03-28T13:03:09Z</time></trkpt><trkpt lat="45.60753372027793" lon="10.818798226825994"><ele>295.0</ele><time>2026-03-28T13:03:10Z</time></trkpt><trkpt lat="45.60757546425097" lon="10.818617081363012"><ele>294.25</ele><time>2026-03-28T13:03:11Z</time></trkpt><trkpt lat="45.607617897712174" lon="10.818433678846514"><ele>293.5</ele><time>2026-03-28T13:03:12Z</time></trkpt><trkpt lat="45.607657049516874" lon="10.818244333790105"><ele>292.75</ele><time>2026-03-28T13:03:13Z</time></trkpt><trkpt lat="45.60769167856219" lon="10.818057985149567"><ele>292.0</ele><time>2026-03-28T13:03:14Z</time></trkpt><trkpt lat="45.60772560312812" lon="10.817874047999686"><ele>292.0</ele><time>2026-03-28T13:03:15Z</time></trkpt><trkpt lat="45.60775832844621" lon="10.817696422351293"><ele>292.0</ele><time>2026-03-28T13:03:16Z</time></trkpt><trkpt lat="45.60779343770394" lon="10.817532833966544"><ele>292.0</ele><time>2026-03-28T13:03:17Z</time></trkpt><trkpt lat="45.60782561917641" lon="10.817390374128838"><ele>292.0</ele><time>2026-03-28T13:03:18Z</time></trkpt><trkpt lat="45.60785405371145" lon="10.817268264276816"><ele>292.0</ele><time>2026-03-28T13:03:19Z</time></trkpt><trkpt lat="45.60787843073311" lon="10.817161315326146"><ele>290.8333333333333</ele><time>2026-03-28T13:03:20Z</time></trkpt><trkpt lat="45.607906322305475" lon="10.81707084369285"><ele>289.66666666666663</ele><time>2026-03-28T13:03:21Z</time></trkpt><trkpt lat="45.60796136339849" lon="10.81695585851759"><ele>288.5</ele><time>2026-03-28T13:03:23Z</time></trkpt><trkpt lat="45.6079974852199" lon="10.816881352775862"><ele>287.3333333333333</ele><time>2026-03-28T13:03:25Z</time></trkpt><trkpt lat="45.60802615293762" lon="10.8167942379103"><ele>286.1666666666667</ele><time>2026-03-28T13:03:43Z</time></trkpt><trkpt lat="45.60807453817629" lon="10.816698589933182"><ele>285.0</ele><time>2026-03-28T13:03:45Z</time></trkpt><trkpt lat="45.60814784014865" lon="10.816572705639638"><ele>284.8333333333333</ele><time>2026-03-28T13:03:47Z</time></trkpt><trkpt lat="45.60818920868004" lon="10.81649296200858"><ele>284.6666666666667</ele><time>2026-03-28T13:03:48Z</time></trkpt><trkpt lat="45.60822674701149" lon="10.816397681024915"><ele>284.5</ele><time>2026-03-28T13:03:49Z</time></trkpt><trkpt lat="45.60826175381454" lon="10.81629883180562"><ele>284.33333333333337</ele><time>2026-03-28T13:03:50Z</time></trkpt><trkpt lat="45.60830301863293" lon="10.816193656676509"><ele>284.1666666666667</ele><time>2026-03-28T13:03:51Z</time></trkpt><trkpt lat="45.60834934229719" lon="10.816073935974737"><ele>284.0</ele><time>2026-03-28T13:03:52Z</time></trkpt><trkpt lat="45.60839848633228" lon="10.815973130572605"><ele>284.0</ele><time>2026-03-28T13:03:53Z</time></trkpt><trkpt lat="45.60843111230512" lon="10.815879418757186"><ele>284.0</ele><time>2026-03-28T13:03:54Z</time></trkpt><trkpt lat="45.60850012298091" lon="10.815707819931314"><ele>284.0</ele><time>2026-03-28T13:03:56Z</time></trkpt><trkpt lat="45.60856500595371" lon="10.815606590133932"><ele>284.0</ele><time>2026-03-28T13:03:57Z</time></trkpt><trkpt lat="45.60864941405033" lon="10.815504958400338"><ele>284.0</ele><time>2026-03-28T13:03:58Z</time></trkpt><trkpt lat="45.60872588919697" lon="10.815396395649595"><ele>283.5</ele><time>2026-03-28T13:03:59Z</time></trkpt><trkpt lat="45.608781749388115" lon="10.815265183538552"><ele>283.0</ele><time>2026-03-28T13:04:00Z</time></trkpt><trkpt lat="45.608824263790176" lon="10.81511291635337"><ele>282.5</ele><time>2026-03-28T13:04:01Z</time></trkpt><trkpt lat="45.608853022574" lon="10.814926488075518"><ele>282.0</ele><time>2026-03-28T13:04:02Z</time></trkpt><trkpt lat="45.608870805184644" lon="10.814729862738812"><ele>282.0</ele><time>2026-03-28T13:04:03Z</time></trkpt><trkpt lat="45.608879275017905" lon="10.814532782804633"><ele>282.0</ele><time>2026-03-28T13:04:04Z</time></trkpt><trkpt lat="45.60889773564325" lon="10.81433318138376"><ele>282.0</ele><time>2026-03-28T13:04:05Z</time></trkpt><trkpt lat="45.60892919952743" lon="10.814136836387274"><ele>282.0</ele><time>2026-03-28T13:04:06Z</time></trkpt><trkpt lat="45.60896242319334" lon="10.813937965722516"><ele>281.75</ele><time>2026-03-28T13:04:07Z</time></trkpt><trkpt lat="45.60899942341854" lon="10.813736565378383"><ele>281.5</ele><time>2026-03-28T13:04:08Z</time></trkpt><trkpt lat="45.6090350896497" lon="10.813545603609185"><ele>281.25</ele><time>2026-03-28T13:04:09Z</time></trkpt><trkpt lat="45.60907174914048" lon="10.813360445938027"><ele>281.0</ele><time>2026-03-28T13:04:10Z</time></trkpt><trkpt lat="45.60910702689349" lon="10.813183061198865"><ele>280.75</ele><time>2026-03-28T13:04:11Z</time></trkpt><trkpt lat="45.609139591995394" lon="10.813008698513684"><ele>280.5</ele><time>2026-03-28T13:04:12Z</time></trkpt><trkpt lat="45.609165007738746" lon="10.81284110308878"><ele>280.25</ele><time>2026-03-28T13:04:13Z</time></trkpt><trkpt lat="45.60918228774183" lon="10.812670403634169"><ele>280.0</ele><time>2026-03-28T13:04:14Z</time></trkpt><trkpt lat="45.60919048270179" lon="10.812496065179383"><ele>281.25</ele><time>2026-03-28T13:04:15Z</time></trkpt><trkpt lat="45.60919600666571" lon="10.812322996991668"><ele>282.5</ele><time>2026-03-28T13:04:16Z</time></trkpt><trkpt lat="45.60920870163337" lon="10.81215182786656"><ele>283.75</ele><time>2026-03-28T13:04:17Z</time></trkpt><trkpt lat="45.60923343488088" lon="10.81199406625032"><ele>285.0</ele><time>2026-03-28T13:04:18Z</time></trkpt><trkpt lat="45.60927951671805" lon="10.811866043617787"><ele>284.8</ele><time>2026-03-28T13:04:19Z</time></trkpt><trkpt lat="45.60934585512411" lon="10.811777104011707"><ele>284.6</ele><time>2026-03-28T13:04:20Z</time></trkpt><trkpt lat="45.6094300342705" lon="10.811710469644197"><ele>284.4</ele><time>2026-03-28T13:04:21Z</time></trkpt><trkpt lat="45.60952201439871" lon="10.811636095844225"><ele>284.2</ele><time>2026-03-28T13:04:22Z</time></trkpt><trkpt lat="45.60961476115797" lon="10.811562962533426"><ele>284.0</ele><time>2026-03-28T13:04:23Z</time></trkpt><trkpt lat="45.609703057740795" lon="10.811489422871889"><ele>284.8</ele><time>2026-03-28T13:04:24Z</time></trkpt><trkpt lat="45.609764522665024" lon="10.811386515120647"><ele>285.59999999999997</ele><time>2026-03-28T13:04:25Z</time></trkpt><trkpt lat="45.60982553833074" lon="10.81130049031059"><ele>286.4</ele><time>2026-03-28T13:04:26Z</time></trkpt><trkpt lat="45.60987404867919" lon="10.811226392111006"><ele>287.2</ele><time>2026-03-28T13:04:27Z</time></trkpt><trkpt lat="45.609945529688844" lon="10.811108985213123"><ele>288.0</ele><time>2026-03-28T13:04:29Z</time></trkpt><trkpt lat="45.61014352353456" lon="10.811227906610304"><ele>288.0</ele><time>2026-03-28T13:04:31Z</time></trkpt><trkpt lat="45.610259273142304" lon="10.811263822851675"><ele>288.0</ele><time>2026-03-28T13:04:32Z</time></trkpt><trkpt lat="45.610392525748985" lon="10.811322010773964"><ele>288.0</ele><time>2026-03-28T13:04:33Z</time></trkpt><trkpt lat="45.610520375836536" lon="10.81135555639974"><ele>288.0</ele><time>2026-03-28T13:04:34Z</time></trkpt><trkpt lat="45.61062971430518" lon="10.811370839999334"><ele>288.8</ele><time>2026-03-28T13:04:35Z</time></trkpt><trkpt lat="45.61073937764745" lon="10.81139200901435"><ele>289.6</ele><time>2026-03-28T13:04:36Z</time></trkpt><trkpt lat="45.61084047100123" lon="10.811410799361088"><ele>290.4</ele><time>2026-03-28T13:04:37Z</time></trkpt><trkpt lat="45.610933893093154" lon="10.811427076105499"><ele>291.2</ele><time>2026-03-28T13:04:38Z</time></trkpt><trkpt lat="45.61102439872111" lon="10.811443060161912"><ele>292.0</ele><time>2026-03-28T13:04:39Z</time></trkpt><trkpt lat="45.61111168804994" lon="10.811459238442385"><ele>294.6</ele><time>2026-03-28T13:04:40Z</time></trkpt><trkpt lat="45.611198040874676" lon="10.811474901054407"><ele>297.2</ele><time>2026-03-28T13:04:41Z</time></trkpt><trkpt lat="45.61127061092752" lon="10.811493441792036"><ele>299.8</ele><time>2026-03-28T13:04:42Z</time></trkpt><trkpt lat="45.611364858791184" lon="10.811557518975068"><ele>302.4</ele><time>2026-03-28T13:04:44Z</time></trkpt><trkpt lat="45.61142391977658" lon="10.811341658150715"><ele>305.0</ele><time>2026-03-28T13:04:46Z</time></trkpt><trkpt lat="45.61138634967664" lon="10.811227918841336"><ele>305.0</ele><time>2026-03-28T13:04:47Z</time></trkpt><trkpt lat="45.61132810484164" lon="10.811111085259414"><ele>305.0</ele><time>2026-03-28T13:04:48Z</time></trkpt><trkpt lat="45.61128496567526" lon="10.810969196469314"><ele>305.0</ele><time>2026-03-28T13:04:49Z</time></trkpt><trkpt lat="45.61126418424875" lon="10.810813599637235"><ele>305.0</ele><time>2026-03-28T13:04:50Z</time></trkpt><trkpt lat="45.61125143309211" lon="10.810650708984944"><ele>305.0</ele><time>2026-03-28T13:04:51Z</time></trkpt><trkpt lat="45.61123640179994" lon="10.810503231522313"><ele>307.4</ele><time>2026-03-28T13:04:52Z</time></trkpt><trkpt lat="45.61123065630176" lon="10.810362335252647"><ele>309.8</ele><time>2026-03-28T13:04:53Z</time></trkpt><trkpt lat="45.61124141116737" lon="10.810239814592565"><ele>312.2</ele><time>2026-03-28T13:04:54Z</time></trkpt><trkpt lat="45.61125211724348" lon="10.810057989167502"><ele>314.6</ele><time>2026-03-28T13:04:55Z</time></trkpt><trkpt lat="45.611258858749" lon="10.809900809096545"><ele>317.0</ele><time>2026-03-28T13:04:56Z</time></trkpt><trkpt lat="45.61127022102088" lon="10.809766257192836"><ele>318.6</ele><time>2026-03-28T13:04:57Z</time></trkpt><trkpt lat="45.61128937865577" lon="10.809637095161738"><ele>320.2</ele><time>2026-03-28T13:04:58Z</time></trkpt><trkpt lat="45.611312973574265" lon="10.80951252952208"><ele>321.8</ele><time>2026-03-28T13:04:59Z</time></trkpt><trkpt lat="45.61133531457633" lon="10.809398837817955"><ele>323.4</ele><time>2026-03-28T13:05:00Z</time></trkpt><trkpt lat="45.611381820595646" lon="10.80929416349906"><ele>325.0</ele><time>2026-03-28T13:05:01Z</time></trkpt><trkpt lat="45.61140541636521" lon="10.809153999312962"><ele>325.0</ele><time>2026-03-28T13:05:02Z</time></trkpt><trkpt lat="45.61144610574834" lon="10.80901913034923"><ele>325.0</ele><time>2026-03-28T13:05:03Z</time></trkpt><trkpt lat="45.61149862373122" lon="10.8088887952665"><ele>325.0</ele><time>2026-03-28T13:05:04Z</time></trkpt><trkpt lat="45.61153082283987" lon="10.808756081646488"><ele>325.0</ele><time>2026-03-28T13:05:05Z</time></trkpt><trkpt lat="45.61154680320718" lon="10.808606069679586"><ele>325.0</ele><time>2026-03-28T13:05:06Z</time></trkpt><trkpt lat="45.61157862329467" lon="10.808459111901543"><ele>323.6</ele><time>2026-03-28T13:05:07Z</time></trkpt><trkpt lat="45.61159274938403" lon="10.808334211679057"><ele>322.2</ele><time>2026-03-28T13:05:08Z</time></trkpt><trkpt lat="45.61160175442541" lon="10.808205205684434"><ele>320.8</ele><time>2026-03-28T13:05:09Z</time></trkpt><trkpt lat="45.61163350803255" lon="10.808084731979504"><ele>319.4</ele><time>2026-03-28T13:05:10Z</time></trkpt><trkpt lat="45.61170141852075" lon="10.80794440858751"><ele>318.0</ele><time>2026-03-28T13:05:12Z</time></trkpt><trkpt lat="45.61179219280031" lon="10.807904426595803"><ele>318.0</ele><time>2026-03-28T13:05:14Z</time></trkpt><trkpt lat="45.61183994164468" lon="10.807816213197055"><ele>318.0</ele><time>2026-03-28T13:05:16Z</time></trkpt><trkpt lat="45.61188606239783" lon="10.807671942797137"><ele>318.0</ele><time>2026-03-28T13:05:18Z</time></trkpt><trkpt lat="45.61193987581628" lon="10.807618338709464"><ele>318.0</ele><time>2026-03-28T13:05:19Z</time></trkpt><trkpt lat="45.612017317095265" lon="10.807581084086129"><ele>318.0</ele><time>2026-03-28T13:05:20Z</time></trkpt><trkpt lat="45.61211872596672" lon="10.807608952086825"><ele>318.0</ele><time>2026-03-28T13:05:21Z</time></trkpt><trkpt lat="45.612224163769476" lon="10.807584918017962"><ele>318.25</ele><time>2026-03-28T13:05:22Z</time></trkpt><trkpt lat="45.61233429387931" lon="10.80756271750847"><ele>318.5</ele><time>2026-03-28T13:05:23Z</time></trkpt><trkpt lat="45.61244901587341" lon="10.807550606582135"><ele>318.75</ele><time>2026-03-28T13:05:24Z</time></trkpt><trkpt lat="45.612577793307764" lon="10.80753803150504"><ele>319.0</ele><time>2026-03-28T13:05:25Z</time></trkpt><trkpt lat="45.61269009305176" lon="10.807530295854793"><ele>319.0</ele><time>2026-03-28T13:05:26Z</time></trkpt><trkpt lat="45.61279040606005" lon="10.80752564961292"><ele>319.0</ele><time>2026-03-28T13:05:27Z</time></trkpt><trkpt lat="45.61288681812756" lon="10.807489228840018"><ele>319.0</ele><time>2026-03-28T13:05:28Z</time></trkpt><trkpt lat="45.61298604858018" lon="10.807475836326134"><ele>319.0</ele><time>2026-03-28T13:05:29Z</time></trkpt><trkpt lat="45.613090805683434" lon="10.807458261971398"><ele>319.0</ele><time>2026-03-28T13:05:30Z</time></trkpt><trkpt lat="45.613188466299924" lon="10.807445122850238"><ele>321.0</ele><time>2026-03-28T13:05:31Z</time></trkpt><trkpt lat="45.613296913460225" lon="10.80743451361619"><ele>323.0</ele><time>2026-03-28T13:05:32Z</time></trkpt><trkpt lat="45.61340894495911" lon="10.807435719646122"><ele>325.0</ele><time>2026-03-28T13:05:33Z</time></trkpt><trkpt lat="45.61352704306087" lon="10.807448878108346"><ele>327.0</ele><time>2026-03-28T13:05:34Z</time></trkpt><trkpt lat="45.61363602397765" lon="10.80748785614201"><ele>327.6</ele><time>2026-03-28T13:05:35Z</time></trkpt><trkpt lat="45.61373851259778" lon="10.80754896652692"><ele>328.20000000000005</ele><time>2026-03-28T13:05:36Z</time></trkpt><trkpt lat="45.6138338830065" lon="10.80761223215484"><ele>328.8</ele><time>2026-03-28T13:05:37Z</time></trkpt><trkpt lat="45.61391800755395" lon="10.80766323807158"><ele>329.4</ele><time>2026-03-28T13:05:38Z</time></trkpt><trkpt lat="45.61398773180042" lon="10.80770337770161"><ele>330.0</ele><time>2026-03-28T13:05:39Z</time></trkpt><trkpt lat="45.61405605271939" lon="10.807664071844707"><ele>330.0</ele><time>2026-03-28T13:05:40Z</time></trkpt><trkpt lat="45.614115058094264" lon="10.807598632640214"><ele>330.0</ele><time>2026-03-28T13:05:41Z</time></trkpt><trkpt lat="45.61419144668417" lon="10.80750302665626"><ele>330.0</ele><time>2026-03-28T13:05:42Z</time></trkpt><trkpt lat="45.614264511245274" lon="10.807409803263043"><ele>330.0</ele><time>2026-03-28T13:05:43Z</time></trkpt><trkpt lat="45.61434053695092" lon="10.807329161397321"><ele>330.0</ele><time>2026-03-28T13:05:44Z</time></trkpt><trkpt lat="45.614419608980654" lon="10.807297969765118"><ele>332.4</ele><time>2026-03-28T13:05:45Z</time></trkpt><trkpt lat="45.61450852741169" lon="10.807312366631276"><ele>334.8</ele><time>2026-03-28T13:05:46Z</time></trkpt><trkpt lat="45.614599166847476" lon="10.807354496930309"><ele>337.20000000000005</ele><time>2026-03-28T13:05:47Z</time></trkpt><trkpt lat="45.61469125746242" lon="10.807403485284782"><ele>339.6</ele><time>2026-03-28T13:05:48Z</time></trkpt><trkpt lat="45.61480163501889" lon="10.807447866424196"><ele>342.0</ele><time>2026-03-28T13:05:49Z</time></trkpt><trkpt lat="45.61491543667292" lon="10.807495251131238"><ele>342.0</ele><time>2026-03-28T13:05:50Z</time></trkpt><trkpt lat="45.61503276430751" lon="10.807547066896571"><ele>342.0</ele><time>2026-03-28T13:05:51Z</time></trkpt><trkpt lat="45.615135199730204" lon="10.807605264359108"><ele>342.0</ele><time>2026-03-28T13:05:52Z</time></trkpt><trkpt lat="45.6152248665708" lon="10.807679628711305"><ele>342.0</ele><time>2026-03-28T13:05:53Z</time></trkpt><trkpt lat="45.6153104596308" lon="10.807756455180058"><ele>342.0</ele><time>2026-03-28T13:05:54Z</time></trkpt><trkpt lat="45.61539044350509" lon="10.807846182870625"><ele>344.0</ele><time>2026-03-28T13:05:55Z</time></trkpt><trkpt lat="45.61549557644848" lon="10.807886789567444"><ele>346.0</ele><time>2026-03-28T13:05:56Z</time></trkpt><trkpt lat="45.61560176408016" lon="10.807942503478996"><ele>348.0</ele><time>2026-03-28T13:05:57Z</time></trkpt><trkpt lat="45.61571043939341" lon="10.807982559873809"><ele>350.0</ele><time>2026-03-28T13:05:58Z</time></trkpt><trkpt lat="45.61581768457351" lon="10.808007965484652"><ele>352.0</ele><time>2026-03-28T13:05:59Z</time></trkpt><trkpt lat="45.61592702402621" lon="10.808027652542043"><ele>352.0</ele><time>2026-03-28T13:06:00Z</time></trkpt><trkpt lat="45.61603526597361" lon="10.808051217785765"><ele>352.0</ele><time>2026-03-28T13:06:01Z</time></trkpt><trkpt lat="45.61614249497382" lon="10.808095795796724"><ele>352.0</ele><time>2026-03-28T13:06:02Z</time></trkpt><trkpt lat="45.616242187678665" lon="10.80815993188029"><ele>352.0</ele><time>2026-03-28T13:06:03Z</time></trkpt><trkpt lat="45.616340344626835" lon="10.808240066478229"><ele>352.0</ele><time>2026-03-28T13:06:04Z</time></trkpt><trkpt lat="45.61644467942991" lon="10.808330628880178"><ele>354.75</ele><time>2026-03-28T13:06:05Z</time></trkpt><trkpt lat="45.61655845282241" lon="10.808433522077097"><ele>357.5</ele><time>2026-03-28T13:06:06Z</time></trkpt><trkpt lat="45.616660176924164" lon="10.80853266576834"><ele>360.25</ele><time>2026-03-28T13:06:07Z</time></trkpt><trkpt lat="45.61675960044144" lon="10.808646717772959"><ele>363.0</ele><time>2026-03-28T13:06:08Z</time></trkpt><trkpt lat="45.616864099032604" lon="10.80877925584698"><ele>364.75</ele><time>2026-03-28T13:06:09Z</time></trkpt><trkpt lat="45.616965727087766" lon="10.808903838689776"><ele>366.5</ele><time>2026-03-28T13:06:10Z</time></trkpt><trkpt lat="45.61707208424172" lon="10.809007612099363"><ele>368.25</ele><time>2026-03-28T13:06:11Z</time></trkpt><trkpt lat="45.61719339164405" lon="10.809087727731315"><ele>370.0</ele><time>2026-03-28T13:06:12Z</time></trkpt><trkpt lat="45.61732449263719" lon="10.809152888993083"><ele>370.75</ele><time>2026-03-28T13:06:13Z</time></trkpt><trkpt lat="45.61745717772492" lon="10.809219082253426"><ele>371.5</ele><time>2026-03-28T13:06:14Z</time></trkpt><trkpt lat="45.61757614915864" lon="10.80935122296342"><ele>372.25</ele><time>2026-03-28T13:06:15Z</time></trkpt><trkpt lat="45.61769436691343" lon="10.809479293914295"><ele>373.0</ele><time>2026-03-28T13:06:16Z</time></trkpt><trkpt lat="45.61781671991213" lon="10.809569516624691"><ele>376.5</ele><time>2026-03-28T13:06:17Z</time></trkpt><trkpt lat="45.6179304046981" lon="10.80966009275919"><ele>380.0</ele><time>2026-03-28T13:06:18Z</time></trkpt><trkpt lat="45.61804573332337" lon="10.809759799514719"><ele>383.5</ele><time>2026-03-28T13:06:19Z</time></trkpt><trkpt lat="45.61814975300278" lon="10.809903991441562"><ele>387.0</ele><time>2026-03-28T13:06:20Z</time></trkpt><trkpt lat="45.618217874598734" lon="10.810085786180716"><ele>386.0</ele><time>2026-03-28T13:06:21Z</time></trkpt><trkpt lat="45.61829024573883" lon="10.810231909678164"><ele>385.0</ele><time>2026-03-28T13:06:22Z</time></trkpt><trkpt lat="45.6183574111676" lon="10.810343531765364"><ele>384.0</ele><time>2026-03-28T13:06:23Z</time></trkpt><trkpt lat="45.618430557182144" lon="10.810450669895177"><ele>383.0</ele><time>2026-03-28T13:06:24Z</time></trkpt><trkpt lat="45.61852826347567" lon="10.810538727702731"><ele>382.0</ele><time>2026-03-28T13:06:25Z</time></trkpt><trkpt lat="45.618652624770085" lon="10.810621147686174"><ele>385.25</ele><time>2026-03-28T13:06:26Z</time></trkpt><trkpt lat="45.61878037945495" lon="10.810721765138572"><ele>388.5</ele><time>2026-03-28T13:06:27Z</time></trkpt><trkpt lat="45.61888566621592" lon="10.810825829630454"><ele>391.75</ele><time>2026-03-28T13:06:28Z</time></trkpt><trkpt lat="45.618986885739055" lon="10.81092739574213"><ele>395.0</ele><time>2026-03-28T13:06:29Z</time></trkpt><trkpt lat="45.61907948046481" lon="10.811031020515685"><ele>395.0</ele><time>2026-03-28T13:06:30Z</time></trkpt><trkpt lat="45.619165193942145" lon="10.811133564192291"><ele>395.0</ele><time>2026-03-28T13:06:31Z</time></trkpt><trkpt lat="45.61924791833443" lon="10.811235977771315"><ele>395.0</ele><time>2026-03-28T13:06:32Z</time></trkpt><trkpt lat="45.619331572352415" lon="10.811345830173144"><ele>395.0</ele><time>2026-03-28T13:06:33Z</time></trkpt><trkpt lat="45.61940149205157" lon="10.811464820543955"><ele>395.0</ele><time>2026-03-28T13:06:34Z</time></trkpt><trkpt lat="45.619467026272694" lon="10.811593012089604"><ele>398.75</ele><time>2026-03-28T13:06:35Z</time></trkpt><trkpt lat="45.6195220866728" lon="10.811722168698665"><ele>402.5</ele><time>2026-03-28T13:06:36Z</time></trkpt><trkpt lat="45.61957297073399" lon="10.811881520579135"><ele>406.25</ele><time>2026-03-28T13:06:37Z</time></trkpt><trkpt lat="45.61965665945015" lon="10.812015644295892"><ele>410.0</ele><time>2026-03-28T13:06:38Z</time></trkpt><trkpt lat="45.61973655153971" lon="10.812161986559023"><ele>410.5</ele><time>2026-03-28T13:06:39Z</time></trkpt><trkpt lat="45.619821009399644" lon="10.812297220962737"><ele>411.0</ele><time>2026-03-28T13:06:40Z</time></trkpt><trkpt lat="45.61991205619174" lon="10.812435578968659"><ele>411.5</ele><time>2026-03-28T13:06:41Z</time></trkpt><trkpt lat="45.62000759208803" lon="10.812576896859207"><ele>412.0</ele><time>2026-03-28T13:06:42Z</time></trkpt><trkpt lat="45.6201036320729" lon="10.812724731228611"><ele>414.5</ele><time>2026-03-28T13:06:43Z</time></trkpt><trkpt lat="45.6201934063614" lon="10.812882288088092"><ele>417.0</ele><time>2026-03-28T13:06:44Z</time></trkpt><trkpt lat="45.62026879762611" lon="10.81304593891203"><ele>419.5</ele><time>2026-03-28T13:06:45Z</time></trkpt><trkpt lat="45.62034118523483" lon="10.813209705531285"><ele>422.0</ele><time>2026-03-28T13:06:46Z</time></trkpt><trkpt lat="45.620418221437546" lon="10.813367188385715"><ele>423.5</ele><time>2026-03-28T13:06:47Z</time></trkpt><trkpt lat="45.62050450381901" lon="10.813501050219749"><ele>425.0</ele><time>2026-03-28T13:06:48Z</time></trkpt><trkpt lat="45.62060716014527" lon="10.813613837019158"><ele>426.5</ele><time>2026-03-28T13:06:49Z</time></trkpt><trkpt lat="45.62072068900252" lon="10.813693871957897"><ele>428.0</ele><time>2026-03-28T13:06:50Z</time></trkpt><trkpt lat="45.62084927114567" lon="10.813763835914633"><ele>428.0</ele><time>2026-03-28T13:06:51Z</time></trkpt><trkpt lat="45.62099002985668" lon="10.813802292284063"><ele>428.0</ele><time>2026-03-28T13:06:52Z</time></trkpt><trkpt lat="45.62112984968175" lon="10.813841929758434"><ele>428.0</ele><time>2026-03-28T13:06:53Z</time></trkpt><trkpt lat="45.62123551181573" lon="10.8139184795956"><ele>428.0</ele><time>2026-03-28T13:06:54Z</time></trkpt><trkpt lat="45.62132531922421" lon="10.813973410023591"><ele>429.59999999999997</ele><time>2026-03-28T13:06:55Z</time></trkpt><trkpt lat="45.621392841745944" lon="10.814036869933501"><ele>431.19999999999993</ele><time>2026-03-28T13:06:56Z</time></trkpt><trkpt lat="45.62144481366528" lon="10.814111330660314"><ele>432.8</ele><time>2026-03-28T13:06:57Z</time></trkpt><trkpt lat="45.62141815549071" lon="10.814232019085447"><ele>434.4</ele><time>2026-03-28T13:06:58Z</time></trkpt><trkpt lat="45.621412241110896" lon="10.814383221670415"><ele>436.0</ele><time>2026-03-28T13:06:59Z</time></trkpt><trkpt lat="45.62138880051385" lon="10.814561597543692"><ele>436.0</ele><time>2026-03-28T13:07:00Z</time></trkpt><trkpt lat="45.62138895128872" lon="10.814758968066098"><ele>436.0</ele><time>2026-03-28T13:07:01Z</time></trkpt><trkpt lat="45.621410782673344" lon="10.81493651301236"><ele>436.0</ele><time>2026-03-28T13:07:02Z</time></trkpt><trkpt lat="45.62144655241972" lon="10.81511250694063"><ele>436.0</ele><time>2026-03-28T13:07:03Z</time></trkpt><trkpt lat="45.62149192443894" lon="10.815275715061057"><ele>437.0</ele><time>2026-03-28T13:07:04Z</time></trkpt><trkpt lat="45.62152896076582" lon="10.815423856049803"><ele>438.0</ele><time>2026-03-28T13:07:05Z</time></trkpt><trkpt lat="45.62155823240484" lon="10.815568360868506"><ele>439.0</ele><time>2026-03-28T13:07:06Z</time></trkpt><trkpt lat="45.62159117019996" lon="10.81570199235352"><ele>440.0</ele><time>2026-03-28T13:07:07Z</time></trkpt><trkpt lat="45.621630777449255" lon="10.8158190681395"><ele>441.0</ele><time>2026-03-28T13:07:08Z</time></trkpt><trkpt lat="45.621664568380424" lon="10.815938053255282"><ele>442.1666666666667</ele><time>2026-03-28T13:07:09Z</time></trkpt><trkpt lat="45.62168721720803" lon="10.81606202073314"><ele>443.33333333333337</ele><time>2026-03-28T13:07:10Z</time></trkpt><trkpt lat="45.6217268568895" lon="10.816174283864703"><ele>444.5</ele><time>2026-03-28T13:07:11Z</time></trkpt><trkpt lat="45.621768208328064" lon="10.816281227118287"><ele>445.6666666666667</ele><time>2026-03-28T13:07:12Z</time></trkpt><trkpt lat="45.621811768814425" lon="10.816382315441036"><ele>446.83333333333337</ele><time>2026-03-28T13:07:13Z</time></trkpt><trkpt lat="45.621881742324156" lon="10.81646387527319"><ele>448.0</ele><time>2026-03-28T13:07:14Z</time></trkpt><trkpt lat="45.62193453342138" lon="10.816558236196846"><ele>447.83333333333337</ele><time>2026-03-28T13:07:15Z</time></trkpt><trkpt lat="45.621984458667534" lon="10.816664342373645"><ele>447.6666666666667</ele><time>2026-03-28T13:07:16Z</time></trkpt><trkpt lat="45.622070017912534" lon="10.816725078238216"><ele>447.5</ele><time>2026-03-28T13:07:17Z</time></trkpt><trkpt lat="45.62214369473185" lon="10.816789512693946"><ele>447.33333333333337</ele><time>2026-03-28T13:07:18Z</time></trkpt><trkpt lat="45.62221997893623" lon="10.816838649327233"><ele>447.1666666666667</ele><time>2026-03-28T13:07:19Z</time></trkpt><trkpt lat="45.62228581008163" lon="10.816887089311628"><ele>447.0</ele><time>2026-03-28T13:07:20Z</time></trkpt><trkpt lat="45.6223477439733" lon="10.816984476207045"><ele>448.0</ele><time>2026-03-28T13:07:22Z</time></trkpt><trkpt lat="45.622491111228605" lon="10.816769576106175"><ele>449.00000000000006</ele><time>2026-03-28T13:07:26Z</time></trkpt><trkpt lat="45.622505879679146" lon="10.816650533237143"><ele>450.00000000000006</ele><time>2026-03-28T13:07:27Z</time></trkpt><trkpt lat="45.62251775103054" lon="10.816539842670396"><ele>451.0</ele><time>2026-03-28T13:07:28Z</time></trkpt><trkpt lat="45.62252826658308" lon="10.816430031978422"><ele>452.0</ele><time>2026-03-28T13:07:29Z</time></trkpt><trkpt lat="45.62253312553984" lon="10.816321571098108"><ele>451.99999999999994</ele><time>2026-03-28T13:07:30Z</time></trkpt><trkpt lat="45.62253396387266" lon="10.816219957141415"><ele>452.0</ele><time>2026-03-28T13:07:31Z</time></trkpt><trkpt lat="45.62252653772284" lon="10.816093245623788"><ele>452.0</ele><time>2026-03-28T13:07:32Z</time></trkpt><trkpt lat="45.62251400354291" lon="10.815962401504649"><ele>452.0</ele><time>2026-03-28T13:07:33Z</time></trkpt><trkpt lat="45.62249515193807" lon="10.815829773152064"><ele>451.99999999999994</ele><time>2026-03-28T13:07:34Z</time></trkpt><trkpt lat="45.622467262338354" lon="10.815702840787798"><ele>452.0</ele><time>2026-03-28T13:07:35Z</time></trkpt><trkpt lat="45.62243544045738" lon="10.815597531483588"><ele>451.8333333333333</ele><time>2026-03-28T13:07:36Z</time></trkpt><trkpt lat="45.62240628181402" lon="10.815501108353876"><ele>451.66666666666663</ele><time>2026-03-28T13:07:37Z</time></trkpt><trkpt lat="45.62238177471004" lon="10.815401860814031"><ele>451.5</ele><time>2026-03-28T13:07:38Z</time></trkpt><trkpt lat="45.62236842560562" lon="10.815296308319889"><ele>451.33333333333337</ele><time>2026-03-28T13:07:39Z</time></trkpt><trkpt lat="45.62236640827874" lon="10.815186189254941"><ele>451.1666666666667</ele><time>2026-03-28T13:07:40Z</time></trkpt><trkpt lat="45.622366459440414" lon="10.815010558976752"><ele>451.0</ele><time>2026-03-28T13:07:42Z</time></trkpt><trkpt lat="45.622350562692596" lon="10.8148382745223"><ele>451.50000000000006</ele><time>2026-03-28T13:07:44Z</time></trkpt><trkpt lat="45.62234590342305" lon="10.814737755293498"><ele>452.0</ele><time>2026-03-28T13:07:45Z</time></trkpt><trkpt lat="45.62236597231417" lon="10.814637685848139"><ele>452.5</ele><time>2026-03-28T13:07:46Z</time></trkpt><trkpt lat="45.622370790456706" lon="10.81453534024647"><ele>453.0</ele><time>2026-03-28T13:07:47Z</time></trkpt><trkpt lat="45.62237448497197" lon="10.81440015490324"><ele>453.50000000000006</ele><time>2026-03-28T13:07:49Z</time></trkpt><trkpt lat="45.62237769466809" lon="10.81429029814575"><ele>454.0</ele><time>2026-03-28T13:07:51Z</time></trkpt><trkpt lat="45.62239486490109" lon="10.814146268743947"><ele>454.25</ele><time>2026-03-28T13:07:53Z</time></trkpt><trkpt lat="45.62247775163376" lon="10.814022156757476"><ele>454.5</ele><time>2026-03-28T13:07:55Z</time></trkpt><trkpt lat="45.622553782585754" lon="10.813916508413325"><ele>454.75</ele><time>2026-03-28T13:07:57Z</time></trkpt><trkpt lat="45.62253216153476" lon="10.813749450098173"><ele>455.0</ele><time>2026-03-28T13:07:59Z</time></trkpt><trkpt lat="45.62238360349125" lon="10.813603143562727"><ele>455.0</ele><time>2026-03-28T13:08:01Z</time></trkpt><trkpt lat="45.62229325580217" lon="10.813695650906485"><ele>455.0</ele><time>2026-03-28T13:08:02Z</time></trkpt><trkpt lat="45.622239878744836" lon="10.813544589969716"><ele>455.0</ele><time>2026-03-28T13:08:04Z</time></trkpt><trkpt lat="45.62228941669179" lon="10.813373953045053"><ele>455.0</ele><time>2026-03-28T13:08:06Z</time></trkpt><trkpt lat="45.62227325644505" lon="10.813210032101411"><ele>455.99999999999994</ele><time>2026-03-28T13:08:09Z</time></trkpt><trkpt lat="45.62223077370543" lon="10.813124215299162"><ele>457.0</ele><time>2026-03-28T13:08:11Z</time></trkpt><trkpt lat="45.622189377742785" lon="10.813035703288724"><ele>458.0</ele><time>2026-03-28T13:08:13Z</time></trkpt><trkpt lat="45.62213653389832" lon="10.81290598519395"><ele>459.0</ele><time>2026-03-28T13:08:15Z</time></trkpt><trkpt lat="45.622110326823154" lon="10.812800321794029"><ele>459.99999999999994</ele><time>2026-03-28T13:08:17Z</time></trkpt><trkpt lat="45.62206565352845" lon="10.812670085428163"><ele>461.0</ele><time>2026-03-28T13:08:19Z</time></trkpt><trkpt lat="45.62202408177477" lon="10.812581769335367"><ele>459.16666666666663</ele><time>2026-03-28T13:08:21Z</time></trkpt><trkpt lat="45.62197584051686" lon="10.812463462639283"><ele>457.3333333333333</ele><time>2026-03-28T13:08:24Z</time></trkpt><trkpt lat="45.62194319937524" lon="10.812365011880498"><ele>455.5</ele><time>2026-03-28T13:08:26Z</time></trkpt><trkpt lat="45.62190487894872" lon="10.812248470070283"><ele>453.66666666666663</ele><time>2026-03-28T13:08:28Z</time></trkpt><trkpt lat="45.62187157351144" lon="10.81214219176086"><ele>451.8333333333333</ele><time>2026-03-28T13:08:30Z</time></trkpt><trkpt lat="45.62184209734783" lon="10.812045544497263"><ele>450.0</ele><time>2026-03-28T13:08:32Z</time></trkpt><trkpt lat="45.62180457395824" lon="10.811928920024776"><ele>450.8</ele><time>2026-03-28T13:08:34Z</time></trkpt><trkpt lat="45.62176545828256" lon="10.811809048280997"><ele>451.6</ele><time>2026-03-28T13:08:36Z</time></trkpt><trkpt lat="45.621721257336375" lon="10.811676110538931"><ele>452.4</ele><time>2026-03-28T13:08:38Z</time></trkpt><trkpt lat="45.62166354157514" lon="10.811511867198899"><ele>453.2</ele><time>2026-03-28T13:08:40Z</time></trkpt><trkpt lat="45.62160963459913" lon="10.811369109043383"><ele>454.0</ele><time>2026-03-28T13:08:42Z</time></trkpt><trkpt lat="45.62156150937378" lon="10.811225663845118"><ele>454.00000000000006</ele><time>2026-03-28T13:08:44Z</time></trkpt><trkpt lat="45.62151698041931" lon="10.811077000565351"><ele>454.0</ele><time>2026-03-28T13:08:46Z</time></trkpt><trkpt lat="45.621477527199154" lon="10.810950518071563"><ele>454.0</ele><time>2026-03-28T13:08:48Z</time></trkpt><trkpt lat="45.621437901518426" lon="10.810810908741656"><ele>454.0</ele><time>2026-03-28T13:08:50Z</time></trkpt><trkpt lat="45.62141600409715" lon="10.810718485872119"><ele>454.00000000000006</ele><time>2026-03-28T13:08:51Z</time></trkpt><trkpt lat="45.62139964660332" lon="10.810627811871107"><ele>454.0</ele><time>2026-03-28T13:08:52Z</time></trkpt><trkpt lat="45.62139055071672" lon="10.81045698113046"><ele>453.25</ele><time>2026-03-28T13:08:54Z</time></trkpt><trkpt lat="45.62117972194292" lon="10.810342733652032"><ele>452.5</ele><time>2026-03-28T13:08:56Z</time></trkpt><trkpt lat="45.62112598938109" lon="10.81025835190688"><ele>451.75</ele><time>2026-03-28T13:08:58Z</time></trkpt><trkpt lat="45.62105880600252" lon="10.810187632105668"><ele>451.0</ele><time>2026-03-28T13:09:00Z</time></trkpt><trkpt lat="45.62098851735946" lon="10.810108227668996"><ele>451.0</ele><time>2026-03-28T13:09:02Z</time></trkpt><trkpt lat="45.62090065509567" lon="10.810045027786348"><ele>451.0</ele><time>2026-03-28T13:09:04Z</time></trkpt><trkpt lat="45.62081453514159" lon="10.809996860030587"><ele>451.0</ele><time>2026-03-28T13:09:06Z</time></trkpt><trkpt lat="45.62072347950005" lon="10.809932382842318"><ele>451.0</ele><time>2026-03-28T13:09:08Z</time></trkpt><trkpt lat="45.620622400612646" lon="10.809853262023712"><ele>451.0</ele><time>2026-03-28T13:09:10Z</time></trkpt><trkpt lat="45.62056373277092" lon="10.809818084567329"><ele>451.00000000000006</ele><time>2026-03-28T13:09:11Z</time></trkpt><trkpt lat="45.62045201113646" lon="10.809745667377282"><ele>451.0</ele><time>2026-03-28T13:09:13Z</time></trkpt><trkpt lat="45.6203958877751" lon="10.809691630638044"><ele>451.0</ele><time>2026-03-28T13:09:14Z</time></trkpt><trkpt lat="45.62034108533819" lon="10.809642870160733"><ele>451.0</ele><time>2026-03-28T13:09:15Z</time></trkpt><trkpt lat="45.62028689507429" lon="10.80958351673033"><ele>451.00000000000006</ele><time>2026-03-28T13:09:16Z</time></trkpt><trkpt lat="45.62022700133209" lon="10.809536074797778"><ele>451.0</ele><time>2026-03-28T13:09:17Z</time></trkpt><trkpt lat="45.620168915047095" lon="10.809492188932877"><ele>450.83333333333337</ele><time>2026-03-28T13:09:18Z</time></trkpt><trkpt lat="45.620106321936824" lon="10.809447831015138"><ele>450.6666666666667</ele><time>2026-03-28T13:09:19Z</time></trkpt><trkpt lat="45.62004464969982" lon="10.809401091654673"><ele>450.5</ele><time>2026-03-28T13:09:20Z</time></trkpt><trkpt lat="45.61998350578445" lon="10.809348564048808"><ele>450.33333333333337</ele><time>2026-03-28T13:09:21Z</time></trkpt><trkpt lat="45.61992399895472" lon="10.809285625030633"><ele>450.1666666666667</ele><time>2026-03-28T13:09:22Z</time></trkpt><trkpt lat="45.61985135310654" lon="10.809206010504708"><ele>450.0</ele><time>2026-03-28T13:09:23Z</time></trkpt><trkpt lat="45.619786327271775" lon="10.809137747000113"><ele>450.0</ele><time>2026-03-28T13:09:24Z</time></trkpt><trkpt lat="45.619716872412326" lon="10.809047245325669"><ele>450.0</ele><time>2026-03-28T13:09:25Z</time></trkpt><trkpt lat="45.61963653633938" lon="10.808932253585704"><ele>450.0</ele><time>2026-03-28T13:09:26Z</time></trkpt><trkpt lat="45.619567995771" lon="10.808842392118375"><ele>450.0</ele><time>2026-03-28T13:09:27Z</time></trkpt><trkpt lat="45.619508873915606" lon="10.808748102707465"><ele>450.0</ele><time>2026-03-28T13:09:28Z</time></trkpt><trkpt lat="45.619459544515415" lon="10.808625069115449"><ele>449.6</ele><time>2026-03-28T13:09:29Z</time></trkpt><trkpt lat="45.619412662536284" lon="10.808522159853746"><ele>449.2</ele><time>2026-03-28T13:09:30Z</time></trkpt><trkpt lat="45.61936668321917" lon="10.808349239528997"><ele>448.79999999999995</ele><time>2026-03-28T13:09:32Z</time></trkpt><trkpt lat="45.61931804259935" lon="10.808253171380466"><ele>448.4</ele><time>2026-03-28T13:09:33Z</time></trkpt><trkpt lat="45.61926288264225" lon="10.808169139069303"><ele>448.0</ele><time>2026-03-28T13:09:34Z</time></trkpt><trkpt lat="45.619217355386226" lon="10.808075176817187"><ele>448.00000000000006</ele><time>2026-03-28T13:09:35Z</time></trkpt><trkpt lat="45.619175092630854" lon="10.80799894473942"><ele>448.0</ele><time>2026-03-28T13:09:36Z</time></trkpt><trkpt lat="45.61911155434804" lon="10.807878661641544"><ele>448.0</ele><time>2026-03-28T13:09:38Z</time></trkpt><trkpt lat="45.61901188958127" lon="10.807777359746096"><ele>448.0</ele><time>2026-03-28T13:09:40Z</time></trkpt><trkpt lat="45.61895699983158" lon="10.807731952838154"><ele>448.00000000000006</ele><time>2026-03-28T13:09:41Z</time></trkpt><trkpt lat="45.6189058712092" lon="10.80767455663436"><ele>448.0</ele><time>2026-03-28T13:09:42Z</time></trkpt><trkpt lat="45.61884103555741" lon="10.807565352845394"><ele>450.59999999999997</ele><time>2026-03-28T13:09:44Z</time></trkpt><trkpt lat="45.618769356302764" lon="10.80743934801707"><ele>453.19999999999993</ele><time>2026-03-28T13:09:46Z</time></trkpt><trkpt lat="45.618721242249144" lon="10.807291375876424"><ele>455.8</ele><time>2026-03-28T13:09:48Z</time></trkpt><trkpt lat="45.61868210254507" lon="10.807195136254741"><ele>458.4</ele><time>2026-03-28T13:09:49Z</time></trkpt><trkpt lat="45.618614051990576" lon="10.807050678863535"><ele>461.0</ele><time>2026-03-28T13:09:51Z</time></trkpt><trkpt lat="45.61858086884045" lon="10.806969579926937"><ele>458.14285714285717</ele><time>2026-03-28T13:09:53Z</time></trkpt><trkpt lat="45.61854139669026" lon="10.806896016025517"><ele>455.28571428571433</ele><time>2026-03-28T13:09:56Z</time></trkpt><trkpt lat="45.618513488043625" lon="10.806801316550633"><ele>452.42857142857144</ele><time>2026-03-28T13:09:59Z</time></trkpt><trkpt lat="45.61849020996244" lon="10.806714913258158"><ele>449.57142857142856</ele><time>2026-03-28T13:10:01Z</time></trkpt><trkpt lat="45.61842029753444" lon="10.806628980709263"><ele>446.7142857142857</ele><time>2026-03-28T13:10:23Z</time></trkpt><trkpt lat="45.61837481831861" lon="10.806562039323339"><ele>443.8571428571429</ele><time>2026-03-28T13:11:10Z</time></trkpt><trkpt lat="45.61835177749777" lon="10.806465418972728"><ele>441.0</ele><time>2026-03-28T13:11:13Z</time></trkpt><trkpt lat="45.61821147859961" lon="10.80647996788816"><ele>441.0</ele><time>2026-03-28T13:11:14Z</time></trkpt><trkpt lat="45.61817769197039" lon="10.806348609204424"><ele>441.0</ele><time>2026-03-28T13:11:17Z</time></trkpt><trkpt lat="45.618149115082474" lon="10.806238905933812"><ele>441.0</ele><time>2026-03-28T13:11:19Z</time></trkpt><trkpt lat="45.618124737363196" lon="10.806149321736063"><ele>441.0</ele><time>2026-03-28T13:11:21Z</time></trkpt><trkpt lat="45.61808804199" lon="10.806073897160708"><ele>441.0</ele><time>2026-03-28T13:11:29Z</time></trkpt><trkpt lat="45.6180053827429" lon="10.806068725589453"><ele>441.0</ele><time>2026-03-28T13:16:54.001Z</time></trkpt><trkpt lat="45.617956994412744" lon="10.806007476674079"><ele>444.33333333333337</ele><time>2026-03-28T13:17:21Z</time></trkpt><trkpt lat="45.61796562700474" lon="10.80589543984959"><ele>447.6666666666667</ele><time>2026-03-28T13:17:23Z</time></trkpt><trkpt lat="45.617909001256564" lon="10.80575195349808"><ele>451.0</ele><time>2026-03-28T13:17:24Z</time></trkpt><trkpt lat="45.6179782068452" lon="10.80532397258161"><ele>453.8</ele><time>2026-03-28T13:17:52Z</time></trkpt><trkpt lat="45.61794025910702" lon="10.805113581725124"><ele>456.6</ele><time>2026-03-28T13:19:49Z</time></trkpt><trkpt lat="45.61795405455544" lon="10.80501914000356"><ele>459.4</ele><time>2026-03-28T13:19:56Z</time></trkpt><trkpt lat="45.61787820117871" lon="10.804955655025227"><ele>462.2</ele><time>2026-03-28T13:20:22Z</time></trkpt><trkpt lat="45.61782319357761" lon="10.80488468781573"><ele>465.0</ele><time>2026-03-28T13:20:25Z</time></trkpt><trkpt lat="45.61776971394803" lon="10.80482170914059"><ele>460.1666666666667</ele><time>2026-03-28T13:20:28Z</time></trkpt><trkpt lat="45.61770525125118" lon="10.804739558461321"><ele>455.33333333333337</ele><time>2026-03-28T13:20:32Z</time></trkpt><trkpt lat="45.61762647791534" lon="10.804676709695686"><ele>450.5</ele><time>2026-03-28T13:20:35Z</time></trkpt><trkpt lat="45.61755976941736" lon="10.8045994235057"><ele>445.6666666666667</ele><time>2026-03-28T13:20:45Z</time></trkpt><trkpt lat="45.61749789892457" lon="10.804572486510555"><ele>440.83333333333337</ele><time>2026-03-28T13:20:54Z</time></trkpt><trkpt lat="45.61742993383547" lon="10.804469889629647"><ele>436.0</ele><time>2026-03-28T13:20:56Z</time></trkpt><trkpt lat="45.61735376276985" lon="10.804363079975928"><ele>437.50000000000006</ele><time>2026-03-28T13:20:58Z</time></trkpt><trkpt lat="45.617241113200826" lon="10.80425682370385"><ele>439.0</ele><time>2026-03-28T13:21:00Z</time></trkpt><trkpt lat="45.61716684568686" lon="10.804207128930802"><ele>440.5</ele><time>2026-03-28T13:21:02Z</time></trkpt><trkpt lat="45.61708571017685" lon="10.804155490030064"><ele>442.0</ele><time>2026-03-28T13:21:04Z</time></trkpt><trkpt lat="45.617028312636656" lon="10.804106652481687"><ele>443.50000000000006</ele><time>2026-03-28T13:21:05Z</time></trkpt><trkpt lat="45.61697464104433" lon="10.804051339355757"><ele>445.0</ele><time>2026-03-28T13:21:06Z</time></trkpt><trkpt lat="45.6168752061714" lon="10.803952164029056"><ele>445.00000000000006</ele><time>2026-03-28T13:21:08Z</time></trkpt><trkpt lat="45.61682285148955" lon="10.803895684149397"><ele>445.0</ele><time>2026-03-28T13:21:09Z</time></trkpt><trkpt lat="45.61672217455728" lon="10.80379827357841"><ele>445.0</ele><time>2026-03-28T13:21:11Z</time></trkpt><trkpt lat="45.616635797555205" lon="10.80371134907389"><ele>445.0</ele><time>2026-03-28T13:21:13Z</time></trkpt><trkpt lat="45.61657764064752" lon="10.803671362699486"><ele>445.00000000000006</ele><time>2026-03-28T13:21:14Z</time></trkpt><trkpt lat="45.61651572429235" lon="10.803618882045527"><ele>445.0</ele><time>2026-03-28T13:21:15Z</time></trkpt><trkpt lat="45.61644904592876" lon="10.803553284105437"><ele>445.2857142857143</ele><time>2026-03-28T13:21:16Z</time></trkpt><trkpt lat="45.61641057031973" lon="10.803477662025465"><ele>445.57142857142856</ele><time>2026-03-28T13:21:17Z</time></trkpt><trkpt lat="45.61635939821562" lon="10.803396145391766"><ele>445.85714285714283</ele><time>2026-03-28T13:21:18Z</time></trkpt><trkpt lat="45.61631566891996" lon="10.803318996152088"><ele>446.1428571428571</ele><time>2026-03-28T13:21:19Z</time></trkpt><trkpt lat="45.616271871600894" lon="10.803253373355918"><ele>446.42857142857144</ele><time>2026-03-28T13:21:20Z</time></trkpt><trkpt lat="45.61619715005132" lon="10.803194456833243"><ele>446.71428571428567</ele><time>2026-03-28T13:21:21Z</time></trkpt><trkpt lat="45.61613816981816" lon="10.803140277518365"><ele>447.0</ele><time>2026-03-28T13:21:22Z</time></trkpt><trkpt lat="45.61607159773131" lon="10.803082541757586"><ele>447.0</ele><time>2026-03-28T13:21:23Z</time></trkpt><trkpt lat="45.61602502167198" lon="10.803011211893418"><ele>447.00000000000006</ele><time>2026-03-28T13:21:24Z</time></trkpt><trkpt lat="45.6159306066356" lon="10.802921197605912"><ele>447.00000000000006</ele><time>2026-03-28T13:21:26Z</time></trkpt><trkpt lat="45.61582836470151" lon="10.8028262272417"><ele>447.0</ele><time>2026-03-28T13:21:28Z</time></trkpt><trkpt lat="45.615744448031435" lon="10.802704848874843"><ele>447.0</ele><time>2026-03-28T13:21:30Z</time></trkpt><trkpt lat="45.6156932923143" lon="10.802563328293846"><ele>445.8333333333333</ele><time>2026-03-28T13:21:32Z</time></trkpt><trkpt lat="45.615659794145074" lon="10.802464337258254"><ele>444.66666666666663</ele><time>2026-03-28T13:21:33Z</time></trkpt><trkpt lat="45.615626766849665" lon="10.802357186164953"><ele>443.5</ele><time>2026-03-28T13:21:34Z</time></trkpt><trkpt lat="45.6156052890033" lon="10.802244677453965"><ele>442.3333333333333</ele><time>2026-03-28T13:21:35Z</time></trkpt><trkpt lat="45.61557774832494" lon="10.802134674322012"><ele>441.16666666666663</ele><time>2026-03-28T13:21:36Z</time></trkpt><trkpt lat="45.61554968578048" lon="10.802036351765414"><ele>440.0</ele><time>2026-03-28T13:21:37Z</time></trkpt><trkpt lat="45.615519057829616" lon="10.801932872138485"><ele>439.99999999999994</ele><time>2026-03-28T13:21:38Z</time></trkpt><trkpt lat="45.61548439294238" lon="10.801841624137767"><ele>440.0</ele><time>2026-03-28T13:21:39Z</time></trkpt><trkpt lat="45.61544167804699" lon="10.801751932903292"><ele>440.0</ele><time>2026-03-28T13:21:40Z</time></trkpt><trkpt lat="45.61538997389524" lon="10.801662929911604"><ele>440.0</ele><time>2026-03-28T13:21:41Z</time></trkpt><trkpt lat="45.615339859148364" lon="10.801581192378196"><ele>439.99999999999994</ele><time>2026-03-28T13:21:42Z</time></trkpt><trkpt lat="45.615288749787666" lon="10.80148860989491"><ele>440.0</ele><time>2026-03-28T13:21:43Z</time></trkpt><trkpt lat="45.61524703405776" lon="10.801354405642789"><ele>438.57142857142856</ele><time>2026-03-28T13:21:45Z</time></trkpt><trkpt lat="45.61523479192201" lon="10.801265278255874"><ele>437.1428571428571</ele><time>2026-03-28T13:21:46Z</time></trkpt><trkpt lat="45.615237785161845" lon="10.801164228731341"><ele>435.71428571428567</ele><time>2026-03-28T13:21:47Z</time></trkpt><trkpt lat="45.615236486484235" lon="10.801057746901026"><ele>434.2857142857143</ele><time>2026-03-28T13:21:48Z</time></trkpt><trkpt lat="45.61522371281171" lon="10.800947954621169"><ele>432.8571428571429</ele><time>2026-03-28T13:21:49Z</time></trkpt><trkpt lat="45.615210100419006" lon="10.800849413180579"><ele>431.4285714285714</ele><time>2026-03-28T13:21:50Z</time></trkpt><trkpt lat="45.61519514686955" lon="10.80074668478698"><ele>430.0</ele><time>2026-03-28T13:21:51Z</time></trkpt><trkpt lat="45.615176856839724" lon="10.80063982957138"><ele>428.4</ele><time>2026-03-28T13:21:52Z</time></trkpt><trkpt lat="45.61516675878032" lon="10.800486832181043"><ele>426.8</ele><time>2026-03-28T13:21:54Z</time></trkpt><trkpt lat="45.61517029521895" lon="10.800339238891283"><ele>425.20000000000005</ele><time>2026-03-28T13:21:56Z</time></trkpt><trkpt lat="45.61519143774912" lon="10.80021901711195"><ele>423.6</ele><time>2026-03-28T13:21:58Z</time></trkpt><trkpt lat="45.61520551770445" lon="10.80008816677648"><ele>422.0</ele><time>2026-03-28T13:22:00Z</time></trkpt><trkpt lat="45.61525503865321" lon="10.799953938208935"><ele>420.0</ele><time>2026-03-28T13:22:02Z</time></trkpt><trkpt lat="45.61531861143576" lon="10.799816359628126"><ele>418.0</ele><time>2026-03-28T13:22:05Z</time></trkpt><trkpt lat="45.61536815317736" lon="10.799702236476046"><ele>416.0</ele><time>2026-03-28T13:22:07Z</time></trkpt><trkpt lat="45.61535955570035" lon="10.799575333402618"><ele>414.0</ele><time>2026-03-28T13:22:09Z</time></trkpt><trkpt lat="45.615357401866284" lon="10.799419671164346"><ele>412.0</ele><time>2026-03-28T13:22:11Z</time></trkpt><trkpt lat="45.615351582262164" lon="10.799328089321397"><ele>410.8</ele><time>2026-03-28T13:22:12Z</time></trkpt><trkpt lat="45.61533396498247" lon="10.799227478079656"><ele>409.6</ele><time>2026-03-28T13:22:13Z</time></trkpt><trkpt lat="45.61530370343968" lon="10.799046013069496"><ele>408.40000000000003</ele><time>2026-03-28T13:22:15Z</time></trkpt><trkpt lat="45.61527243803181" lon="10.79889141002252"><ele>407.20000000000005</ele><time>2026-03-28T13:22:17Z</time></trkpt><trkpt lat="45.61523420310819" lon="10.798784511090766"><ele>406.0</ele><time>2026-03-28T13:22:19Z</time></trkpt><trkpt lat="45.615210181422924" lon="10.798650624001706"><ele>406.00000000000006</ele><time>2026-03-28T13:22:21Z</time></trkpt><trkpt lat="45.61518252444773" lon="10.798548965103095"><ele>406.0</ele><time>2026-03-28T13:22:23Z</time></trkpt><trkpt lat="45.6151497968921" lon="10.798424677874376"><ele>406.0</ele><time>2026-03-28T13:22:25Z</time></trkpt><trkpt lat="45.61512253733681" lon="10.79832115613647"><ele>406.0</ele><time>2026-03-28T13:22:27Z</time></trkpt><trkpt lat="45.61509014494244" lon="10.798206423596584"><ele>406.00000000000006</ele><time>2026-03-28T13:22:29Z</time></trkpt><trkpt lat="45.615041035056954" lon="10.798082387251348"><ele>406.0</ele><time>2026-03-28T13:22:31Z</time></trkpt><trkpt lat="45.6150088110068" lon="10.797955804838205"><ele>406.33333333333337</ele><time>2026-03-28T13:22:33Z</time></trkpt><trkpt lat="45.61497911080725" lon="10.797816139667516"><ele>406.6666666666667</ele><time>2026-03-28T13:22:36Z</time></trkpt><trkpt lat="45.614944665942005" lon="10.797727074428515"><ele>407.0</ele><time>2026-03-28T13:22:38Z</time></trkpt><trkpt lat="45.61493999327317" lon="10.79762702800947"><ele>407.33333333333337</ele><time>2026-03-28T13:22:40Z</time></trkpt><trkpt lat="45.614918769881214" lon="10.797531669181556"><ele>407.6666666666667</ele><time>2026-03-28T13:22:42Z</time></trkpt><trkpt lat="45.61487879657636" lon="10.797412452424519"><ele>408.0</ele><time>2026-03-28T13:22:45Z</time></trkpt><trkpt lat="45.614860574298405" lon="10.797325197460287"><ele>408.0</ele><time>2026-03-28T13:22:47Z</time></trkpt><trkpt lat="45.614839640458015" lon="10.797201132554239"><ele>408.0</ele><time>2026-03-28T13:22:50Z</time></trkpt><trkpt lat="45.61483719784844" lon="10.797110002472381"><ele>408.0</ele><time>2026-03-28T13:22:53Z</time></trkpt><trkpt lat="45.61484221660448" lon="10.796992515801445"><ele>408.0</ele><time>2026-03-28T13:22:56Z</time></trkpt><trkpt lat="45.614855169699545" lon="10.796880325906605"><ele>408.0</ele><time>2026-03-28T13:22:59Z</time></trkpt><trkpt lat="45.61484330846615" lon="10.796778603591566"><ele>408.0</ele><time>2026-03-28T13:23:01Z</time></trkpt><trkpt lat="45.614852329880755" lon="10.796664817498772"><ele>407.6666666666667</ele><time>2026-03-28T13:23:04Z</time></trkpt><trkpt lat="45.6148279515876" lon="10.796539565200693"><ele>407.33333333333337</ele><time>2026-03-28T13:23:07Z</time></trkpt><trkpt lat="45.61480038369747" lon="10.79645580541943"><ele>407.0</ele><time>2026-03-28T13:23:10Z</time></trkpt><trkpt lat="45.61476527407262" lon="10.79637413002193"><ele>406.6666666666667</ele><time>2026-03-28T13:23:13Z</time></trkpt><trkpt lat="45.614742072283406" lon="10.79627847020203"><ele>406.33333333333337</ele><time>2026-03-28T13:23:16Z</time></trkpt><trkpt lat="45.61467941060814" lon="10.796158611242815"><ele>406.0</ele><time>2026-03-28T13:23:17Z</time></trkpt><trkpt lat="45.61458931303194" lon="10.796121112922911"><ele>406.00000000000006</ele><time>2026-03-28T13:23:18Z</time></trkpt><trkpt lat="45.61449661842569" lon="10.796120798666742"><ele>406.0</ele><time>2026-03-28T13:23:19Z</time></trkpt><trkpt lat="45.61443096794395" lon="10.796052040899008"><ele>406.0</ele><time>2026-03-28T13:23:20Z</time></trkpt><trkpt lat="45.6143608976803" lon="10.796067302976997"><ele>406.0</ele><time>2026-03-28T13:23:21Z</time></trkpt><trkpt lat="45.6142746664622" lon="10.79608407121707"><ele>406.00000000000006</ele><time>2026-03-28T13:23:22Z</time></trkpt><trkpt lat="45.61420151257584" lon="10.796074028603886"><ele>406.0</ele><time>2026-03-28T13:23:23Z</time></trkpt><trkpt lat="45.61412969330935" lon="10.796038259071699"><ele>401.6</ele><time>2026-03-28T13:23:24Z</time></trkpt><trkpt lat="45.61408185165741" lon="10.795966580789246"><ele>397.20000000000005</ele><time>2026-03-28T13:23:25Z</time></trkpt><trkpt lat="45.613982374024374" lon="10.795902862314374"><ele>392.79999999999995</ele><time>2026-03-28T13:23:27Z</time></trkpt><trkpt lat="45.61390007024692" lon="10.795851566275168"><ele>388.4</ele><time>2026-03-28T13:23:30Z</time></trkpt><trkpt lat="45.6138484663909" lon="10.795698210509835"><ele>384.0</ele><time>2026-03-28T13:23:33Z</time></trkpt><trkpt lat="45.61385507862424" lon="10.795569795852282"><ele>384.0</ele><time>2026-03-28T13:23:34Z</time></trkpt><trkpt lat="45.61381050090844" lon="10.795463025517382"><ele>384.0</ele><time>2026-03-28T13:23:35Z</time></trkpt><trkpt lat="45.613783396333325" lon="10.795364125474292"><ele>384.0</ele><time>2026-03-28T13:23:36Z</time></trkpt><trkpt lat="45.613739372087785" lon="10.795251280341198"><ele>384.0</ele><time>2026-03-28T13:23:37Z</time></trkpt><trkpt lat="45.61371201346194" lon="10.795141518948418"><ele>384.0</ele><time>2026-03-28T13:23:38Z</time></trkpt><trkpt lat="45.613690756556046" lon="10.79504382041806"><ele>384.0</ele><time>2026-03-28T13:23:39Z</time></trkpt><trkpt lat="45.61364153763479" lon="10.794957504701301"><ele>383.4</ele><time>2026-03-28T13:23:40Z</time></trkpt><trkpt lat="45.613619678899084" lon="10.794802870444686"><ele>382.79999999999995</ele><time>2026-03-28T13:23:42Z</time></trkpt><trkpt lat="45.6135929504088" lon="10.794662124886385"><ele>382.20000000000005</ele><time>2026-03-28T13:23:44Z</time></trkpt><trkpt lat="45.613564154143546" lon="10.794506492867335"><ele>381.6</ele><time>2026-03-28T13:23:46Z</time></trkpt><trkpt lat="45.61353221232181" lon="10.794345622430574"><ele>381.0</ele><time>2026-03-28T13:23:48Z</time></trkpt><trkpt lat="45.613496786007985" lon="10.794258813190076"><ele>381.0</ele><time>2026-03-28T13:23:49Z</time></trkpt><trkpt lat="45.61347780805745" lon="10.794154378445992"><ele>381.0</ele><time>2026-03-28T13:23:50Z</time></trkpt><trkpt lat="45.61345114101546" lon="10.794044406972999"><ele>381.0</ele><time>2026-03-28T13:23:51Z</time></trkpt><trkpt lat="45.61341223286023" lon="10.793935499500442"><ele>381.0</ele><time>2026-03-28T13:23:52Z</time></trkpt><trkpt lat="45.61336385560865" lon="10.793828551678587"><ele>381.0</ele><time>2026-03-28T13:23:53Z</time></trkpt><trkpt lat="45.613305326790915" lon="10.793720629935228"><ele>381.0</ele><time>2026-03-28T13:23:54Z</time></trkpt><trkpt lat="45.61325990356807" lon="10.793632339264843"><ele>383.4</ele><time>2026-03-28T13:23:55Z</time></trkpt><trkpt lat="45.61318642368097" lon="10.793500524631648"><ele>385.8</ele><time>2026-03-28T13:23:57Z</time></trkpt><trkpt lat="45.61314133389343" lon="10.793433920494923"><ele>388.2</ele><time>2026-03-28T13:23:58Z</time></trkpt><trkpt lat="45.61307335676422" lon="10.793364886276395"><ele>390.59999999999997</ele><time>2026-03-28T13:23:59Z</time></trkpt><trkpt lat="45.61298669846616" lon="10.793308536146839"><ele>393.0</ele><time>2026-03-28T13:24:00Z</time></trkpt><trkpt lat="45.61290235863439" lon="10.793238387677683"><ele>393.0</ele><time>2026-03-28T13:24:01Z</time></trkpt><trkpt lat="45.61283726265702" lon="10.79316563213114"><ele>393.0</ele><time>2026-03-28T13:24:02Z</time></trkpt><trkpt lat="45.61277673747423" lon="10.793080849342038"><ele>393.0</ele><time>2026-03-28T13:24:03Z</time></trkpt><trkpt lat="45.612722250367135" lon="10.792990430914067"><ele>393.0</ele><time>2026-03-28T13:24:04Z</time></trkpt><trkpt lat="45.61266462306566" lon="10.79288615638185"><ele>393.0</ele><time>2026-03-28T13:24:05Z</time></trkpt><trkpt lat="45.61262333753939" lon="10.79278686858662"><ele>393.0</ele><time>2026-03-28T13:24:06Z</time></trkpt><trkpt lat="45.61258522764413" lon="10.792683200479532"><ele>390.1666666666667</ele><time>2026-03-28T13:24:07Z</time></trkpt><trkpt lat="45.61255804205216" lon="10.792573275040656"><ele>387.3333333333333</ele><time>2026-03-28T13:24:08Z</time></trkpt><trkpt lat="45.61254455308514" lon="10.792462755029188"><ele>384.5</ele><time>2026-03-28T13:24:09Z</time></trkpt><trkpt lat="45.61254495642305" lon="10.792339542968222"><ele>381.66666666666663</ele><time>2026-03-28T13:24:10Z</time></trkpt><trkpt lat="45.61254829008602" lon="10.792221183410454"><ele>378.8333333333333</ele><time>2026-03-28T13:24:11Z</time></trkpt><trkpt lat="45.61256507018339" lon="10.792119988531306"><ele>376.0</ele><time>2026-03-28T13:24:12Z</time></trkpt><trkpt lat="45.612596710868495" lon="10.79202875558686"><ele>376.0</ele><time>2026-03-28T13:24:13Z</time></trkpt><trkpt lat="45.612635735647366" lon="10.791957089704189"><ele>376.0</ele><time>2026-03-28T13:24:14Z</time></trkpt><trkpt lat="45.61270164616248" lon="10.79179680732551"><ele>376.0</ele><time>2026-03-28T13:24:16Z</time></trkpt><trkpt lat="45.61269418857062" lon="10.79169610214458"><ele>376.0</ele><time>2026-03-28T13:24:17Z</time></trkpt><trkpt lat="45.61268839772048" lon="10.791568925892083"><ele>376.0</ele><time>2026-03-28T13:24:18Z</time></trkpt><trkpt lat="45.61267508285807" lon="10.791430590723863"><ele>375.4</ele><time>2026-03-28T13:24:19Z</time></trkpt><trkpt lat="45.612665034336196" lon="10.791267984830224"><ele>374.8</ele><time>2026-03-28T13:24:20Z</time></trkpt><trkpt lat="45.61265051811296" lon="10.791146989224337"><ele>374.2</ele><time>2026-03-28T13:24:21Z</time></trkpt><trkpt lat="45.6126375147992" lon="10.791020973538846"><ele>373.59999999999997</ele><time>2026-03-28T13:24:22Z</time></trkpt><trkpt lat="45.61262711556181" lon="10.79088995589236"><ele>373.0</ele><time>2026-03-28T13:24:23Z</time></trkpt><trkpt lat="45.6126189678375" lon="10.790761662977912"><ele>372.59999999999997</ele><time>2026-03-28T13:24:24Z</time></trkpt><trkpt lat="45.61260784566962" lon="10.790637790318637"><ele>372.2</ele><time>2026-03-28T13:24:25Z</time></trkpt><trkpt lat="45.61259671984722" lon="10.790515571886495"><ele>371.8</ele><time>2026-03-28T13:24:26Z</time></trkpt><trkpt lat="45.612571519605794" lon="10.790398257214857"><ele>371.4</ele><time>2026-03-28T13:24:27Z</time></trkpt><trkpt lat="45.612528854842175" lon="10.790276589775242"><ele>371.0</ele><time>2026-03-28T13:24:28Z</time></trkpt><trkpt lat="45.612478336006696" lon="10.790154649547103"><ele>371.0</ele><time>2026-03-28T13:24:29Z</time></trkpt><trkpt lat="45.61243305128259" lon="10.790035575934047"><ele>371.0</ele><time>2026-03-28T13:24:30Z</time></trkpt><trkpt lat="45.612387717739026" lon="10.78992348760312"><ele>371.0</ele><time>2026-03-28T13:24:31Z</time></trkpt><trkpt lat="45.612332401348525" lon="10.789807283911697"><ele>371.0</ele><time>2026-03-28T13:24:32Z</time></trkpt><trkpt lat="45.612261739970286" lon="10.789694030062222"><ele>371.0</ele><time>2026-03-28T13:24:33Z</time></trkpt><trkpt lat="45.61218445404195" lon="10.789589833666138"><ele>371.0</ele><time>2026-03-28T13:24:34Z</time></trkpt><trkpt lat="45.612101827521315" lon="10.78948598078623"><ele>371.0</ele><time>2026-03-28T13:24:35Z</time></trkpt><trkpt lat="45.61203151984416" lon="10.789390517663751"><ele>371.0</ele><time>2026-03-28T13:24:36Z</time></trkpt><trkpt lat="45.61195492849903" lon="10.789304653118258"><ele>371.0</ele><time>2026-03-28T13:24:37Z</time></trkpt><trkpt lat="45.61188318422431" lon="10.789203044349494"><ele>371.0</ele><time>2026-03-28T13:24:38Z</time></trkpt><trkpt lat="45.61182108099172" lon="10.789100606449576"><ele>368.6666666666667</ele><time>2026-03-28T13:24:39Z</time></trkpt><trkpt lat="45.61176632454051" lon="10.789019242618142"><ele>366.33333333333337</ele><time>2026-03-28T13:24:40Z</time></trkpt><trkpt lat="45.61172340444856" lon="10.788913191599999"><ele>364.0</ele><time>2026-03-28T13:24:41Z</time></trkpt><trkpt lat="45.6116907039657" lon="10.788788959046164"><ele>361.6666666666667</ele><time>2026-03-28T13:24:42Z</time></trkpt><trkpt lat="45.611675645349194" lon="10.788663290161002"><ele>359.3333333333333</ele><time>2026-03-28T13:24:43Z</time></trkpt><trkpt lat="45.611678737301574" lon="10.788542820337613"><ele>357.0</ele><time>2026-03-28T13:24:44Z</time></trkpt><trkpt lat="45.61169423193353" lon="10.788405230268832"><ele>357.0</ele><time>2026-03-28T13:24:45Z</time></trkpt><trkpt lat="45.611716342563966" lon="10.788262611757048"><ele>357.0</ele><time>2026-03-28T13:24:46Z</time></trkpt><trkpt lat="45.611738302015254" lon="10.788120143611359"><ele>357.0</ele><time>2026-03-28T13:24:47Z</time></trkpt><trkpt lat="45.61178820166001" lon="10.787975643130876"><ele>357.0</ele><time>2026-03-28T13:24:48Z</time></trkpt><trkpt lat="45.61180469179563" lon="10.787878040650257"><ele>357.0</ele><time>2026-03-28T13:24:49Z</time></trkpt><trkpt lat="45.61186440008163" lon="10.787784941777963"><ele>357.0</ele><time>2026-03-28T13:24:50Z</time></trkpt><trkpt lat="45.61194775954387" lon="10.787679227046484"><ele>357.0</ele><time>2026-03-28T13:24:51Z</time></trkpt><trkpt lat="45.61199233489355" lon="10.78755858991743"><ele>357.0</ele><time>2026-03-28T13:24:52Z</time></trkpt><trkpt lat="45.61200946358617" lon="10.78742629209731"><ele>357.0</ele><time>2026-03-28T13:24:53Z</time></trkpt><trkpt lat="45.61200313517903" lon="10.787288566321948"><ele>357.0</ele><time>2026-03-28T13:24:54Z</time></trkpt><trkpt lat="45.61198966142067" lon="10.787147224241675"><ele>356.0</ele><time>2026-03-28T13:24:55Z</time></trkpt><trkpt lat="45.61196736729387" lon="10.787019915895522"><ele>355.0</ele><time>2026-03-28T13:24:56Z</time></trkpt><trkpt lat="45.61192764308324" lon="10.786913104149914"><ele>354.0</ele><time>2026-03-28T13:24:57Z</time></trkpt><trkpt lat="45.61187558275908" lon="10.786827957531791"><ele>353.0</ele><time>2026-03-28T13:24:58Z</time></trkpt><trkpt lat="45.61179699024314" lon="10.786767907717106"><ele>352.0</ele><time>2026-03-28T13:24:59Z</time></trkpt><trkpt lat="45.61169661151284" lon="10.786704741915008"><ele>352.0</ele><time>2026-03-28T13:25:00Z</time></trkpt><trkpt lat="45.611585092186246" lon="10.786626528806504"><ele>352.0</ele><time>2026-03-28T13:25:01Z</time></trkpt><trkpt lat="45.61149578340757" lon="10.786524742145607"><ele>352.0</ele><time>2026-03-28T13:25:02Z</time></trkpt><trkpt lat="45.61142401766955" lon="10.786423692557142"><ele>352.0</ele><time>2026-03-28T13:25:03Z</time></trkpt><trkpt lat="45.611351742779945" lon="10.786319463554417"><ele>352.0</ele><time>2026-03-28T13:25:04Z</time></trkpt><trkpt lat="45.61127872935038" lon="10.786218292231185"><ele>352.0</ele><time>2026-03-28T13:25:05Z</time></trkpt><trkpt lat="45.611212395962234" lon="10.786110694778177"><ele>352.0</ele><time>2026-03-28T13:25:06Z</time></trkpt><trkpt lat="45.61115507051055" lon="10.785993384457939"><ele>352.0</ele><time>2026-03-28T13:25:07Z</time></trkpt><trkpt lat="45.61111768380613" lon="10.785868008712297"><ele>352.0</ele><time>2026-03-28T13:25:08Z</time></trkpt><trkpt lat="45.611094047953" lon="10.78574822436517"><ele>352.0</ele><time>2026-03-28T13:25:09Z</time></trkpt><trkpt lat="45.61106687231866" lon="10.785641105843487"><ele>353.0</ele><time>2026-03-28T13:25:10Z</time></trkpt><trkpt lat="45.611037839363036" lon="10.785559324967933"><ele>354.0</ele><time>2026-03-28T13:25:11Z</time></trkpt><trkpt lat="45.61100225652849" lon="10.785461169059648"><ele>355.0</ele><time>2026-03-28T13:25:13Z</time></trkpt><trkpt lat="45.61109244152754" lon="10.785429559353332"><ele>356.0</ele><time>2026-03-28T13:25:17Z</time></trkpt><trkpt lat="45.611189682927574" lon="10.785443383525077"><ele>357.0</ele><time>2026-03-28T13:25:18Z</time></trkpt><trkpt lat="45.611303448262085" lon="10.785471610533412"><ele>358.0</ele><time>2026-03-28T13:25:19Z</time></trkpt><trkpt lat="45.61142105259163" lon="10.785464439298062"><ele>358.0</ele><time>2026-03-28T13:25:20Z</time></trkpt><trkpt lat="45.61154218452124" lon="10.785402735314182"><ele>358.0</ele><time>2026-03-28T13:25:21Z</time></trkpt><trkpt lat="45.611645450246556" lon="10.78529962907419"><ele>358.0</ele><time>2026-03-28T13:25:22Z</time></trkpt><trkpt lat="45.611723261381464" lon="10.785162397204983"><ele>358.0</ele><time>2026-03-28T13:25:23Z</time></trkpt><trkpt lat="45.61177262798866" lon="10.785002679746091"><ele>358.25</ele><time>2026-03-28T13:25:24Z</time></trkpt><trkpt lat="45.61178795727226" lon="10.784818475898591"><ele>358.5</ele><time>2026-03-28T13:25:25Z</time></trkpt><trkpt lat="45.61178510433587" lon="10.784626132200724"><ele>358.75</ele><time>2026-03-28T13:25:26Z</time></trkpt><trkpt lat="45.611754261444915" lon="10.784409578991994"><ele>359.0</ele><time>2026-03-28T13:25:27Z</time></trkpt><trkpt lat="45.611724114196846" lon="10.784185156419717"><ele>359.6666666666667</ele><time>2026-03-28T13:25:28Z</time></trkpt><trkpt lat="45.61171364437214" lon="10.783946607446678"><ele>360.3333333333333</ele><time>2026-03-28T13:25:29Z</time></trkpt><trkpt lat="45.61168545859594" lon="10.783716371223472"><ele>361.0</ele><time>2026-03-28T13:25:30Z</time></trkpt><trkpt lat="45.611667326637" lon="10.783486790652145"><ele>362.0</ele><time>2026-03-28T13:25:31Z</time></trkpt><trkpt lat="45.611659448329306" lon="10.783256246704491"><ele>363.0</ele><time>2026-03-28T13:25:32Z</time></trkpt><trkpt lat="45.61163953506553" lon="10.783038254126742"><ele>364.0</ele><time>2026-03-28T13:25:33Z</time></trkpt><trkpt lat="45.61163083364041" lon="10.78282709671307"><ele>365.5</ele><time>2026-03-28T13:25:34Z</time></trkpt><trkpt lat="45.611615193355505" lon="10.782622106124121"><ele>367.0</ele><time>2026-03-28T13:25:35Z</time></trkpt><trkpt lat="45.61160418359228" lon="10.78241894622196"><ele>368.5</ele><time>2026-03-28T13:25:36Z</time></trkpt><trkpt lat="45.6115938605281" lon="10.782212663639786"><ele>370.0</ele><time>2026-03-28T13:25:37Z</time></trkpt><trkpt lat="45.61159304453801" lon="10.782000158578931"><ele>370.66666666666663</ele><time>2026-03-28T13:25:38Z</time></trkpt><trkpt lat="45.6115897648625" lon="10.781784124198444"><ele>371.3333333333333</ele><time>2026-03-28T13:25:39Z</time></trkpt><trkpt lat="45.61160689265394" lon="10.781569217998731"><ele>372.0</ele><time>2026-03-28T13:25:40Z</time></trkpt><trkpt lat="45.611596520354006" lon="10.781354205342769"><ele>372.0</ele><time>2026-03-28T13:25:41Z</time></trkpt><trkpt lat="45.61158901526585" lon="10.781140414665682"><ele>372.0</ele><time>2026-03-28T13:25:42Z</time></trkpt><trkpt lat="45.61158174650887" lon="10.780933806460146"><ele>372.0</ele><time>2026-03-28T13:25:43Z</time></trkpt><trkpt lat="45.611550235184104" lon="10.780736735601845"><ele>372.0</ele><time>2026-03-28T13:25:44Z</time></trkpt><trkpt lat="45.611495301849594" lon="10.780546699957686"><ele>373.0</ele><time>2026-03-28T13:25:45Z</time></trkpt><trkpt lat="45.61141774215571" lon="10.780383640711904"><ele>374.0</ele><time>2026-03-28T13:25:46Z</time></trkpt><trkpt lat="45.61135457426215" lon="10.780249330413943"><ele>375.0</ele><time>2026-03-28T13:25:47Z</time></trkpt><trkpt lat="45.611299547241586" lon="10.78011101173844"><ele>376.0</ele><time>2026-03-28T13:25:48Z</time></trkpt><trkpt lat="45.61127719737585" lon="10.779936578807167"><ele>377.16666666666663</ele><time>2026-03-28T13:25:50Z</time></trkpt><trkpt lat="45.61126880989752" lon="10.7798175509269"><ele>378.3333333333333</ele><time>2026-03-28T13:25:51Z</time></trkpt><trkpt lat="45.61127059096778" lon="10.779701972186398"><ele>379.5</ele><time>2026-03-28T13:25:52Z</time></trkpt><trkpt lat="45.61128881876362" lon="10.779535651465215"><ele>380.6666666666667</ele><time>2026-03-28T13:25:54Z</time></trkpt><trkpt lat="45.61129658669455" lon="10.779399028331248"><ele>381.83333333333337</ele><time>2026-03-28T13:25:56Z</time></trkpt><trkpt lat="45.6113056322561" lon="10.77930525930408"><ele>383.0</ele><time>2026-03-28T13:26:00Z</time></trkpt><trkpt lat="45.61128039189838" lon="10.779405204673125"><ele>383.0</ele><time>2026-03-28T13:26:10Z</time></trkpt><trkpt lat="45.611272973905486" lon="10.779532257381684"><ele>383.0</ele><time>2026-03-28T13:26:12Z</time></trkpt><trkpt lat="45.61126616575448" lon="10.779658199329477"><ele>383.0</ele><time>2026-03-28T13:26:14Z</time></trkpt><trkpt lat="45.611262566835876" lon="10.77977688982742"><ele>383.0</ele><time>2026-03-28T13:26:16Z</time></trkpt><trkpt lat="45.61126388664675" lon="10.77992368895006"><ele>383.0</ele><time>2026-03-28T13:26:18Z</time></trkpt><trkpt lat="45.6112805391834" lon="10.780058563917098"><ele>380.4</ele><time>2026-03-28T13:26:20Z</time></trkpt><trkpt lat="45.61106797791259" lon="10.780164871864246"><ele>377.79999999999995</ele><time>2026-03-28T13:26:23Z</time></trkpt><trkpt lat="45.610997892157464" lon="10.78016955733366"><ele>375.2</ele><time>2026-03-28T13:26:24Z</time></trkpt><trkpt lat="45.61092880438873" lon="10.780173573196121"><ele>372.6</ele><time>2026-03-28T13:26:25Z</time></trkpt><trkpt lat="45.61085907661966" lon="10.780167351802854"><ele>370.0</ele><time>2026-03-28T13:26:29Z</time></trkpt><trkpt lat="45.610801816813236" lon="10.78011237253554"><ele>370.0</ele><time>2026-03-28T13:26:32Z</time></trkpt><trkpt lat="45.610724748914016" lon="10.780054420097043"><ele>370.0</ele><time>2026-03-28T13:26:40Z</time></trkpt><trkpt lat="45.61064435394842" lon="10.780007641931423"><ele>370.0</ele><time>2026-03-28T13:26:42Z</time></trkpt><trkpt lat="45.610564753983475" lon="10.7799708401247"><ele>370.0</ele><time>2026-03-28T13:26:44Z</time></trkpt><trkpt lat="45.610488196424285" lon="10.779942297185546"><ele>370.0</ele><time>2026-03-28T13:26:46Z</time></trkpt><trkpt lat="45.61039750061657" lon="10.779915099370463"><ele>370.0</ele><time>2026-03-28T13:26:48Z</time></trkpt><trkpt lat="45.61027481556323" lon="10.779878464341142"><ele>367.66666666666663</ele><time>2026-03-28T13:26:50Z</time></trkpt><trkpt lat="45.610206521808536" lon="10.779857291627224"><ele>365.3333333333333</ele><time>2026-03-28T13:26:51Z</time></trkpt><trkpt lat="45.610080227093036" lon="10.779812728923169"><ele>363.0</ele><time>2026-03-28T13:26:53Z</time></trkpt><trkpt lat="45.61000699954143" lon="10.77978176773798"><ele>360.6666666666667</ele><time>2026-03-28T13:26:54Z</time></trkpt><trkpt lat="45.60993704577135" lon="10.779750612940376"><ele>358.33333333333337</ele><time>2026-03-28T13:26:55Z</time></trkpt><trkpt lat="45.60986467077934" lon="10.779729553496358"><ele>356.0</ele><time>2026-03-28T13:26:56Z</time></trkpt><trkpt lat="45.60979117586094" lon="10.779699311845118"><ele>356.0</ele><time>2026-03-28T13:26:57Z</time></trkpt><trkpt lat="45.60971398982544" lon="10.779741430795047"><ele>356.0</ele><time>2026-03-28T13:26:58Z</time></trkpt><trkpt lat="45.609634138383505" lon="10.77974310393793"><ele>356.0</ele><time>2026-03-28T13:26:59Z</time></trkpt><trkpt lat="45.609550339062245" lon="10.779768503939707"><ele>356.0</ele><time>2026-03-28T13:27:00Z</time></trkpt><trkpt lat="45.60946851196196" lon="10.779792868376342"><ele>356.0</ele><time>2026-03-28T13:27:01Z</time></trkpt><trkpt lat="45.609390882752145" lon="10.779806529647068"><ele>356.0</ele><time>2026-03-28T13:27:02Z</time></trkpt><trkpt lat="45.609316974842784" lon="10.77979420023531"><ele>353.0</ele><time>2026-03-28T13:27:03Z</time></trkpt><trkpt lat="45.60923683288152" lon="10.779792230919996"><ele>350.0</ele><time>2026-03-28T13:27:04Z</time></trkpt><trkpt lat="45.609159916437505" lon="10.7797755154191"><ele>347.0</ele><time>2026-03-28T13:27:05Z</time></trkpt><trkpt lat="45.609086014940495" lon="10.779752596640325"><ele>344.0</ele><time>2026-03-28T13:27:06Z</time></trkpt><trkpt lat="45.60900507296828" lon="10.77973262051124"><ele>341.0</ele><time>2026-03-28T13:27:07Z</time></trkpt><trkpt lat="45.60891410775059" lon="10.77970895073686"><ele>338.0</ele><time>2026-03-28T13:27:08Z</time></trkpt><trkpt lat="45.60881948661343" lon="10.77967603102159"><ele>338.0</ele><time>2026-03-28T13:27:09Z</time></trkpt><trkpt lat="45.60873258666146" lon="10.779626151826438"><ele>338.0</ele><time>2026-03-28T13:27:10Z</time></trkpt><trkpt lat="45.608646952630146" lon="10.779553876487201"><ele>338.0</ele><time>2026-03-28T13:27:11Z</time></trkpt><trkpt lat="45.60854636387508" lon="10.779484095733654"><ele>338.0</ele><time>2026-03-28T13:27:12Z</time></trkpt><trkpt lat="45.608443070840465" lon="10.77942135671039"><ele>338.0</ele><time>2026-03-28T13:27:13Z</time></trkpt><trkpt lat="45.608338224722104" lon="10.779372834577707"><ele>336.4</ele><time>2026-03-28T13:27:14Z</time></trkpt><trkpt lat="45.60823418585951" lon="10.77933205896164"><ele>334.79999999999995</ele><time>2026-03-28T13:27:15Z</time></trkpt><trkpt lat="45.60812606695171" lon="10.779286636553847"><ele>333.2</ele><time>2026-03-28T13:27:16Z</time></trkpt><trkpt lat="45.608020684255024" lon="10.779233921181856"><ele>331.6</ele><time>2026-03-28T13:27:17Z</time></trkpt><trkpt lat="45.60792132029429" lon="10.779183428574978"><ele>330.0</ele><time>2026-03-28T13:27:18Z</time></trkpt><trkpt lat="45.60782787918704" lon="10.779131806353364"><ele>328.8</ele><time>2026-03-28T13:27:19Z</time></trkpt><trkpt lat="45.60774669889213" lon="10.779079340848266"><ele>327.6</ele><time>2026-03-28T13:27:20Z</time></trkpt><trkpt lat="45.60766591493375" lon="10.779030059540078"><ele>326.4</ele><time>2026-03-28T13:27:21Z</time></trkpt><trkpt lat="45.607579434146146" lon="10.778984001452637"><ele>325.2</ele><time>2026-03-28T13:27:22Z</time></trkpt><trkpt lat="45.60749903261785" lon="10.77893329715081"><ele>324.0</ele><time>2026-03-28T13:27:23Z</time></trkpt><trkpt lat="45.60740716634993" lon="10.778887973210352"><ele>324.0</ele><time>2026-03-28T13:27:24Z</time></trkpt><trkpt lat="45.60731158685493" lon="10.778848742362069"><ele>324.0</ele><time>2026-03-28T13:27:25Z</time></trkpt><trkpt lat="45.60721267879658" lon="10.77882637872599"><ele>324.0</ele><time>2026-03-28T13:27:26Z</time></trkpt><trkpt lat="45.60711360981329" lon="10.778810599591095"><ele>324.0</ele><time>2026-03-28T13:27:27Z</time></trkpt><trkpt lat="45.60701449460274" lon="10.778807508891425"><ele>324.0</ele><time>2026-03-28T13:27:28Z</time></trkpt><trkpt lat="45.60691994853186" lon="10.7788087586867"><ele>322.0</ele><time>2026-03-28T13:27:29Z</time></trkpt><trkpt lat="45.60682273354277" lon="10.778804347943018"><ele>320.0</ele><time>2026-03-28T13:27:30Z</time></trkpt><trkpt lat="45.60672880199771" lon="10.77878782018241"><ele>318.0</ele><time>2026-03-28T13:27:31Z</time></trkpt><trkpt lat="45.606648884489694" lon="10.77876388678389"><ele>316.0</ele><time>2026-03-28T13:27:32Z</time></trkpt><trkpt lat="45.60659352176438" lon="10.778718408354694"><ele>314.0</ele><time>2026-03-28T13:27:33Z</time></trkpt><trkpt lat="45.606545200442085" lon="10.778650194936947"><ele>312.0</ele><time>2026-03-28T13:27:35Z</time></trkpt><trkpt lat="45.60649443257274" lon="10.778586284480202"><ele>312.0</ele><time>2026-03-28T13:27:38Z</time></trkpt><trkpt lat="45.60637997004998" lon="10.778595829101086"><ele>312.0</ele><time>2026-03-28T13:27:40Z</time></trkpt><trkpt lat="45.606298160644144" lon="10.778565746821073"><ele>312.0</ele><time>2026-03-28T13:27:42Z</time></trkpt><trkpt lat="45.60622317828199" lon="10.778538711738065"><ele>312.0</ele><time>2026-03-28T13:27:44Z</time></trkpt><trkpt lat="45.60614989049652" lon="10.778516210586984"><ele>312.0</ele><time>2026-03-28T13:27:46Z</time></trkpt><trkpt lat="45.60608578416039" lon="10.778495868121295"><ele>312.0</ele><time>2026-03-28T13:27:48Z</time></trkpt><trkpt lat="45.60601246232381" lon="10.778472019999507"><ele>308.8571428571429</ele><time>2026-03-28T13:27:50Z</time></trkpt><trkpt lat="45.60593807363118" lon="10.778447824883713"><ele>305.71428571428567</ele><time>2026-03-28T13:27:52Z</time></trkpt><trkpt lat="45.60586632787656" lon="10.778427546023206"><ele>302.57142857142856</ele><time>2026-03-28T13:27:54Z</time></trkpt><trkpt lat="45.6057952973863" lon="10.778410189217833"><ele>299.42857142857144</ele><time>2026-03-28T13:27:56Z</time></trkpt><trkpt lat="45.60572763327705" lon="10.778398383757182"><ele>296.28571428571433</ele><time>2026-03-28T13:27:58Z</time></trkpt><trkpt lat="45.60565902088934" lon="10.778390235557952"><ele>293.14285714285717</ele><time>2026-03-28T13:28:00Z</time></trkpt><trkpt lat="45.60558645589486" lon="10.778381617955903"><ele>290.0</ele><time>2026-03-28T13:28:02Z</time></trkpt><trkpt lat="45.60550278610514" lon="10.778373139485367"><ele>290.0</ele><time>2026-03-28T13:28:05Z</time></trkpt><trkpt lat="45.60539612227731" lon="10.778366026678663"><ele>290.0</ele><time>2026-03-28T13:28:08Z</time></trkpt><trkpt lat="45.60531543393148" lon="10.778368046074085"><ele>290.0</ele><time>2026-03-28T13:28:10Z</time></trkpt><trkpt lat="45.605240024474654" lon="10.778380188394767"><ele>290.0</ele><time>2026-03-28T13:28:12Z</time></trkpt><trkpt lat="45.60517235427267" lon="10.778389909041982"><ele>290.0</ele><time>2026-03-28T13:28:14Z</time></trkpt><trkpt lat="45.60509056603306" lon="10.77840274496782"><ele>290.0</ele><time>2026-03-28T13:28:16Z</time></trkpt><trkpt lat="45.605005616230414" lon="10.778366717330812"><ele>287.33333333333337</ele><time>2026-03-28T13:28:18Z</time></trkpt><trkpt lat="45.60494462160878" lon="10.77832377867403"><ele>284.6666666666667</ele><time>2026-03-28T13:28:20Z</time></trkpt><trkpt lat="45.604882645184844" lon="10.778301189167886"><ele>282.0</ele><time>2026-03-28T13:28:21Z</time></trkpt><trkpt lat="45.60480445497515" lon="10.778283703691686"><ele>279.3333333333333</ele><time>2026-03-28T13:28:23Z</time></trkpt><trkpt lat="45.604706752262096" lon="10.778275688108824"><ele>276.66666666666663</ele><time>2026-03-28T13:28:26Z</time></trkpt><trkpt lat="45.60463711766593" lon="10.778250944809308"><ele>274.0</ele><time>2026-03-28T13:28:29Z</time></trkpt><trkpt lat="45.604573717150565" lon="10.778181070662395"><ele>274.0</ele><time>2026-03-28T13:28:33Z</time></trkpt><trkpt lat="45.604503581216875" lon="10.778189946801538"><ele>274.0</ele><time>2026-03-28T13:28:35Z</time></trkpt><trkpt lat="45.60443087537843" lon="10.778177765167946"><ele>274.0</ele><time>2026-03-28T13:28:37Z</time></trkpt><trkpt lat="45.60434296310023" lon="10.778185397866217"><ele>274.0</ele><time>2026-03-28T13:28:39Z</time></trkpt><trkpt lat="45.604257382338425" lon="10.77816560697891"><ele>274.0</ele><time>2026-03-28T13:28:41Z</time></trkpt><trkpt lat="45.604158975050154" lon="10.77813335966176"><ele>274.0</ele><time>2026-03-28T13:28:43Z</time></trkpt><trkpt lat="45.60406723845015" lon="10.77812903564269"><ele>272.0</ele><time>2026-03-28T13:28:45Z</time></trkpt><trkpt lat="45.603997436652115" lon="10.778135574455803"><ele>270.0</ele><time>2026-03-28T13:28:46Z</time></trkpt><trkpt lat="45.603899379562726" lon="10.778113167651417"><ele>268.0</ele><time>2026-03-28T13:28:48Z</time></trkpt><trkpt lat="45.603783722345" lon="10.778090906395704"><ele>266.0</ele><time>2026-03-28T13:28:50Z</time></trkpt><trkpt lat="45.603707790184835" lon="10.778063672178067"><ele>264.0</ele><time>2026-03-28T13:28:51Z</time></trkpt><trkpt lat="45.60362506255122" lon="10.778062271211942"><ele>262.0</ele><time>2026-03-28T13:28:52Z</time></trkpt><trkpt lat="45.603546920130306" lon="10.778038545807235"><ele>260.16666666666663</ele><time>2026-03-28T13:28:53Z</time></trkpt><trkpt lat="45.60346933557932" lon="10.77803625647897"><ele>258.3333333333333</ele><time>2026-03-28T13:28:54Z</time></trkpt><trkpt lat="45.603397263711905" lon="10.778035806675645"><ele>256.5</ele><time>2026-03-28T13:28:55Z</time></trkpt><trkpt lat="45.60333220743724" lon="10.778035400659311"><ele>254.66666666666669</ele><time>2026-03-28T13:28:56Z</time></trkpt><trkpt lat="45.60325092250221" lon="10.778035460277207"><ele>252.83333333333334</ele><time>2026-03-28T13:28:58Z</time></trkpt><trkpt lat="45.60318317101713" lon="10.778042623471887"><ele>251.0</ele><time>2026-03-28T13:29:01Z</time></trkpt><trkpt lat="45.60309782911633" lon="10.778110248408828"><ele>251.0</ele><time>2026-03-28T13:29:09Z</time></trkpt><trkpt lat="45.603167274077244" lon="10.778331729030612"><ele>251.00000000000003</ele><time>2026-03-28T13:29:10Z</time></trkpt><trkpt lat="45.60321702119792" lon="10.778417816478806"><ele>251.00000000000003</ele><time>2026-03-28T13:29:11Z</time></trkpt><trkpt lat="45.60325475977827" lon="10.77854497671865"><ele>251.0</ele><time>2026-03-28T13:29:12Z</time></trkpt><trkpt lat="45.60329222638086" lon="10.778672487486425"><ele>251.0</ele><time>2026-03-28T13:29:13Z</time></trkpt><trkpt lat="45.603332460322285" lon="10.778808805778715"><ele>250.50000000000003</ele><time>2026-03-28T13:29:14Z</time></trkpt><trkpt lat="45.603345405607044" lon="10.77893767927268"><ele>250.0</ele><time>2026-03-28T13:29:15Z</time></trkpt><trkpt lat="45.60338978898388" lon="10.779043215474895"><ele>249.5</ele><time>2026-03-28T13:29:16Z</time></trkpt><trkpt lat="45.603414420212324" lon="10.77915382808659"><ele>249.0</ele><time>2026-03-28T13:29:17Z</time></trkpt><trkpt lat="45.60343852863861" lon="10.77925431638185"><ele>248.50000000000003</ele><time>2026-03-28T13:29:18Z</time></trkpt><trkpt lat="45.60345661261711" lon="10.779350950135147"><ele>248.0</ele><time>2026-03-28T13:29:19Z</time></trkpt><trkpt lat="45.60347241275198" lon="10.779445365470586"><ele>247.50000000000003</ele><time>2026-03-28T13:29:20Z</time></trkpt><trkpt lat="45.603479798763715" lon="10.779547971985506"><ele>247.0</ele><time>2026-03-28T13:29:21Z</time></trkpt><trkpt lat="45.60349450514442" lon="10.779652206279364"><ele>246.5</ele><time>2026-03-28T13:29:22Z</time></trkpt><trkpt lat="45.60351238633239" lon="10.779759801321935"><ele>246.0</ele><time>2026-03-28T13:29:23Z</time></trkpt><trkpt lat="45.603529207400136" lon="10.779869630435131"><ele>245.50000000000003</ele><time>2026-03-28T13:29:24Z</time></trkpt><trkpt lat="45.603546675776954" lon="10.779985141974072"><ele>245.0</ele><time>2026-03-28T13:29:25Z</time></trkpt><trkpt lat="45.603568106308465" lon="10.78010678552977"><ele>245.0</ele><time>2026-03-28T13:29:26Z</time></trkpt><trkpt lat="45.60358877910403" lon="10.780231799905067"><ele>245.0</ele><time>2026-03-28T13:29:27Z</time></trkpt><trkpt lat="45.6036083292375" lon="10.780360085899687"><ele>245.0</ele><time>2026-03-28T13:29:28Z</time></trkpt><trkpt lat="45.60362752029611" lon="10.7804948067851"><ele>245.0</ele><time>2026-03-28T13:29:29Z</time></trkpt><trkpt lat="45.60365084820818" lon="10.78063393079051"><ele>245.0</ele><time>2026-03-28T13:29:30Z</time></trkpt><trkpt lat="45.60367255751085" lon="10.78077202257097"><ele>246.50000000000003</ele><time>2026-03-28T13:29:31Z</time></trkpt><trkpt lat="45.60369564781284" lon="10.78090813359309"><ele>248.0</ele><time>2026-03-28T13:29:32Z</time></trkpt><trkpt lat="45.60371637843198" lon="10.781046039961822"><ele>249.5</ele><time>2026-03-28T13:29:33Z</time></trkpt><trkpt lat="45.603737861884014" lon="10.781174497196934"><ele>251.0</ele><time>2026-03-28T13:29:34Z</time></trkpt><trkpt lat="45.60375589404972" lon="10.781280704302903"><ele>252.50000000000003</ele><time>2026-03-28T13:29:35Z</time></trkpt><trkpt lat="45.603771885823456" lon="10.781373340058494"><ele>254.0</ele><time>2026-03-28T13:29:36Z</time></trkpt><trkpt lat="45.60380417771059" lon="10.781560060070897"><ele>254.2</ele><time>2026-03-28T13:29:38Z</time></trkpt><trkpt lat="45.603815040391154" lon="10.781657397425777"><ele>254.39999999999998</ele><time>2026-03-28T13:29:39Z</time></trkpt><trkpt lat="45.60382812020201" lon="10.781786776287367"><ele>254.6</ele><time>2026-03-28T13:29:41Z</time></trkpt><trkpt lat="45.60381262901727" lon="10.781663490812997"><ele>254.8</ele><time>2026-03-28T13:29:45Z</time></trkpt><trkpt lat="45.60383099016552" lon="10.781504608455316"><ele>255.0</ele><time>2026-03-28T13:29:46Z</time></trkpt><trkpt lat="45.60381101429386" lon="10.781377691069158"><ele>255.0</ele><time>2026-03-28T13:29:47Z</time></trkpt><trkpt lat="45.603786476397985" lon="10.781273893656588"><ele>255.0</ele><time>2026-03-28T13:29:48Z</time></trkpt><trkpt lat="45.60374569676035" lon="10.781201463167672"><ele>255.0</ele><time>2026-03-28T13:29:49Z</time></trkpt><trkpt lat="45.60365376299959" lon="10.781214039490402"><ele>255.0</ele><time>2026-03-28T13:29:51Z</time></trkpt><trkpt lat="45.603576113915366" lon="10.781285870823737"><ele>255.0</ele><time>2026-03-28T13:29:52Z</time></trkpt><trkpt lat="45.60347425399992" lon="10.781343643796122"><ele>255.0</ele><time>2026-03-28T13:29:53Z</time></trkpt><trkpt lat="45.60337266357873" lon="10.781351342231028"><ele>253.66666666666666</ele><time>2026-03-28T13:29:54Z</time></trkpt><trkpt lat="45.60327395518573" lon="10.781366506080138"><ele>252.33333333333331</ele><time>2026-03-28T13:29:55Z</time></trkpt><trkpt lat="45.603181460057336" lon="10.781398170698901"><ele>251.0</ele><time>2026-03-28T13:29:56Z</time></trkpt><trkpt lat="45.60309247375811" lon="10.781418092588064"><ele>249.66666666666666</ele><time>2026-03-28T13:29:57Z</time></trkpt><trkpt lat="45.6030095582395" lon="10.781434604033771"><ele>248.33333333333331</ele><time>2026-03-28T13:29:58Z</time></trkpt><trkpt lat="45.60292891954669" lon="10.781446034963793"><ele>247.0</ele><time>2026-03-28T13:29:59Z</time></trkpt><trkpt lat="45.602854974235605" lon="10.781462910428502"><ele>245.99999999999997</ele><time>2026-03-28T13:30:00Z</time></trkpt><trkpt lat="45.602792293641045" lon="10.781479272957455"><ele>245.0</ele><time>2026-03-28T13:30:01Z</time></trkpt><trkpt lat="45.60272022947033" lon="10.781494925806301"><ele>244.0</ele><time>2026-03-28T13:30:03Z</time></trkpt><trkpt lat="45.602631924012755" lon="10.781487111356334"><ele>243.0</ele><time>2026-03-28T13:30:06Z</time></trkpt><trkpt lat="45.602553989772495" lon="10.781511944401524"><ele>241.99999999999997</ele><time>2026-03-28T13:30:08Z</time></trkpt><trkpt lat="45.60247655823071" lon="10.781555795373023"><ele>241.0</ele><time>2026-03-28T13:30:10Z</time></trkpt><trkpt lat="45.6023753633936" lon="10.781589831669411"><ele>240.99999999999997</ele><time>2026-03-28T13:30:12Z</time></trkpt><trkpt lat="45.60230067423446" lon="10.781622590137179"><ele>241.0</ele><time>2026-03-28T13:30:14Z</time></trkpt><trkpt lat="45.602228883064974" lon="10.78166355221455"><ele>241.0</ele><time>2026-03-28T13:30:16Z</time></trkpt><trkpt lat="45.60218588178034" lon="10.78175774039223"><ele>241.0</ele><time>2026-03-28T13:30:18Z</time></trkpt><trkpt lat="45.60219234995253" lon="10.781918458737836"><ele>240.99999999999997</ele><time>2026-03-28T13:30:20Z</time></trkpt><trkpt lat="45.602208985983154" lon="10.782008237778749"><ele>241.0</ele><time>2026-03-28T13:30:21Z</time></trkpt><trkpt lat="45.60224587160066" lon="10.78214388404586"><ele>241.4</ele><time>2026-03-28T13:30:23Z</time></trkpt><trkpt lat="45.60228448196205" lon="10.782310391684376"><ele>241.8</ele><time>2026-03-28T13:30:25Z</time></trkpt><trkpt lat="45.6023186200249" lon="10.78245458458562"><ele>242.20000000000002</ele><time>2026-03-28T13:30:27Z</time></trkpt><trkpt lat="45.60231689266148" lon="10.782580302839929"><ele>242.60000000000002</ele><time>2026-03-28T13:30:29Z</time></trkpt><trkpt lat="45.602227016098354" lon="10.782653704736399"><ele>243.0</ele><time>2026-03-28T13:30:31Z</time></trkpt><trkpt lat="45.60214468873936" lon="10.782674255620034"><ele>243.0</ele><time>2026-03-28T13:30:32Z</time></trkpt><trkpt lat="45.60206196400896" lon="10.782713680917976"><ele>243.0</ele><time>2026-03-28T13:30:33Z</time></trkpt><trkpt lat="45.60197470019059" lon="10.782764392893126"><ele>243.0</ele><time>2026-03-28T13:30:34Z</time></trkpt><trkpt lat="45.6018844529484" lon="10.782814465440763"><ele>243.0</ele><time>2026-03-28T13:30:35Z</time></trkpt><trkpt lat="45.60179645266395" lon="10.782855225444228"><ele>243.0</ele><time>2026-03-28T13:30:36Z</time></trkpt><trkpt lat="45.6017112970029" lon="10.78289471347439"><ele>242.0</ele><time>2026-03-28T13:30:37Z</time></trkpt><trkpt lat="45.601622745186326" lon="10.782934929577602"><ele>241.0</ele><time>2026-03-28T13:30:38Z</time></trkpt><trkpt lat="45.60153378495129" lon="10.782981995939203"><ele>240.0</ele><time>2026-03-28T13:30:39Z</time></trkpt><trkpt lat="45.60144525670069" lon="10.783028971626477"><ele>239.0</ele><time>2026-03-28T13:30:40Z</time></trkpt><trkpt lat="45.601361216140056" lon="10.7830711719035"><ele>238.0</ele><time>2026-03-28T13:30:41Z</time></trkpt><trkpt lat="45.601285889088324" lon="10.783114673027699"><ele>237.99999999999997</ele><time>2026-03-28T13:30:42Z</time></trkpt><trkpt lat="45.6012176593102" lon="10.78315111771465"><ele>238.0</ele><time>2026-03-28T13:30:43Z</time></trkpt><trkpt lat="45.601136865094034" lon="10.783199705542467"><ele>238.0</ele><time>2026-03-28T13:30:45Z</time></trkpt><trkpt lat="45.60107337946844" lon="10.78322783792577"><ele>238.0</ele><time>2026-03-28T13:30:55Z</time></trkpt><trkpt lat="45.601002431256575" lon="10.78327095909363"><ele>237.99999999999997</ele><time>2026-03-28T13:30:57Z</time></trkpt><trkpt lat="45.600946224224636" lon="10.783330844498352"><ele>238.0</ele><time>2026-03-28T13:30:58Z</time></trkpt><trkpt lat="45.60087385580786" lon="10.783369920599156"><ele>237.4</ele><time>2026-03-28T13:31:00Z</time></trkpt><trkpt lat="45.600808013722705" lon="10.78341130503565"><ele>236.8</ele><time>2026-03-28T13:31:12Z</time></trkpt><trkpt lat="45.60072466023812" lon="10.78346413226489"><ele>236.2</ele><time>2026-03-28T13:31:14Z</time></trkpt><trkpt lat="45.60064693159299" lon="10.783488542919317"><ele>235.6</ele><time>2026-03-28T13:31:20Z</time></trkpt><trkpt lat="45.60056942044076" lon="10.78336293469604"><ele>235.0</ele><time>2026-03-28T13:31:22Z</time></trkpt><trkpt lat="45.600538840788865" lon="10.783236362291738"><ele>235.0</ele><time>2026-03-28T13:31:23Z</time></trkpt><trkpt lat="45.600489497587695" lon="10.783104349404411"><ele>235.0</ele><time>2026-03-28T13:31:24Z</time></trkpt><trkpt lat="45.60043190133758" lon="10.782947926702079"><ele>235.0</ele><time>2026-03-28T13:31:25Z</time></trkpt><trkpt lat="45.60037349368352" lon="10.78278318403418"><ele>235.0</ele><time>2026-03-28T13:31:26Z</time></trkpt><trkpt lat="45.60031188982995" lon="10.782611344964447"><ele>234.25</ele><time>2026-03-28T13:31:27Z</time></trkpt><trkpt lat="45.60025027970499" lon="10.782434331674311"><ele>233.5</ele><time>2026-03-28T13:31:28Z</time></trkpt><trkpt lat="45.600181906087855" lon="10.782245363082437"><ele>232.75</ele><time>2026-03-28T13:31:29Z</time></trkpt><trkpt lat="45.60010988743715" lon="10.782053906226675"><ele>232.0</ele><time>2026-03-28T13:31:30Z</time></trkpt><trkpt lat="45.60004251208058" lon="10.781872192000334"><ele>231.66666666666666</ele><time>2026-03-28T13:31:31Z</time></trkpt><trkpt lat="45.59997035356648" lon="10.78168261765365"><ele>231.33333333333331</ele><time>2026-03-28T13:31:32Z</time></trkpt><trkpt lat="45.59989662485113" lon="10.781488100296324"><ele>231.0</ele><time>2026-03-28T13:31:33Z</time></trkpt><trkpt lat="45.599821058346095" lon="10.781293434918481"><ele>231.0</ele><time>2026-03-28T13:31:34Z</time></trkpt><trkpt lat="45.59974453093583" lon="10.781093330767192"><ele>231.0</ele><time>2026-03-28T13:31:35Z</time></trkpt><trkpt lat="45.599665208080935" lon="10.780892802427191"><ele>231.0</ele><time>2026-03-28T13:31:36Z</time></trkpt><trkpt lat="45.59958772352429" lon="10.780688234520937"><ele>231.0</ele><time>2026-03-28T13:31:37Z</time></trkpt><trkpt lat="45.59951011197621" lon="10.780475778075326"><ele>231.0</ele><time>2026-03-28T13:31:38Z</time></trkpt><trkpt lat="45.599430098028456" lon="10.780257971066094"><ele>231.0</ele><time>2026-03-28T13:31:39Z</time></trkpt><trkpt lat="45.59935017465491" lon="10.780043670624819"><ele>231.0</ele><time>2026-03-28T13:31:40Z</time></trkpt><trkpt lat="45.59926818073766" lon="10.779832108905273"><ele>231.0</ele><time>2026-03-28T13:31:41Z</time></trkpt><trkpt lat="45.59918309079882" lon="10.779623307559156"><ele>231.0</ele><time>2026-03-28T13:31:42Z</time></trkpt><trkpt lat="45.599096763175645" lon="10.779426768825655"><ele>231.33333333333331</ele><time>2026-03-28T13:31:43Z</time></trkpt><trkpt lat="45.599011579750986" lon="10.779236157927846"><ele>231.66666666666666</ele><time>2026-03-28T13:31:44Z</time></trkpt><trkpt lat="45.598922349013954" lon="10.779045281707033"><ele>232.0</ele><time>2026-03-28T13:31:45Z</time></trkpt><trkpt lat="45.59882685354891" lon="10.778853381174718"><ele>232.0</ele><time>2026-03-28T13:31:46Z</time></trkpt><trkpt lat="45.59872747452816" lon="10.778660425832534"><ele>232.0</ele><time>2026-03-28T13:31:47Z</time></trkpt><trkpt lat="45.59862733309791" lon="10.778463278830293"><ele>232.0</ele><time>2026-03-28T13:31:48Z</time></trkpt><trkpt lat="45.598528445795075" lon="10.77825824651442"><ele>232.0</ele><time>2026-03-28T13:31:49Z</time></trkpt><trkpt lat="45.5984286654177" lon="10.778049921900523"><ele>232.0</ele><time>2026-03-28T13:31:50Z</time></trkpt><trkpt lat="45.598334803380034" lon="10.777844248102351"><ele>232.0</ele><time>2026-03-28T13:31:51Z</time></trkpt><trkpt lat="45.598245408293344" lon="10.777644306919058"><ele>232.0</ele><time>2026-03-28T13:31:52Z</time></trkpt><trkpt lat="45.59815829359032" lon="10.777437369817541"><ele>232.0</ele><time>2026-03-28T13:31:53Z</time></trkpt><trkpt lat="45.598077386382656" lon="10.777224161563224"><ele>232.0</ele><time>2026-03-28T13:31:54Z</time></trkpt><trkpt lat="45.59799966265385" lon="10.777004980863376"><ele>232.33333333333331</ele><time>2026-03-28T13:31:55Z</time></trkpt><trkpt lat="45.59792608525292" lon="10.776791522086722"><ele>232.66666666666669</ele><time>2026-03-28T13:31:56Z</time></trkpt><trkpt lat="45.597858815758045" lon="10.77656939631909"><ele>233.0</ele><time>2026-03-28T13:31:57Z</time></trkpt><trkpt lat="45.59779033569481" lon="10.776355897180075"><ele>232.33333333333334</ele><time>2026-03-28T13:31:58Z</time></trkpt><trkpt lat="45.59772280535639" lon="10.776151381506093"><ele>231.66666666666669</ele><time>2026-03-28T13:31:59Z</time></trkpt><trkpt lat="45.59765802715297" lon="10.77595009952397"><ele>231.0</ele><time>2026-03-28T13:32:00Z</time></trkpt><trkpt lat="45.59759406435306" lon="10.775754970368235"><ele>230.25</ele><time>2026-03-28T13:32:01Z</time></trkpt><trkpt lat="45.597534044282455" lon="10.775563469809887"><ele>229.5</ele><time>2026-03-28T13:32:02Z</time></trkpt><trkpt lat="45.59747466890987" lon="10.775380847420374"><ele>228.75</ele><time>2026-03-28T13:32:03Z</time></trkpt><trkpt lat="45.59742001013167" lon="10.775210547529825"><ele>228.0</ele><time>2026-03-28T13:32:04Z</time></trkpt><trkpt lat="45.5973807819517" lon="10.775036149425112"><ele>228.0</ele><time>2026-03-28T13:32:05Z</time></trkpt><trkpt lat="45.59732619683188" lon="10.774867445415051"><ele>228.0</ele><time>2026-03-28T13:32:06Z</time></trkpt><trkpt lat="45.597279062498686" lon="10.774717929615173"><ele>228.0</ele><time>2026-03-28T13:32:07Z</time></trkpt><trkpt lat="45.59723565004987" lon="10.77458115624212"><ele>228.0</ele><time>2026-03-28T13:32:08Z</time></trkpt><trkpt lat="45.59719814302055" lon="10.774449885652695"><ele>228.0</ele><time>2026-03-28T13:32:09Z</time></trkpt><trkpt lat="45.59717491466128" lon="10.774319574192548"><ele>228.0</ele><time>2026-03-28T13:32:10Z</time></trkpt><trkpt lat="45.59716841806142" lon="10.774204793090162"><ele>228.0</ele><time>2026-03-28T13:32:11Z</time></trkpt><trkpt lat="45.59713887989096" lon="10.774110776536284"><ele>228.0</ele><time>2026-03-28T13:32:12Z</time></trkpt><trkpt lat="45.597107314672236" lon="10.774015689610561"><ele>228.0</ele><time>2026-03-28T13:32:13Z</time></trkpt><trkpt lat="45.597081458668" lon="10.773898439628574"><ele>228.0</ele><time>2026-03-28T13:32:14Z</time></trkpt><trkpt lat="45.5970214109116" lon="10.773849477846511"><ele>228.0</ele><time>2026-03-28T13:32:15Z</time></trkpt><trkpt lat="45.59687268949788" lon="10.773936210986916"><ele>227.0</ele><time>2026-03-28T13:32:17Z</time></trkpt><trkpt lat="45.596774104352804" lon="10.773926474871695"><ele>226.0</ele><time>2026-03-28T13:32:18Z</time></trkpt><trkpt lat="45.59666927822454" lon="10.773984599267743"><ele>225.0</ele><time>2026-03-28T13:32:19Z</time></trkpt><trkpt lat="45.59654267331638" lon="10.774094983375422"><ele>224.0</ele><time>2026-03-28T13:32:20Z</time></trkpt><trkpt lat="45.596427819047605" lon="10.774231581596611"><ele>224.0</ele><time>2026-03-28T13:32:21Z</time></trkpt><trkpt lat="45.59631790821108" lon="10.774378852320087"><ele>224.0</ele><time>2026-03-28T13:32:22Z</time></trkpt><trkpt lat="45.59621028602969" lon="10.774555801227311"><ele>224.0</ele><time>2026-03-28T13:32:23Z</time></trkpt><trkpt lat="45.596112371034366" lon="10.774738109641092"><ele>223.66666666666669</ele><time>2026-03-28T13:32:24Z</time></trkpt><trkpt lat="45.59600345725285" lon="10.77492199688689"><ele>223.33333333333331</ele><time>2026-03-28T13:32:25Z</time></trkpt><trkpt lat="45.59587616663091" lon="10.775094413923632"><ele>223.0</ele><time>2026-03-28T13:32:26Z</time></trkpt><trkpt lat="45.59571892858456" lon="10.775202172438407"><ele>223.75</ele><time>2026-03-28T13:32:27Z</time></trkpt><trkpt lat="45.59557846121891" lon="10.775308047807844"><ele>224.5</ele><time>2026-03-28T13:32:28Z</time></trkpt><trkpt lat="45.59545350973943" lon="10.77542314550191"><ele>225.25</ele><time>2026-03-28T13:32:29Z</time></trkpt><trkpt lat="45.59533078501812" lon="10.775521853917972"><ele>226.0</ele><time>2026-03-28T13:32:30Z</time></trkpt><trkpt lat="45.59521911534785" lon="10.775617649777594"><ele>226.0</ele><time>2026-03-28T13:32:31Z</time></trkpt><trkpt lat="45.59511821857889" lon="10.775711616722795"><ele>226.00000000000003</ele><time>2026-03-28T13:32:32Z</time></trkpt><trkpt lat="45.59502908938109" lon="10.775795449762455"><ele>226.00000000000003</ele><time>2026-03-28T13:32:33Z</time></trkpt><trkpt lat="45.59494872855331" lon="10.775873179613846"><ele>226.0</ele><time>2026-03-28T13:32:34Z</time></trkpt><trkpt lat="45.59487773626333" lon="10.775945174332424"><ele>226.0</ele><time>2026-03-28T13:32:35Z</time></trkpt><trkpt lat="45.594813273856545" lon="10.77600860333129"><ele>226.25</ele><time>2026-03-28T13:32:36Z</time></trkpt><trkpt lat="45.5947519985209" lon="10.776062530639841"><ele>226.5</ele><time>2026-03-28T13:32:37Z</time></trkpt><trkpt lat="45.59469421273441" lon="10.776099520290122"><ele>226.75</ele><time>2026-03-28T13:32:38Z</time></trkpt><trkpt lat="45.59462362068423" lon="10.776196024424024"><ele>227.0</ele><time>2026-03-28T13:32:40Z</time></trkpt><trkpt lat="45.59435508549238" lon="10.77586110553185"><ele>226.6</ele><time>2026-03-28T13:32:44Z</time></trkpt><trkpt lat="45.59428838243269" lon="10.775770132947226"><ele>226.2</ele><time>2026-03-28T13:32:45Z</time></trkpt><trkpt lat="45.594217556289784" lon="10.77567594646607"><ele>225.8</ele><time>2026-03-28T13:32:46Z</time></trkpt><trkpt lat="45.59415095676576" lon="10.775590154503083"><ele>225.4</ele><time>2026-03-28T13:32:47Z</time></trkpt><trkpt lat="45.59408724996238" lon="10.775504057142172"><ele>225.0</ele><time>2026-03-28T13:32:48Z</time></trkpt><trkpt lat="45.59402109997246" lon="10.775414623213678"><ele>225.0</ele><time>2026-03-28T13:32:49Z</time></trkpt><trkpt lat="45.59395067711993" lon="10.775319317557896"><ele>225.0</ele><time>2026-03-28T13:32:50Z</time></trkpt><trkpt lat="45.59388042203895" lon="10.775224634390451"><ele>225.0</ele><time>2026-03-28T13:32:51Z</time></trkpt><trkpt lat="45.593809316252745" lon="10.775131617112669"><ele>225.0</ele><time>2026-03-28T13:32:52Z</time></trkpt><trkpt lat="45.59373564908551" lon="10.775034144376779"><ele>225.0</ele><time>2026-03-28T13:32:53Z</time></trkpt><trkpt lat="45.593659687895546" lon="10.774935206832572"><ele>224.8</ele><time>2026-03-28T13:32:54Z</time></trkpt><trkpt lat="45.59358367970392" lon="10.774846289121381"><ele>224.6</ele><time>2026-03-28T13:32:55Z</time></trkpt><trkpt lat="45.59350426450462" lon="10.774767175957534"><ele>224.39999999999998</ele><time>2026-03-28T13:32:56Z</time></trkpt><trkpt lat="45.59341826035042" lon="10.774698911008691"><ele>224.2</ele><time>2026-03-28T13:32:57Z</time></trkpt><trkpt lat="45.59332735980392" lon="10.774644118526702"><ele>224.0</ele><time>2026-03-28T13:32:58Z</time></trkpt><trkpt lat="45.593228735830884" lon="10.774594017276574"><ele>224.0</ele><time>2026-03-28T13:32:59Z</time></trkpt><trkpt lat="45.59312587576829" lon="10.77453401834072"><ele>223.99999999999997</ele><time>2026-03-28T13:33:00Z</time></trkpt><trkpt lat="45.59302040941902" lon="10.774478034500659"><ele>223.99999999999997</ele><time>2026-03-28T13:33:01Z</time></trkpt><trkpt lat="45.59291635015108" lon="10.774426064723933"><ele>224.0</ele><time>2026-03-28T13:33:02Z</time></trkpt><trkpt lat="45.59281319058617" lon="10.77437154532844"><ele>224.0</ele><time>2026-03-28T13:33:03Z</time></trkpt><trkpt lat="45.59271024905927" lon="10.774315814865984"><ele>224.2</ele><time>2026-03-28T13:33:04Z</time></trkpt><trkpt lat="45.59260867934004" lon="10.774261927744694"><ele>224.39999999999998</ele><time>2026-03-28T13:33:05Z</time></trkpt><trkpt lat="45.59250488012091" lon="10.77420618678413"><ele>224.6</ele><time>2026-03-28T13:33:06Z</time></trkpt><trkpt lat="45.592401993952805" lon="10.774145044782822"><ele>224.8</ele><time>2026-03-28T13:33:07Z</time></trkpt><trkpt lat="45.59230272852668" lon="10.774081861652556"><ele>225.0</ele><time>2026-03-28T13:33:08Z</time></trkpt><trkpt lat="45.59220678722442" lon="10.774023352773064"><ele>225.0</ele><time>2026-03-28T13:33:09Z</time></trkpt><trkpt lat="45.59210534718146" lon="10.773968433888271"><ele>225.0</ele><time>2026-03-28T13:33:10Z</time></trkpt><trkpt lat="45.592007211035614" lon="10.773919332178053"><ele>225.0</ele><time>2026-03-28T13:33:11Z</time></trkpt><trkpt lat="45.5919093931467" lon="10.773872694190212"><ele>225.0</ele><time>2026-03-28T13:33:12Z</time></trkpt><trkpt lat="45.59181331438273" lon="10.77382754003835"><ele>225.0</ele><time>2026-03-28T13:33:13Z</time></trkpt><trkpt lat="45.59171527909647" lon="10.773774974577552"><ele>224.6</ele><time>2026-03-28T13:33:14Z</time></trkpt><trkpt lat="45.59161497305348" lon="10.77371970186932"><ele>224.2</ele><time>2026-03-28T13:33:15Z</time></trkpt><trkpt lat="45.59151770338902" lon="10.773668706949154"><ele>223.8</ele><time>2026-03-28T13:33:16Z</time></trkpt><trkpt lat="45.59142160478597" lon="10.77361898211493"><ele>223.4</ele><time>2026-03-28T13:33:17Z</time></trkpt><trkpt lat="45.59132774399915" lon="10.773569945694975"><ele>223.0</ele><time>2026-03-28T13:33:18Z</time></trkpt><trkpt lat="45.59123252889303" lon="10.773519897642911"><ele>222.60000000000002</ele><time>2026-03-28T13:33:19Z</time></trkpt><trkpt lat="45.59113973914003" lon="10.773470309988024"><ele>222.20000000000002</ele><time>2026-03-28T13:33:20Z</time></trkpt><trkpt lat="45.59104297771533" lon="10.773418989177479"><ele>221.8</ele><time>2026-03-28T13:33:21Z</time></trkpt><trkpt lat="45.590948746359274" lon="10.773362561206143"><ele>221.4</ele><time>2026-03-28T13:33:22Z</time></trkpt><trkpt lat="45.590862418831996" lon="10.773303987737835"><ele>221.0</ele><time>2026-03-28T13:33:23Z</time></trkpt><trkpt lat="45.59078055282421" lon="10.773236347040276"><ele>221.00000000000003</ele><time>2026-03-28T13:33:24Z</time></trkpt><trkpt lat="45.5907068818458" lon="10.773161131575405"><ele>221.0</ele><time>2026-03-28T13:33:25Z</time></trkpt><trkpt lat="45.59063766130852" lon="10.77308329503833"><ele>221.0</ele><time>2026-03-28T13:33:26Z</time></trkpt><trkpt lat="45.59057321483593" lon="10.77300151897176"><ele>221.0</ele><time>2026-03-28T13:33:27Z</time></trkpt><trkpt lat="45.5905128839683" lon="10.772918601615785"><ele>221.00000000000003</ele><time>2026-03-28T13:33:28Z</time></trkpt><trkpt lat="45.590464087830355" lon="10.77284159764729"><ele>221.0</ele><time>2026-03-28T13:33:29Z</time></trkpt><trkpt lat="45.59042572307571" lon="10.772764676681247"><ele>221.00000000000003</ele><time>2026-03-28T13:33:30Z</time></trkpt><trkpt lat="45.59040734292762" lon="10.7726281270062"><ele>221.0</ele><time>2026-03-28T13:33:32Z</time></trkpt><trkpt lat="45.59044347772092" lon="10.772541242743957"><ele>221.0</ele><time>2026-03-28T13:33:33Z</time></trkpt><trkpt lat="45.5904746022899" lon="10.772449134745893"><ele>221.0</ele><time>2026-03-28T13:33:34Z</time></trkpt><trkpt lat="45.59051704563036" lon="10.77235499870043"><ele>221.00000000000003</ele><time>2026-03-28T13:33:35Z</time></trkpt><trkpt lat="45.59056771476471" lon="10.772277745976346"><ele>221.0</ele><time>2026-03-28T13:33:36Z</time></trkpt><trkpt lat="45.59062615136931" lon="10.7721910320837"><ele>221.00000000000003</ele><time>2026-03-28T13:33:37Z</time></trkpt><trkpt lat="45.59068383833374" lon="10.772081370677821"><ele>221.0</ele><time>2026-03-28T13:33:38Z</time></trkpt><trkpt lat="45.59072906753564" lon="10.77198185727752"><ele>221.0</ele><time>2026-03-28T13:33:39Z</time></trkpt><trkpt lat="45.59076744357573" lon="10.771899414335696"><ele>221.0</ele><time>2026-03-28T13:33:40Z</time></trkpt><trkpt lat="45.59080927275073" lon="10.771817991864419"><ele>221.00000000000003</ele><time>2026-03-28T13:33:41Z</time></trkpt><trkpt lat="45.59084694457401" lon="10.771724479366826"><ele>221.0</ele><time>2026-03-28T13:33:42Z</time></trkpt><trkpt lat="45.59089170835797" lon="10.771610908708482"><ele>220.66666666666669</ele><time>2026-03-28T13:33:43Z</time></trkpt><trkpt lat="45.59093693973526" lon="10.771509285830762"><ele>220.33333333333334</ele><time>2026-03-28T13:33:44Z</time></trkpt><trkpt lat="45.590983468830636" lon="10.77141024484772"><ele>220.0</ele><time>2026-03-28T13:33:45Z</time></trkpt><trkpt lat="45.59102661418578" lon="10.771325745225827"><ele>219.66666666666669</ele><time>2026-03-28T13:33:46Z</time></trkpt><trkpt lat="45.59107413662555" lon="10.771164479538092"><ele>219.33333333333334</ele><time>2026-03-28T13:33:48Z</time></trkpt><trkpt lat="45.59108011657007" lon="10.771048742444469"><ele>219.0</ele><time>2026-03-28T13:33:49Z</time></trkpt><trkpt lat="45.59106767367935" lon="10.770916570491108"><ele>219.0</ele><time>2026-03-28T13:33:50Z</time></trkpt><trkpt lat="45.591061449615346" lon="10.770788546200922"><ele>219.0</ele><time>2026-03-28T13:33:51Z</time></trkpt><trkpt lat="45.59104179518888" lon="10.770689572965509"><ele>219.0</ele><time>2026-03-28T13:33:52Z</time></trkpt><trkpt lat="45.591033574017025" lon="10.770588774881617"><ele>219.0</ele><time>2026-03-28T13:33:53Z</time></trkpt><trkpt lat="45.59103569524745" lon="10.770459559633949"><ele>219.0</ele><time>2026-03-28T13:33:54Z</time></trkpt><trkpt lat="45.59104135105537" lon="10.770333758974138"><ele>219.0</ele><time>2026-03-28T13:33:55Z</time></trkpt><trkpt lat="45.59106021730223" lon="10.770203109055041"><ele>219.0</ele><time>2026-03-28T13:33:56Z</time></trkpt><trkpt lat="45.591079354856596" lon="10.770080281405027"><ele>219.0</ele><time>2026-03-28T13:33:57Z</time></trkpt><trkpt lat="45.59110725135225" lon="10.769954843335741"><ele>219.0</ele><time>2026-03-28T13:33:58Z</time></trkpt><trkpt lat="45.5911401773922" lon="10.769838918347999"><ele>219.0</ele><time>2026-03-28T13:33:59Z</time></trkpt><trkpt lat="45.59117110609876" lon="10.769725949177152"><ele>219.0</ele><time>2026-03-28T13:34:00Z</time></trkpt><trkpt lat="45.59120653079014" lon="10.769609847943494"><ele>219.0</ele><time>2026-03-28T13:34:01Z</time></trkpt><trkpt lat="45.591246773672026" lon="10.769484439332587"><ele>219.0</ele><time>2026-03-28T13:34:02Z</time></trkpt><trkpt lat="45.591288026316796" lon="10.769369209480653"><ele>219.0</ele><time>2026-03-28T13:34:03Z</time></trkpt><trkpt lat="45.591322758192504" lon="10.769266928247681"><ele>219.0</ele><time>2026-03-28T13:34:04Z</time></trkpt><trkpt lat="45.59135646519658" lon="10.769162671347326"><ele>219.0</ele><time>2026-03-28T13:34:05Z</time></trkpt><trkpt lat="45.59136987850235" lon="10.769050225056711"><ele>219.0</ele><time>2026-03-28T13:34:06Z</time></trkpt><trkpt lat="45.59142305177561" lon="10.768942351970152"><ele>219.0</ele><time>2026-03-28T13:34:07Z</time></trkpt><trkpt lat="45.59145290525702" lon="10.768833059124871"><ele>218.6</ele><time>2026-03-28T13:34:08Z</time></trkpt><trkpt lat="45.5915054183315" lon="10.768710100508594"><ele>218.2</ele><time>2026-03-28T13:34:09Z</time></trkpt><trkpt lat="45.59151095407512" lon="10.76858872201483"><ele>217.79999999999998</ele><time>2026-03-28T13:34:10Z</time></trkpt><trkpt lat="45.59152692040118" lon="10.768488718096854"><ele>217.39999999999998</ele><time>2026-03-28T13:34:11Z</time></trkpt><trkpt lat="45.591533378415676" lon="10.76830751271944"><ele>217.0</ele><time>2026-03-28T13:34:13Z</time></trkpt><trkpt lat="45.59153653588602" lon="10.768188593108105"><ele>216.99999999999997</ele><time>2026-03-28T13:34:14Z</time></trkpt><trkpt lat="45.59152872273357" lon="10.768099143934547"><ele>217.0</ele><time>2026-03-28T13:34:15Z</time></trkpt><trkpt lat="45.59151910866805" lon="10.768004697171168"><ele>217.0</ele><time>2026-03-28T13:34:16Z</time></trkpt><trkpt lat="45.591510325076776" lon="10.767901454691044"><ele>217.0</ele><time>2026-03-28T13:34:17Z</time></trkpt><trkpt lat="45.591500531502646" lon="10.767780670950822"><ele>216.99999999999997</ele><time>2026-03-28T13:34:18Z</time></trkpt><trkpt lat="45.59149605632963" lon="10.767654022383667"><ele>217.0</ele><time>2026-03-28T13:34:19Z</time></trkpt><trkpt lat="45.591501673081844" lon="10.767531549908698"><ele>217.16666666666666</ele><time>2026-03-28T13:34:20Z</time></trkpt><trkpt lat="45.5915128646965" lon="10.767414751756165"><ele>217.33333333333331</ele><time>2026-03-28T13:34:21Z</time></trkpt><trkpt lat="45.59152392951611" lon="10.767311611780023"><ele>217.5</ele><time>2026-03-28T13:34:22Z</time></trkpt><trkpt lat="45.5915394636314" lon="10.767203362816936"><ele>217.66666666666669</ele><time>2026-03-28T13:34:23Z</time></trkpt><trkpt lat="45.59156537973027" lon="10.76708356706548"><ele>217.83333333333334</ele><time>2026-03-28T13:34:24Z</time></trkpt><trkpt lat="45.591594450933684" lon="10.766960007512361"><ele>218.0</ele><time>2026-03-28T13:34:25Z</time></trkpt><trkpt lat="45.59163825595814" lon="10.766841985376304"><ele>217.60000000000002</ele><time>2026-03-28T13:34:26Z</time></trkpt><trkpt lat="45.59169463943967" lon="10.766711136381007"><ele>217.20000000000002</ele><time>2026-03-28T13:34:27Z</time></trkpt><trkpt lat="45.591750348390406" lon="10.766565497207548"><ele>216.8</ele><time>2026-03-28T13:34:28Z</time></trkpt><trkpt lat="45.59179386563911" lon="10.766445881102575"><ele>216.4</ele><time>2026-03-28T13:34:29Z</time></trkpt><trkpt lat="45.59183612685693" lon="10.76634743555092"><ele>216.0</ele><time>2026-03-28T13:34:30Z</time></trkpt><trkpt lat="45.591882288900386" lon="10.7662458246555"><ele>216.0</ele><time>2026-03-28T13:34:31Z</time></trkpt><trkpt lat="45.59192540381857" lon="10.766145903506949"><ele>216.0</ele><time>2026-03-28T13:34:32Z</time></trkpt><trkpt lat="45.591968716085596" lon="10.766045924231147"><ele>216.0</ele><time>2026-03-28T13:34:33Z</time></trkpt><trkpt lat="45.59200983123688" lon="10.765943623010275"><ele>216.0</ele><time>2026-03-28T13:34:34Z</time></trkpt><trkpt lat="45.592055492003254" lon="10.76584787472193"><ele>216.0</ele><time>2026-03-28T13:34:35Z</time></trkpt><trkpt lat="45.5921084600134" lon="10.76574901418977"><ele>216.0</ele><time>2026-03-28T13:34:36Z</time></trkpt><trkpt lat="45.5921625960003" lon="10.765647515544394"><ele>216.0</ele><time>2026-03-28T13:34:37Z</time></trkpt><trkpt lat="45.59222053742328" lon="10.765553380205473"><ele>216.0</ele><time>2026-03-28T13:34:38Z</time></trkpt><trkpt lat="45.59227443811514" lon="10.765475400855735"><ele>216.0</ele><time>2026-03-28T13:34:39Z</time></trkpt><trkpt lat="45.592328906041445" lon="10.76539396582008"><ele>216.0</ele><time>2026-03-28T13:34:40Z</time></trkpt><trkpt lat="45.592386129691384" lon="10.76530684063234"><ele>216.0</ele><time>2026-03-28T13:34:41Z</time></trkpt><trkpt lat="45.592439242181364" lon="10.765213681199745"><ele>216.0</ele><time>2026-03-28T13:34:42Z</time></trkpt><trkpt lat="45.592489985207855" lon="10.765119300219478"><ele>216.16666666666666</ele><time>2026-03-28T13:34:43Z</time></trkpt><trkpt lat="45.59252976347048" lon="10.76503668600699"><ele>216.33333333333331</ele><time>2026-03-28T13:34:44Z</time></trkpt><trkpt lat="45.59258698275927" lon="10.764915709120968"><ele>216.5</ele><time>2026-03-28T13:34:46Z</time></trkpt><trkpt lat="45.59261043242362" lon="10.764815545547124"><ele>216.66666666666666</ele><time>2026-03-28T13:34:50Z</time></trkpt><trkpt lat="45.592604172243604" lon="10.764723935336697"><ele>216.83333333333331</ele><time>2026-03-28T13:34:59Z</time></trkpt><trkpt lat="45.59260060379482" lon="10.764601282887075"><ele>217.0</ele><time>2026-03-28T13:35:02Z</time></trkpt><trkpt lat="45.59265962458009" lon="10.764478874097952"><ele>216.75</ele><time>2026-03-28T13:35:04Z</time></trkpt><trkpt lat="45.59274644497404" lon="10.764328326612667"><ele>216.5</ele><time>2026-03-28T13:35:06Z</time></trkpt><trkpt lat="45.592819022095085" lon="10.76420846125664"><ele>216.25</ele><time>2026-03-28T13:35:08Z</time></trkpt><trkpt lat="45.59290112600037" lon="10.764114069434697"><ele>216.0</ele><time>2026-03-28T13:35:10Z</time></trkpt><trkpt lat="45.59298144435093" lon="10.764033309528564"><ele>216.0</ele><time>2026-03-28T13:35:12Z</time></trkpt><trkpt lat="45.59303102585032" lon="10.763975207521336"><ele>216.0</ele><time>2026-03-28T13:35:14Z</time></trkpt><trkpt lat="45.59309113695184" lon="10.763907118941365"><ele>216.0</ele><time>2026-03-28T13:35:17Z</time></trkpt><trkpt lat="45.59314669681672" lon="10.763834375639382"><ele>216.0</ele><time>2026-03-28T13:35:32Z</time></trkpt><trkpt lat="45.59321380035751" lon="10.763688608056727"><ele>216.0</ele><time>2026-03-28T13:35:34Z</time></trkpt><trkpt lat="45.59324771801744" lon="10.763586611661038"><ele>216.0</ele><time>2026-03-28T13:35:35Z</time></trkpt><trkpt lat="45.59328125500702" lon="10.763490588232626"><ele>216.0</ele><time>2026-03-28T13:35:36Z</time></trkpt><trkpt lat="45.593322456203744" lon="10.763402347734207"><ele>216.00000000000003</ele><time>2026-03-28T13:35:37Z</time></trkpt><trkpt lat="45.59335712521036" lon="10.763312327227286"><ele>216.00000000000003</ele><time>2026-03-28T13:35:38Z</time></trkpt><trkpt lat="45.593393148225665" lon="10.763193407121898"><ele>216.0</ele><time>2026-03-28T13:35:39Z</time></trkpt><trkpt lat="45.593441421317785" lon="10.763059396917708"><ele>216.0</ele><time>2026-03-28T13:35:40Z</time></trkpt><trkpt lat="45.59348892148222" lon="10.762915842432374"><ele>216.0</ele><time>2026-03-28T13:35:41Z</time></trkpt><trkpt lat="45.59352040974589" lon="10.762807212529298"><ele>216.00000000000003</ele><time>2026-03-28T13:35:42Z</time></trkpt><trkpt lat="45.59354781264092" lon="10.76268314204587"><ele>216.00000000000003</ele><time>2026-03-28T13:35:43Z</time></trkpt><trkpt lat="45.59357284793526" lon="10.762544619217273"><ele>216.0</ele><time>2026-03-28T13:35:44Z</time></trkpt><trkpt lat="45.59359713763108" lon="10.762402648703665"><ele>216.0</ele><time>2026-03-28T13:35:45Z</time></trkpt><trkpt lat="45.59362030694846" lon="10.762259870101747"><ele>216.0</ele><time>2026-03-28T13:35:46Z</time></trkpt><trkpt lat="45.59363779780083" lon="10.762121319805912"><ele>216.00000000000003</ele><time>2026-03-28T13:35:47Z</time></trkpt><trkpt lat="45.593655883993286" lon="10.761986158306689"><ele>216.00000000000003</ele><time>2026-03-28T13:35:48Z</time></trkpt><trkpt lat="45.59367037313282" lon="10.761839410060052"><ele>216.0</ele><time>2026-03-28T13:35:49Z</time></trkpt><trkpt lat="45.59368583757723" lon="10.76166782716528"><ele>216.0</ele><time>2026-03-28T13:35:50Z</time></trkpt><trkpt lat="45.5936999609146" lon="10.761474475440497"><ele>216.0</ele><time>2026-03-28T13:35:51Z</time></trkpt><trkpt lat="45.593706213333036" lon="10.761282998113062"><ele>216.0</ele><time>2026-03-28T13:35:52Z</time></trkpt><trkpt lat="45.59370086430036" lon="10.761115647569145"><ele>216.0</ele><time>2026-03-28T13:35:53Z</time></trkpt><trkpt lat="45.593705674205864" lon="10.760969927096427"><ele>216.0</ele><time>2026-03-28T13:35:54Z</time></trkpt><trkpt lat="45.593710560510104" lon="10.760830748674405"><ele>216.0</ele><time>2026-03-28T13:35:55Z</time></trkpt><trkpt lat="45.593708780916174" lon="10.760671871338706"><ele>216.00000000000003</ele><time>2026-03-28T13:35:56Z</time></trkpt><trkpt lat="45.59371107596001" lon="10.760518536077083"><ele>216.00000000000003</ele><time>2026-03-28T13:35:57Z</time></trkpt><trkpt lat="45.59371686222139" lon="10.760354659273348"><ele>216.0</ele><time>2026-03-28T13:35:58Z</time></trkpt><trkpt lat="45.59371784611348" lon="10.760188899934024"><ele>216.0</ele><time>2026-03-28T13:35:59Z</time></trkpt><trkpt lat="45.59371933412406" lon="10.760030591468725"><ele>216.4</ele><time>2026-03-28T13:36:00Z</time></trkpt><trkpt lat="45.593726384369724" lon="10.759895970551364"><ele>216.8</ele><time>2026-03-28T13:36:01Z</time></trkpt><trkpt lat="45.59373199629123" lon="10.7597477310165"><ele>217.20000000000002</ele><time>2026-03-28T13:36:02Z</time></trkpt><trkpt lat="45.593737236260445" lon="10.759595965318985"><ele>217.60000000000002</ele><time>2026-03-28T13:36:03Z</time></trkpt><trkpt lat="45.59374882308817" lon="10.75944360876482"><ele>218.0</ele><time>2026-03-28T13:36:04Z</time></trkpt><trkpt lat="45.593762082992505" lon="10.759287626097986"><ele>218.8</ele><time>2026-03-28T13:36:05Z</time></trkpt><trkpt lat="45.59378049975762" lon="10.759127944931247"><ele>219.60000000000002</ele><time>2026-03-28T13:36:06Z</time></trkpt><trkpt lat="45.59380018580487" lon="10.758971727685077"><ele>220.39999999999998</ele><time>2026-03-28T13:36:07Z</time></trkpt><trkpt lat="45.59382007661094" lon="10.758820672333192"><ele>221.2</ele><time>2026-03-28T13:36:08Z</time></trkpt><trkpt lat="45.59383343322774" lon="10.758682755468703"><ele>222.0</ele><time>2026-03-28T13:36:09Z</time></trkpt><trkpt lat="45.59384847911035" lon="10.75856238187208"><ele>221.6</ele><time>2026-03-28T13:36:10Z</time></trkpt><trkpt lat="45.5938704218363" lon="10.758462485332707"><ele>221.2</ele><time>2026-03-28T13:36:11Z</time></trkpt><trkpt lat="45.593909630767705" lon="10.758341731137547"><ele>220.8</ele><time>2026-03-28T13:36:12Z</time></trkpt><trkpt lat="45.59396206979224" lon="10.758208728352745"><ele>220.4</ele><time>2026-03-28T13:36:13Z</time></trkpt><trkpt lat="45.593996093166005" lon="10.75804386587654"><ele>220.0</ele><time>2026-03-28T13:36:14Z</time></trkpt><trkpt lat="45.59404199782767" lon="10.757887551968993"><ele>220.0</ele><time>2026-03-28T13:36:15Z</time></trkpt><trkpt lat="45.59408713583041" lon="10.757737215180533"><ele>220.0</ele><time>2026-03-28T13:36:16Z</time></trkpt><trkpt lat="45.59413488968913" lon="10.757574013926723"><ele>220.0</ele><time>2026-03-28T13:36:17Z</time></trkpt><trkpt lat="45.594177612700925" lon="10.757418918073174"><ele>220.0</ele><time>2026-03-28T13:36:18Z</time></trkpt><trkpt lat="45.59421763049148" lon="10.757269148085276"><ele>220.0</ele><time>2026-03-28T13:36:19Z</time></trkpt><trkpt lat="45.59425888159581" lon="10.757119139443361"><ele>220.0</ele><time>2026-03-28T13:36:20Z</time></trkpt><trkpt lat="45.59429735500302" lon="10.756968996441534"><ele>220.0</ele><time>2026-03-28T13:36:21Z</time></trkpt><trkpt lat="45.59433889995396" lon="10.756818496784827"><ele>220.0</ele><time>2026-03-28T13:36:22Z</time></trkpt><trkpt lat="45.59437820848253" lon="10.756662593064881"><ele>220.0</ele><time>2026-03-28T13:36:23Z</time></trkpt><trkpt lat="45.5944140319782" lon="10.75650630548432"><ele>220.0</ele><time>2026-03-28T13:36:24Z</time></trkpt><trkpt lat="45.59444995551371" lon="10.75633762918716"><ele>220.0</ele><time>2026-03-28T13:36:25Z</time></trkpt><trkpt lat="45.594502043104555" lon="10.756167085555665"><ele>220.0</ele><time>2026-03-28T13:36:26Z</time></trkpt><trkpt lat="45.59455618767615" lon="10.755998554604382"><ele>221.25</ele><time>2026-03-28T13:36:27Z</time></trkpt><trkpt lat="45.59460739106154" lon="10.755842164538143"><ele>222.5</ele><time>2026-03-28T13:36:28Z</time></trkpt><trkpt lat="45.59466514899292" lon="10.755691055268171"><ele>223.75</ele><time>2026-03-28T13:36:29Z</time></trkpt><trkpt lat="45.594738337544385" lon="10.755561870547409"><ele>225.0</ele><time>2026-03-28T13:36:30Z</time></trkpt><trkpt lat="45.59479805827288" lon="10.755417776769427"><ele>225.0</ele><time>2026-03-28T13:36:31Z</time></trkpt><trkpt lat="45.59485322019451" lon="10.755260710459558"><ele>225.0</ele><time>2026-03-28T13:36:32Z</time></trkpt><trkpt lat="45.594911995188184" lon="10.755118764064694"><ele>225.0</ele><time>2026-03-28T13:36:33Z</time></trkpt><trkpt lat="45.59496887119657" lon="10.754978788528446"><ele>225.0</ele><time>2026-03-28T13:36:34Z</time></trkpt><trkpt lat="45.59501732397518" lon="10.754833934623575"><ele>225.16666666666666</ele><time>2026-03-28T13:36:35Z</time></trkpt><trkpt lat="45.59506350982016" lon="10.754693484463376"><ele>225.33333333333331</ele><time>2026-03-28T13:36:36Z</time></trkpt><trkpt lat="45.59510219529241" lon="10.754570615744129"><ele>225.5</ele><time>2026-03-28T13:36:37Z</time></trkpt><trkpt lat="45.595132370771175" lon="10.75445775067265"><ele>225.66666666666666</ele><time>2026-03-28T13:36:38Z</time></trkpt><trkpt lat="45.59515803436368" lon="10.754350321825235"><ele>225.83333333333331</ele><time>2026-03-28T13:36:39Z</time></trkpt><trkpt lat="45.595184181382976" lon="10.754239624972481"><ele>226.0</ele><time>2026-03-28T13:36:40Z</time></trkpt><trkpt lat="45.59521059582138" lon="10.75413712272654"><ele>226.20000000000002</ele><time>2026-03-28T13:36:41Z</time></trkpt><trkpt lat="45.595232273417736" lon="10.754047355783635"><ele>226.40000000000003</ele><time>2026-03-28T13:36:42Z</time></trkpt><trkpt lat="45.595265086435084" lon="10.753900297806513"><ele>226.6</ele><time>2026-03-28T13:36:44Z</time></trkpt><trkpt lat="45.595290879606985" lon="10.753756272366164"><ele>226.8</ele><time>2026-03-28T13:36:46Z</time></trkpt><trkpt lat="45.595306992001426" lon="10.753657270518598"><ele>227.0</ele><time>2026-03-28T13:36:47Z</time></trkpt><trkpt lat="45.5953319221701" lon="10.753512397110983"><ele>228.39999999999998</ele><time>2026-03-28T13:36:49Z</time></trkpt><trkpt lat="45.5953597023098" lon="10.753345439137735"><ele>229.79999999999998</ele><time>2026-03-28T13:36:51Z</time></trkpt><trkpt lat="45.59544515680437" lon="10.753236139007415"><ele>231.2</ele><time>2026-03-28T13:36:53Z</time></trkpt><trkpt lat="45.595530680080905" lon="10.753226168010217"><ele>232.6</ele><time>2026-03-28T13:36:54Z</time></trkpt><trkpt lat="45.59561277857459" lon="10.75319584452688"><ele>234.0</ele><time>2026-03-28T13:36:55Z</time></trkpt><trkpt lat="45.59568161032304" lon="10.753162543957606"><ele>234.0</ele><time>2026-03-28T13:36:56Z</time></trkpt><trkpt lat="45.5957806253152" lon="10.753126858329034"><ele>233.99999999999997</ele><time>2026-03-28T13:36:58Z</time></trkpt><trkpt lat="45.595852886750805" lon="10.753106112248958"><ele>233.99999999999997</ele><time>2026-03-28T13:37:00Z</time></trkpt><trkpt lat="45.59592351091769" lon="10.753091604715165"><ele>234.0</ele><time>2026-03-28T13:37:02Z</time></trkpt><trkpt lat="45.59598714415312" lon="10.75304077833753"><ele>234.0</ele><time>2026-03-28T13:37:05Z</time></trkpt><trkpt lat="45.595886705957724" lon="10.75289061718137"><ele>234.0</ele><time>2026-03-28T13:37:07Z</time></trkpt><trkpt lat="45.59579783140234" lon="10.752854768746166"><ele>233.99999999999997</ele><time>2026-03-28T13:37:08Z</time></trkpt><trkpt lat="45.595712362656656" lon="10.75278897144821"><ele>233.99999999999997</ele><time>2026-03-28T13:37:09Z</time></trkpt><trkpt lat="45.595624380536286" lon="10.752722503573393"><ele>234.0</ele><time>2026-03-28T13:37:10Z</time></trkpt><trkpt lat="45.595517582481776" lon="10.752639854001009"><ele>234.0</ele><time>2026-03-28T13:37:11Z</time></trkpt><trkpt lat="45.59540656801739" lon="10.752551013623279"><ele>233.0</ele><time>2026-03-28T13:37:12Z</time></trkpt><trkpt lat="45.59530026456009" lon="10.752461769992747"><ele>231.99999999999997</ele><time>2026-03-28T13:37:13Z</time></trkpt><trkpt lat="45.595207863537865" lon="10.752377434891658"><ele>230.99999999999997</ele><time>2026-03-28T13:37:14Z</time></trkpt><trkpt lat="45.59514002357413" lon="10.75231421188617"><ele>230.0</ele><time>2026-03-28T13:37:15Z</time></trkpt><trkpt lat="45.5950568838621" lon="10.752232482826477"><ele>229.0</ele><time>2026-03-28T13:37:17Z</time></trkpt><trkpt lat="45.59495618730772" lon="10.752127448092748"><ele>229.0</ele><time>2026-03-28T13:37:19Z</time></trkpt><trkpt lat="45.59489171598494" lon="10.752059237459086"><ele>228.99999999999997</ele><time>2026-03-28T13:37:20Z</time></trkpt><trkpt lat="45.59482359991697" lon="10.751986506836205"><ele>228.99999999999997</ele><time>2026-03-28T13:37:21Z</time></trkpt><trkpt lat="45.5947480399706" lon="10.751913459929234"><ele>229.0</ele><time>2026-03-28T13:37:22Z</time></trkpt><trkpt lat="45.59466378425602" lon="10.751831880373036"><ele>229.0</ele><time>2026-03-28T13:37:23Z</time></trkpt><trkpt lat="45.594567443267685" lon="10.751738490360465"><ele>227.75</ele><time>2026-03-28T13:37:24Z</time></trkpt><trkpt lat="45.59446162732531" lon="10.751631441262699"><ele>226.5</ele><time>2026-03-28T13:37:25Z</time></trkpt><trkpt lat="45.59435681001152" lon="10.751523471630376"><ele>225.25</ele><time>2026-03-28T13:37:26Z</time></trkpt><trkpt lat="45.59425233538903" lon="10.751418385377907"><ele>224.0</ele><time>2026-03-28T13:37:27Z</time></trkpt><trkpt lat="45.59414179346303" lon="10.751306677101155"><ele>224.0</ele><time>2026-03-28T13:37:28Z</time></trkpt><trkpt lat="45.594028780744786" lon="10.7511882008234"><ele>224.0</ele><time>2026-03-28T13:37:29Z</time></trkpt><trkpt lat="45.59390944456292" lon="10.751066104784044"><ele>224.0</ele><time>2026-03-28T13:37:30Z</time></trkpt><trkpt lat="45.59378851561595" lon="10.7509382706908"><ele>224.0</ele><time>2026-03-28T13:37:31Z</time></trkpt><trkpt lat="45.59366605099272" lon="10.750795433579933"><ele>224.0</ele><time>2026-03-28T13:37:32Z</time></trkpt><trkpt lat="45.593540064475484" lon="10.750667962595056"><ele>224.0</ele><time>2026-03-28T13:37:33Z</time></trkpt><trkpt lat="45.59340850380481" lon="10.75055041424939"><ele>224.0</ele><time>2026-03-28T13:37:34Z</time></trkpt><trkpt lat="45.59326633514847" lon="10.750436156230752"><ele>224.0</ele><time>2026-03-28T13:37:35Z</time></trkpt><trkpt lat="45.59311822123731" lon="10.750325070778329"><ele>224.0</ele><time>2026-03-28T13:37:36Z</time></trkpt><trkpt lat="45.59296150221698" lon="10.750215652409386"><ele>224.0</ele><time>2026-03-28T13:37:37Z</time></trkpt><trkpt lat="45.59280268389674" lon="10.750105021929116"><ele>223.33333333333334</ele><time>2026-03-28T13:37:38Z</time></trkpt><trkpt lat="45.59264599205633" lon="10.749995872770342"><ele>222.66666666666669</ele><time>2026-03-28T13:37:39Z</time></trkpt><trkpt lat="45.59249341990465" lon="10.749889593328398"><ele>222.0</ele><time>2026-03-28T13:37:40Z</time></trkpt><trkpt lat="45.59234782980487" lon="10.749786004850376"><ele>222.0</ele><time>2026-03-28T13:37:41Z</time></trkpt><trkpt lat="45.592211528518575" lon="10.74968586794757"><ele>222.0</ele><time>2026-03-28T13:37:42Z</time></trkpt><trkpt lat="45.59208475788216" lon="10.749589533275"><ele>222.0</ele><time>2026-03-28T13:37:43Z</time></trkpt><trkpt lat="45.59196711468001" lon="10.749497654516473"><ele>222.0</ele><time>2026-03-28T13:37:44Z</time></trkpt><trkpt lat="45.591848849790985" lon="10.749402489727077"><ele>222.0</ele><time>2026-03-28T13:37:45Z</time></trkpt><trkpt lat="45.59172674527719" lon="10.749300137749307"><ele>222.0</ele><time>2026-03-28T13:37:46Z</time></trkpt><trkpt lat="45.59160234128848" lon="10.749194322542664"><ele>222.0</ele><time>2026-03-28T13:37:47Z</time></trkpt><trkpt lat="45.59147407885859" lon="10.749085225371164"><ele>222.0</ele><time>2026-03-28T13:37:48Z</time></trkpt><trkpt lat="45.59134355860612" lon="10.748975249554896"><ele>222.0</ele><time>2026-03-28T13:37:49Z</time></trkpt><trkpt lat="45.59121323972562" lon="10.748866193845034"><ele>222.0</ele><time>2026-03-28T13:37:50Z</time></trkpt><trkpt lat="45.591082413202656" lon="10.748756713100528"><ele>222.0</ele><time>2026-03-28T13:37:51Z</time></trkpt><trkpt lat="45.59095094197409" lon="10.748646680098641"><ele>222.0</ele><time>2026-03-28T13:37:52Z</time></trkpt><trkpt lat="45.59082047475811" lon="10.748537454508522"><ele>222.0</ele><time>2026-03-28T13:37:53Z</time></trkpt><trkpt lat="45.59069364057095" lon="10.748431270339674"><ele>222.0</ele><time>2026-03-28T13:37:54Z</time></trkpt><trkpt lat="45.59056851726199" lon="10.748326518303603"><ele>222.0</ele><time>2026-03-28T13:37:55Z</time></trkpt><trkpt lat="45.59044102104994" lon="10.748221919043651"><ele>222.0</ele><time>2026-03-28T13:37:56Z</time></trkpt><trkpt lat="45.59031278146655" lon="10.748120833636424"><ele>222.0</ele><time>2026-03-28T13:37:57Z</time></trkpt><trkpt lat="45.59017934048419" lon="10.748025748176106"><ele>222.0</ele><time>2026-03-28T13:37:58Z</time></trkpt><trkpt lat="45.59004230465917" lon="10.747936258121324"><ele>222.0</ele><time>2026-03-28T13:37:59Z</time></trkpt><trkpt lat="45.58990127140048" lon="10.747848100507936"><ele>222.0</ele><time>2026-03-28T13:38:00Z</time></trkpt><trkpt lat="45.589762130791165" lon="10.747763220374312"><ele>222.0</ele><time>2026-03-28T13:38:01Z</time></trkpt><trkpt lat="45.58961978772363" lon="10.747702251162291"><ele>222.0</ele><time>2026-03-28T13:38:02Z</time></trkpt><trkpt lat="45.589488509611755" lon="10.747622154317355"><ele>222.0</ele><time>2026-03-28T13:38:03Z</time></trkpt><trkpt lat="45.58936219942115" lon="10.747522101986712"><ele>221.75</ele><time>2026-03-28T13:38:04Z</time></trkpt><trkpt lat="45.58923173459085" lon="10.747443511093964"><ele>221.5</ele><time>2026-03-28T13:38:05Z</time></trkpt><trkpt lat="45.58910031025761" lon="10.747364342281898"><ele>221.25</ele><time>2026-03-28T13:38:06Z</time></trkpt><trkpt lat="45.58896856311627" lon="10.747285359753796"><ele>221.0</ele><time>2026-03-28T13:38:07Z</time></trkpt><trkpt lat="45.58884059187767" lon="10.747208696604666"><ele>221.0</ele><time>2026-03-28T13:38:08Z</time></trkpt><trkpt lat="45.58872569256271" lon="10.747139864392755"><ele>221.00000000000003</ele><time>2026-03-28T13:38:09Z</time></trkpt><trkpt lat="45.588619604895236" lon="10.747076310948705"><ele>221.00000000000003</ele><time>2026-03-28T13:38:10Z</time></trkpt><trkpt lat="45.58851070978425" lon="10.747037163357861"><ele>221.0</ele><time>2026-03-28T13:38:11Z</time></trkpt><trkpt lat="45.58842406331202" lon="10.7469828330067"><ele>221.0</ele><time>2026-03-28T13:38:12Z</time></trkpt><trkpt lat="45.588346981423705" lon="10.746929421085424"><ele>221.00000000000003</ele><time>2026-03-28T13:38:13Z</time></trkpt><trkpt lat="45.58829204712775" lon="10.746880540625755"><ele>221.0</ele><time>2026-03-28T13:38:14Z</time></trkpt><trkpt lat="45.58823789823318" lon="10.74681695719815"><ele>221.0</ele><time>2026-03-28T13:38:16Z</time></trkpt><trkpt lat="45.58819249557246" lon="10.746730511064454"><ele>221.0</ele><time>2026-03-28T13:38:20Z</time></trkpt><trkpt lat="45.58811527911563" lon="10.746606117848435"><ele>221.00000000000003</ele><time>2026-03-28T13:38:22Z</time></trkpt><trkpt lat="45.588008739668794" lon="10.746525281858712"><ele>221.0</ele><time>2026-03-28T13:38:24Z</time></trkpt><trkpt lat="45.58788813724459" lon="10.746555472604085"><ele>221.60000000000002</ele><time>2026-03-28T13:38:26Z</time></trkpt><trkpt lat="45.5878325511351" lon="10.746618935591613"><ele>222.20000000000002</ele><time>2026-03-28T13:38:27Z</time></trkpt><trkpt lat="45.587797998483474" lon="10.746724227892736"><ele>222.79999999999998</ele><time>2026-03-28T13:38:28Z</time></trkpt><trkpt lat="45.58773990958915" lon="10.746839755624391"><ele>223.39999999999998</ele><time>2026-03-28T13:38:29Z</time></trkpt><trkpt lat="45.587692527059886" lon="10.746958666374331"><ele>224.0</ele><time>2026-03-28T13:38:30Z</time></trkpt><trkpt lat="45.58762220089363" lon="10.747078545364799"><ele>224.0</ele><time>2026-03-28T13:38:31Z</time></trkpt><trkpt lat="45.58754680707195" lon="10.747202570371808"><ele>224.0</ele><time>2026-03-28T13:38:32Z</time></trkpt><trkpt lat="45.58746805296791" lon="10.747323309210364"><ele>224.0</ele><time>2026-03-28T13:38:33Z</time></trkpt><trkpt lat="45.58738508195656" lon="10.74743790115709"><ele>224.0</ele><time>2026-03-28T13:38:34Z</time></trkpt><trkpt lat="45.58730159896591" lon="10.747549640921946"><ele>224.0</ele><time>2026-03-28T13:38:35Z</time></trkpt><trkpt lat="45.587218220682445" lon="10.74764818819426"><ele>223.99999999999997</ele><time>2026-03-28T13:38:36Z</time></trkpt><trkpt lat="45.58713808709619" lon="10.747737321634421"><ele>223.99999999999997</ele><time>2026-03-28T13:38:37Z</time></trkpt><trkpt lat="45.58707200421081" lon="10.747812280277074"><ele>224.0</ele><time>2026-03-28T13:38:38Z</time></trkpt><trkpt lat="45.58699943083937" lon="10.7478765324851"><ele>224.0</ele><time>2026-03-28T13:38:39Z</time></trkpt><trkpt lat="45.58691710997777" lon="10.747924937778606"><ele>223.75</ele><time>2026-03-28T13:38:40Z</time></trkpt><trkpt lat="45.58681916419148" lon="10.747996370587396"><ele>223.5</ele><time>2026-03-28T13:38:41Z</time></trkpt><trkpt lat="45.5867204616239" lon="10.74810050229257"><ele>223.25</ele><time>2026-03-28T13:38:42Z</time></trkpt><trkpt lat="45.58662483304087" lon="10.748202565765803"><ele>223.0</ele><time>2026-03-28T13:38:43Z</time></trkpt><trkpt lat="45.58653377426789" lon="10.74829056954167"><ele>223.0</ele><time>2026-03-28T13:38:44Z</time></trkpt><trkpt lat="45.58643227867379" lon="10.748386570257168"><ele>223.0</ele><time>2026-03-28T13:38:45Z</time></trkpt><trkpt lat="45.58633689643465" lon="10.748476966666116"><ele>223.0</ele><time>2026-03-28T13:38:46Z</time></trkpt><trkpt lat="45.58624186473611" lon="10.748559784557541"><ele>223.0</ele><time>2026-03-28T13:38:47Z</time></trkpt><trkpt lat="45.5861573645283" lon="10.74863518403281"><ele>223.0</ele><time>2026-03-28T13:38:48Z</time></trkpt><trkpt lat="45.5860767436149" lon="10.748705050304801"><ele>222.66666666666666</ele><time>2026-03-28T13:38:49Z</time></trkpt><trkpt lat="45.58599918603232" lon="10.748777555232618"><ele>222.33333333333331</ele><time>2026-03-28T13:38:50Z</time></trkpt><trkpt lat="45.58592665959246" lon="10.748847346169375"><ele>222.0</ele><time>2026-03-28T13:38:51Z</time></trkpt><trkpt lat="45.58585361999513" lon="10.748913999172135"><ele>221.66666666666669</ele><time>2026-03-28T13:38:52Z</time></trkpt><trkpt lat="45.585784431470394" lon="10.74897168984518"><ele>221.33333333333334</ele><time>2026-03-28T13:38:53Z</time></trkpt><trkpt lat="45.585728913994146" lon="10.749026360887877"><ele>221.0</ele><time>2026-03-28T13:38:54Z</time></trkpt><trkpt lat="45.58565515742134" lon="10.749099211959019"><ele>221.0</ele><time>2026-03-28T13:38:56Z</time></trkpt><trkpt lat="45.585590758148335" lon="10.748978222738074"><ele>221.0</ele><time>2026-03-28T13:38:59Z</time></trkpt><trkpt lat="45.58555934812374" lon="10.748892870229675"><ele>221.0</ele><time>2026-03-28T13:39:00Z</time></trkpt><trkpt lat="45.58552967619292" lon="10.748812240705956"><ele>221.0</ele><time>2026-03-28T13:39:01Z</time></trkpt><trkpt lat="45.58520331604812" lon="10.748916479202087"><ele>221.5</ele><time>2026-03-28T13:39:03Z</time></trkpt><trkpt lat="45.58510194683631" lon="10.748961221579762"><ele>222.0</ele><time>2026-03-28T13:39:04Z</time></trkpt><trkpt lat="45.585004230258605" lon="10.749029596106652"><ele>222.5</ele><time>2026-03-28T13:39:05Z</time></trkpt><trkpt lat="45.58490836383027" lon="10.74912566841181"><ele>223.0</ele><time>2026-03-28T13:39:06Z</time></trkpt><trkpt lat="45.584818354837935" lon="10.749250004108887"><ele>223.0</ele><time>2026-03-28T13:39:07Z</time></trkpt><trkpt lat="45.58474037649999" lon="10.749366074976153"><ele>223.0</ele><time>2026-03-28T13:39:08Z</time></trkpt><trkpt lat="45.58466914740018" lon="10.749457026128972"><ele>223.0</ele><time>2026-03-28T13:39:09Z</time></trkpt><trkpt lat="45.58460257494774" lon="10.749526407857111"><ele>223.0</ele><time>2026-03-28T13:39:10Z</time></trkpt><trkpt lat="45.584533479646524" lon="10.749582067639981"><ele>223.0</ele><time>2026-03-28T13:39:11Z</time></trkpt><trkpt lat="45.58445620495258" lon="10.749615528353266"><ele>223.2</ele><time>2026-03-28T13:39:12Z</time></trkpt><trkpt lat="45.58436827235037" lon="10.749616050285079"><ele>223.4</ele><time>2026-03-28T13:39:13Z</time></trkpt><trkpt lat="45.58426252935849" lon="10.74961028529063"><ele>223.59999999999997</ele><time>2026-03-28T13:39:14Z</time></trkpt><trkpt lat="45.58415689433355" lon="10.74960685815654"><ele>223.79999999999998</ele><time>2026-03-28T13:39:15Z</time></trkpt><trkpt lat="45.58404316340286" lon="10.749602096052737"><ele>224.0</ele><time>2026-03-28T13:39:16Z</time></trkpt><trkpt lat="45.58392316407294" lon="10.749604495736692"><ele>224.0</ele><time>2026-03-28T13:39:17Z</time></trkpt><trkpt lat="45.583798568160304" lon="10.749614226693335"><ele>224.0</ele><time>2026-03-28T13:39:18Z</time></trkpt><trkpt lat="45.58367261361868" lon="10.749623398274224"><ele>224.0</ele><time>2026-03-28T13:39:19Z</time></trkpt><trkpt lat="45.58355359335617" lon="10.749637988460785"><ele>224.0</ele><time>2026-03-28T13:39:20Z</time></trkpt><trkpt lat="45.58343218786152" lon="10.74966742463729"><ele>224.75</ele><time>2026-03-28T13:39:21Z</time></trkpt><trkpt lat="45.583308358095394" lon="10.749708846120527"><ele>225.5</ele><time>2026-03-28T13:39:22Z</time></trkpt><trkpt lat="45.5831916183802" lon="10.749736018229767"><ele>226.25</ele><time>2026-03-28T13:39:23Z</time></trkpt><trkpt lat="45.58307458554569" lon="10.749744156590793"><ele>227.0</ele><time>2026-03-28T13:39:24Z</time></trkpt><trkpt lat="45.582956422638176" lon="10.749738534842958"><ele>226.5</ele><time>2026-03-28T13:39:25Z</time></trkpt><trkpt lat="45.58283367480334" lon="10.749720218243791"><ele>226.0</ele><time>2026-03-28T13:39:26Z</time></trkpt><trkpt lat="45.5827035630526" lon="10.749694721375855"><ele>225.5</ele><time>2026-03-28T13:39:27Z</time></trkpt><trkpt lat="45.58257790459806" lon="10.749661236562435"><ele>225.0</ele><time>2026-03-28T13:39:28Z</time></trkpt><trkpt lat="45.582441690312905" lon="10.74962580776681"><ele>225.0</ele><time>2026-03-28T13:39:29Z</time></trkpt><trkpt lat="45.582297499763506" lon="10.749588610106958"><ele>225.0</ele><time>2026-03-28T13:39:30Z</time></trkpt><trkpt lat="45.58215159543663" lon="10.749545732669443"><ele>225.0</ele><time>2026-03-28T13:39:31Z</time></trkpt><trkpt lat="45.58202663624814" lon="10.749508607029359"><ele>225.0</ele><time>2026-03-28T13:39:32Z</time></trkpt><trkpt lat="45.58189440327591" lon="10.749477290484116"><ele>224.25</ele><time>2026-03-28T13:39:33Z</time></trkpt><trkpt lat="45.581754426589676" lon="10.749461611542355"><ele>223.5</ele><time>2026-03-28T13:39:34Z</time></trkpt><trkpt lat="45.58161111070574" lon="10.749452456136655"><ele>222.75</ele><time>2026-03-28T13:39:35Z</time></trkpt><trkpt lat="45.5814777147947" lon="10.749428080055273"><ele>222.0</ele><time>2026-03-28T13:39:36Z</time></trkpt><trkpt lat="45.58135570521924" lon="10.749403047115823"><ele>222.0</ele><time>2026-03-28T13:39:37Z</time></trkpt><trkpt lat="45.58123775705033" lon="10.749381870604442"><ele>222.0</ele><time>2026-03-28T13:39:38Z</time></trkpt><trkpt lat="45.58112040233497" lon="10.749366137146021"><ele>222.0</ele><time>2026-03-28T13:39:39Z</time></trkpt><trkpt lat="45.5810024278152" lon="10.749362133752307"><ele>222.0</ele><time>2026-03-28T13:39:40Z</time></trkpt><trkpt lat="45.5808827047304" lon="10.749387045095634"><ele>222.2</ele><time>2026-03-28T13:39:41Z</time></trkpt><trkpt lat="45.58077331918953" lon="10.749429039963765"><ele>222.39999999999998</ele><time>2026-03-28T13:39:42Z</time></trkpt><trkpt lat="45.58067972858997" lon="10.749480382670987"><ele>222.60000000000002</ele><time>2026-03-28T13:39:43Z</time></trkpt><trkpt lat="45.580594853262994" lon="10.74953409908467"><ele>222.8</ele><time>2026-03-28T13:39:44Z</time></trkpt><trkpt lat="45.58052035164107" lon="10.749579769675558"><ele>223.0</ele><time>2026-03-28T13:39:45Z</time></trkpt><trkpt lat="45.58045268165324" lon="10.749618527040884"><ele>224.4</ele><time>2026-03-28T13:39:46Z</time></trkpt><trkpt lat="45.58034763653201" lon="10.749671549321915"><ele>225.8</ele><time>2026-03-28T13:39:48Z</time></trkpt><trkpt lat="45.58024772903578" lon="10.749737438656018"><ele>227.2</ele><time>2026-03-28T13:39:50Z</time></trkpt><trkpt lat="45.580217571061496" lon="10.749816532649021"><ele>228.6</ele><time>2026-03-28T13:39:52Z</time></trkpt><trkpt lat="45.58013826494398" lon="10.74991279329987"><ele>230.0</ele><time>2026-03-28T13:40:36Z</time></trkpt><trkpt lat="45.58006585164384" lon="10.749952004109206"><ele>230.0</ele><time>2026-03-28T13:40:37Z</time></trkpt><trkpt lat="45.57998723756283" lon="10.749997508421437"><ele>230.0</ele><time>2026-03-28T13:40:38Z</time></trkpt><trkpt lat="45.579908533680715" lon="10.750040552403048"><ele>230.0</ele><time>2026-03-28T13:40:39Z</time></trkpt><trkpt lat="45.57982267193032" lon="10.750092449707989"><ele>230.0</ele><time>2026-03-28T13:40:40Z</time></trkpt><trkpt lat="45.57968098071689" lon="10.749964632186083"><ele>230.0</ele><time>2026-03-28T13:40:41Z</time></trkpt><trkpt lat="45.57960591293312" lon="10.75001418496599"><ele>230.0</ele><time>2026-03-28T13:40:42Z</time></trkpt><trkpt lat="45.579536308283224" lon="10.750057010192556"><ele>230.0</ele><time>2026-03-28T13:40:43Z</time></trkpt><trkpt lat="45.57945444578952" lon="10.750104602623509"><ele>230.0</ele><time>2026-03-28T13:40:44Z</time></trkpt><trkpt lat="45.57935662572872" lon="10.750163464430681"><ele>230.0</ele><time>2026-03-28T13:40:45Z</time></trkpt><trkpt lat="45.57926015052562" lon="10.750225417549233"><ele>230.0</ele><time>2026-03-28T13:40:46Z</time></trkpt><trkpt lat="45.5791585389509" lon="10.750294225394976"><ele>229.75</ele><time>2026-03-28T13:40:47Z</time></trkpt><trkpt lat="45.57906240890002" lon="10.750359321361502"><ele>229.5</ele><time>2026-03-28T13:40:48Z</time></trkpt><trkpt lat="45.578965115478226" lon="10.750433653992827"><ele>229.25</ele><time>2026-03-28T13:40:49Z</time></trkpt><trkpt lat="45.578888841766556" lon="10.750493955633258"><ele>229.0</ele><time>2026-03-28T13:40:50Z</time></trkpt><trkpt lat="45.57887063561423" lon="10.750740654564463"><ele>229.0</ele><time>2026-03-28T13:40:51Z</time></trkpt><trkpt lat="45.578797231210515" lon="10.750796030484807"><ele>228.99999999999997</ele><time>2026-03-28T13:40:52Z</time></trkpt><trkpt lat="45.57873433138326" lon="10.75083791929992"><ele>228.99999999999997</ele><time>2026-03-28T13:40:53Z</time></trkpt><trkpt lat="45.57867530785537" lon="10.750880819326042"><ele>229.0</ele><time>2026-03-28T13:40:54Z</time></trkpt><trkpt lat="45.57853288047092" lon="10.750801262777804"><ele>229.0</ele><time>2026-03-28T13:40:56Z</time></trkpt><trkpt lat="45.57840966426802" lon="10.751351715974646"><ele>228.0</ele><time>2026-03-28T13:40:59Z</time></trkpt><trkpt lat="45.57865044851837" lon="10.751295368606957"><ele>227.0</ele><time>2026-03-28T13:41:00Z</time></trkpt><trkpt lat="45.5786872886171" lon="10.75142417033945"><ele>226.0</ele><time>2026-03-28T13:41:01Z</time></trkpt><trkpt lat="45.578714490974775" lon="10.751541838623803"><ele>225.0</ele><time>2026-03-28T13:41:02Z</time></trkpt><trkpt lat="45.578732790118" lon="10.75165296486206"><ele>224.71428571428575</ele><time>2026-03-28T13:41:03Z</time></trkpt><trkpt lat="45.57874275797496" lon="10.751760024911118"><ele>224.42857142857144</ele><time>2026-03-28T13:41:04Z</time></trkpt><trkpt lat="45.57873651986265" lon="10.751858189671879"><ele>224.14285714285717</ele><time>2026-03-28T13:41:05Z</time></trkpt><trkpt lat="45.5787170762413" lon="10.751966733695081"><ele>223.8571428571429</ele><time>2026-03-28T13:41:06Z</time></trkpt><trkpt lat="45.57870601306732" lon="10.75206881999922"><ele>223.57142857142856</ele><time>2026-03-28T13:41:07Z</time></trkpt><trkpt lat="45.57868551222079" lon="10.752168048388437"><ele>223.28571428571428</ele><time>2026-03-28T13:41:08Z</time></trkpt><trkpt lat="45.57866334284605" lon="10.75227848815012"><ele>223.0</ele><time>2026-03-28T13:41:09Z</time></trkpt><trkpt lat="45.57865279056343" lon="10.752391161764534"><ele>221.75</ele><time>2026-03-28T13:41:10Z</time></trkpt><trkpt lat="45.57864249459321" lon="10.752485934866982"><ele>220.5</ele><time>2026-03-28T13:41:11Z</time></trkpt><trkpt lat="45.578575056642066" lon="10.752617897535904"><ele>219.25</ele><time>2026-03-28T13:41:13Z</time></trkpt><trkpt lat="45.57849495972053" lon="10.752541992918646"><ele>218.0</ele><time>2026-03-28T13:41:14Z</time></trkpt><trkpt lat="45.57845944497711" lon="10.75278924864552"><ele>217.0</ele><time>2026-03-28T13:41:16Z</time></trkpt><trkpt lat="45.57844021971479" lon="10.752932682282298"><ele>216.0</ele><time>2026-03-28T13:41:17Z</time></trkpt><trkpt lat="45.578434093867536" lon="10.753080296468823"><ele>215.0</ele><time>2026-03-28T13:41:18Z</time></trkpt><trkpt lat="45.57842666043938" lon="10.753219146058978"><ele>214.0</ele><time>2026-03-28T13:41:19Z</time></trkpt><trkpt lat="45.578420371717975" lon="10.753360362470975"><ele>213.0</ele><time>2026-03-28T13:41:20Z</time></trkpt><trkpt lat="45.57843949028789" lon="10.753493682099904"><ele>212.33333333333334</ele><time>2026-03-28T13:41:21Z</time></trkpt><trkpt lat="45.57845961624657" lon="10.753623309493966"><ele>211.66666666666669</ele><time>2026-03-28T13:41:22Z</time></trkpt><trkpt lat="45.578492874517615" lon="10.753741254249903"><ele>211.0</ele><time>2026-03-28T13:41:23Z</time></trkpt><trkpt lat="45.57853001236722" lon="10.75385512512655"><ele>210.33333333333334</ele><time>2026-03-28T13:41:24Z</time></trkpt><trkpt lat="45.578562979425335" lon="10.75395689132225"><ele>209.66666666666669</ele><time>2026-03-28T13:41:25Z</time></trkpt><trkpt lat="45.578586138058604" lon="10.754085786176429"><ele>209.0</ele><time>2026-03-28T13:41:27Z</time></trkpt><trkpt lat="45.57850003729051" lon="10.75409830810498"><ele>209.0</ele><time>2026-03-28T13:41:32Z</time></trkpt><trkpt lat="45.578389108180566" lon="10.754035607990318"><ele>209.0</ele><time>2026-03-28T13:41:34Z</time></trkpt><trkpt lat="45.57832640407869" lon="10.753984258916233"><ele>209.0</ele><time>2026-03-28T13:41:35Z</time></trkpt><trkpt lat="45.578239070695716" lon="10.753923774374773"><ele>209.0</ele><time>2026-03-28T13:41:36Z</time></trkpt><trkpt lat="45.57814624096128" lon="10.753869646085903"><ele>209.0</ele><time>2026-03-28T13:41:37Z</time></trkpt><trkpt lat="45.5780512322613" lon="10.753806608960723"><ele>209.0</ele><time>2026-03-28T13:41:38Z</time></trkpt><trkpt lat="45.57795171428959" lon="10.753721944484509"><ele>209.0</ele><time>2026-03-28T13:41:39Z</time></trkpt><trkpt lat="45.57785351847629" lon="10.753629645347333"><ele>209.0</ele><time>2026-03-28T13:41:40Z</time></trkpt><trkpt lat="45.577755638236574" lon="10.753531951613093"><ele>209.0</ele><time>2026-03-28T13:41:41Z</time></trkpt><trkpt lat="45.57767402714071" lon="10.753437905218464"><ele>209.25</ele><time>2026-03-28T13:41:42Z</time></trkpt><trkpt lat="45.57758703938917" lon="10.753340666200002"><ele>209.5</ele><time>2026-03-28T13:41:43Z</time></trkpt><trkpt lat="45.577496388181686" lon="10.753235104799726"><ele>209.75</ele><time>2026-03-28T13:41:44Z</time></trkpt><trkpt lat="45.57742434227319" lon="10.753104239885939"><ele>210.0</ele><time>2026-03-28T13:41:45Z</time></trkpt><trkpt lat="45.57734993636923" lon="10.752979326289958"><ele>210.0</ele><time>2026-03-28T13:41:46Z</time></trkpt><trkpt lat="45.57726885916502" lon="10.752859113750766"><ele>210.0</ele><time>2026-03-28T13:41:47Z</time></trkpt><trkpt lat="45.57719959504208" lon="10.752710112609313"><ele>210.0</ele><time>2026-03-28T13:41:48Z</time></trkpt><trkpt lat="45.577130331600536" lon="10.752550586297371"><ele>210.0</ele><time>2026-03-28T13:41:49Z</time></trkpt><trkpt lat="45.577062869682486" lon="10.752396733739397"><ele>210.0</ele><time>2026-03-28T13:41:50Z</time></trkpt><trkpt lat="45.576999572817016" lon="10.752250064714287"><ele>210.0</ele><time>2026-03-28T13:41:51Z</time></trkpt><trkpt lat="45.57692715201433" lon="10.75210111546911"><ele>210.0</ele><time>2026-03-28T13:41:52Z</time></trkpt><trkpt lat="45.5768546184626" lon="10.751952819098294"><ele>210.0</ele><time>2026-03-28T13:41:53Z</time></trkpt><trkpt lat="45.576794471523506" lon="10.751824665567916"><ele>210.0</ele><time>2026-03-28T13:41:54Z</time></trkpt><trkpt lat="45.57673659967775" lon="10.751712062708318"><ele>210.0</ele><time>2026-03-28T13:41:55Z</time></trkpt><trkpt lat="45.576679158792686" lon="10.751614910850325"><ele>210.0</ele><time>2026-03-28T13:41:56Z</time></trkpt><trkpt lat="45.576625996989314" lon="10.751531792631194"><ele>210.0</ele><time>2026-03-28T13:41:57Z</time></trkpt><trkpt lat="45.57655155499802" lon="10.751399401960368"><ele>210.0</ele><time>2026-03-28T13:41:59Z</time></trkpt><trkpt lat="45.57652220618571" lon="10.751307773035695"><ele>210.0</ele><time>2026-03-28T13:42:00Z</time></trkpt><trkpt lat="45.57645579402459" lon="10.751228227164432"><ele>210.0</ele><time>2026-03-28T13:42:01Z</time></trkpt><trkpt lat="45.576398598143804" lon="10.751129683773758"><ele>210.0</ele><time>2026-03-28T13:42:02Z</time></trkpt><trkpt lat="45.5763424623712" lon="10.751027884804838"><ele>210.0</ele><time>2026-03-28T13:42:03Z</time></trkpt><trkpt lat="45.57628433219618" lon="10.750922993574045"><ele>210.0</ele><time>2026-03-28T13:42:04Z</time></trkpt><trkpt lat="45.57621260622545" lon="10.750829440408781"><ele>209.2</ele><time>2026-03-28T13:42:05Z</time></trkpt><trkpt lat="45.5761515082514" lon="10.750711617922907"><ele>208.4</ele><time>2026-03-28T13:42:06Z</time></trkpt><trkpt lat="45.57608344433781" lon="10.750593802531355"><ele>207.60000000000002</ele><time>2026-03-28T13:42:07Z</time></trkpt><trkpt lat="45.57602039195489" lon="10.750462854877625"><ele>206.8</ele><time>2026-03-28T13:42:08Z</time></trkpt><trkpt lat="45.575950215829316" lon="10.75034155435058"><ele>206.0</ele><time>2026-03-28T13:42:09Z</time></trkpt><trkpt lat="45.57587947126685" lon="10.750226293238681"><ele>206.8</ele><time>2026-03-28T13:42:10Z</time></trkpt><trkpt lat="45.57580530478782" lon="10.750121788597816"><ele>207.60000000000002</ele><time>2026-03-28T13:42:11Z</time></trkpt><trkpt lat="45.5757310746522" lon="10.750036654521791"><ele>208.4</ele><time>2026-03-28T13:42:12Z</time></trkpt><trkpt lat="45.575653350013305" lon="10.749963498858273"><ele>209.2</ele><time>2026-03-28T13:42:13Z</time></trkpt><trkpt lat="45.57557871006573" lon="10.749900459481733"><ele>210.0</ele><time>2026-03-28T13:42:14Z</time></trkpt><trkpt lat="45.57550751817561" lon="10.749847417437685"><ele>210.0</ele><time>2026-03-28T13:42:15Z</time></trkpt><trkpt lat="45.575430319813705" lon="10.749818264465153"><ele>210.0</ele><time>2026-03-28T13:42:16Z</time></trkpt><trkpt lat="45.57536136375134" lon="10.749742545614891"><ele>210.0</ele><time>2026-03-28T13:42:17Z</time></trkpt><trkpt lat="45.575285560484595" lon="10.749683358155515"><ele>210.0</ele><time>2026-03-28T13:42:18Z</time></trkpt><trkpt lat="45.57521149815299" lon="10.749625032631949"><ele>210.0</ele><time>2026-03-28T13:42:19Z</time></trkpt><trkpt lat="45.575135582994214" lon="10.749564988896552"><ele>210.0</ele><time>2026-03-28T13:42:20Z</time></trkpt><trkpt lat="45.57506134922309" lon="10.749506274965063"><ele>210.16666666666666</ele><time>2026-03-28T13:42:21Z</time></trkpt><trkpt lat="45.57498689114443" lon="10.749445594334247"><ele>210.33333333333331</ele><time>2026-03-28T13:42:22Z</time></trkpt><trkpt lat="45.574911488263055" lon="10.74938302540234"><ele>210.5</ele><time>2026-03-28T13:42:23Z</time></trkpt><trkpt lat="45.57483553912009" lon="10.749320003194384"><ele>210.66666666666666</ele><time>2026-03-28T13:42:24Z</time></trkpt><trkpt lat="45.574760056063965" lon="10.74925736772027"><ele>210.83333333333331</ele><time>2026-03-28T13:42:25Z</time></trkpt><trkpt lat="45.57467582070004" lon="10.749218025384131"><ele>211.0</ele><time>2026-03-28T13:42:26Z</time></trkpt><trkpt lat="45.574607742615015" lon="10.74913870056254"><ele>210.99999999999997</ele><time>2026-03-28T13:42:27Z</time></trkpt><trkpt lat="45.574530069318875" lon="10.749079770162698"><ele>211.0</ele><time>2026-03-28T13:42:28Z</time></trkpt><trkpt lat="45.57445356980051" lon="10.749025072585729"><ele>211.0</ele><time>2026-03-28T13:42:29Z</time></trkpt><trkpt lat="45.57437355760147" lon="10.74897595108831"><ele>211.0</ele><time>2026-03-28T13:42:30Z</time></trkpt><trkpt lat="45.57428653711158" lon="10.748952081646326"><ele>210.99999999999997</ele><time>2026-03-28T13:42:31Z</time></trkpt><trkpt lat="45.5742024098569" lon="10.748908874132537"><ele>211.0</ele><time>2026-03-28T13:42:32Z</time></trkpt><trkpt lat="45.57411949562781" lon="10.748853058953351"><ele>211.0</ele><time>2026-03-28T13:42:33Z</time></trkpt><trkpt lat="45.5740347437001" lon="10.748794220318908"><ele>211.0</ele><time>2026-03-28T13:42:34Z</time></trkpt><trkpt lat="45.573947837940906" lon="10.748725063249834"><ele>211.0</ele><time>2026-03-28T13:42:35Z</time></trkpt><trkpt lat="45.57386984333225" lon="10.748628423810683"><ele>211.0</ele><time>2026-03-28T13:42:36Z</time></trkpt><trkpt lat="45.573790432121335" lon="10.748543256643499"><ele>211.0</ele><time>2026-03-28T13:42:37Z</time></trkpt><trkpt lat="45.573716030844864" lon="10.748458666251464"><ele>210.33333333333331</ele><time>2026-03-28T13:42:38Z</time></trkpt><trkpt lat="45.573632092055945" lon="10.748384733884503"><ele>209.66666666666666</ele><time>2026-03-28T13:42:39Z</time></trkpt><trkpt lat="45.57356015308304" lon="10.748286330704934"><ele>209.0</ele><time>2026-03-28T13:42:40Z</time></trkpt><trkpt lat="45.57348704041281" lon="10.74819949076727"><ele>208.33333333333331</ele><time>2026-03-28T13:42:41Z</time></trkpt><trkpt lat="45.5734230860565" lon="10.748125060980254"><ele>207.66666666666666</ele><time>2026-03-28T13:42:42Z</time></trkpt><trkpt lat="45.57337394425072" lon="10.748062251179787"><ele>207.0</ele><time>2026-03-28T13:42:43Z</time></trkpt><trkpt lat="45.57330515883178" lon="10.747953440591106"><ele>207.0</ele><time>2026-03-28T13:42:45Z</time></trkpt><trkpt lat="45.57319233620817" lon="10.748016341350857"><ele>207.0</ele><time>2026-03-28T13:42:47Z</time></trkpt><trkpt lat="45.57311477125547" lon="10.748091313258657"><ele>207.0</ele><time>2026-03-28T13:42:48Z</time></trkpt><trkpt lat="45.57303020028058" lon="10.748161712627999"><ele>207.0</ele><time>2026-03-28T13:42:49Z</time></trkpt><trkpt lat="45.57294915156165" lon="10.748237228074764"><ele>207.0</ele><time>2026-03-28T13:42:50Z</time></trkpt><trkpt lat="45.572859019201" lon="10.748313566271024"><ele>207.2</ele><time>2026-03-28T13:42:51Z</time></trkpt><trkpt lat="45.57276282177346" lon="10.748398069488054"><ele>207.39999999999998</ele><time>2026-03-28T13:42:52Z</time></trkpt><trkpt lat="45.57266991013657" lon="10.748481755386864"><ele>207.60000000000002</ele><time>2026-03-28T13:42:53Z</time></trkpt><trkpt lat="45.572578159769364" lon="10.748565538395306"><ele>207.8</ele><time>2026-03-28T13:42:54Z</time></trkpt><trkpt lat="45.57248821871153" lon="10.748647553098007"><ele>208.0</ele><time>2026-03-28T13:42:55Z</time></trkpt><trkpt lat="45.57241040783061" lon="10.748720892381648"><ele>207.99999999999997</ele><time>2026-03-28T13:42:56Z</time></trkpt><trkpt lat="45.57233725429759" lon="10.748787142986629"><ele>208.0</ele><time>2026-03-28T13:42:57Z</time></trkpt><trkpt lat="45.57226387515683" lon="10.748837468105151"><ele>208.0</ele><time>2026-03-28T13:42:58Z</time></trkpt><trkpt lat="45.57218738214692" lon="10.748863661609315"><ele>208.0</ele><time>2026-03-28T13:42:59Z</time></trkpt><trkpt lat="45.57211086603396" lon="10.748846598508132"><ele>207.99999999999997</ele><time>2026-03-28T13:43:00Z</time></trkpt><trkpt lat="45.57203642698131" lon="10.748822668005458"><ele>208.0</ele><time>2026-03-28T13:43:01Z</time></trkpt><trkpt lat="45.57195254226483" lon="10.748789898204103"><ele>208.2</ele><time>2026-03-28T13:43:02Z</time></trkpt><trkpt lat="45.57185827955348" lon="10.74873932505384"><ele>208.4</ele><time>2026-03-28T13:43:03Z</time></trkpt><trkpt lat="45.571758582855104" lon="10.748690040800811"><ele>208.6</ele><time>2026-03-28T13:43:04Z</time></trkpt><trkpt lat="45.57166131521122" lon="10.748639085942507"><ele>208.79999999999998</ele><time>2026-03-28T13:43:05Z</time></trkpt><trkpt lat="45.57157314503411" lon="10.74857530924641"><ele>209.0</ele><time>2026-03-28T13:43:06Z</time></trkpt><trkpt lat="45.57147826751662" lon="10.7484972124653"><ele>209.0</ele><time>2026-03-28T13:43:07Z</time></trkpt><trkpt lat="45.571390701536224" lon="10.748427007000025"><ele>209.0</ele><time>2026-03-28T13:43:08Z</time></trkpt><trkpt lat="45.57129894856575" lon="10.748354424194877"><ele>209.0</ele><time>2026-03-28T13:43:09Z</time></trkpt><trkpt lat="45.57121110395718" lon="10.748284932872394"><ele>209.0</ele><time>2026-03-28T13:43:10Z</time></trkpt><trkpt lat="45.57112674252242" lon="10.748215848441326"><ele>209.0</ele><time>2026-03-28T13:43:11Z</time></trkpt><trkpt lat="45.571040438848456" lon="10.748137719481477"><ele>208.6</ele><time>2026-03-28T13:43:12Z</time></trkpt><trkpt lat="45.57095924927927" lon="10.748066332259361"><ele>208.2</ele><time>2026-03-28T13:43:13Z</time></trkpt><trkpt lat="45.5708799450781" lon="10.748003432094924"><ele>207.79999999999998</ele><time>2026-03-28T13:43:14Z</time></trkpt><trkpt lat="45.57079894587107" lon="10.747961762989014"><ele>207.39999999999998</ele><time>2026-03-28T13:43:15Z</time></trkpt><trkpt lat="45.57070857123564" lon="10.747963010963533"><ele>207.0</ele><time>2026-03-28T13:43:16Z</time></trkpt><trkpt lat="45.57062862879177" lon="10.748027012263353"><ele>207.0</ele><time>2026-03-28T13:43:17Z</time></trkpt><trkpt lat="45.57054320171064" lon="10.748087513205796"><ele>207.0</ele><time>2026-03-28T13:43:18Z</time></trkpt><trkpt lat="45.57048058781004" lon="10.748206891229811"><ele>207.0</ele><time>2026-03-28T13:43:19Z</time></trkpt><trkpt lat="45.57039883356868" lon="10.748324614026139"><ele>207.0</ele><time>2026-03-28T13:43:20Z</time></trkpt><trkpt lat="45.57031788887106" lon="10.748461320082935"><ele>207.0</ele><time>2026-03-28T13:43:21Z</time></trkpt><trkpt lat="45.57024881083482" lon="10.74859148297608"><ele>211.25</ele><time>2026-03-28T13:43:22Z</time></trkpt><trkpt lat="45.57018730757381" lon="10.74873857441697"><ele>215.5</ele><time>2026-03-28T13:43:23Z</time></trkpt><trkpt lat="45.57012867054168" lon="10.748894268088193"><ele>219.75</ele><time>2026-03-28T13:43:24Z</time></trkpt><trkpt lat="45.57009854771385" lon="10.749073327515774"><ele>224.0</ele><time>2026-03-28T13:43:25Z</time></trkpt><trkpt lat="45.570080787376945" lon="10.749261950296184"><ele>224.6</ele><time>2026-03-28T13:43:26Z</time></trkpt><trkpt lat="45.57009362758707" lon="10.749442792096135"><ele>225.2</ele><time>2026-03-28T13:43:27Z</time></trkpt><trkpt lat="45.57007366184016" lon="10.7496009152558"><ele>225.79999999999998</ele><time>2026-03-28T13:43:28Z</time></trkpt><trkpt lat="45.57003340841949" lon="10.749715318608052"><ele>226.39999999999998</ele><time>2026-03-28T13:43:29Z</time></trkpt><trkpt lat="45.56999769289039" lon="10.749828464538783"><ele>227.0</ele><time>2026-03-28T13:43:30Z</time></trkpt><trkpt lat="45.56996411603408" lon="10.749908033744045"><ele>227.00000000000003</ele><time>2026-03-28T13:43:31Z</time></trkpt><trkpt lat="45.56992761260733" lon="10.749984822849292"><ele>227.0</ele><time>2026-03-28T13:43:32Z</time></trkpt><trkpt lat="45.56989434221382" lon="10.75007600570937"><ele>227.0</ele><time>2026-03-28T13:43:33Z</time></trkpt><trkpt lat="45.569855213402086" lon="10.750159899848057"><ele>227.0</ele><time>2026-03-28T13:43:34Z</time></trkpt><trkpt lat="45.56979257767196" lon="10.750273315260223"><ele>227.00000000000003</ele><time>2026-03-28T13:43:36Z</time></trkpt><trkpt lat="45.56972266100961" lon="10.750324024029464"><ele>227.0</ele><time>2026-03-28T13:43:39Z</time></trkpt><trkpt lat="45.56965553958991" lon="10.750091854031378"><ele>227.0</ele><time>2026-03-28T13:43:41Z</time></trkpt><trkpt lat="45.56961820380637" lon="10.749960526083488"><ele>227.0</ele><time>2026-03-28T13:43:42Z</time></trkpt><trkpt lat="45.569571522857416" lon="10.74978997349631"><ele>227.0</ele><time>2026-03-28T13:43:43Z</time></trkpt><trkpt lat="45.56952371889321" lon="10.749600290098973"><ele>227.0</ele><time>2026-03-28T13:43:44Z</time></trkpt><trkpt lat="45.56948822386335" lon="10.749419368638538"><ele>226.75</ele><time>2026-03-28T13:43:45Z</time></trkpt><trkpt lat="45.56946393500529" lon="10.7492391497047"><ele>226.5</ele><time>2026-03-28T13:43:46Z</time></trkpt><trkpt lat="45.569439383790225" lon="10.7490621582528"><ele>226.25</ele><time>2026-03-28T13:43:47Z</time></trkpt><trkpt lat="45.569419353768666" lon="10.748890765252936"><ele>226.0</ele><time>2026-03-28T13:43:48Z</time></trkpt><trkpt lat="45.569402071787614" lon="10.74872842011989"><ele>226.0</ele><time>2026-03-28T13:43:49Z</time></trkpt><trkpt lat="45.5693920209673" lon="10.74858521888692"><ele>226.00000000000003</ele><time>2026-03-28T13:43:50Z</time></trkpt><trkpt lat="45.56938969663421" lon="10.748480697385544"><ele>226.00000000000003</ele><time>2026-03-28T13:43:51Z</time></trkpt><trkpt lat="45.56937646202204" lon="10.74830594998232"><ele>226.0</ele><time>2026-03-28T13:43:53Z</time></trkpt><trkpt lat="45.569266740871" lon="10.748160749549989"><ele>226.0</ele><time>2026-03-28T13:43:55Z</time></trkpt><trkpt lat="45.56919306982788" lon="10.748085980757061"><ele>226.0</ele><time>2026-03-28T13:43:56Z</time></trkpt><trkpt lat="45.569111201484674" lon="10.747992273012168"><ele>226.00000000000003</ele><time>2026-03-28T13:43:57Z</time></trkpt><trkpt lat="45.56901707598837" lon="10.74788434843405"><ele>226.00000000000003</ele><time>2026-03-28T13:43:58Z</time></trkpt><trkpt lat="45.56894845395127" lon="10.747765039227295"><ele>226.0</ele><time>2026-03-28T13:43:59Z</time></trkpt><trkpt lat="45.56887048971594" lon="10.747697418502533"><ele>226.0</ele><time>2026-03-28T13:44:00Z</time></trkpt><trkpt lat="45.56881103098121" lon="10.747621620136858"><ele>226.0</ele><time>2026-03-28T13:44:01Z</time></trkpt><trkpt lat="45.56876372742947" lon="10.747537495169151"><ele>226.00000000000003</ele><time>2026-03-28T13:44:02Z</time></trkpt><trkpt lat="45.568701993165114" lon="10.747458793348985"><ele>226.00000000000003</ele><time>2026-03-28T13:44:03Z</time></trkpt><trkpt lat="45.56858891210341" lon="10.747452092429109"><ele>226.0</ele><time>2026-03-28T13:44:04Z</time></trkpt><trkpt lat="45.56849225349765" lon="10.747389727058808"><ele>226.0</ele><time>2026-03-28T13:44:05Z</time></trkpt><trkpt lat="45.56839745984291" lon="10.747367174457086"><ele>226.83333333333331</ele><time>2026-03-28T13:44:06Z</time></trkpt><trkpt lat="45.56832086782835" lon="10.747306073994134"><ele>227.66666666666666</ele><time>2026-03-28T13:44:07Z</time></trkpt><trkpt lat="45.568241634778424" lon="10.747278701573245"><ele>228.5</ele><time>2026-03-28T13:44:08Z</time></trkpt><trkpt lat="45.568175374785895" lon="10.747266828996496"><ele>229.33333333333331</ele><time>2026-03-28T13:44:09Z</time></trkpt><trkpt lat="45.56810899150827" lon="10.747266476803448"><ele>230.16666666666666</ele><time>2026-03-28T13:44:10Z</time></trkpt><trkpt lat="45.56799188338064" lon="10.747297757487964"><ele>231.0</ele><time>2026-03-28T13:44:12Z</time></trkpt><trkpt lat="45.56786659596534" lon="10.747304709372075"><ele>231.83333333333334</ele><time>2026-03-28T13:44:14Z</time></trkpt><trkpt lat="45.5678032060137" lon="10.747316990078017"><ele>232.66666666666669</ele><time>2026-03-28T13:44:15Z</time></trkpt><trkpt lat="45.5677303919065" lon="10.747302637422669"><ele>233.5</ele><time>2026-03-28T13:44:16Z</time></trkpt><trkpt lat="45.567650820940806" lon="10.74730590081096"><ele>234.33333333333334</ele><time>2026-03-28T13:44:17Z</time></trkpt><trkpt lat="45.567573282999994" lon="10.74730897614497"><ele>235.16666666666669</ele><time>2026-03-28T13:44:18Z</time></trkpt><trkpt lat="45.56749759423919" lon="10.747314330187871"><ele>236.0</ele><time>2026-03-28T13:44:19Z</time></trkpt><trkpt lat="45.56741814723597" lon="10.747332751486697"><ele>236.0</ele><time>2026-03-28T13:44:20Z</time></trkpt><trkpt lat="45.567349823494595" lon="10.747374411432537"><ele>236.0</ele><time>2026-03-28T13:44:21Z</time></trkpt><trkpt lat="45.56727571774503" lon="10.747391726401567"><ele>236.0</ele><time>2026-03-28T13:44:22Z</time></trkpt><trkpt lat="45.567203596031625" lon="10.747374670027607"><ele>236.0</ele><time>2026-03-28T13:44:23Z</time></trkpt><trkpt lat="45.5671364677844" lon="10.74737342433963"><ele>236.0</ele><time>2026-03-28T13:44:24Z</time></trkpt><trkpt lat="45.56706729846087" lon="10.747365828532372"><ele>236.0</ele><time>2026-03-28T13:44:25Z</time></trkpt><trkpt lat="45.567000207509864" lon="10.747355867539449"><ele>236.0</ele><time>2026-03-28T13:44:26Z</time></trkpt><trkpt lat="45.56692763537145" lon="10.747362248201163"><ele>238.4</ele><time>2026-03-28T13:44:27Z</time></trkpt><trkpt lat="45.566830589695336" lon="10.747365490294982"><ele>240.8</ele><time>2026-03-28T13:44:29Z</time></trkpt><trkpt lat="45.56673122978513" lon="10.74741017337422"><ele>243.20000000000002</ele><time>2026-03-28T13:44:31Z</time></trkpt><trkpt lat="45.56662883683853" lon="10.747460420246185"><ele>245.60000000000002</ele><time>2026-03-28T13:44:33Z</time></trkpt><trkpt lat="45.566569268210095" lon="10.747508088400219"><ele>248.0</ele><time>2026-03-28T13:44:34Z</time></trkpt><trkpt lat="45.56645916022303" lon="10.747606068658628"><ele>249.00000000000003</ele><time>2026-03-28T13:44:36Z</time></trkpt><trkpt lat="45.56638034497306" lon="10.747729066969343"><ele>250.0</ele><time>2026-03-28T13:44:38Z</time></trkpt><trkpt lat="45.566329789070615" lon="10.747866681343112"><ele>251.0</ele><time>2026-03-28T13:44:40Z</time></trkpt><trkpt lat="45.56633290323295" lon="10.747962866764784"><ele>252.0</ele><time>2026-03-28T13:44:41Z</time></trkpt><trkpt lat="45.566331672407934" lon="10.748061956004149"><ele>253.00000000000003</ele><time>2026-03-28T13:44:42Z</time></trkpt><trkpt lat="45.56635158289817" lon="10.748168925910733"><ele>254.0</ele><time>2026-03-28T13:44:43Z</time></trkpt><trkpt lat="45.5663790660007" lon="10.748270489235885"><ele>254.0</ele><time>2026-03-28T13:44:44Z</time></trkpt><trkpt lat="45.56640619460994" lon="10.748369389375966"><ele>254.0</ele><time>2026-03-28T13:44:45Z</time></trkpt><trkpt lat="45.566435866390435" lon="10.74846503166791"><ele>254.0</ele><time>2026-03-28T13:44:46Z</time></trkpt><trkpt lat="45.56647130944837" lon="10.748564184214494"><ele>254.0</ele><time>2026-03-28T13:44:47Z</time></trkpt><trkpt lat="45.566509617979" lon="10.748646971155964"><ele>254.0</ele><time>2026-03-28T13:44:48Z</time></trkpt><trkpt lat="45.5665549065893" lon="10.74871401335861"><ele>254.0</ele><time>2026-03-28T13:44:49Z</time></trkpt><trkpt lat="45.5665885165675" lon="10.748799536409324"><ele>254.0</ele><time>2026-03-28T13:44:50Z</time></trkpt><trkpt lat="45.5666373324704" lon="10.748873974172088"><ele>256.1666666666667</ele><time>2026-03-28T13:44:51Z</time></trkpt><trkpt lat="45.566672967801864" lon="10.748961012929938"><ele>258.33333333333337</ele><time>2026-03-28T13:44:52Z</time></trkpt><trkpt lat="45.566699861213785" lon="10.74906410293151"><ele>260.5</ele><time>2026-03-28T13:44:53Z</time></trkpt><trkpt lat="45.566713075444895" lon="10.74916413074216"><ele>262.6666666666667</ele><time>2026-03-28T13:44:54Z</time></trkpt><trkpt lat="45.566697116387424" lon="10.749325027042662"><ele>264.8333333333333</ele><time>2026-03-28T13:44:56Z</time></trkpt><trkpt lat="45.56665449378505" lon="10.749405386320099"><ele>267.0</ele><time>2026-03-28T13:44:57Z</time></trkpt><trkpt lat="45.566602198786626" lon="10.749490359875518"><ele>268.0</ele><time>2026-03-28T13:44:58Z</time></trkpt><trkpt lat="45.566541225918854" lon="10.749574413933466"><ele>269.0</ele><time>2026-03-28T13:44:59Z</time></trkpt><trkpt lat="45.56647190640012" lon="10.749656050785473"><ele>270.0</ele><time>2026-03-28T13:45:00Z</time></trkpt><trkpt lat="45.56638938111539" lon="10.749721419057959"><ele>271.0</ele><time>2026-03-28T13:45:01Z</time></trkpt><trkpt lat="45.566310302659076" lon="10.749791839641532"><ele>272.0</ele><time>2026-03-28T13:45:02Z</time></trkpt><trkpt lat="45.5662327523289" lon="10.749863778285953"><ele>272.1666666666667</ele><time>2026-03-28T13:45:03Z</time></trkpt><trkpt lat="45.56616325856256" lon="10.749943062246247"><ele>272.33333333333337</ele><time>2026-03-28T13:45:04Z</time></trkpt><trkpt lat="45.56608861354766" lon="10.750020479028906"><ele>272.5</ele><time>2026-03-28T13:45:05Z</time></trkpt><trkpt lat="45.5660167369291" lon="10.750091554405891"><ele>272.6666666666667</ele><time>2026-03-28T13:45:06Z</time></trkpt><trkpt lat="45.56594673634776" lon="10.750164432290811"><ele>272.8333333333333</ele><time>2026-03-28T13:45:07Z</time></trkpt><trkpt lat="45.5658745747877" lon="10.750239646622232"><ele>273.0</ele><time>2026-03-28T13:45:08Z</time></trkpt><trkpt lat="45.56580586689534" lon="10.750306773636867"><ele>273.0</ele><time>2026-03-28T13:45:09Z</time></trkpt><trkpt lat="45.56573948895971" lon="10.750372790336012"><ele>273.0</ele><time>2026-03-28T13:45:10Z</time></trkpt><trkpt lat="45.56567912910626" lon="10.750432533440284"><ele>273.0</ele><time>2026-03-28T13:45:11Z</time></trkpt><trkpt lat="45.56561371477512" lon="10.750503619038708"><ele>273.0</ele><time>2026-03-28T13:45:12Z</time></trkpt><trkpt lat="45.56554511921153" lon="10.750566904627297"><ele>273.0</ele><time>2026-03-28T13:45:13Z</time></trkpt><trkpt lat="45.56547885399471" lon="10.75062157382304"><ele>273.0</ele><time>2026-03-28T13:45:14Z</time></trkpt><trkpt lat="45.56539403910539" lon="10.750680519386504"><ele>273.4</ele><time>2026-03-28T13:45:15Z</time></trkpt><trkpt lat="45.56530057321548" lon="10.750734604989207"><ele>273.8</ele><time>2026-03-28T13:45:16Z</time></trkpt><trkpt lat="45.56519256626019" lon="10.750788676119884"><ele>274.2</ele><time>2026-03-28T13:45:17Z</time></trkpt><trkpt lat="45.56508120962033" lon="10.750842093664678"><ele>274.6</ele><time>2026-03-28T13:45:18Z</time></trkpt><trkpt lat="45.56497741246795" lon="10.75090615497106"><ele>275.0</ele><time>2026-03-28T13:45:19Z</time></trkpt><trkpt lat="45.56488827845197" lon="10.750998183161247"><ele>275.25</ele><time>2026-03-28T13:45:20Z</time></trkpt><trkpt lat="45.564821922762604" lon="10.751125591877415"><ele>275.5</ele><time>2026-03-28T13:45:21Z</time></trkpt><trkpt lat="45.56476470422067" lon="10.751275843502013"><ele>275.75</ele><time>2026-03-28T13:45:22Z</time></trkpt><trkpt lat="45.56468245190719" lon="10.751410128896277"><ele>276.0</ele><time>2026-03-28T13:45:23Z</time></trkpt><trkpt lat="45.564582152180456" lon="10.75151525486976"><ele>274.25</ele><time>2026-03-28T13:45:24Z</time></trkpt><trkpt lat="45.564479037009555" lon="10.751600024780645"><ele>272.5</ele><time>2026-03-28T13:45:25Z</time></trkpt><trkpt lat="45.56437507663653" lon="10.751672614591945"><ele>270.75</ele><time>2026-03-28T13:45:26Z</time></trkpt><trkpt lat="45.56427289421136" lon="10.751738748658072"><ele>269.0</ele><time>2026-03-28T13:45:27Z</time></trkpt><trkpt lat="45.564172216009844" lon="10.751797466098804"><ele>269.0</ele><time>2026-03-28T13:45:28Z</time></trkpt><trkpt lat="45.5640750308495" lon="10.751858171090033"><ele>269.0</ele><time>2026-03-28T13:45:29Z</time></trkpt><trkpt lat="45.56397927685462" lon="10.751929144475918"><ele>269.0</ele><time>2026-03-28T13:45:30Z</time></trkpt><trkpt lat="45.56390067424246" lon="10.752027476174497"><ele>269.0</ele><time>2026-03-28T13:45:31Z</time></trkpt><trkpt lat="45.563846168267744" lon="10.752156891488637"><ele>269.0</ele><time>2026-03-28T13:45:32Z</time></trkpt><trkpt lat="45.56382755878257" lon="10.752298101601681"><ele>267.4</ele><time>2026-03-28T13:45:33Z</time></trkpt><trkpt lat="45.56383444943808" lon="10.752435685242501"><ele>265.79999999999995</ele><time>2026-03-28T13:45:34Z</time></trkpt><trkpt lat="45.56386640595729" lon="10.752568098027833"><ele>264.20000000000005</ele><time>2026-03-28T13:45:35Z</time></trkpt><trkpt lat="45.56389281832437" lon="10.752699025179876"><ele>262.6</ele><time>2026-03-28T13:45:36Z</time></trkpt><trkpt lat="45.563915347826345" lon="10.752816769141894"><ele>261.0</ele><time>2026-03-28T13:45:37Z</time></trkpt><trkpt lat="45.56392135585841" lon="10.752940089680575"><ele>260.1666666666667</ele><time>2026-03-28T13:45:38Z</time></trkpt><trkpt lat="45.56393480113638" lon="10.753044716319518"><ele>259.3333333333333</ele><time>2026-03-28T13:45:39Z</time></trkpt><trkpt lat="45.563945791023556" lon="10.753159315908965"><ele>258.5</ele><time>2026-03-28T13:45:41Z</time></trkpt><trkpt lat="45.56384987971224" lon="10.753139930374804"><ele>257.66666666666663</ele><time>2026-03-28T13:45:43Z</time></trkpt><trkpt lat="45.56384393626125" lon="10.753001888405487"><ele>256.8333333333333</ele><time>2026-03-28T13:45:44Z</time></trkpt><trkpt lat="45.56382994841727" lon="10.752889108231399"><ele>256.0</ele><time>2026-03-28T13:45:45Z</time></trkpt><trkpt lat="45.563814295511705" lon="10.752787058228378"><ele>256.40000000000003</ele><time>2026-03-28T13:45:46Z</time></trkpt><trkpt lat="45.56379590493714" lon="10.752699576211938"><ele>256.8</ele><time>2026-03-28T13:45:47Z</time></trkpt><trkpt lat="45.56372703834985" lon="10.752580758889716"><ele>257.20000000000005</ele><time>2026-03-28T13:45:49Z</time></trkpt><trkpt lat="45.56362884795351" lon="10.752582498374068"><ele>257.6</ele><time>2026-03-28T13:45:51Z</time></trkpt><trkpt lat="45.56360729640024" lon="10.752762301119354"><ele>258.0</ele><time>2026-03-28T13:45:53Z</time></trkpt><trkpt lat="45.56363694420915" lon="10.75285160899205"><ele>256.85714285714283</ele><time>2026-03-28T13:45:54Z</time></trkpt><trkpt lat="45.563628727343605" lon="10.752957757497963"><ele>255.71428571428572</ele><time>2026-03-28T13:45:55Z</time></trkpt><trkpt lat="45.56362465471887" lon="10.753055284353522"><ele>254.57142857142856</ele><time>2026-03-28T13:45:56Z</time></trkpt><trkpt lat="45.56357966265224" lon="10.753128788137099"><ele>253.42857142857142</ele><time>2026-03-28T13:45:57Z</time></trkpt><trkpt lat="45.563527146666466" lon="10.75318231365652"><ele>252.28571428571428</ele><time>2026-03-28T13:45:58Z</time></trkpt><trkpt lat="45.56346888627768" lon="10.753239578189852"><ele>251.14285714285714</ele><time>2026-03-28T13:45:59Z</time></trkpt><trkpt lat="45.563412129740286" lon="10.753335179979771"><ele>250.0</ele><time>2026-03-28T13:46:00Z</time></trkpt><trkpt lat="45.56334136766796" lon="10.753436214024914"><ele>250.0</ele><time>2026-03-28T13:46:01Z</time></trkpt><trkpt lat="45.56327751023956" lon="10.753524835834165"><ele>250.0</ele><time>2026-03-28T13:46:02Z</time></trkpt><trkpt lat="45.56319836663896" lon="10.753604369260422"><ele>250.0</ele><time>2026-03-28T13:46:03Z</time></trkpt><trkpt lat="45.56310461179414" lon="10.753668083527499"><ele>250.0</ele><time>2026-03-28T13:46:04Z</time></trkpt><trkpt lat="45.56300614910913" lon="10.753706743350548"><ele>250.0</ele><time>2026-03-28T13:46:05Z</time></trkpt><trkpt lat="45.562922892770814" lon="10.753728069984566"><ele>247.16666666666666</ele><time>2026-03-28T13:46:06Z</time></trkpt><trkpt lat="45.56284616328983" lon="10.75374812997148"><ele>244.33333333333331</ele><time>2026-03-28T13:46:07Z</time></trkpt><trkpt lat="45.56277361435323" lon="10.753734225422399"><ele>241.5</ele><time>2026-03-28T13:46:08Z</time></trkpt><trkpt lat="45.5627033354728" lon="10.753709978284089"><ele>238.66666666666669</ele><time>2026-03-28T13:46:09Z</time></trkpt><trkpt lat="45.562624561444636" lon="10.75368407069398"><ele>235.83333333333334</ele><time>2026-03-28T13:46:10Z</time></trkpt><trkpt lat="45.56253871674435" lon="10.753651643335672"><ele>233.0</ele><time>2026-03-28T13:46:11Z</time></trkpt><trkpt lat="45.56245991550284" lon="10.753628048081149"><ele>233.00000000000003</ele><time>2026-03-28T13:46:12Z</time></trkpt><trkpt lat="45.5623826832153" lon="10.753613162845376"><ele>233.0</ele><time>2026-03-28T13:46:13Z</time></trkpt><trkpt lat="45.562298164516115" lon="10.75360612958887"><ele>233.0</ele><time>2026-03-28T13:46:14Z</time></trkpt><trkpt lat="45.562215305950616" lon="10.75360650486325"><ele>233.0</ele><time>2026-03-28T13:46:15Z</time></trkpt><trkpt lat="45.56212480335992" lon="10.753624350704929"><ele>233.00000000000003</ele><time>2026-03-28T13:46:16Z</time></trkpt><trkpt lat="45.56203310115824" lon="10.753610259729548"><ele>233.0</ele><time>2026-03-28T13:46:17Z</time></trkpt><trkpt lat="45.561953694736864" lon="10.753634698382202"><ele>232.33333333333334</ele><time>2026-03-28T13:46:18Z</time></trkpt><trkpt lat="45.56187025212352" lon="10.753635393531171"><ele>231.66666666666669</ele><time>2026-03-28T13:46:19Z</time></trkpt><trkpt lat="45.561791981415844" lon="10.753631882139592"><ele>231.0</ele><time>2026-03-28T13:46:20Z</time></trkpt><trkpt lat="45.561717426966624" lon="10.753624067937743"><ele>230.33333333333331</ele><time>2026-03-28T13:46:21Z</time></trkpt><trkpt lat="45.56163926197291" lon="10.753607043251433"><ele>229.66666666666666</ele><time>2026-03-28T13:46:22Z</time></trkpt><trkpt lat="45.561570466507945" lon="10.753568726965128"><ele>229.0</ele><time>2026-03-28T13:46:23Z</time></trkpt><trkpt lat="45.561502547055134" lon="10.753500214449206"><ele>230.16666666666666</ele><time>2026-03-28T13:46:24Z</time></trkpt><trkpt lat="45.56143885636041" lon="10.75343840562109"><ele>231.33333333333331</ele><time>2026-03-28T13:46:25Z</time></trkpt><trkpt lat="45.56136996636869" lon="10.753367967645277"><ele>232.5</ele><time>2026-03-28T13:46:26Z</time></trkpt><trkpt lat="45.561307403897615" lon="10.753328180874815"><ele>233.66666666666669</ele><time>2026-03-28T13:46:27Z</time></trkpt><trkpt lat="45.56124903244714" lon="10.753283146044698"><ele>234.83333333333334</ele><time>2026-03-28T13:46:28Z</time></trkpt><trkpt lat="45.56113855393783" lon="10.753235394242527"><ele>236.0</ele><time>2026-03-28T13:46:30Z</time></trkpt><trkpt lat="45.56102217117392" lon="10.753189961871291"><ele>236.00000000000003</ele><time>2026-03-28T13:46:32Z</time></trkpt><trkpt lat="45.56095915555461" lon="10.753153306167855"><ele>236.0</ele><time>2026-03-28T13:46:33Z</time></trkpt><trkpt lat="45.56089564634046" lon="10.753122556626566"><ele>236.0</ele><time>2026-03-28T13:46:34Z</time></trkpt><trkpt lat="45.56081478391229" lon="10.753089751601623"><ele>236.0</ele><time>2026-03-28T13:46:35Z</time></trkpt><trkpt lat="45.56074653350689" lon="10.753079283345224"><ele>236.00000000000003</ele><time>2026-03-28T13:46:36Z</time></trkpt><trkpt lat="45.56066236088285" lon="10.753086196797781"><ele>236.0</ele><time>2026-03-28T13:46:37Z</time></trkpt><trkpt lat="45.56058111627055" lon="10.753064335180778"><ele>236.00000000000003</ele><time>2026-03-28T13:46:38Z</time></trkpt><trkpt lat="45.56050357775978" lon="10.753063646968581"><ele>236.0</ele><time>2026-03-28T13:46:39Z</time></trkpt><trkpt lat="45.560428100837385" lon="10.753061282467932"><ele>236.0</ele><time>2026-03-28T13:46:40Z</time></trkpt><trkpt lat="45.56034511094431" lon="10.753075048280117"><ele>236.0</ele><time>2026-03-28T13:46:41Z</time></trkpt><trkpt lat="45.560244381590685" lon="10.753053812063493"><ele>236.00000000000003</ele><time>2026-03-28T13:46:42Z</time></trkpt><trkpt lat="45.560156059847735" lon="10.753023707580807"><ele>236.0</ele><time>2026-03-28T13:46:43Z</time></trkpt><trkpt lat="45.560061786579276" lon="10.75298067877038"><ele>235.0</ele><time>2026-03-28T13:46:44Z</time></trkpt><trkpt lat="45.55996807048275" lon="10.752933407331081"><ele>234.00000000000003</ele><time>2026-03-28T13:46:45Z</time></trkpt><trkpt lat="45.55986758985218" lon="10.752880771350823"><ele>233.00000000000003</ele><time>2026-03-28T13:46:46Z</time></trkpt><trkpt lat="45.55978047686347" lon="10.752815604966209"><ele>232.0</ele><time>2026-03-28T13:46:47Z</time></trkpt><trkpt lat="45.55970248227738" lon="10.752754673373245"><ele>231.0</ele><time>2026-03-28T13:46:48Z</time></trkpt><trkpt lat="45.559637402044444" lon="10.75269773191671"><ele>231.8</ele><time>2026-03-28T13:46:49Z</time></trkpt><trkpt lat="45.559549057901926" lon="10.752635377619612"><ele>232.60000000000002</ele><time>2026-03-28T13:46:50Z</time></trkpt><trkpt lat="45.55946160279318" lon="10.7525739579371"><ele>233.4</ele><time>2026-03-28T13:46:51Z</time></trkpt><trkpt lat="45.55937589323984" lon="10.752503076615763"><ele>234.2</ele><time>2026-03-28T13:46:52Z</time></trkpt><trkpt lat="45.55930774230035" lon="10.752396534169804"><ele>235.0</ele><time>2026-03-28T13:46:53Z</time></trkpt><trkpt lat="45.55923151337382" lon="10.752315448295816"><ele>235.0</ele><time>2026-03-28T13:46:54Z</time></trkpt><trkpt lat="45.559137433600675" lon="10.75224953324937"><ele>235.0</ele><time>2026-03-28T13:46:55Z</time></trkpt><trkpt lat="45.55904401133347" lon="10.752164861296569"><ele>235.0</ele><time>2026-03-28T13:46:56Z</time></trkpt><trkpt lat="45.55895566380258" lon="10.75206692623105"><ele>235.0</ele><time>2026-03-28T13:46:57Z</time></trkpt><trkpt lat="45.55885712781812" lon="10.75200786168925"><ele>235.0</ele><time>2026-03-28T13:46:58Z</time></trkpt><trkpt lat="45.55877630633836" lon="10.75191743179053"><ele>235.6</ele><time>2026-03-28T13:46:59Z</time></trkpt><trkpt lat="45.55868792481922" lon="10.751838205256966"><ele>236.2</ele><time>2026-03-28T13:47:00Z</time></trkpt><trkpt lat="45.55860230426071" lon="10.751753910493925"><ele>236.8</ele><time>2026-03-28T13:47:01Z</time></trkpt><trkpt lat="45.558523486134725" lon="10.751671121324833"><ele>237.4</ele><time>2026-03-28T13:47:02Z</time></trkpt><trkpt lat="45.558448673811114" lon="10.751597339694843"><ele>238.0</ele><time>2026-03-28T13:47:03Z</time></trkpt><trkpt lat="45.558364145424804" lon="10.751525685364165"><ele>238.0</ele><time>2026-03-28T13:47:04Z</time></trkpt><trkpt lat="45.558273640473615" lon="10.751463261337287"><ele>238.0</ele><time>2026-03-28T13:47:05Z</time></trkpt><trkpt lat="45.55817083742313" lon="10.751434536992196"><ele>238.0</ele><time>2026-03-28T13:47:06Z</time></trkpt><trkpt lat="45.55806788293617" lon="10.751388197052883"><ele>238.0</ele><time>2026-03-28T13:47:07Z</time></trkpt><trkpt lat="45.55796720035537" lon="10.751344665486037"><ele>238.0</ele><time>2026-03-28T13:47:08Z</time></trkpt><trkpt lat="45.55787670426594" lon="10.751310537694824"><ele>236.8</ele><time>2026-03-28T13:47:09Z</time></trkpt><trkpt lat="45.5577687637179" lon="10.751290775393821"><ele>235.60000000000002</ele><time>2026-03-28T13:47:10Z</time></trkpt><trkpt lat="45.557653350611915" lon="10.751268958832508"><ele>234.39999999999998</ele><time>2026-03-28T13:47:11Z</time></trkpt><trkpt lat="45.55754603783163" lon="10.751256622391644"><ele>233.2</ele><time>2026-03-28T13:47:12Z</time></trkpt><trkpt lat="45.557436224700936" lon="10.751262645638164"><ele>232.0</ele><time>2026-03-28T13:47:13Z</time></trkpt><trkpt lat="45.55732662881172" lon="10.751249688956396"><ele>232.0</ele><time>2026-03-28T13:47:14Z</time></trkpt><trkpt lat="45.557209710422796" lon="10.751267011523934"><ele>232.0</ele><time>2026-03-28T13:47:15Z</time></trkpt><trkpt lat="45.55710794521563" lon="10.751285181025056"><ele>232.0</ele><time>2026-03-28T13:47:16Z</time></trkpt><trkpt lat="45.55699872356467" lon="10.75130752867557"><ele>232.0</ele><time>2026-03-28T13:47:17Z</time></trkpt><trkpt lat="45.55688960187354" lon="10.75133003225487"><ele>232.0</ele><time>2026-03-28T13:47:18Z</time></trkpt><trkpt lat="45.5567792182784" lon="10.751351264444203"><ele>232.6</ele><time>2026-03-28T13:47:19Z</time></trkpt><trkpt lat="45.55667290707592" lon="10.751370262629308"><ele>233.2</ele><time>2026-03-28T13:47:20Z</time></trkpt><trkpt lat="45.556571808930386" lon="10.751388329239377"><ele>233.8</ele><time>2026-03-28T13:47:21Z</time></trkpt><trkpt lat="45.55647315652103" lon="10.751405958711706"><ele>234.4</ele><time>2026-03-28T13:47:22Z</time></trkpt><trkpt lat="45.55637921020996" lon="10.75142274722548"><ele>235.0</ele><time>2026-03-28T13:47:23Z</time></trkpt><trkpt lat="45.5562998124123" lon="10.751441040550658"><ele>235.4</ele><time>2026-03-28T13:47:24Z</time></trkpt><trkpt lat="45.55617730321077" lon="10.751501358539066"><ele>235.8</ele><time>2026-03-28T13:47:26Z</time></trkpt><trkpt lat="45.55607892213007" lon="10.751608490559356"><ele>236.2</ele><time>2026-03-28T13:47:28Z</time></trkpt><trkpt lat="45.55601130736536" lon="10.751633051970499"><ele>236.6</ele><time>2026-03-28T13:47:29Z</time></trkpt><trkpt lat="45.555942530750436" lon="10.75164914991437"><ele>237.0</ele><time>2026-03-28T13:47:30Z</time></trkpt><trkpt lat="45.555876366080284" lon="10.751664468958392"><ele>237.0</ele><time>2026-03-28T13:47:31Z</time></trkpt><trkpt lat="45.55580940878591" lon="10.75164675140278"><ele>237.0</ele><time>2026-03-28T13:47:32Z</time></trkpt><trkpt lat="45.55570659418841" lon="10.75162682430236"><ele>237.0</ele><time>2026-03-28T13:47:34Z</time></trkpt><trkpt lat="45.55564662611538" lon="10.751596230877746"><ele>237.0</ele><time>2026-03-28T13:47:36Z</time></trkpt><trkpt lat="45.555570914567866" lon="10.751578158780346"><ele>237.0</ele><time>2026-03-28T13:47:38Z</time></trkpt><trkpt lat="45.55551516394154" lon="10.751463064978168"><ele>237.0</ele><time>2026-03-28T13:47:40Z</time></trkpt><trkpt lat="45.55548500037479" lon="10.751380071380307"><ele>237.0</ele><time>2026-03-28T13:47:42Z</time></trkpt><trkpt lat="45.555480111221044" lon="10.751274329231046"><ele>237.0</ele><time>2026-03-28T13:47:45Z</time></trkpt><trkpt lat="45.55546535197181" lon="10.751130963108976"><ele>237.0</ele><time>2026-03-28T13:47:49Z</time></trkpt><trkpt lat="45.55541647858877" lon="10.751053713878985"><ele>237.0</ele><time>2026-03-28T13:47:50Z</time></trkpt><trkpt lat="45.55538362386522" lon="10.750920896792902"><ele>237.0</ele><time>2026-03-28T13:47:51Z</time></trkpt><trkpt lat="45.555348608786126" lon="10.750779344605105"><ele>236.8</ele><time>2026-03-28T13:47:52Z</time></trkpt><trkpt lat="45.555323689361316" lon="10.750628292027221"><ele>236.6</ele><time>2026-03-28T13:47:53Z</time></trkpt><trkpt lat="45.55530179389377" lon="10.750466773163716"><ele>236.40000000000003</ele><time>2026-03-28T13:47:54Z</time></trkpt><trkpt lat="45.555290937726525" lon="10.750340297387321"><ele>236.20000000000002</ele><time>2026-03-28T13:47:55Z</time></trkpt><trkpt lat="45.55528282784403" lon="10.750207377929948"><ele>236.0</ele><time>2026-03-28T13:47:56Z</time></trkpt><trkpt lat="45.5552824759579" lon="10.750095459406563"><ele>241.0</ele><time>2026-03-28T13:47:57Z</time></trkpt><trkpt lat="45.55594348965342" lon="10.749647297783103"><ele>241.0</ele><time>2026-03-28T13:47:58Z</time></trkpt><trkpt lat="45.5560028449716" lon="10.74949656978025"><ele>241.00000000000003</ele><time>2026-03-28T13:47:59Z</time></trkpt><trkpt lat="45.55606497850679" lon="10.749354304117109"><ele>241.00000000000003</ele><time>2026-03-28T13:48:00Z</time></trkpt><trkpt lat="45.55612001244248" lon="10.749219501704227"><ele>241.0</ele><time>2026-03-28T13:48:01Z</time></trkpt><trkpt lat="45.556162063609165" lon="10.749105766953654"><ele>241.0</ele><time>2026-03-28T13:48:02Z</time></trkpt><trkpt lat="45.556202114120055" lon="10.748997526739364"><ele>242.49999999999997</ele><time>2026-03-28T13:48:03Z</time></trkpt><trkpt lat="45.55623461887251" lon="10.74890191356638"><ele>244.0</ele><time>2026-03-28T13:48:04Z</time></trkpt><trkpt lat="45.55626679500678" lon="10.748809499457458"><ele>245.5</ele><time>2026-03-28T13:48:05Z</time></trkpt><trkpt lat="45.55629705934223" lon="10.748706443573154"><ele>247.0</ele><time>2026-03-28T13:48:06Z</time></trkpt><trkpt lat="45.55632700578403" lon="10.748601670182738"><ele>248.49999999999997</ele><time>2026-03-28T13:48:07Z</time></trkpt><trkpt lat="45.556358186581626" lon="10.748496181804395"><ele>250.0</ele><time>2026-03-28T13:48:08Z</time></trkpt><trkpt lat="45.556385295645235" lon="10.74840811629913"><ele>250.0</ele><time>2026-03-28T13:48:09Z</time></trkpt><trkpt lat="45.55641753352879" lon="10.748284061008906"><ele>250.0</ele><time>2026-03-28T13:48:11Z</time></trkpt><trkpt lat="45.55644390247658" lon="10.748179968619112"><ele>250.0</ele><time>2026-03-28T13:48:13Z</time></trkpt><trkpt lat="45.556488346909696" lon="10.748006121068624"><ele>250.0</ele><time>2026-03-28T13:48:15Z</time></trkpt><trkpt lat="45.55652117364578" lon="10.747879812752075"><ele>250.0</ele><time>2026-03-28T13:48:16Z</time></trkpt><trkpt lat="45.55655855634998" lon="10.747779067018795"><ele>248.83333333333331</ele><time>2026-03-28T13:48:17Z</time></trkpt><trkpt lat="45.556600634715004" lon="10.747675520943325"><ele>247.66666666666666</ele><time>2026-03-28T13:48:18Z</time></trkpt><trkpt lat="45.5566522783647" lon="10.74757976299373"><ele>246.5</ele><time>2026-03-28T13:48:19Z</time></trkpt><trkpt lat="45.55670429718706" lon="10.747498190385402"><ele>245.33333333333331</ele><time>2026-03-28T13:48:20Z</time></trkpt><trkpt lat="45.556755039611964" lon="10.74740743065793"><ele>244.16666666666666</ele><time>2026-03-28T13:48:21Z</time></trkpt><trkpt lat="45.55680553835981" lon="10.74730997820285"><ele>243.0</ele><time>2026-03-28T13:48:22Z</time></trkpt><trkpt lat="45.5568472793773" lon="10.747230370231707"><ele>243.0</ele><time>2026-03-28T13:48:23Z</time></trkpt><trkpt lat="45.556888269699954" lon="10.747149000606095"><ele>243.0</ele><time>2026-03-28T13:48:24Z</time></trkpt><trkpt lat="45.556980150835024" lon="10.74707247515045"><ele>243.0</ele><time>2026-03-28T13:48:26Z</time></trkpt><trkpt lat="45.557025290449666" lon="10.746989523050592"><ele>243.0</ele><time>2026-03-28T13:48:27Z</time></trkpt><trkpt lat="45.557142941339166" lon="10.746911695642295"><ele>243.0</ele><time>2026-03-28T13:48:29Z</time></trkpt><trkpt lat="45.5571962843313" lon="10.746850808168453"><ele>243.0</ele><time>2026-03-28T13:48:30Z</time></trkpt><trkpt lat="45.55724330677562" lon="10.746790447183038"><ele>244.14285714285714</ele><time>2026-03-28T13:48:31Z</time></trkpt><trkpt lat="45.55728920929048" lon="10.746718621087302"><ele>245.28571428571428</ele><time>2026-03-28T13:48:32Z</time></trkpt><trkpt lat="45.557332802823105" lon="10.74664265969499"><ele>246.42857142857142</ele><time>2026-03-28T13:48:33Z</time></trkpt><trkpt lat="45.55737366437481" lon="10.74656360222925"><ele>247.57142857142856</ele><time>2026-03-28T13:48:34Z</time></trkpt><trkpt lat="45.557414066145554" lon="10.746480773535954"><ele>248.71428571428572</ele><time>2026-03-28T13:48:35Z</time></trkpt><trkpt lat="45.557454606932666" lon="10.74639632758721"><ele>249.85714285714283</ele><time>2026-03-28T13:48:36Z</time></trkpt><trkpt lat="45.557491257477324" lon="10.746316538323443"><ele>250.99999999999997</ele><time>2026-03-28T13:48:37Z</time></trkpt><trkpt lat="45.557571630949155" lon="10.746183971385893"><ele>250.60000000000002</ele><time>2026-03-28T13:48:39Z</time></trkpt><trkpt lat="45.55764593155187" lon="10.746038133248923"><ele>250.20000000000002</ele><time>2026-03-28T13:48:41Z</time></trkpt><trkpt lat="45.55771035206582" lon="10.74591765732378"><ele>249.79999999999998</ele><time>2026-03-28T13:48:43Z</time></trkpt><trkpt lat="45.557789606527685" lon="10.745825194092333"><ele>249.39999999999998</ele><time>2026-03-28T13:48:45Z</time></trkpt><trkpt lat="45.557881849571956" lon="10.7457451300822"><ele>249.0</ele><time>2026-03-28T13:48:47Z</time></trkpt><trkpt lat="45.557938361443405" lon="10.745700754991045"><ele>250.16666666666666</ele><time>2026-03-28T13:48:48Z</time></trkpt><trkpt lat="45.55800490926145" lon="10.745644877232003"><ele>251.33333333333331</ele><time>2026-03-28T13:48:49Z</time></trkpt><trkpt lat="45.55807727334422" lon="10.745584536292661"><ele>252.5</ele><time>2026-03-28T13:48:50Z</time></trkpt><trkpt lat="45.55815222004941" lon="10.745564022788324"><ele>253.66666666666666</ele><time>2026-03-28T13:48:51Z</time></trkpt><trkpt lat="45.558227726412284" lon="10.745529878243286"><ele>254.83333333333331</ele><time>2026-03-28T13:48:52Z</time></trkpt><trkpt lat="45.55831211201207" lon="10.745502840469117"><ele>256.0</ele><time>2026-03-28T13:48:53Z</time></trkpt><trkpt lat="45.55840850927754" lon="10.745470463634344"><ele>256.0</ele><time>2026-03-28T13:48:54Z</time></trkpt><trkpt lat="45.55850533246863" lon="10.745439528617114"><ele>256.0</ele><time>2026-03-28T13:48:55Z</time></trkpt><trkpt lat="45.55860050262831" lon="10.745405293201035"><ele>256.0</ele><time>2026-03-28T13:48:56Z</time></trkpt><trkpt lat="45.55870179680931" lon="10.745404366950982"><ele>256.0</ele><time>2026-03-28T13:48:57Z</time></trkpt><trkpt lat="45.558804078373825" lon="10.745380843457818"><ele>256.0</ele><time>2026-03-28T13:48:58Z</time></trkpt><trkpt lat="45.55888997846852" lon="10.745352846273455"><ele>255.4</ele><time>2026-03-28T13:48:59Z</time></trkpt><trkpt lat="45.55898314352049" lon="10.74530751285021"><ele>254.8</ele><time>2026-03-28T13:49:00Z</time></trkpt><trkpt lat="45.55907978901855" lon="10.745230031319993"><ele>254.20000000000002</ele><time>2026-03-28T13:49:01Z</time></trkpt><trkpt lat="45.559197514487074" lon="10.745186881744214"><ele>253.60000000000002</ele><time>2026-03-28T13:49:02Z</time></trkpt><trkpt lat="45.55930566032477" lon="10.745122767287898"><ele>253.0</ele><time>2026-03-28T13:49:03Z</time></trkpt><trkpt lat="45.55940721602478" lon="10.745062559803264"><ele>253.0</ele><time>2026-03-28T13:49:04Z</time></trkpt><trkpt lat="45.55950318366836" lon="10.745003422986025"><ele>253.0</ele><time>2026-03-28T13:49:05Z</time></trkpt><trkpt lat="45.559592743279076" lon="10.74494485759083"><ele>253.0</ele><time>2026-03-28T13:49:06Z</time></trkpt><trkpt lat="45.55967594745256" lon="10.74488595018227"><ele>253.0</ele><time>2026-03-28T13:49:07Z</time></trkpt><trkpt lat="45.55975408607733" lon="10.744825113388421"><ele>253.0</ele><time>2026-03-28T13:49:08Z</time></trkpt><trkpt lat="45.559834662928914" lon="10.74474762458042"><ele>253.2</ele><time>2026-03-28T13:49:09Z</time></trkpt><trkpt lat="45.55991833018796" lon="10.744655026130886"><ele>253.4</ele><time>2026-03-28T13:49:10Z</time></trkpt><trkpt lat="45.55999265284294" lon="10.744563306976538"><ele>253.59999999999997</ele><time>2026-03-28T13:49:11Z</time></trkpt><trkpt lat="45.560058473082805" lon="10.744477006457492"><ele>253.79999999999998</ele><time>2026-03-28T13:49:12Z</time></trkpt><trkpt lat="45.5601224605501" lon="10.744392723547758"><ele>254.0</ele><time>2026-03-28T13:49:13Z</time></trkpt><trkpt lat="45.56018493098573" lon="10.74431043878623"><ele>253.50000000000003</ele><time>2026-03-28T13:49:14Z</time></trkpt><trkpt lat="45.560244222333516" lon="10.74423190812284"><ele>253.0</ele><time>2026-03-28T13:49:15Z</time></trkpt><trkpt lat="45.56030409678042" lon="10.74415129556434"><ele>252.5</ele><time>2026-03-28T13:49:16Z</time></trkpt><trkpt lat="45.56036563754093" lon="10.744067751487552"><ele>252.0</ele><time>2026-03-28T13:49:17Z</time></trkpt><trkpt lat="45.56042457611358" lon="10.74398092870751"><ele>251.50000000000003</ele><time>2026-03-28T13:49:18Z</time></trkpt><trkpt lat="45.560475218760935" lon="10.743888615119703"><ele>251.0</ele><time>2026-03-28T13:49:19Z</time></trkpt><trkpt lat="45.560533188442086" lon="10.743816933897582"><ele>250.66666666666669</ele><time>2026-03-28T13:49:20Z</time></trkpt><trkpt lat="45.56059594903942" lon="10.743744038061802"><ele>250.33333333333334</ele><time>2026-03-28T13:49:21Z</time></trkpt><trkpt lat="45.560662988233105" lon="10.743673920658983"><ele>250.0</ele><time>2026-03-28T13:49:22Z</time></trkpt><trkpt lat="45.56073705119455" lon="10.743605170587534"><ele>249.66666666666669</ele><time>2026-03-28T13:49:23Z</time></trkpt><trkpt lat="45.56082400903671" lon="10.743564045903033"><ele>249.33333333333334</ele><time>2026-03-28T13:49:24Z</time></trkpt><trkpt lat="45.560907283113565" lon="10.743509089265565"><ele>249.0</ele><time>2026-03-28T13:49:25Z</time></trkpt><trkpt lat="45.56099614656981" lon="10.74343698482898"><ele>249.0</ele><time>2026-03-28T13:49:26Z</time></trkpt><trkpt lat="45.561092594995735" lon="10.743397900522545"><ele>248.99999999999997</ele><time>2026-03-28T13:49:27Z</time></trkpt><trkpt lat="45.56118948018338" lon="10.743391830286837"><ele>248.99999999999997</ele><time>2026-03-28T13:49:28Z</time></trkpt><trkpt lat="45.56128138731089" lon="10.743368518510533"><ele>249.0</ele><time>2026-03-28T13:49:29Z</time></trkpt><trkpt lat="45.56137666756223" lon="10.743329875912444"><ele>249.0</ele><time>2026-03-28T13:49:30Z</time></trkpt><trkpt lat="45.56147501875038" lon="10.743311889572619"><ele>248.2</ele><time>2026-03-28T13:49:31Z</time></trkpt><trkpt lat="45.561573998510156" lon="10.743298420605742"><ele>247.39999999999998</ele><time>2026-03-28T13:49:32Z</time></trkpt><trkpt lat="45.56167297131736" lon="10.743279509938906"><ele>246.6</ele><time>2026-03-28T13:49:33Z</time></trkpt><trkpt lat="45.56176976715546" lon="10.7432521844956"><ele>245.8</ele><time>2026-03-28T13:49:34Z</time></trkpt><trkpt lat="45.56187175036736" lon="10.743227392060323"><ele>245.0</ele><time>2026-03-28T13:49:35Z</time></trkpt><trkpt lat="45.56196466869423" lon="10.743206325012325"><ele>244.4</ele><time>2026-03-28T13:49:36Z</time></trkpt><trkpt lat="45.56206598786232" lon="10.743183690910932"><ele>243.8</ele><time>2026-03-28T13:49:37Z</time></trkpt><trkpt lat="45.56217039566254" lon="10.743162209536896"><ele>243.2</ele><time>2026-03-28T13:49:38Z</time></trkpt><trkpt lat="45.56226539353996" lon="10.743143677895475"><ele>242.6</ele><time>2026-03-28T13:49:39Z</time></trkpt><trkpt lat="45.56236394637615" lon="10.743121073313333"><ele>242.0</ele><time>2026-03-28T13:49:40Z</time></trkpt><trkpt lat="45.562460396874776" lon="10.743090906895567"><ele>242.0</ele><time>2026-03-28T13:49:41Z</time></trkpt><trkpt lat="45.562559053959056" lon="10.743052578411659"><ele>242.0</ele><time>2026-03-28T13:49:42Z</time></trkpt><trkpt lat="45.56265521069353" lon="10.743004527531374"><ele>242.0</ele><time>2026-03-28T13:49:43Z</time></trkpt><trkpt lat="45.562749850124646" lon="10.74294881577301"><ele>242.0</ele><time>2026-03-28T13:49:44Z</time></trkpt><trkpt lat="45.56284759774803" lon="10.742880984647604"><ele>242.0</ele><time>2026-03-28T13:49:45Z</time></trkpt><trkpt lat="45.5629391490262" lon="10.742807774766433"><ele>241.33333333333334</ele><time>2026-03-28T13:49:46Z</time></trkpt><trkpt lat="45.5630280610727" lon="10.742744767414822"><ele>240.66666666666669</ele><time>2026-03-28T13:49:47Z</time></trkpt><trkpt lat="45.563108670838986" lon="10.742689528627318"><ele>240.0</ele><time>2026-03-28T13:49:48Z</time></trkpt><trkpt lat="45.563185791171406" lon="10.74267964006071"><ele>239.33333333333331</ele><time>2026-03-28T13:49:49Z</time></trkpt><trkpt lat="45.56323952959866" lon="10.742619831325056"><ele>238.66666666666666</ele><time>2026-03-28T13:49:50Z</time></trkpt><trkpt lat="45.563329139816496" lon="10.74259648457676"><ele>238.0</ele><time>2026-03-28T13:49:52Z</time></trkpt><trkpt lat="45.56339888630115" lon="10.742616393459869"><ele>237.4</ele><time>2026-03-28T13:49:54Z</time></trkpt><trkpt lat="45.56341008711828" lon="10.742748764434465"><ele>236.8</ele><time>2026-03-28T13:49:56Z</time></trkpt><trkpt lat="45.563375943428234" lon="10.742938874633452"><ele>236.2</ele><time>2026-03-28T13:49:58Z</time></trkpt><trkpt lat="45.56335087238718" lon="10.743055278832415"><ele>235.6</ele><time>2026-03-28T13:49:59Z</time></trkpt><trkpt lat="45.56332478901691" lon="10.743166068400468"><ele>235.0</ele><time>2026-03-28T13:50:00Z</time></trkpt><trkpt lat="45.5633053979906" lon="10.743264298249967"><ele>234.99999999999997</ele><time>2026-03-28T13:50:01Z</time></trkpt><trkpt lat="45.563296376933906" lon="10.743372442229175"><ele>235.0</ele><time>2026-03-28T13:50:02Z</time></trkpt><trkpt lat="45.56330333780722" lon="10.74348920351705"><ele>235.0</ele><time>2026-03-28T13:50:03Z</time></trkpt><trkpt lat="45.56330930358182" lon="10.743603509542723"><ele>235.0</ele><time>2026-03-28T13:50:04Z</time></trkpt><trkpt lat="45.56330352209215" lon="10.743706499801462"><ele>234.99999999999997</ele><time>2026-03-28T13:50:05Z</time></trkpt><trkpt lat="45.563314037632814" lon="10.743824420057303"><ele>235.0</ele><time>2026-03-28T13:50:06Z</time></trkpt><trkpt lat="45.56332994270652" lon="10.743935254316407"><ele>235.66666666666666</ele><time>2026-03-28T13:50:07Z</time></trkpt><trkpt lat="45.56335529860811" lon="10.744020758140989"><ele>236.33333333333331</ele><time>2026-03-28T13:50:08Z</time></trkpt><trkpt lat="45.563384182015966" lon="10.744112629775307"><ele>237.0</ele><time>2026-03-28T13:50:09Z</time></trkpt><trkpt lat="45.56342374164303" lon="10.744189759372613"><ele>237.66666666666669</ele><time>2026-03-28T13:50:10Z</time></trkpt><trkpt lat="45.56353379319111" lon="10.744213251002488"><ele>238.33333333333334</ele><time>2026-03-28T13:50:11Z</time></trkpt><trkpt lat="45.563624702818444" lon="10.744231225224533"><ele>239.0</ele><time>2026-03-28T13:50:12Z</time></trkpt><trkpt lat="45.56371765321129" lon="10.744265092360791"><ele>239.0</ele><time>2026-03-28T13:50:13Z</time></trkpt><trkpt lat="45.56381636971381" lon="10.744289814151504"><ele>238.99999999999997</ele><time>2026-03-28T13:50:14Z</time></trkpt><trkpt lat="45.563919164769096" lon="10.74430220187466"><ele>238.99999999999997</ele><time>2026-03-28T13:50:15Z</time></trkpt><trkpt lat="45.564024952835545" lon="10.74430883311702"><ele>239.0</ele><time>2026-03-28T13:50:16Z</time></trkpt><trkpt lat="45.564136052218394" lon="10.744309767551526"><ele>239.0</ele><time>2026-03-28T13:50:17Z</time></trkpt><trkpt lat="45.564253504484874" lon="10.744310816897878"><ele>239.0</ele><time>2026-03-28T13:50:18Z</time></trkpt><trkpt lat="45.56438099022738" lon="10.744314276418068"><ele>239.0</ele><time>2026-03-28T13:50:19Z</time></trkpt><trkpt lat="45.56450817539316" lon="10.744319145134392"><ele>239.0</ele><time>2026-03-28T13:50:20Z</time></trkpt><trkpt lat="45.5646289546404" lon="10.744328424419386"><ele>239.0</ele><time>2026-03-28T13:50:21Z</time></trkpt><trkpt lat="45.564749702834476" lon="10.74434273199378"><ele>239.75</ele><time>2026-03-28T13:50:22Z</time></trkpt><trkpt lat="45.56487082776318" lon="10.744353446653049"><ele>240.5</ele><time>2026-03-28T13:50:22.999Z</time></trkpt><trkpt lat="45.564995540366766" lon="10.744363055485461"><ele>241.25</ele><time>2026-03-28T13:50:23.999Z</time></trkpt><trkpt lat="45.565127253030475" lon="10.744364418210385"><ele>242.0</ele><time>2026-03-28T13:50:24.999Z</time></trkpt><trkpt lat="45.56526145538162" lon="10.744356970521677"><ele>242.2</ele><time>2026-03-28T13:50:25.999Z</time></trkpt><trkpt lat="45.565370049736586" lon="10.744344327470081"><ele>242.39999999999998</ele><time>2026-03-28T13:50:26.999Z</time></trkpt><trkpt lat="45.56548174052914" lon="10.744332795258906"><ele>242.60000000000002</ele><time>2026-03-28T13:50:28Z</time></trkpt><trkpt lat="45.565591755943274" lon="10.744313950038995"><ele>242.8</ele><time>2026-03-28T13:50:29Z</time></trkpt><trkpt lat="45.565702418500436" lon="10.744292803827134"><ele>243.0</ele><time>2026-03-28T13:50:30Z</time></trkpt><trkpt lat="45.56581630064563" lon="10.744255851821032"><ele>243.0</ele><time>2026-03-28T13:50:31Z</time></trkpt><trkpt lat="45.56593464592763" lon="10.74421613134695"><ele>243.0</ele><time>2026-03-28T13:50:32Z</time></trkpt><trkpt lat="45.56605491037794" lon="10.744172438358012"><ele>243.0</ele><time>2026-03-28T13:50:33Z</time></trkpt><trkpt lat="45.566172440895315" lon="10.744137144842526"><ele>243.0</ele><time>2026-03-28T13:50:34Z</time></trkpt><trkpt lat="45.56628948649012" lon="10.744106036690608"><ele>244.0</ele><time>2026-03-28T13:50:35Z</time></trkpt><trkpt lat="45.566406235274975" lon="10.744074984288646"><ele>245.0</ele><time>2026-03-28T13:50:36Z</time></trkpt><trkpt lat="45.56652478840981" lon="10.744048242507171"><ele>246.0</ele><time>2026-03-28T13:50:37Z</time></trkpt><trkpt lat="45.5666462848954" lon="10.74402990842844"><ele>247.0</ele><time>2026-03-28T13:50:38Z</time></trkpt><trkpt lat="45.5667667688717" lon="10.74402057308529"><ele>247.0</ele><time>2026-03-28T13:50:39Z</time></trkpt><trkpt lat="45.56688688805624" lon="10.744019771069913"><ele>247.0</ele><time>2026-03-28T13:50:40Z</time></trkpt><trkpt lat="45.56700680268688" lon="10.744025548950253"><ele>247.0</ele><time>2026-03-28T13:50:41Z</time></trkpt><trkpt lat="45.567121138810585" lon="10.744033457749364"><ele>247.0</ele><time>2026-03-28T13:50:42Z</time></trkpt><trkpt lat="45.56723357904357" lon="10.744054226215841"><ele>247.39999999999998</ele><time>2026-03-28T13:50:43Z</time></trkpt><trkpt lat="45.56734207099503" lon="10.744089923662678"><ele>247.79999999999998</ele><time>2026-03-28T13:50:44Z</time></trkpt><trkpt lat="45.567443083732414" lon="10.74413247609152"><ele>248.2</ele><time>2026-03-28T13:50:45Z</time></trkpt><trkpt lat="45.56752900506569" lon="10.744171939860717"><ele>248.6</ele><time>2026-03-28T13:50:46Z</time></trkpt><trkpt lat="45.56760069939758" lon="10.74419871563757"><ele>249.0</ele><time>2026-03-28T13:50:47Z</time></trkpt><trkpt lat="45.56768485623233" lon="10.744236142195998"><ele>249.0</ele><time>2026-03-28T13:50:49Z</time></trkpt><trkpt lat="45.56775493672177" lon="10.74427850659328"><ele>249.0</ele><time>2026-03-28T13:50:52Z</time></trkpt><trkpt lat="45.56778211473994" lon="10.74404149523763"><ele>249.0</ele><time>2026-03-28T13:50:56Z</time></trkpt><trkpt lat="45.56775384327288" lon="10.74387459229372"><ele>249.0</ele><time>2026-03-28T13:50:58Z</time></trkpt><trkpt lat="45.56773575632948" lon="10.74370632591751"><ele>248.75</ele><time>2026-03-28T13:51:00Z</time></trkpt><trkpt lat="45.56770946032099" lon="10.743539409447266"><ele>248.5</ele><time>2026-03-28T13:51:02Z</time></trkpt><trkpt lat="45.56769065697873" lon="10.743362006526917"><ele>248.25</ele><time>2026-03-28T13:51:04Z</time></trkpt><trkpt lat="45.5676657157515" lon="10.743205039656594"><ele>248.0</ele><time>2026-03-28T13:51:06Z</time></trkpt><trkpt lat="45.5676334777039" lon="10.743053633401214"><ele>248.0</ele><time>2026-03-28T13:51:08Z</time></trkpt><trkpt lat="45.56760083585442" lon="10.742925473583707"><ele>248.0</ele><time>2026-03-28T13:51:10Z</time></trkpt><trkpt lat="45.56759249036406" lon="10.742802629819167"><ele>248.0</ele><time>2026-03-28T13:51:12Z</time></trkpt><trkpt lat="45.5676186639749" lon="10.742666353495833"><ele>248.0</ele><time>2026-03-28T13:51:14Z</time></trkpt><trkpt lat="45.56763512285522" lon="10.742524191369215"><ele>248.0</ele><time>2026-03-28T13:51:16Z</time></trkpt><trkpt lat="45.56765767004195" lon="10.742386585390415"><ele>247.2</ele><time>2026-03-28T13:51:18Z</time></trkpt><trkpt lat="45.5677023746857" lon="10.742240884999918"><ele>246.4</ele><time>2026-03-28T13:51:20Z</time></trkpt><trkpt lat="45.56776655848388" lon="10.74208144021951"><ele>245.59999999999997</ele><time>2026-03-28T13:51:22Z</time></trkpt><trkpt lat="45.567809485079295" lon="10.742005765724368"><ele>244.79999999999998</ele><time>2026-03-28T13:51:23Z</time></trkpt><trkpt lat="45.567851628092455" lon="10.741934043643564"><ele>244.0</ele><time>2026-03-28T13:51:24Z</time></trkpt><trkpt lat="45.56792391832817" lon="10.7418050597344"><ele>243.39999999999998</ele><time>2026-03-28T13:51:26Z</time></trkpt><trkpt lat="45.56798946337715" lon="10.741691634139086"><ele>242.79999999999998</ele><time>2026-03-28T13:51:28Z</time></trkpt><trkpt lat="45.568039322762445" lon="10.74156761644563"><ele>242.20000000000002</ele><time>2026-03-28T13:51:30Z</time></trkpt><trkpt lat="45.568052873628076" lon="10.741397592296758"><ele>241.60000000000002</ele><time>2026-03-28T13:51:32Z</time></trkpt><trkpt lat="45.5680365329882" lon="10.741243819110652"><ele>241.0</ele><time>2026-03-28T13:51:34Z</time></trkpt><trkpt lat="45.568095518175625" lon="10.741076074718281"><ele>237.66666666666666</ele><time>2026-03-28T13:51:35Z</time></trkpt><trkpt lat="45.56801976048735" lon="10.740921962279986"><ele>234.33333333333331</ele><time>2026-03-28T13:51:37Z</time></trkpt><trkpt lat="45.567948144003985" lon="10.740776278577842"><ele>231.0</ele><time>2026-03-28T13:51:39Z</time></trkpt><trkpt lat="45.56776462817072" lon="10.740609070724757"><ele>230.20000000000002</ele><time>2026-03-28T13:51:41Z</time></trkpt><trkpt lat="45.56767234505505" lon="10.740661046794525"><ele>229.40000000000003</ele><time>2026-03-28T13:51:42Z</time></trkpt><trkpt lat="45.567533581359505" lon="10.74063677057108"><ele>228.6</ele><time>2026-03-28T13:51:44Z</time></trkpt><trkpt lat="45.567446782048606" lon="10.74059796618044"><ele>227.8</ele><time>2026-03-28T13:51:45Z</time></trkpt><trkpt lat="45.56736341981583" lon="10.740563734888916"><ele>227.0</ele><time>2026-03-28T13:51:46Z</time></trkpt><trkpt lat="45.56728717797033" lon="10.740541742797294"><ele>227.00000000000003</ele><time>2026-03-28T13:51:47Z</time></trkpt><trkpt lat="45.56720678751287" lon="10.740520342458028"><ele>227.0</ele><time>2026-03-28T13:51:48Z</time></trkpt><trkpt lat="45.56711917042529" lon="10.7405009643214"><ele>227.0</ele><time>2026-03-28T13:51:49Z</time></trkpt><trkpt lat="45.56702899030864" lon="10.74048055238847"><ele>227.0</ele><time>2026-03-28T13:51:50Z</time></trkpt><trkpt lat="45.56694731582454" lon="10.740452300087966"><ele>227.00000000000003</ele><time>2026-03-28T13:51:51Z</time></trkpt><trkpt lat="45.566877950699364" lon="10.7404103972028"><ele>227.0</ele><time>2026-03-28T13:51:52Z</time></trkpt><trkpt lat="45.56681353724567" lon="10.740343194814903"><ele>227.16666666666669</ele><time>2026-03-28T13:51:53Z</time></trkpt><trkpt lat="45.56674265247156" lon="10.740288863004674"><ele>227.33333333333334</ele><time>2026-03-28T13:51:54Z</time></trkpt><trkpt lat="45.56668958074144" lon="10.740206633275811"><ele>227.5</ele><time>2026-03-28T13:51:55Z</time></trkpt><trkpt lat="45.56663530926312" lon="10.740108649939563"><ele>227.66666666666669</ele><time>2026-03-28T13:51:56Z</time></trkpt><trkpt lat="45.56659030677499" lon="10.739986935543463"><ele>227.83333333333334</ele><time>2026-03-28T13:51:57Z</time></trkpt><trkpt lat="45.56652003925362" lon="10.739884020545375"><ele>228.0</ele><time>2026-03-28T13:51:58Z</time></trkpt><trkpt lat="45.5664721927551" lon="10.73976969327873"><ele>228.83333333333334</ele><time>2026-03-28T13:51:59Z</time></trkpt><trkpt lat="45.566448429437195" lon="10.73965447202447"><ele>229.66666666666669</ele><time>2026-03-28T13:52:00Z</time></trkpt><trkpt lat="45.566425368762694" lon="10.739555888767251"><ele>230.5</ele><time>2026-03-28T13:52:01Z</time></trkpt><trkpt lat="45.56640669610238" lon="10.739445491653987"><ele>231.33333333333334</ele><time>2026-03-28T13:52:02Z</time></trkpt><trkpt lat="45.566375714742705" lon="10.73934396760374"><ele>232.16666666666669</ele><time>2026-03-28T13:52:03Z</time></trkpt><trkpt lat="45.56636339286042" lon="10.73923140525598"><ele>233.0</ele><time>2026-03-28T13:52:04Z</time></trkpt><trkpt lat="45.5663500613053" lon="10.739127799379707"><ele>233.8</ele><time>2026-03-28T13:52:05Z</time></trkpt><trkpt lat="45.566337112968846" lon="10.738974445258076"><ele>234.60000000000002</ele><time>2026-03-28T13:52:07Z</time></trkpt><trkpt lat="45.56638462198605" lon="10.738849429559874"><ele>235.39999999999998</ele><time>2026-03-28T13:52:09Z</time></trkpt><trkpt lat="45.566387465912484" lon="10.738758028364849"><ele>236.2</ele><time>2026-03-28T13:52:10Z</time></trkpt><trkpt lat="45.56652661333849" lon="10.738710379598833"><ele>237.0</ele><time>2026-03-28T13:52:11Z</time></trkpt><trkpt lat="45.566593398448624" lon="10.738620492128083"><ele>237.0</ele><time>2026-03-28T13:52:12Z</time></trkpt><trkpt lat="45.56665020127857" lon="10.738507396748"><ele>237.0</ele><time>2026-03-28T13:52:13Z</time></trkpt><trkpt lat="45.56672918948059" lon="10.738397310630914"><ele>237.0</ele><time>2026-03-28T13:52:14Z</time></trkpt><trkpt lat="45.566813751234555" lon="10.738278468578846"><ele>237.0</ele><time>2026-03-28T13:52:15Z</time></trkpt><trkpt lat="45.566909244866316" lon="10.738177447533749"><ele>237.0</ele><time>2026-03-28T13:52:16Z</time></trkpt><trkpt lat="45.5669807983818" lon="10.738076644217564"><ele>236.33333333333334</ele><time>2026-03-28T13:52:17Z</time></trkpt><trkpt lat="45.56704092493872" lon="10.737970274450353"><ele>235.66666666666669</ele><time>2026-03-28T13:52:18Z</time></trkpt><trkpt lat="45.5670905794236" lon="10.737857506675912"><ele>235.0</ele><time>2026-03-28T13:52:19Z</time></trkpt><trkpt lat="45.56714797627556" lon="10.737766246035637"><ele>234.33333333333334</ele><time>2026-03-28T13:52:20Z</time></trkpt><trkpt lat="45.56720095984315" lon="10.737675896741472"><ele>233.66666666666669</ele><time>2026-03-28T13:52:21Z</time></trkpt><trkpt lat="45.56725087090991" lon="10.73758096247754"><ele>233.0</ele><time>2026-03-28T13:52:22Z</time></trkpt><trkpt lat="45.56730474755338" lon="10.737484365800729"><ele>232.4</ele><time>2026-03-28T13:52:23Z</time></trkpt><trkpt lat="45.567360508932005" lon="10.737385033408431"><ele>231.8</ele><time>2026-03-28T13:52:24Z</time></trkpt><trkpt lat="45.56742631127474" lon="10.737294073665877"><ele>231.2</ele><time>2026-03-28T13:52:25Z</time></trkpt><trkpt lat="45.56747322878246" lon="10.73717219534836"><ele>230.6</ele><time>2026-03-28T13:52:26Z</time></trkpt><trkpt lat="45.56751855839133" lon="10.737058551923962"><ele>230.0</ele><time>2026-03-28T13:52:27Z</time></trkpt><trkpt lat="45.56755003721475" lon="10.736937158540231"><ele>229.83333333333334</ele><time>2026-03-28T13:52:28Z</time></trkpt><trkpt lat="45.567574894356824" lon="10.736803539544866"><ele>229.66666666666669</ele><time>2026-03-28T13:52:29Z</time></trkpt><trkpt lat="45.567585570730834" lon="10.736674513102233"><ele>229.5</ele><time>2026-03-28T13:52:30Z</time></trkpt><trkpt lat="45.56759573279662" lon="10.736549452768337"><ele>229.33333333333331</ele><time>2026-03-28T13:52:31Z</time></trkpt><trkpt lat="45.567619590909224" lon="10.736432213205674"><ele>229.16666666666666</ele><time>2026-03-28T13:52:32Z</time></trkpt><trkpt lat="45.56762838393023" lon="10.736336050438702"><ele>229.0</ele><time>2026-03-28T13:52:33Z</time></trkpt><trkpt lat="45.567639618892215" lon="10.736245752032834"><ele>228.99999999999997</ele><time>2026-03-28T13:52:35Z</time></trkpt><trkpt lat="45.5677290753592" lon="10.73631850580909"><ele>229.0</ele><time>2026-03-28T13:52:37Z</time></trkpt><trkpt lat="45.56778819152813" lon="10.736437376670908"><ele>229.0</ele><time>2026-03-28T13:52:39Z</time></trkpt><trkpt lat="45.56786731869316" lon="10.736490832088315"><ele>229.0</ele><time>2026-03-28T13:52:41Z</time></trkpt><trkpt lat="45.567925566815134" lon="10.736454770346525"><ele>228.99999999999997</ele><time>2026-03-28T13:52:52Z</time></trkpt><trkpt lat="45.567934619067195" lon="10.73632395557038"><ele>229.0</ele><time>2026-03-28T13:52:54Z</time></trkpt><trkpt lat="45.567875401808664" lon="10.736217458888184"><ele>229.0</ele><time>2026-03-28T13:52:55Z</time></trkpt><trkpt lat="45.5677858880945" lon="10.736067704866837"><ele>228.99999999999997</ele><time>2026-03-28T13:52:57Z</time></trkpt><trkpt lat="45.56774960199131" lon="10.735979910373729"><ele>228.99999999999997</ele><time>2026-03-28T13:52:58Z</time></trkpt><trkpt lat="45.5677341485539" lon="10.735843692226982"><ele>229.0</ele><time>2026-03-28T13:53:00Z</time></trkpt><trkpt lat="45.56786547477136" lon="10.735813569497124"><ele>229.0</ele><time>2026-03-28T13:53:03Z</time></trkpt><trkpt lat="45.567935903327204" lon="10.73584269611872"><ele>227.2</ele><time>2026-03-28T13:53:04Z</time></trkpt><trkpt lat="45.568018932271904" lon="10.735870360748871"><ele>225.39999999999998</ele><time>2026-03-28T13:53:05Z</time></trkpt><trkpt lat="45.568121830191025" lon="10.735906751729242"><ele>223.6</ele><time>2026-03-28T13:53:06Z</time></trkpt><trkpt lat="45.568219924685415" lon="10.735941647714315"><ele>221.8</ele><time>2026-03-28T13:53:07Z</time></trkpt><trkpt lat="45.56831521291277" lon="10.735975455753008"><ele>220.0</ele><time>2026-03-28T13:53:08Z</time></trkpt><trkpt lat="45.56840014988293" lon="10.736004822737543"><ele>220.0</ele><time>2026-03-28T13:53:09Z</time></trkpt><trkpt lat="45.56849823993065" lon="10.736038095435122"><ele>220.0</ele><time>2026-03-28T13:53:10Z</time></trkpt><trkpt lat="45.56861278528712" lon="10.736028394621837"><ele>220.0</ele><time>2026-03-28T13:53:11Z</time></trkpt><trkpt lat="45.56872996844341" lon="10.736020743548654"><ele>220.0</ele><time>2026-03-28T13:53:12Z</time></trkpt><trkpt lat="45.56885226908794" lon="10.736010157606446"><ele>219.8</ele><time>2026-03-28T13:53:13Z</time></trkpt><trkpt lat="45.56896465153549" lon="10.73601629135331"><ele>219.6</ele><time>2026-03-28T13:53:14Z</time></trkpt><trkpt lat="45.56906569770335" lon="10.736036044794073"><ele>219.39999999999998</ele><time>2026-03-28T13:53:15Z</time></trkpt><trkpt lat="45.56916332123278" lon="10.736067725872108"><ele>219.2</ele><time>2026-03-28T13:53:16Z</time></trkpt><trkpt lat="45.569267917652" lon="10.73611425599404"><ele>219.0</ele><time>2026-03-28T13:53:17Z</time></trkpt><trkpt lat="45.569382253334375" lon="10.736155723747192"><ele>219.0</ele><time>2026-03-28T13:53:18Z</time></trkpt><trkpt lat="45.569500442072915" lon="10.73620596988761"><ele>219.0</ele><time>2026-03-28T13:53:19Z</time></trkpt><trkpt lat="45.56961434422207" lon="10.736259794927498"><ele>219.0</ele><time>2026-03-28T13:53:20Z</time></trkpt><trkpt lat="45.56972835964077" lon="10.736279583365642"><ele>219.0</ele><time>2026-03-28T13:53:21Z</time></trkpt><trkpt lat="45.56984076317756" lon="10.736282398961649"><ele>219.0</ele><time>2026-03-28T13:53:22Z</time></trkpt><trkpt lat="45.56995647576409" lon="10.736298746868176"><ele>218.99999999999997</ele><time>2026-03-28T13:53:23Z</time></trkpt><trkpt lat="45.57006754924514" lon="10.736311577525763"><ele>218.99999999999997</ele><time>2026-03-28T13:53:24Z</time></trkpt><trkpt lat="45.57018072958048" lon="10.736317108710619"><ele>219.0</ele><time>2026-03-28T13:53:25Z</time></trkpt><trkpt lat="45.570289036801505" lon="10.73632119042947"><ele>219.0</ele><time>2026-03-28T13:53:26Z</time></trkpt><trkpt lat="45.57038838243925" lon="10.736317994683688"><ele>219.6</ele><time>2026-03-28T13:53:27Z</time></trkpt><trkpt lat="45.570478338223666" lon="10.736341645942959"><ele>220.2</ele><time>2026-03-28T13:53:28Z</time></trkpt><trkpt lat="45.570551441193075" lon="10.736321135099342"><ele>220.79999999999998</ele><time>2026-03-28T13:53:29Z</time></trkpt><trkpt lat="45.57064208170634" lon="10.736348849494751"><ele>221.39999999999998</ele><time>2026-03-28T13:53:31Z</time></trkpt><trkpt lat="45.57067843072799" lon="10.736541980421734"><ele>222.0</ele><time>2026-03-28T13:53:33Z</time></trkpt><trkpt lat="45.57072221718819" lon="10.736680091292708"><ele>222.0</ele><time>2026-03-28T13:53:34Z</time></trkpt><trkpt lat="45.57075769348151" lon="10.736825569342729"><ele>222.0</ele><time>2026-03-28T13:53:35Z</time></trkpt><trkpt lat="45.5707925187614" lon="10.736976451097725"><ele>222.0</ele><time>2026-03-28T13:53:36Z</time></trkpt><trkpt lat="45.570794245560734" lon="10.73713029446912"><ele>222.0</ele><time>2026-03-28T13:53:37Z</time></trkpt><trkpt lat="45.570804762602805" lon="10.737282381190079"><ele>222.0</ele><time>2026-03-28T13:53:38Z</time></trkpt><trkpt lat="45.570826567689735" lon="10.737412480451605"><ele>222.0</ele><time>2026-03-28T13:53:39Z</time></trkpt><trkpt lat="45.570824441706414" lon="10.737520852908743"><ele>222.0</ele><time>2026-03-28T13:53:40Z</time></trkpt><trkpt lat="45.570827354333844" lon="10.737621630581954"><ele>222.0</ele><time>2026-03-28T13:53:41Z</time></trkpt><trkpt lat="45.57083086725661" lon="10.737727496598461"><ele>222.0</ele><time>2026-03-28T13:53:42Z</time></trkpt><trkpt lat="45.57084979676915" lon="10.737833147099186"><ele>222.0</ele><time>2026-03-28T13:53:43Z</time></trkpt><trkpt lat="45.57084212160949" lon="10.737939058106331"><ele>222.0</ele><time>2026-03-28T13:53:44Z</time></trkpt><trkpt lat="45.570853247376114" lon="10.738119263173143"><ele>221.83333333333334</ele><time>2026-03-28T13:53:46Z</time></trkpt><trkpt lat="45.57086029631822" lon="10.738231581001267"><ele>221.66666666666669</ele><time>2026-03-28T13:53:47Z</time></trkpt><trkpt lat="45.57088113749204" lon="10.738332337678418"><ele>221.5</ele><time>2026-03-28T13:53:48Z</time></trkpt><trkpt lat="45.5708840840971" lon="10.738436830628192"><ele>221.33333333333334</ele><time>2026-03-28T13:53:49Z</time></trkpt><trkpt lat="45.570893759822305" lon="10.73853817841882"><ele>221.16666666666669</ele><time>2026-03-28T13:53:50Z</time></trkpt><trkpt lat="45.570903622881126" lon="10.738694462713626"><ele>221.0</ele><time>2026-03-28T13:53:52Z</time></trkpt><trkpt lat="45.57091562511143" lon="10.738869969037475"><ele>221.00000000000003</ele><time>2026-03-28T13:53:54Z</time></trkpt><trkpt lat="45.57090794131528" lon="10.738979206634507"><ele>221.0</ele><time>2026-03-28T13:53:55Z</time></trkpt><trkpt lat="45.570905364118936" lon="10.739099969629093"><ele>221.0</ele><time>2026-03-28T13:53:56Z</time></trkpt><trkpt lat="45.5708868456718" lon="10.739207964879828"><ele>221.0</ele><time>2026-03-28T13:53:57Z</time></trkpt><trkpt lat="45.57088434028474" lon="10.739311759628796"><ele>221.00000000000003</ele><time>2026-03-28T13:53:58Z</time></trkpt><trkpt lat="45.57088184145204" lon="10.739415282906924"><ele>221.0</ele><time>2026-03-28T13:53:59Z</time></trkpt><trkpt lat="45.57086845534621" lon="10.739583764165978"><ele>221.00000000000003</ele><time>2026-03-28T13:54:01Z</time></trkpt><trkpt lat="45.57088510672685" lon="10.739684866502344"><ele>221.0</ele><time>2026-03-28T13:54:03Z</time></trkpt><trkpt lat="45.570946194641515" lon="10.739769384477254"><ele>221.0</ele><time>2026-03-28T13:54:06Z</time></trkpt><trkpt lat="45.571038177901265" lon="10.739707826289276"><ele>221.0</ele><time>2026-03-28T13:54:08Z</time></trkpt><trkpt lat="45.57113302052116" lon="10.739666790248965"><ele>221.00000000000003</ele><time>2026-03-28T13:54:10Z</time></trkpt><trkpt lat="45.57120884295885" lon="10.739683243091752"><ele>221.0</ele><time>2026-03-28T13:54:13Z</time></trkpt><trkpt lat="45.571229058766676" lon="10.73979709484549"><ele>218.0</ele><time>2026-03-28T13:54:14Z</time></trkpt><trkpt lat="45.57121907689214" lon="10.739891660911205"><ele>215.00000000000003</ele><time>2026-03-28T13:54:16Z</time></trkpt><trkpt lat="45.57122457032988" lon="10.740032944253937"><ele>212.0</ele><time>2026-03-28T13:54:19Z</time></trkpt><trkpt lat="45.5712196317683" lon="10.74017422884118"><ele>209.0</ele><time>2026-03-28T13:54:21Z</time></trkpt><trkpt lat="45.57121628721256" lon="10.74026667326521"><ele>206.0</ele><time>2026-03-28T13:54:22Z</time></trkpt><trkpt lat="45.57120585412491" lon="10.740449282129365"><ele>205.4</ele><time>2026-03-28T13:54:24Z</time></trkpt><trkpt lat="45.57120299589137" lon="10.74053918307229"><ele>204.8</ele><time>2026-03-28T13:54:25Z</time></trkpt><trkpt lat="45.57121028480698" lon="10.740687394550958"><ele>204.20000000000002</ele><time>2026-03-28T13:54:27Z</time></trkpt><trkpt lat="45.57122393486606" lon="10.74082407852839"><ele>203.60000000000002</ele><time>2026-03-28T13:54:29Z</time></trkpt><trkpt lat="45.57119184723688" lon="10.740943989299664"><ele>203.0</ele><time>2026-03-28T13:54:31Z</time></trkpt><trkpt lat="45.57110438849189" lon="10.741058409306063"><ele>208.2</ele><time>2026-03-28T13:54:33Z</time></trkpt><trkpt lat="45.571045831020776" lon="10.741095658010055"><ele>213.4</ele><time>2026-03-28T13:54:34Z</time></trkpt><trkpt lat="45.57099066125086" lon="10.741244172770083"><ele>218.59999999999997</ele><time>2026-03-28T13:54:36Z</time></trkpt><trkpt lat="45.57100988040484" lon="10.74142391173307"><ele>223.79999999999998</ele><time>2026-03-28T13:54:38Z</time></trkpt><trkpt lat="45.57102874736687" lon="10.7415376456086"><ele>229.0</ele><time>2026-03-28T13:54:39Z</time></trkpt><trkpt lat="45.57105060357683" lon="10.741631359857612"><ele>228.99999999999997</ele><time>2026-03-28T13:54:40Z</time></trkpt><trkpt lat="45.57108642383297" lon="10.741760815366085"><ele>229.0</ele><time>2026-03-28T13:54:42Z</time></trkpt><trkpt lat="45.57112396112777" lon="10.741885900600229"><ele>229.0</ele><time>2026-03-28T13:54:44Z</time></trkpt><trkpt lat="45.571159341080154" lon="10.741998312650077"><ele>229.0</ele><time>2026-03-28T13:54:46Z</time></trkpt><trkpt lat="45.571192564721734" lon="10.742102192498267"><ele>228.99999999999997</ele><time>2026-03-28T13:54:48Z</time></trkpt><trkpt lat="45.57122178861871" lon="10.742193565976303"><ele>229.0</ele><time>2026-03-28T13:54:50Z</time></trkpt><trkpt lat="45.57125115161853" lon="10.742310833556173"><ele>225.2</ele><time>2026-03-28T13:54:53Z</time></trkpt><trkpt lat="45.57126754080989" lon="10.74240128604552"><ele>221.39999999999998</ele><time>2026-03-28T13:54:56Z</time></trkpt><trkpt lat="45.5712860363911" lon="10.742517147261188"><ele>217.6</ele><time>2026-03-28T13:55:01Z</time></trkpt><trkpt lat="45.57130258363406" lon="10.742610766749742"><ele>213.8</ele><time>2026-03-28T13:55:08Z</time></trkpt><trkpt lat="45.57135234051647" lon="10.742666081432668"><ele>210.0</ele><time>2026-03-28T13:55:13Z</time></trkpt><trkpt lat="45.57180794464131" lon="10.742524755687965"><ele>210.0</ele><time>2026-03-28T13:55:15Z</time></trkpt><trkpt lat="45.571920279697" lon="10.742476647847644"><ele>210.0</ele><time>2026-03-28T13:55:17Z</time></trkpt><trkpt lat="45.57199008169404" lon="10.742454038753172"><ele>210.0</ele><time>2026-03-28T13:55:18Z</time></trkpt><trkpt lat="45.57205459289339" lon="10.74243929668755"><ele>210.0</ele><time>2026-03-28T13:55:19Z</time></trkpt><trkpt lat="45.572149735659" lon="10.742424865944976"><ele>210.0</ele><time>2026-03-28T13:55:21Z</time></trkpt><trkpt lat="45.57225826705851" lon="10.74247687694685"><ele>209.33333333333334</ele><time>2026-03-28T13:55:23Z</time></trkpt><trkpt lat="45.572337015354194" lon="10.742551895954007"><ele>208.66666666666669</ele><time>2026-03-28T13:55:25Z</time></trkpt><trkpt lat="45.57241971997501" lon="10.742629733832352"><ele>208.0</ele><time>2026-03-28T13:55:27Z</time></trkpt><trkpt lat="45.5724707039722" lon="10.742694786818085"><ele>207.33333333333334</ele><time>2026-03-28T13:55:28Z</time></trkpt><trkpt lat="45.57255539405079" lon="10.74279543312364"><ele>206.66666666666669</ele><time>2026-03-28T13:55:30Z</time></trkpt><trkpt lat="45.57261284788269" lon="10.742866115328914"><ele>206.0</ele><time>2026-03-28T13:55:32Z</time></trkpt><trkpt lat="45.57266571653602" lon="10.742915770975932"><ele>205.8</ele><time>2026-03-28T13:55:34Z</time></trkpt><trkpt lat="45.572724235003754" lon="10.742979339519653"><ele>205.60000000000002</ele><time>2026-03-28T13:55:36Z</time></trkpt><trkpt lat="45.57280995905885" lon="10.743046777568999"><ele>205.4</ele><time>2026-03-28T13:55:38Z</time></trkpt><trkpt lat="45.57291882024187" lon="10.74314175780621"><ele>205.2</ele><time>2026-03-28T13:55:40Z</time></trkpt><trkpt lat="45.57297652516441" lon="10.743190180095429"><ele>205.0</ele><time>2026-03-28T13:55:41Z</time></trkpt><trkpt lat="45.57307993273061" lon="10.743299680006409"><ele>205.0</ele><time>2026-03-28T13:55:43Z</time></trkpt><trkpt lat="45.57314078485852" lon="10.74336329879301"><ele>205.0</ele><time>2026-03-28T13:55:44Z</time></trkpt><trkpt lat="45.57320070702739" lon="10.743425052241413"><ele>205.0</ele><time>2026-03-28T13:55:45Z</time></trkpt><trkpt lat="45.57329403575984" lon="10.743536524627595"><ele>205.0</ele><time>2026-03-28T13:55:47Z</time></trkpt><trkpt lat="45.57340631925146" lon="10.743656683884856"><ele>205.0</ele><time>2026-03-28T13:55:49Z</time></trkpt><trkpt lat="45.57347202938456" lon="10.743764996110318"><ele>204.66666666666666</ele><time>2026-03-28T13:55:50Z</time></trkpt><trkpt lat="45.573528929271916" lon="10.74384131968662"><ele>204.33333333333331</ele><time>2026-03-28T13:55:51Z</time></trkpt><trkpt lat="45.573584524289075" lon="10.74391599849813"><ele>204.0</ele><time>2026-03-28T13:55:52Z</time></trkpt><trkpt lat="45.573644621966665" lon="10.74397992725192"><ele>203.66666666666669</ele><time>2026-03-28T13:55:53Z</time></trkpt><trkpt lat="45.57371928785587" lon="10.744061419344957"><ele>203.33333333333334</ele><time>2026-03-28T13:55:55Z</time></trkpt><trkpt lat="45.573785212424895" lon="10.744094557215485"><ele>203.0</ele><time>2026-03-28T13:56:09Z</time></trkpt><trkpt lat="45.57384773603192" lon="10.744117421406271"><ele>203.00000000000003</ele><time>2026-03-28T13:56:11Z</time></trkpt><trkpt lat="45.57391138572242" lon="10.744135547922452"><ele>203.0</ele><time>2026-03-28T13:56:17Z</time></trkpt><trkpt lat="45.57397744370944" lon="10.744180130287559"><ele>203.0</ele><time>2026-03-28T13:56:19Z</time></trkpt><trkpt lat="45.57405712630123" lon="10.744264527852447"><ele>203.0</ele><time>2026-03-28T13:56:21Z</time></trkpt><trkpt lat="45.57413955110785" lon="10.744337070119816"><ele>203.00000000000003</ele><time>2026-03-28T13:56:23Z</time></trkpt><trkpt lat="45.574221391638545" lon="10.744389894115605"><ele>203.0</ele><time>2026-03-28T13:56:25Z</time></trkpt><trkpt lat="45.57429415636354" lon="10.74443265033428"><ele>203.33333333333334</ele><time>2026-03-28T13:56:27Z</time></trkpt><trkpt lat="45.5743579425135" lon="10.744464935793122"><ele>203.66666666666669</ele><time>2026-03-28T13:56:29Z</time></trkpt><trkpt lat="45.57443370179363" lon="10.744512228256154"><ele>204.0</ele><time>2026-03-28T13:56:31Z</time></trkpt><trkpt lat="45.574508097135045" lon="10.744552584478042"><ele>204.33333333333331</ele><time>2026-03-28T13:56:33Z</time></trkpt><trkpt lat="45.574602403813785" lon="10.744537745709373"><ele>204.66666666666666</ele><time>2026-03-28T13:56:35Z</time></trkpt><trkpt lat="45.57468771739024" lon="10.744539623407372"><ele>205.0</ele><time>2026-03-28T13:56:38Z</time></trkpt><trkpt lat="45.57476433839182" lon="10.744589716149257"><ele>204.99999999999997</ele><time>2026-03-28T13:56:55Z</time></trkpt><trkpt lat="45.57484417983754" lon="10.744616224482076"><ele>205.0</ele><time>2026-03-28T13:56:58Z</time></trkpt><trkpt lat="45.57490411814103" lon="10.744643840809585"><ele>205.0</ele><time>2026-03-28T13:57:00Z</time></trkpt><trkpt lat="45.57481610164675" lon="10.74462140151533"><ele>205.0</ele><time>2026-03-28T13:57:08Z</time></trkpt><trkpt lat="45.57475093432439" lon="10.744594862625453"><ele>204.99999999999997</ele><time>2026-03-28T13:57:10Z</time></trkpt><trkpt lat="45.57468302925603" lon="10.744586282696211"><ele>205.0</ele><time>2026-03-28T13:57:13Z</time></trkpt><trkpt lat="45.57459001567902" lon="10.744598101300292"><ele>204.99999999999997</ele><time>2026-03-28T13:57:17Z</time></trkpt><trkpt lat="45.57452674006204" lon="10.744577010496277"><ele>205.0</ele><time>2026-03-28T13:57:18Z</time></trkpt><trkpt lat="45.57443943696378" lon="10.744525969748931"><ele>205.0</ele><time>2026-03-28T13:57:19Z</time></trkpt><trkpt lat="45.57437620036203" lon="10.744480244817229"><ele>205.0</ele><time>2026-03-28T13:57:20Z</time></trkpt><trkpt lat="45.574282649983715" lon="10.74441582292303"><ele>204.99999999999997</ele><time>2026-03-28T13:57:22Z</time></trkpt><trkpt lat="45.57418858313681" lon="10.744343723116211"><ele>205.0</ele><time>2026-03-28T13:57:24Z</time></trkpt><trkpt lat="45.57409237840084" lon="10.744265915480225"><ele>204.66666666666666</ele><time>2026-03-28T13:57:26Z</time></trkpt><trkpt lat="45.57403890715324" lon="10.744216330988142"><ele>204.33333333333331</ele><time>2026-03-28T13:57:27Z</time></trkpt><trkpt lat="45.57397423062793" lon="10.74416619852538"><ele>204.0</ele><time>2026-03-28T13:57:28Z</time></trkpt><trkpt lat="45.57390081518601" lon="10.74418026161245"><ele>203.66666666666669</ele><time>2026-03-28T13:57:32Z</time></trkpt><trkpt lat="45.57393280914632" lon="10.744295800636841"><ele>203.33333333333334</ele><time>2026-03-28T13:57:36Z</time></trkpt><trkpt lat="45.57402996331843" lon="10.744345688126122"><ele>203.0</ele><time>2026-03-28T13:57:37Z</time></trkpt><trkpt lat="45.5740734730674" lon="10.744453771263222"><ele>206.33333333333334</ele><time>2026-03-28T13:57:38Z</time></trkpt><trkpt lat="45.574131149337575" lon="10.744521845513379"><ele>209.66666666666669</ele><time>2026-03-28T13:57:39Z</time></trkpt><trkpt lat="45.574191772843385" lon="10.744602632451599"><ele>213.0</ele><time>2026-03-28T13:57:40Z</time></trkpt><trkpt lat="45.57425974557286" lon="10.744684600882795"><ele>216.33333333333331</ele><time>2026-03-28T13:57:41Z</time></trkpt><trkpt lat="45.574320678112585" lon="10.744757276335912"><ele>219.66666666666666</ele><time>2026-03-28T13:57:42Z</time></trkpt><trkpt lat="45.57437922479225" lon="10.74483769262781"><ele>223.0</ele><time>2026-03-28T13:57:43Z</time></trkpt><trkpt lat="45.5744439521145" lon="10.744919452611573"><ele>222.99999999999997</ele><time>2026-03-28T13:57:44Z</time></trkpt><trkpt lat="45.57451175592406" lon="10.745002239741899"><ele>223.0</ele><time>2026-03-28T13:57:45Z</time></trkpt><trkpt lat="45.57457897170632" lon="10.745088642156848"><ele>223.0</ele><time>2026-03-28T13:57:46Z</time></trkpt><trkpt lat="45.57464664687766" lon="10.745174821494931"><ele>223.0</ele><time>2026-03-28T13:57:47Z</time></trkpt><trkpt lat="45.57471464665405" lon="10.745256890453433"><ele>222.99999999999997</ele><time>2026-03-28T13:57:48Z</time></trkpt><trkpt lat="45.57476848169813" lon="10.745329856216383"><ele>223.0</ele><time>2026-03-28T13:57:49Z</time></trkpt><trkpt lat="45.57484012687217" lon="10.745434631524235"><ele>223.2</ele><time>2026-03-28T13:57:51Z</time></trkpt><trkpt lat="45.574884378217746" lon="10.745559306083404"><ele>223.4</ele><time>2026-03-28T13:57:53Z</time></trkpt><trkpt lat="45.57493651835274" lon="10.745727019254357"><ele>223.59999999999997</ele><time>2026-03-28T13:57:55Z</time></trkpt><trkpt lat="45.575007612039855" lon="10.745802250141375"><ele>223.79999999999998</ele><time>2026-03-28T13:57:56Z</time></trkpt><trkpt lat="45.57509496059214" lon="10.74587825663551"><ele>224.0</ele><time>2026-03-28T13:57:57Z</time></trkpt><trkpt lat="45.575178521440314" lon="10.745943567539188"><ele>224.0</ele><time>2026-03-28T13:57:58Z</time></trkpt><trkpt lat="45.57526296371011" lon="10.7460083988036"><ele>223.99999999999997</ele><time>2026-03-28T13:57:59Z</time></trkpt><trkpt lat="45.57535412574951" lon="10.746078743652696"><ele>223.99999999999997</ele><time>2026-03-28T13:58:00Z</time></trkpt><trkpt lat="45.575448680921596" lon="10.746142397559137"><ele>224.0</ele><time>2026-03-28T13:58:01Z</time></trkpt><trkpt lat="45.57554035667147" lon="10.746193270753613"><ele>224.0</ele><time>2026-03-28T13:58:02Z</time></trkpt><trkpt lat="45.57563414076328" lon="10.746220712361636"><ele>226.25</ele><time>2026-03-28T13:58:03Z</time></trkpt><trkpt lat="45.5757291883635" lon="10.746235556043857"><ele>228.5</ele><time>2026-03-28T13:58:04Z</time></trkpt><trkpt lat="45.57583566637351" lon="10.74625951416301"><ele>230.75</ele><time>2026-03-28T13:58:05Z</time></trkpt><trkpt lat="45.575943987065955" lon="10.74627433944036"><ele>233.0</ele><time>2026-03-28T13:58:06Z</time></trkpt><trkpt lat="45.57607727346052" lon="10.746461644125416"><ele>233.33333333333334</ele><time>2026-03-28T13:58:07Z</time></trkpt><trkpt lat="45.57618925455832" lon="10.746436824489992"><ele>233.66666666666669</ele><time>2026-03-28T13:58:08Z</time></trkpt><trkpt lat="45.57629287004816" lon="10.746428400088268"><ele>234.0</ele><time>2026-03-28T13:58:09Z</time></trkpt><trkpt lat="45.57637291678705" lon="10.746440350928868"><ele>234.33333333333331</ele><time>2026-03-28T13:58:10Z</time></trkpt><trkpt lat="45.57644171671686" lon="10.74645947858004"><ele>234.66666666666666</ele><time>2026-03-28T13:58:11Z</time></trkpt><trkpt lat="45.57651763648556" lon="10.746480494746642"><ele>235.0</ele><time>2026-03-28T13:58:12Z</time></trkpt><trkpt lat="45.57660792484987" lon="10.746482503427147"><ele>234.99999999999997</ele><time>2026-03-28T13:58:14Z</time></trkpt><trkpt lat="45.57668424948971" lon="10.746651415527348"><ele>235.0</ele><time>2026-03-28T13:58:16Z</time></trkpt><trkpt lat="45.576722995549034" lon="10.746742146287412"><ele>235.0</ele><time>2026-03-28T13:58:17Z</time></trkpt><trkpt lat="45.57677483881683" lon="10.746820336636997"><ele>235.0</ele><time>2026-03-28T13:58:18Z</time></trkpt><trkpt lat="45.57683979359893" lon="10.746868275060011"><ele>234.99999999999997</ele><time>2026-03-28T13:58:19Z</time></trkpt><trkpt lat="45.576920815227254" lon="10.746885689888938"><ele>235.0</ele><time>2026-03-28T13:58:20Z</time></trkpt><trkpt lat="45.577015299381166" lon="10.7468765521549"><ele>234.8</ele><time>2026-03-28T13:58:21Z</time></trkpt><trkpt lat="45.5771218208432" lon="10.746843686753268"><ele>234.6</ele><time>2026-03-28T13:58:22Z</time></trkpt><trkpt lat="45.57722469083911" lon="10.746800731539112"><ele>234.39999999999998</ele><time>2026-03-28T13:58:23Z</time></trkpt><trkpt lat="45.57732729200932" lon="10.746747582072743"><ele>234.2</ele><time>2026-03-28T13:58:24Z</time></trkpt><trkpt lat="45.57742593680197" lon="10.746681563044769"><ele>234.0</ele><time>2026-03-28T13:58:25Z</time></trkpt><trkpt lat="45.57751942298333" lon="10.746596898594959"><ele>234.0</ele><time>2026-03-28T13:58:26Z</time></trkpt><trkpt lat="45.57760851690949" lon="10.746499736306358"><ele>233.99999999999997</ele><time>2026-03-28T13:58:27Z</time></trkpt><trkpt lat="45.57769761850571" lon="10.746402021967368"><ele>233.99999999999997</ele><time>2026-03-28T13:58:28Z</time></trkpt><trkpt lat="45.57778137870424" lon="10.746314490514166"><ele>234.0</ele><time>2026-03-28T13:58:29Z</time></trkpt><trkpt lat="45.57786639617283" lon="10.746232005389487"><ele>234.0</ele><time>2026-03-28T13:58:30Z</time></trkpt><trkpt lat="45.57794699652376" lon="10.746150014998031"><ele>232.79999999999998</ele><time>2026-03-28T13:58:31Z</time></trkpt><trkpt lat="45.57802951323268" lon="10.746077305914827"><ele>231.59999999999997</ele><time>2026-03-28T13:58:32Z</time></trkpt><trkpt lat="45.57811341920018" lon="10.746008059680722"><ele>230.4</ele><time>2026-03-28T13:58:33Z</time></trkpt><trkpt lat="45.57819797777272" lon="10.745941208172141"><ele>229.2</ele><time>2026-03-28T13:58:34Z</time></trkpt><trkpt lat="45.57828391750431" lon="10.745871285253253"><ele>228.0</ele><time>2026-03-28T13:58:35Z</time></trkpt><trkpt lat="45.57836808922619" lon="10.745799457579075"><ele>227.8</ele><time>2026-03-28T13:58:36Z</time></trkpt><trkpt lat="45.578452074696926" lon="10.745725749790457"><ele>227.60000000000002</ele><time>2026-03-28T13:58:37Z</time></trkpt><trkpt lat="45.57854156383863" lon="10.745647544243617"><ele>227.39999999999998</ele><time>2026-03-28T13:58:38Z</time></trkpt><trkpt lat="45.57862755439794" lon="10.745568402899238"><ele>227.2</ele><time>2026-03-28T13:58:39Z</time></trkpt><trkpt lat="45.578710155429235" lon="10.745483375630641"><ele>227.0</ele><time>2026-03-28T13:58:40Z</time></trkpt><trkpt lat="45.57878629231307" lon="10.745393496552474"><ele>226.6</ele><time>2026-03-28T13:58:41Z</time></trkpt><trkpt lat="45.57885676252011" lon="10.745303200632122"><ele>226.2</ele><time>2026-03-28T13:58:42Z</time></trkpt><trkpt lat="45.578927298200504" lon="10.745208556307555"><ele>225.8</ele><time>2026-03-28T13:58:43Z</time></trkpt><trkpt lat="45.57899196037523" lon="10.745112691451437"><ele>225.4</ele><time>2026-03-28T13:58:44Z</time></trkpt><trkpt lat="45.57905302729819" lon="10.745009180468106"><ele>225.0</ele><time>2026-03-28T13:58:45Z</time></trkpt><trkpt lat="45.579117357480975" lon="10.744901864631986"><ele>224.16666666666666</ele><time>2026-03-28T13:58:46Z</time></trkpt><trkpt lat="45.579189895024726" lon="10.744797156608282"><ele>223.33333333333331</ele><time>2026-03-28T13:58:47Z</time></trkpt><trkpt lat="45.579265862884974" lon="10.74470597596698"><ele>222.5</ele><time>2026-03-28T13:58:48Z</time></trkpt><trkpt lat="45.57933996650675" lon="10.744654239165035"><ele>221.66666666666666</ele><time>2026-03-28T13:58:49Z</time></trkpt><trkpt lat="45.57941048879414" lon="10.744647522836697"><ele>220.83333333333331</ele><time>2026-03-28T13:58:50Z</time></trkpt><trkpt lat="45.57948181189412" lon="10.74468456221213"><ele>220.0</ele><time>2026-03-28T13:58:51Z</time></trkpt><trkpt lat="45.57955744657934" lon="10.744748881759676"><ele>219.25</ele><time>2026-03-28T13:58:52Z</time></trkpt><trkpt lat="45.579649831716736" lon="10.744821419610311"><ele>218.5</ele><time>2026-03-28T13:58:53Z</time></trkpt><trkpt lat="45.57975753999153" lon="10.744900683971851"><ele>217.75</ele><time>2026-03-28T13:58:54Z</time></trkpt><trkpt lat="45.57986960248736" lon="10.744991017639029"><ele>217.0</ele><time>2026-03-28T13:58:55Z</time></trkpt><trkpt lat="45.57998147365345" lon="10.745080239115996"><ele>217.0</ele><time>2026-03-28T13:58:56Z</time></trkpt><trkpt lat="45.580102318756474" lon="10.745182140310904"><ele>217.0</ele><time>2026-03-28T13:58:57Z</time></trkpt><trkpt lat="45.58022679435603" lon="10.745289503798679"><ele>217.0</ele><time>2026-03-28T13:58:58Z</time></trkpt><trkpt lat="45.58035872812886" lon="10.745375340413872"><ele>217.0</ele><time>2026-03-28T13:58:59Z</time></trkpt><trkpt lat="45.58048936965777" lon="10.74543314857075"><ele>221.0</ele><time>2026-03-28T13:59:00Z</time></trkpt><trkpt lat="45.58062260765917" lon="10.74546865422482"><ele>225.0</ele><time>2026-03-28T13:59:01Z</time></trkpt><trkpt lat="45.58075554470074" lon="10.74549986847743"><ele>229.0</ele><time>2026-03-28T13:59:02Z</time></trkpt><trkpt lat="45.58088434568629" lon="10.745535709263818"><ele>233.0</ele><time>2026-03-28T13:59:03Z</time></trkpt><trkpt lat="45.581007995100364" lon="10.745571470154838"><ele>233.0</ele><time>2026-03-28T13:59:04Z</time></trkpt><trkpt lat="45.58113040575142" lon="10.745610368066828"><ele>233.0</ele><time>2026-03-28T13:59:05Z</time></trkpt><trkpt lat="45.581253894667086" lon="10.745657761101455"><ele>233.0</ele><time>2026-03-28T13:59:06Z</time></trkpt><trkpt lat="45.58138355444502" lon="10.745712256081095"><ele>233.0</ele><time>2026-03-28T13:59:07Z</time></trkpt><trkpt lat="45.581514230445585" lon="10.745769646970999"><ele>230.75</ele><time>2026-03-28T13:59:08Z</time></trkpt><trkpt lat="45.581646161971626" lon="10.745811990689731"><ele>228.5</ele><time>2026-03-28T13:59:09Z</time></trkpt><trkpt lat="45.58177886769719" lon="10.745832155450817"><ele>226.25</ele><time>2026-03-28T13:59:10Z</time></trkpt><trkpt lat="45.5819108217579" lon="10.7458472718395"><ele>224.0</ele><time>2026-03-28T13:59:11Z</time></trkpt><trkpt lat="45.58203734236316" lon="10.745856964649505"><ele>223.75</ele><time>2026-03-28T13:59:12Z</time></trkpt><trkpt lat="45.58216930170979" lon="10.74587164945006"><ele>223.5</ele><time>2026-03-28T13:59:13Z</time></trkpt><trkpt lat="45.58230051436046" lon="10.74587924015446"><ele>223.25</ele><time>2026-03-28T13:59:14Z</time></trkpt><trkpt lat="45.582431808484124" lon="10.745893055473093"><ele>223.0</ele><time>2026-03-28T13:59:15Z</time></trkpt><trkpt lat="45.58256262653126" lon="10.745904597005577"><ele>223.0</ele><time>2026-03-28T13:59:16Z</time></trkpt><trkpt lat="45.5826921899409" lon="10.745913460694915"><ele>223.0</ele><time>2026-03-28T13:59:17Z</time></trkpt><trkpt lat="45.58282444801521" lon="10.74591404909299"><ele>223.0</ele><time>2026-03-28T13:59:18Z</time></trkpt><trkpt lat="45.582960971118325" lon="10.745912315331283"><ele>223.0</ele><time>2026-03-28T13:59:19Z</time></trkpt><trkpt lat="45.58310127594037" lon="10.745908038234875"><ele>224.25</ele><time>2026-03-28T13:59:20Z</time></trkpt><trkpt lat="45.583242859825326" lon="10.745903013207837"><ele>225.5</ele><time>2026-03-28T13:59:21Z</time></trkpt><trkpt lat="45.58337096866568" lon="10.745897305155681"><ele>226.75</ele><time>2026-03-28T13:59:22Z</time></trkpt><trkpt lat="45.58349801542728" lon="10.745893217565724"><ele>228.0</ele><time>2026-03-28T13:59:23Z</time></trkpt><trkpt lat="45.58362422677386" lon="10.745892341892588"><ele>229.25</ele><time>2026-03-28T13:59:24Z</time></trkpt><trkpt lat="45.58375272176309" lon="10.74589810058883"><ele>230.5</ele><time>2026-03-28T13:59:25Z</time></trkpt><trkpt lat="45.583883641429566" lon="10.745902752283413"><ele>231.75</ele><time>2026-03-28T13:59:26Z</time></trkpt><trkpt lat="45.584008510983466" lon="10.745900720887418"><ele>233.0</ele><time>2026-03-28T13:59:27Z</time></trkpt><trkpt lat="45.584129569473205" lon="10.74588801591206"><ele>233.0</ele><time>2026-03-28T13:59:28Z</time></trkpt><trkpt lat="45.58424932061202" lon="10.745860037635682"><ele>233.0</ele><time>2026-03-28T13:59:29Z</time></trkpt><trkpt lat="45.58436927167638" lon="10.745822930154626"><ele>233.0</ele><time>2026-03-28T13:59:30Z</time></trkpt><trkpt lat="45.584484216626855" lon="10.745771521588383"><ele>233.0</ele><time>2026-03-28T13:59:31Z</time></trkpt><trkpt lat="45.584593525525506" lon="10.745716634676038"><ele>233.60000000000002</ele><time>2026-03-28T13:59:32Z</time></trkpt><trkpt lat="45.58468458961483" lon="10.745663902647813"><ele>234.20000000000002</ele><time>2026-03-28T13:59:33Z</time></trkpt><trkpt lat="45.58476778060867" lon="10.745584784467345"><ele>234.8</ele><time>2026-03-28T13:59:34Z</time></trkpt><trkpt lat="45.58484596274329" lon="10.745485329669634"><ele>235.4</ele><time>2026-03-28T13:59:35Z</time></trkpt><trkpt lat="45.58492916168249" lon="10.74540103953633"><ele>236.0</ele><time>2026-03-28T13:59:36Z</time></trkpt><trkpt lat="45.585016166831174" lon="10.745344694559595"><ele>236.0</ele><time>2026-03-28T13:59:37Z</time></trkpt><trkpt lat="45.58511330044756" lon="10.745307333753553"><ele>236.00000000000003</ele><time>2026-03-28T13:59:38Z</time></trkpt><trkpt lat="45.585208909515714" lon="10.745309336629534"><ele>236.00000000000003</ele><time>2026-03-28T13:59:39Z</time></trkpt><trkpt lat="45.58531544160051" lon="10.745323068971839"><ele>236.0</ele><time>2026-03-28T13:59:40Z</time></trkpt><trkpt lat="45.58542903582649" lon="10.745315754270878"><ele>236.0</ele><time>2026-03-28T13:59:41Z</time></trkpt><trkpt lat="45.585543693294284" lon="10.745335529853897"><ele>236.16666666666669</ele><time>2026-03-28T13:59:42Z</time></trkpt><trkpt lat="45.58563772305371" lon="10.745355380398058"><ele>236.33333333333334</ele><time>2026-03-28T13:59:43Z</time></trkpt><trkpt lat="45.585716942409405" lon="10.745371259359176"><ele>236.5</ele><time>2026-03-28T13:59:44Z</time></trkpt><trkpt lat="45.58579143195972" lon="10.74538456983053"><ele>236.66666666666669</ele><time>2026-03-28T13:59:45Z</time></trkpt><trkpt lat="45.58589078191636" lon="10.745391076116972"><ele>236.83333333333334</ele><time>2026-03-28T13:59:47Z</time></trkpt><trkpt lat="45.585951808556885" lon="10.745414699961422"><ele>237.0</ele><time>2026-03-28T13:59:53Z</time></trkpt><trkpt lat="45.586023307987716" lon="10.745370016188907"><ele>238.2</ele><time>2026-03-28T14:00:15Z</time></trkpt><trkpt lat="45.58604383051773" lon="10.745189928463807"><ele>239.39999999999998</ele><time>2026-03-28T14:00:17Z</time></trkpt><trkpt lat="45.58602518834017" lon="10.745075134480523"><ele>240.60000000000002</ele><time>2026-03-28T14:00:19Z</time></trkpt><trkpt lat="45.58601446705944" lon="10.744939008492926"><ele>241.8</ele><time>2026-03-28T14:00:21Z</time></trkpt><trkpt lat="45.586011879055945" lon="10.74481631823804"><ele>243.0</ele><time>2026-03-28T14:00:23Z</time></trkpt><trkpt lat="45.5860030667326" lon="10.744665123487751"><ele>243.0</ele><time>2026-03-28T14:00:25Z</time></trkpt><trkpt lat="45.58599941210489" lon="10.74454542358688"><ele>243.0</ele><time>2026-03-28T14:00:27Z</time></trkpt><trkpt lat="45.58597290125079" lon="10.744400168495815"><ele>243.0</ele><time>2026-03-28T14:00:34Z</time></trkpt><trkpt lat="45.58595391138192" lon="10.744303539460887"><ele>243.0</ele><time>2026-03-28T14:00:35Z</time></trkpt><trkpt lat="45.58594448530132" lon="10.744178773450109"><ele>243.0</ele><time>2026-03-28T14:00:36Z</time></trkpt><trkpt lat="45.585932095856315" lon="10.744044679349829"><ele>243.0</ele><time>2026-03-28T14:00:37Z</time></trkpt><trkpt lat="45.585923164487696" lon="10.743920933223658"><ele>243.2</ele><time>2026-03-28T14:00:38Z</time></trkpt><trkpt lat="45.58591136996705" lon="10.743797775128906"><ele>243.4</ele><time>2026-03-28T14:00:39Z</time></trkpt><trkpt lat="45.58589073251484" lon="10.743664169997544"><ele>243.59999999999997</ele><time>2026-03-28T14:00:40Z</time></trkpt><trkpt lat="45.58587422141162" lon="10.743529058766065"><ele>243.79999999999998</ele><time>2026-03-28T14:00:41Z</time></trkpt><trkpt lat="45.58586133441155" lon="10.743389162554026"><ele>244.0</ele><time>2026-03-28T14:00:42Z</time></trkpt><trkpt lat="45.5858363245152" lon="10.743255556303081"><ele>243.0</ele><time>2026-03-28T14:00:43Z</time></trkpt><trkpt lat="45.585830643230956" lon="10.743109354868192"><ele>241.99999999999997</ele><time>2026-03-28T14:00:44Z</time></trkpt><trkpt lat="45.585837955036155" lon="10.742967545561402"><ele>240.99999999999997</ele><time>2026-03-28T14:00:45Z</time></trkpt><trkpt lat="45.585851048823635" lon="10.742829404349916"><ele>240.0</ele><time>2026-03-28T14:00:46Z</time></trkpt><trkpt lat="45.58586235326494" lon="10.742689274965521"><ele>239.0</ele><time>2026-03-28T14:00:47Z</time></trkpt><trkpt lat="45.58587120635347" lon="10.74254913780334"><ele>238.0</ele><time>2026-03-28T14:00:48Z</time></trkpt><trkpt lat="45.58588018045442" lon="10.742415424136375"><ele>236.99999999999997</ele><time>2026-03-28T14:00:49Z</time></trkpt><trkpt lat="45.58588006828834" lon="10.742286451228567"><ele>235.99999999999997</ele><time>2026-03-28T14:00:50Z</time></trkpt><trkpt lat="45.585878577637125" lon="10.742159148328833"><ele>235.0</ele><time>2026-03-28T14:00:51Z</time></trkpt><trkpt lat="45.58587133194239" lon="10.742032617895807"><ele>234.0</ele><time>2026-03-28T14:00:52Z</time></trkpt><trkpt lat="45.58586462757246" lon="10.741907596930364"><ele>232.79999999999998</ele><time>2026-03-28T14:00:53Z</time></trkpt><trkpt lat="45.585857353547446" lon="10.74178008771546"><ele>231.59999999999997</ele><time>2026-03-28T14:00:54Z</time></trkpt><trkpt lat="45.58585106456159" lon="10.741649775504182"><ele>230.4</ele><time>2026-03-28T14:00:55Z</time></trkpt><trkpt lat="45.58584892631701" lon="10.74151677604652"><ele>229.2</ele><time>2026-03-28T14:00:56Z</time></trkpt><trkpt lat="45.585851535790376" lon="10.74137897673719"><ele>228.0</ele><time>2026-03-28T14:00:57Z</time></trkpt><trkpt lat="45.585846969919" lon="10.741242048629186"><ele>228.0</ele><time>2026-03-28T14:00:58Z</time></trkpt><trkpt lat="45.58583534179798" lon="10.741097099990252"><ele>228.0</ele><time>2026-03-28T14:00:59Z</time></trkpt><trkpt lat="45.585825350226884" lon="10.740954664532723"><ele>228.0</ele><time>2026-03-28T14:01:00Z</time></trkpt><trkpt lat="45.58581603596102" lon="10.740818797154356"><ele>228.0</ele><time>2026-03-28T14:01:01Z</time></trkpt><trkpt lat="45.58580509002241" lon="10.74069699258023"><ele>228.0</ele><time>2026-03-28T14:01:02Z</time></trkpt><trkpt lat="45.58579529210612" lon="10.740587686742666"><ele>227.83333333333334</ele><time>2026-03-28T14:01:03Z</time></trkpt><trkpt lat="45.5857873525932" lon="10.740494343828903"><ele>227.66666666666669</ele><time>2026-03-28T14:01:04Z</time></trkpt><trkpt lat="45.585775723060415" lon="10.740403545729938"><ele>227.5</ele><time>2026-03-28T14:01:06Z</time></trkpt><trkpt lat="45.58576337370595" lon="10.740306322652806"><ele>227.33333333333334</ele><time>2026-03-28T14:01:08Z</time></trkpt><trkpt lat="45.585770847173336" lon="10.74018390582996"><ele>227.16666666666669</ele><time>2026-03-28T14:01:10Z</time></trkpt><trkpt lat="45.585803629082505" lon="10.740018147974169"><ele>227.0</ele><time>2026-03-28T14:01:12Z</time></trkpt><trkpt lat="45.58578774011" lon="10.739857486150548"><ele>227.00000000000003</ele><time>2026-03-28T14:01:14Z</time></trkpt><trkpt lat="45.585738247579194" lon="10.739719948193345"><ele>227.0</ele><time>2026-03-28T14:01:16Z</time></trkpt><trkpt lat="45.58572514648836" lon="10.73963130539877"><ele>227.0</ele><time>2026-03-28T14:01:17Z</time></trkpt><trkpt lat="45.585715550044085" lon="10.739532533377123"><ele>227.0</ele><time>2026-03-28T14:01:18Z</time></trkpt><trkpt lat="45.585702558901744" lon="10.739429114112378"><ele>227.00000000000003</ele><time>2026-03-28T14:01:19Z</time></trkpt><trkpt lat="45.58568870834629" lon="10.739317712592618"><ele>227.0</ele><time>2026-03-28T14:01:20Z</time></trkpt><trkpt lat="45.58566366847004" lon="10.739193064464272"><ele>227.0</ele><time>2026-03-28T14:01:21Z</time></trkpt><trkpt lat="45.585627752481805" lon="10.739072886245548"><ele>227.0</ele><time>2026-03-28T14:01:22Z</time></trkpt><trkpt lat="45.58559059709618" lon="10.738958388781523"><ele>227.0</ele><time>2026-03-28T14:01:23Z</time></trkpt><trkpt lat="45.585555387048586" lon="10.738837523476105"><ele>227.0</ele><time>2026-03-28T14:01:24Z</time></trkpt><trkpt lat="45.585516477415275" lon="10.738704213955671"><ele>227.0</ele><time>2026-03-28T14:01:25Z</time></trkpt><trkpt lat="45.58547821911151" lon="10.738560272205538"><ele>226.5</ele><time>2026-03-28T14:01:26Z</time></trkpt><trkpt lat="45.5854375309531" lon="10.73841038316405"><ele>226.0</ele><time>2026-03-28T14:01:27Z</time></trkpt><trkpt lat="45.585398309425045" lon="10.738255057911916"><ele>225.5</ele><time>2026-03-28T14:01:28Z</time></trkpt><trkpt lat="45.5853593390567" lon="10.738099481765861"><ele>225.0</ele><time>2026-03-28T14:01:29Z</time></trkpt><trkpt lat="45.58532199374543" lon="10.737944352807475"><ele>222.25</ele><time>2026-03-28T14:01:30Z</time></trkpt><trkpt lat="45.585288300541066" lon="10.737784060025705"><ele>219.5</ele><time>2026-03-28T14:01:31Z</time></trkpt><trkpt lat="45.585260506651366" lon="10.737619109497322"><ele>216.75</ele><time>2026-03-28T14:01:32Z</time></trkpt><trkpt lat="45.585241392598725" lon="10.737452662762902"><ele>214.0</ele><time>2026-03-28T14:01:33Z</time></trkpt><trkpt lat="45.585229994368994" lon="10.737288292718324"><ele>213.0</ele><time>2026-03-28T14:01:34Z</time></trkpt><trkpt lat="45.5852321263986" lon="10.73711925285828"><ele>212.0</ele><time>2026-03-28T14:01:35Z</time></trkpt><trkpt lat="45.585243765650766" lon="10.73695492874306"><ele>211.0</ele><time>2026-03-28T14:01:36Z</time></trkpt><trkpt lat="45.58526582350122" lon="10.736794655308744"><ele>210.0</ele><time>2026-03-28T14:01:37Z</time></trkpt><trkpt lat="45.58529472341352" lon="10.736636157366124"><ele>210.75</ele><time>2026-03-28T14:01:38Z</time></trkpt><trkpt lat="45.585331779365454" lon="10.73647316264587"><ele>211.5</ele><time>2026-03-28T14:01:39Z</time></trkpt><trkpt lat="45.58538246483506" lon="10.73630903800395"><ele>212.25</ele><time>2026-03-28T14:01:40Z</time></trkpt><trkpt lat="45.585430169912435" lon="10.736147800433596"><ele>213.0</ele><time>2026-03-28T14:01:41Z</time></trkpt><trkpt lat="45.58548058559934" lon="10.735983186396512"><ele>213.0</ele><time>2026-03-28T14:01:42Z</time></trkpt><trkpt lat="45.585526677638946" lon="10.735823307831618"><ele>213.0</ele><time>2026-03-28T14:01:43Z</time></trkpt><trkpt lat="45.585574004038385" lon="10.73565370689659"><ele>213.0</ele><time>2026-03-28T14:01:44Z</time></trkpt><trkpt lat="45.58561741602364" lon="10.735481274955784"><ele>213.0</ele><time>2026-03-28T14:01:45Z</time></trkpt><trkpt lat="45.58565094504395" lon="10.735308357494484"><ele>211.5</ele><time>2026-03-28T14:01:46Z</time></trkpt><trkpt lat="45.58567883487801" lon="10.735133186564946"><ele>210.0</ele><time>2026-03-28T14:01:47Z</time></trkpt><trkpt lat="45.58569836996377" lon="10.73495483685135"><ele>208.5</ele><time>2026-03-28T14:01:48Z</time></trkpt><trkpt lat="45.585714453841355" lon="10.7347759254238"><ele>207.0</ele><time>2026-03-28T14:01:49Z</time></trkpt><trkpt lat="45.58572710825733" lon="10.734590950388162"><ele>207.0</ele><time>2026-03-28T14:01:50Z</time></trkpt><trkpt lat="45.58573926327379" lon="10.734418281610825"><ele>207.0</ele><time>2026-03-28T14:01:51Z</time></trkpt><trkpt lat="45.58574679125359" lon="10.73424505768268"><ele>207.0</ele><time>2026-03-28T14:01:52Z</time></trkpt><trkpt lat="45.585757192895116" lon="10.73407219373471"><ele>207.0</ele><time>2026-03-28T14:01:53Z</time></trkpt><trkpt lat="45.58576461162593" lon="10.733903326337417"><ele>205.6</ele><time>2026-03-28T14:01:54Z</time></trkpt><trkpt lat="45.58577143401793" lon="10.733741616878785"><ele>204.2</ele><time>2026-03-28T14:01:55Z</time></trkpt><trkpt lat="45.58576376439187" lon="10.733584603252536"><ele>202.8</ele><time>2026-03-28T14:01:56Z</time></trkpt><trkpt lat="45.58573583914049" lon="10.733434420818968"><ele>201.4</ele><time>2026-03-28T14:01:57Z</time></trkpt><trkpt lat="45.58567990752425" lon="10.73331107409052"><ele>200.0</ele><time>2026-03-28T14:01:58Z</time></trkpt><trkpt lat="45.585603466176366" lon="10.733206171560571"><ele>199.8</ele><time>2026-03-28T14:01:59Z</time></trkpt><trkpt lat="45.585513049798585" lon="10.733134140705802"><ele>199.6</ele><time>2026-03-28T14:02:00Z</time></trkpt><trkpt lat="45.58542471776141" lon="10.73307747336876"><ele>199.39999999999998</ele><time>2026-03-28T14:02:01Z</time></trkpt><trkpt lat="45.5853370654316" lon="10.733022931633592"><ele>199.2</ele><time>2026-03-28T14:02:02Z</time></trkpt><trkpt lat="45.58526249341013" lon="10.73293226413505"><ele>199.0</ele><time>2026-03-28T14:02:03Z</time></trkpt><trkpt lat="45.585184902727846" lon="10.732841397239852"><ele>196.2</ele><time>2026-03-28T14:02:04Z</time></trkpt><trkpt lat="45.58510790468092" lon="10.732762379944026"><ele>193.39999999999998</ele><time>2026-03-28T14:02:05Z</time></trkpt><trkpt lat="45.5850514642166" lon="10.732636587213879"><ele>190.6</ele><time>2026-03-28T14:02:06Z</time></trkpt><trkpt lat="45.5850014749504" lon="10.732511824076509"><ele>187.8</ele><time>2026-03-28T14:02:07Z</time></trkpt><trkpt lat="45.58496039345746" lon="10.732382513516136"><ele>185.0</ele><time>2026-03-28T14:02:08Z</time></trkpt><trkpt lat="45.58493530158696" lon="10.732250648202454"><ele>185.0</ele><time>2026-03-28T14:02:09Z</time></trkpt><trkpt lat="45.58492942998612" lon="10.732118925408004"><ele>185.0</ele><time>2026-03-28T14:02:10Z</time></trkpt><trkpt lat="45.58492887769894" lon="10.732003346489005"><ele>185.0</ele><time>2026-03-28T14:02:11Z</time></trkpt><trkpt lat="45.58490059877447" lon="10.731904591930654"><ele>185.0</ele><time>2026-03-28T14:02:12Z</time></trkpt><trkpt lat="45.58484562064843" lon="10.731845880179108"><ele>185.0</ele><time>2026-03-28T14:02:13Z</time></trkpt><trkpt lat="45.58473493574269" lon="10.731870107727708"><ele>185.0</ele><time>2026-03-28T14:02:15Z</time></trkpt><trkpt lat="45.584682418407894" lon="10.731990838551116"><ele>185.0</ele><time>2026-03-28T14:02:17Z</time></trkpt><trkpt lat="45.584662821343095" lon="10.732125374425333"><ele>185.0</ele><time>2026-03-28T14:02:19Z</time></trkpt><trkpt lat="45.58464599953289" lon="10.732276607325563"><ele>185.0</ele><time>2026-03-28T14:02:21Z</time></trkpt><trkpt lat="45.58463783279669" lon="10.732444423213504"><ele>185.0</ele><time>2026-03-28T14:02:23Z</time></trkpt><trkpt lat="45.58462947478595" lon="10.732591728506574"><ele>185.0</ele><time>2026-03-28T14:02:25Z</time></trkpt><trkpt lat="45.584604447048704" lon="10.73271183892652"><ele>185.0</ele><time>2026-03-28T14:02:27Z</time></trkpt><trkpt lat="45.58452264534235" lon="10.732713835929449"><ele>185.0</ele><time>2026-03-28T14:02:29Z</time></trkpt><trkpt lat="45.58448032371752" lon="10.732642421286082"><ele>185.0</ele><time>2026-03-28T14:02:30Z</time></trkpt><trkpt lat="45.58447669306889" lon="10.732537704390165"><ele>185.0</ele><time>2026-03-28T14:02:31Z</time></trkpt><trkpt lat="45.58449474722024" lon="10.73243423961608"><ele>185.0</ele><time>2026-03-28T14:02:32Z</time></trkpt><trkpt lat="45.5845052139404" lon="10.73231947625132"><ele>185.0</ele><time>2026-03-28T14:02:33Z</time></trkpt><trkpt lat="45.584512351937946" lon="10.73219956934689"><ele>185.0</ele><time>2026-03-28T14:02:34Z</time></trkpt><trkpt lat="45.58451819806017" lon="10.732068933233357"><ele>185.0</ele><time>2026-03-28T14:02:35Z</time></trkpt><trkpt lat="45.58452373281121" lon="10.731920284933127"><ele>185.0</ele><time>2026-03-28T14:02:36Z</time></trkpt><trkpt lat="45.58452390974395" lon="10.731767640838774"><ele>185.0</ele><time>2026-03-28T14:02:37Z</time></trkpt><trkpt lat="45.584521575482725" lon="10.731610123358733"><ele>185.0</ele><time>2026-03-28T14:02:38Z</time></trkpt><trkpt lat="45.58451039941885" lon="10.731449888527496"><ele>179.4</ele><time>2026-03-28T14:02:39Z</time></trkpt><trkpt lat="45.58449344740464" lon="10.731291531687125"><ele>173.8</ele><time>2026-03-28T14:02:40Z</time></trkpt><trkpt lat="45.58447206110122" lon="10.731140715876084"><ele>168.2</ele><time>2026-03-28T14:02:41Z</time></trkpt><trkpt lat="45.58444775955734" lon="10.730995302862588"><ele>162.6</ele><time>2026-03-28T14:02:42Z</time></trkpt><trkpt lat="45.58442673923753" lon="10.730851664495324"><ele>157.0</ele><time>2026-03-28T14:02:43Z</time></trkpt><trkpt lat="45.58441057044962" lon="10.730708175597751"><ele>157.0</ele><time>2026-03-28T14:02:44Z</time></trkpt><trkpt lat="45.58439900169678" lon="10.730565744942934"><ele>157.0</ele><time>2026-03-28T14:02:45Z</time></trkpt><trkpt lat="45.5843865326663" lon="10.73041568985451"><ele>157.0</ele><time>2026-03-28T14:02:46Z</time></trkpt><trkpt lat="45.58436966120039" lon="10.730258346785428"><ele>157.0</ele><time>2026-03-28T14:02:47Z</time></trkpt><trkpt lat="45.58434900721103" lon="10.730095099764496"><ele>157.0</ele><time>2026-03-28T14:02:48Z</time></trkpt><trkpt lat="45.584328033143635" lon="10.729925682997356"><ele>156.5</ele><time>2026-03-28T14:02:49Z</time></trkpt><trkpt lat="45.58430054149718" lon="10.729752380717036"><ele>156.0</ele><time>2026-03-28T14:02:50Z</time></trkpt><trkpt lat="45.58427784154478" lon="10.729580750787623"><ele>155.5</ele><time>2026-03-28T14:02:51Z</time></trkpt><trkpt lat="45.58425744200733" lon="10.729417287061835"><ele>155.0</ele><time>2026-03-28T14:02:52Z</time></trkpt><trkpt lat="45.58423766552664" lon="10.729264620729882"><ele>154.4</ele><time>2026-03-28T14:02:53Z</time></trkpt><trkpt lat="45.58421336461655" lon="10.729113680826204"><ele>153.8</ele><time>2026-03-28T14:02:54Z</time></trkpt><trkpt lat="45.584176576269805" lon="10.728967241092475"><ele>153.2</ele><time>2026-03-28T14:02:55Z</time></trkpt><trkpt lat="45.584121791894695" lon="10.72882661705071"><ele>152.6</ele><time>2026-03-28T14:02:56Z</time></trkpt><trkpt lat="45.584048312624866" lon="10.728704269522321"><ele>152.0</ele><time>2026-03-28T14:02:57Z</time></trkpt><trkpt lat="45.58396898103729" lon="10.728588826869268"><ele>151.25</ele><time>2026-03-28T14:02:58Z</time></trkpt><trkpt lat="45.58387057126933" lon="10.72848242550902"><ele>150.5</ele><time>2026-03-28T14:02:59Z</time></trkpt><trkpt lat="45.58378505999247" lon="10.72837677438989"><ele>149.75</ele><time>2026-03-28T14:03:00Z</time></trkpt><trkpt lat="45.583708302757614" lon="10.728256154830257"><ele>149.0</ele><time>2026-03-28T14:03:01Z</time></trkpt><trkpt lat="45.58365665236292" lon="10.728116560165398"><ele>146.0</ele><time>2026-03-28T14:03:02Z</time></trkpt><trkpt lat="45.58362431477582" lon="10.727968502899541"><ele>143.0</ele><time>2026-03-28T14:03:03Z</time></trkpt><trkpt lat="45.58360089690785" lon="10.727814001460771"><ele>140.0</ele><time>2026-03-28T14:03:04Z</time></trkpt><trkpt lat="45.583581810953824" lon="10.727651807601475"><ele>137.0</ele><time>2026-03-28T14:03:05Z</time></trkpt><trkpt lat="45.58356319926093" lon="10.727495617574968"><ele>134.0</ele><time>2026-03-28T14:03:06Z</time></trkpt><trkpt lat="45.58354478377066" lon="10.727341828856838"><ele>133.4</ele><time>2026-03-28T14:03:07Z</time></trkpt><trkpt lat="45.58352492525765" lon="10.72719099080859"><ele>132.8</ele><time>2026-03-28T14:03:08Z</time></trkpt><trkpt lat="45.58350517964907" lon="10.727037063815208"><ele>132.2</ele><time>2026-03-28T14:03:09Z</time></trkpt><trkpt lat="45.58348365506268" lon="10.7268868804583"><ele>131.6</ele><time>2026-03-28T14:03:10Z</time></trkpt><trkpt lat="45.58346311660716" lon="10.72672930130282"><ele>131.0</ele><time>2026-03-28T14:03:11Z</time></trkpt><trkpt lat="45.58344296994756" lon="10.726571791119191"><ele>130.6</ele><time>2026-03-28T14:03:12Z</time></trkpt><trkpt lat="45.58342374849198" lon="10.726418055894152"><ele>130.2</ele><time>2026-03-28T14:03:13Z</time></trkpt><trkpt lat="45.583401095452096" lon="10.72626432638562"><ele>129.8</ele><time>2026-03-28T14:03:14Z</time></trkpt><trkpt lat="45.583379844344165" lon="10.726111307226887"><ele>129.4</ele><time>2026-03-28T14:03:15Z</time></trkpt><trkpt lat="45.58334368269028" lon="10.725981934005006"><ele>129.0</ele><time>2026-03-28T14:03:16Z</time></trkpt><trkpt lat="45.58329689800911" lon="10.725870256763598"><ele>128.83333333333334</ele><time>2026-03-28T14:03:17Z</time></trkpt><trkpt lat="45.583241907720875" lon="10.725780017686846"><ele>128.66666666666666</ele><time>2026-03-28T14:03:18Z</time></trkpt><trkpt lat="45.58319496545447" lon="10.725701456473555"><ele>128.5</ele><time>2026-03-28T14:03:19Z</time></trkpt><trkpt lat="45.58312653299257" lon="10.725579436069074"><ele>128.33333333333331</ele><time>2026-03-28T14:03:21Z</time></trkpt><trkpt lat="45.583149435508695" lon="10.725492122603244"><ele>128.16666666666666</ele><time>2026-03-28T14:03:23Z</time></trkpt><trkpt lat="45.583230929880564" lon="10.725462509141208"><ele>128.0</ele><time>2026-03-28T14:03:25Z</time></trkpt><trkpt lat="45.58330333706249" lon="10.725466899173085"><ele>128.0</ele><time>2026-03-28T14:03:28Z</time></trkpt><trkpt lat="45.583407387748565" lon="10.725428328042721"><ele>128.0</ele><time>2026-03-28T14:03:30Z</time></trkpt><trkpt lat="45.583537196624754" lon="10.725402053729102"><ele>128.0</ele><time>2026-03-28T14:03:32Z</time></trkpt><trkpt lat="45.58363035759249" lon="10.72538869659861"><ele>128.0</ele><time>2026-03-28T14:03:34Z</time></trkpt><trkpt lat="45.583702975195834" lon="10.725372721056546"><ele>128.0</ele><time>2026-03-28T14:03:36Z</time></trkpt><trkpt lat="45.58362732375089" lon="10.72539725547782"><ele>127.5</ele><time>2026-03-28T14:03:41Z</time></trkpt><trkpt lat="45.583611329059856" lon="10.725040812090363"><ele>127.0</ele><time>2026-03-28T14:03:46Z</time></trkpt><trkpt lat="45.58364886209991" lon="10.72495350492225"><ele>126.5</ele><time>2026-03-28T14:03:47Z</time></trkpt><trkpt lat="45.58367669040474" lon="10.724853263811372"><ele>126.0</ele><time>2026-03-28T14:03:48Z</time></trkpt><trkpt lat="45.583696644806295" lon="10.724753426977816"><ele>126.66666666666667</ele><time>2026-03-28T14:03:49Z</time></trkpt><trkpt lat="45.583719491123375" lon="10.72466453945143"><ele>127.33333333333334</ele><time>2026-03-28T14:03:50Z</time></trkpt><trkpt lat="45.583748448421844" lon="10.724583444283551"><ele>128.0</ele><time>2026-03-28T14:03:51Z</time></trkpt><trkpt lat="45.583786779876256" lon="10.724497222595858"><ele>128.66666666666669</ele><time>2026-03-28T14:03:52Z</time></trkpt><trkpt lat="45.58384329817443" lon="10.72439741250164"><ele>129.33333333333334</ele><time>2026-03-28T14:03:53Z</time></trkpt><trkpt lat="45.583920850916044" lon="10.72428343180408"><ele>130.0</ele><time>2026-03-28T14:03:54Z</time></trkpt><trkpt lat="45.58400275809666" lon="10.724160252923895"><ele>130.2</ele><time>2026-03-28T14:03:55Z</time></trkpt><trkpt lat="45.58408145525648" lon="10.724034799822167"><ele>130.4</ele><time>2026-03-28T14:03:56Z</time></trkpt><trkpt lat="45.58414960155401" lon="10.723926672206318"><ele>130.6</ele><time>2026-03-28T14:03:57Z</time></trkpt><trkpt lat="45.5842068669916" lon="10.723837858888237"><ele>130.8</ele><time>2026-03-28T14:03:58Z</time></trkpt><trkpt lat="45.58426811199782" lon="10.723749436525173"><ele>131.0</ele><time>2026-03-28T14:03:59Z</time></trkpt><trkpt lat="45.58433353228276" lon="10.723675759100747"><ele>131.0</ele><time>2026-03-28T14:04:00Z</time></trkpt><trkpt lat="45.584388670530316" lon="10.723621387553342"><ele>131.0</ele><time>2026-03-28T14:04:01Z</time></trkpt><trkpt lat="45.58445036811305" lon="10.723573080177493"><ele>131.0</ele><time>2026-03-28T14:04:02Z</time></trkpt><trkpt lat="45.5845201792849" lon="10.723535646315737"><ele>131.0</ele><time>2026-03-28T14:04:03Z</time></trkpt><trkpt lat="45.5845906985925" lon="10.723520213592456"><ele>131.0</ele><time>2026-03-28T14:04:04Z</time></trkpt><trkpt lat="45.584654208378986" lon="10.723552511489405"><ele>131.0</ele><time>2026-03-28T14:04:05Z</time></trkpt><trkpt lat="45.58470331426465" lon="10.723612202139932"><ele>131.0</ele><time>2026-03-28T14:04:06Z</time></trkpt><trkpt lat="45.58474407029462" lon="10.723702440926367"><ele>134.0</ele><time>2026-03-28T14:04:07Z</time></trkpt><trkpt lat="45.5847765888716" lon="10.72380681216819"><ele>137.0</ele><time>2026-03-28T14:04:08Z</time></trkpt><trkpt lat="45.584831094086276" lon="10.723898723514777"><ele>140.0</ele><time>2026-03-28T14:04:09Z</time></trkpt><trkpt lat="45.58490222768603" lon="10.723967201188156"><ele>143.0</ele><time>2026-03-28T14:04:10Z</time></trkpt><trkpt lat="45.58496937039847" lon="10.724023104303061"><ele>146.0</ele><time>2026-03-28T14:04:11Z</time></trkpt><trkpt lat="45.58504920181557" lon="10.724059583031721"><ele>149.0</ele><time>2026-03-28T14:04:12Z</time></trkpt><trkpt lat="45.58513162498137" lon="10.724066154600669"><ele>149.0</ele><time>2026-03-28T14:04:13Z</time></trkpt><trkpt lat="45.585210933790044" lon="10.724069921353797"><ele>149.0</ele><time>2026-03-28T14:04:14Z</time></trkpt><trkpt lat="45.585289500262945" lon="10.72406820445933"><ele>149.0</ele><time>2026-03-28T14:04:15Z</time></trkpt><trkpt lat="45.585358690971326" lon="10.724078504949878"><ele>149.0</ele><time>2026-03-28T14:04:16Z</time></trkpt><trkpt lat="45.58542869213629" lon="10.724116054378511"><ele>149.0</ele><time>2026-03-28T14:04:17Z</time></trkpt><trkpt lat="45.5854971030545" lon="10.724173265240012"><ele>149.0</ele><time>2026-03-28T14:04:18Z</time></trkpt><trkpt lat="45.585567747201345" lon="10.724238251067094"><ele>149.85714285714286</ele><time>2026-03-28T14:04:19Z</time></trkpt><trkpt lat="45.58563190602234" lon="10.72428679458683"><ele>150.7142857142857</ele><time>2026-03-28T14:04:20Z</time></trkpt><trkpt lat="45.58569379583352" lon="10.724334225593365"><ele>151.57142857142856</ele><time>2026-03-28T14:04:21Z</time></trkpt><trkpt lat="45.585758526097166" lon="10.724378217345789"><ele>152.42857142857142</ele><time>2026-03-28T14:04:22Z</time></trkpt><trkpt lat="45.585826007199785" lon="10.724418322308361"><ele>153.28571428571428</ele><time>2026-03-28T14:04:23Z</time></trkpt><trkpt lat="45.58590441286065" lon="10.724435229368867"><ele>154.14285714285714</ele><time>2026-03-28T14:04:24Z</time></trkpt><trkpt lat="45.585961594795265" lon="10.7244866266285"><ele>155.0</ele><time>2026-03-28T14:04:25Z</time></trkpt><trkpt lat="45.586018254567904" lon="10.724569585574729"><ele>155.0</ele><time>2026-03-28T14:04:26Z</time></trkpt><trkpt lat="45.58608007300904" lon="10.724632500170506"><ele>155.0</ele><time>2026-03-28T14:04:27Z</time></trkpt><trkpt lat="45.58614412663669" lon="10.724689309398155"><ele>155.0</ele><time>2026-03-28T14:04:28Z</time></trkpt><trkpt lat="45.586207929888296" lon="10.724736956194912"><ele>155.0</ele><time>2026-03-28T14:04:29Z</time></trkpt><trkpt lat="45.58628700266682" lon="10.724764203532716"><ele>155.0</ele><time>2026-03-28T14:04:30Z</time></trkpt><trkpt lat="45.58635046281788" lon="10.72480098644399"><ele>155.0</ele><time>2026-03-28T14:04:31Z</time></trkpt><trkpt lat="45.58642491337906" lon="10.724846323360936"><ele>159.16666666666666</ele><time>2026-03-28T14:04:32Z</time></trkpt><trkpt lat="45.58650785281026" lon="10.724884319927513"><ele>163.33333333333331</ele><time>2026-03-28T14:04:33Z</time></trkpt><trkpt lat="45.5865959328642" lon="10.724925426988452"><ele>167.5</ele><time>2026-03-28T14:04:34Z</time></trkpt><trkpt lat="45.58667974818013" lon="10.724964275727164"><ele>171.66666666666666</ele><time>2026-03-28T14:04:35Z</time></trkpt><trkpt lat="45.5867613585705" lon="10.725000414380155"><ele>175.83333333333334</ele><time>2026-03-28T14:04:36Z</time></trkpt><trkpt lat="45.58684405233182" lon="10.725042530927446"><ele>180.0</ele><time>2026-03-28T14:04:37Z</time></trkpt><trkpt lat="45.586917012461804" lon="10.725080013907203"><ele>180.0</ele><time>2026-03-28T14:04:38Z</time></trkpt><trkpt lat="45.58700939373137" lon="10.725122216972027"><ele>180.0</ele><time>2026-03-28T14:04:40Z</time></trkpt><trkpt lat="45.58707711181118" lon="10.725113004341939"><ele>180.0</ele><time>2026-03-28T14:04:43Z</time></trkpt><trkpt lat="45.58708939152178" lon="10.724971157165912"><ele>180.0</ele><time>2026-03-28T14:04:44Z</time></trkpt><trkpt lat="45.58710205543061" lon="10.724862421501253"><ele>180.0</ele><time>2026-03-28T14:04:45Z</time></trkpt><trkpt lat="45.58712150135866" lon="10.724770369352976"><ele>180.0</ele><time>2026-03-28T14:04:46Z</time></trkpt><trkpt lat="45.587135784662365" lon="10.724657704236623"><ele>183.5</ele><time>2026-03-28T14:04:47Z</time></trkpt><trkpt lat="45.58715405296947" lon="10.72453630236324"><ele>187.0</ele><time>2026-03-28T14:04:48Z</time></trkpt><trkpt lat="45.587167707623074" lon="10.724410538750673"><ele>190.5</ele><time>2026-03-28T14:04:49Z</time></trkpt><trkpt lat="45.58718593565466" lon="10.724297822437421"><ele>194.0</ele><time>2026-03-28T14:04:50Z</time></trkpt><trkpt lat="45.58720311739131" lon="10.72418194411729"><ele>197.5</ele><time>2026-03-28T14:04:51Z</time></trkpt><trkpt lat="45.58721094188051" lon="10.724048577947405"><ele>201.0</ele><time>2026-03-28T14:04:52Z</time></trkpt><trkpt lat="45.587218544352595" lon="10.723918746224784"><ele>201.0</ele><time>2026-03-28T14:04:53Z</time></trkpt><trkpt lat="45.587227287792096" lon="10.723772930627415"><ele>201.0</ele><time>2026-03-28T14:04:54Z</time></trkpt><trkpt lat="45.58723780338831" lon="10.72364154999362"><ele>201.0</ele><time>2026-03-28T14:04:55Z</time></trkpt><trkpt lat="45.58723954725941" lon="10.723499577489209"><ele>201.0</ele><time>2026-03-28T14:04:56Z</time></trkpt><trkpt lat="45.58724117631565" lon="10.723364105625297"><ele>201.0</ele><time>2026-03-28T14:04:57Z</time></trkpt><trkpt lat="45.58723795639684" lon="10.723237908596479"><ele>200.8</ele><time>2026-03-28T14:04:58Z</time></trkpt><trkpt lat="45.58723622729585" lon="10.723105842131416"><ele>200.60000000000002</ele><time>2026-03-28T14:04:59Z</time></trkpt><trkpt lat="45.587229278824296" lon="10.722964002020536"><ele>200.4</ele><time>2026-03-28T14:05:00Z</time></trkpt><trkpt lat="45.587219861663534" lon="10.72283385422281"><ele>200.2</ele><time>2026-03-28T14:05:01Z</time></trkpt><trkpt lat="45.58721237833912" lon="10.722707981153489"><ele>200.0</ele><time>2026-03-28T14:05:02Z</time></trkpt><trkpt lat="45.58719643810193" lon="10.72258746540174"><ele>200.00000000000003</ele><time>2026-03-28T14:05:03Z</time></trkpt><trkpt lat="45.58717371285872" lon="10.72248712086225"><ele>200.0</ele><time>2026-03-28T14:05:04Z</time></trkpt><trkpt lat="45.58713816819159" lon="10.722334276119188"><ele>200.0</ele><time>2026-03-28T14:05:06Z</time></trkpt><trkpt lat="45.58708909632811" lon="10.722257065174079"><ele>200.0</ele><time>2026-03-28T14:05:07Z</time></trkpt><trkpt lat="45.58701530365468" lon="10.722222753678675"><ele>200.00000000000003</ele><time>2026-03-28T14:05:08Z</time></trkpt><trkpt lat="45.58694202711929" lon="10.722229042527482"><ele>200.0</ele><time>2026-03-28T14:05:09Z</time></trkpt><trkpt lat="45.586874279121204" lon="10.722237288308337"><ele>195.4</ele><time>2026-03-28T14:05:10Z</time></trkpt><trkpt lat="45.5868099116003" lon="10.722244334445682"><ele>190.8</ele><time>2026-03-28T14:05:11Z</time></trkpt><trkpt lat="45.58669728501904" lon="10.72225177378795"><ele>186.2</ele><time>2026-03-28T14:05:13Z</time></trkpt><trkpt lat="45.58662312082755" lon="10.72225044454693"><ele>181.6</ele><time>2026-03-28T14:05:15Z</time></trkpt><trkpt lat="45.5865537633219" lon="10.722112465574138"><ele>177.0</ele><time>2026-03-28T14:05:18Z</time></trkpt><trkpt lat="45.58651352358875" lon="10.722005371186743"><ele>177.39999999999998</ele><time>2026-03-28T14:05:19Z</time></trkpt><trkpt lat="45.586492084717385" lon="10.721877244926576"><ele>177.79999999999998</ele><time>2026-03-28T14:05:20Z</time></trkpt><trkpt lat="45.586477067024795" lon="10.721723165875725"><ele>178.2</ele><time>2026-03-28T14:05:21Z</time></trkpt><trkpt lat="45.58646439678119" lon="10.721575941621508"><ele>178.6</ele><time>2026-03-28T14:05:22Z</time></trkpt><trkpt lat="45.586450222067896" lon="10.721420141998536"><ele>179.0</ele><time>2026-03-28T14:05:23Z</time></trkpt><trkpt lat="45.58643757021933" lon="10.721272897135455"><ele>179.0</ele><time>2026-03-28T14:05:24Z</time></trkpt><trkpt lat="45.58642350212264" lon="10.721120035491776"><ele>179.0</ele><time>2026-03-28T14:05:25Z</time></trkpt><trkpt lat="45.5864106853476" lon="10.720974225393455"><ele>179.0</ele><time>2026-03-28T14:05:26Z</time></trkpt><trkpt lat="45.586415707128396" lon="10.720830456827807"><ele>179.0</ele><time>2026-03-28T14:05:27Z</time></trkpt><trkpt lat="45.586411789493305" lon="10.720716336282964"><ele>179.0</ele><time>2026-03-28T14:05:28Z</time></trkpt><trkpt lat="45.586397453849344" lon="10.72060651206529"><ele>179.5</ele><time>2026-03-28T14:05:29Z</time></trkpt><trkpt lat="45.586395355321486" lon="10.720486102667563"><ele>180.0</ele><time>2026-03-28T14:05:30Z</time></trkpt><trkpt lat="45.586393868723036" lon="10.72037990041582"><ele>180.5</ele><time>2026-03-28T14:05:31Z</time></trkpt><trkpt lat="45.58638909710289" lon="10.720270020763262"><ele>181.0</ele><time>2026-03-28T14:05:32Z</time></trkpt><trkpt lat="45.58638394603496" lon="10.720153081062323"><ele>181.5</ele><time>2026-03-28T14:05:33Z</time></trkpt><trkpt lat="45.58638031174018" lon="10.7200255108306"><ele>182.0</ele><time>2026-03-28T14:05:34Z</time></trkpt><trkpt lat="45.586375736315915" lon="10.719912549769665"><ele>182.33333333333331</ele><time>2026-03-28T14:05:35Z</time></trkpt><trkpt lat="45.58637197149212" lon="10.719798221837523"><ele>182.66666666666666</ele><time>2026-03-28T14:05:36Z</time></trkpt><trkpt lat="45.58636673191614" lon="10.719683818243489"><ele>183.0</ele><time>2026-03-28T14:05:37Z</time></trkpt><trkpt lat="45.586364955710835" lon="10.719565456381815"><ele>183.33333333333334</ele><time>2026-03-28T14:05:38Z</time></trkpt><trkpt lat="45.58636384181283" lon="10.719464382717634"><ele>183.66666666666669</ele><time>2026-03-28T14:05:39Z</time></trkpt><trkpt lat="45.58635919919976" lon="10.719326548265304"><ele>184.0</ele><time>2026-03-28T14:05:41Z</time></trkpt><trkpt lat="45.586255104589284" lon="10.719245666444214"><ele>184.33333333333334</ele><time>2026-03-28T14:05:44Z</time></trkpt><trkpt lat="45.58618477258976" lon="10.719260632104822"><ele>184.66666666666669</ele><time>2026-03-28T14:05:45Z</time></trkpt><trkpt lat="45.586106321199374" lon="10.719264240466167"><ele>185.0</ele><time>2026-03-28T14:05:46Z</time></trkpt><trkpt lat="45.58600016688319" lon="10.719271962743768"><ele>185.33333333333334</ele><time>2026-03-28T14:05:47Z</time></trkpt><trkpt lat="45.585903469008095" lon="10.719271241014251"><ele>185.66666666666666</ele><time>2026-03-28T14:05:48Z</time></trkpt><trkpt lat="45.585811351954725" lon="10.719265093015515"><ele>186.0</ele><time>2026-03-28T14:05:49Z</time></trkpt><trkpt lat="45.58571982010294" lon="10.719238916683105"><ele>183.83333333333334</ele><time>2026-03-28T14:05:50Z</time></trkpt><trkpt lat="45.58563328606192" lon="10.71918772267056"><ele>181.66666666666666</ele><time>2026-03-28T14:05:51Z</time></trkpt><trkpt lat="45.58555632472022" lon="10.71911584404726"><ele>179.5</ele><time>2026-03-28T14:05:52Z</time></trkpt><trkpt lat="45.58551154740979" lon="10.719028938119006"><ele>177.33333333333331</ele><time>2026-03-28T14:05:53Z</time></trkpt><trkpt lat="45.585510624479845" lon="10.71889704482535"><ele>175.16666666666666</ele><time>2026-03-28T14:05:54Z</time></trkpt><trkpt lat="45.585469087551985" lon="10.718804577581853"><ele>173.0</ele><time>2026-03-28T14:05:55Z</time></trkpt><trkpt lat="45.58540541856567" lon="10.718739640138951"><ele>170.16666666666666</ele><time>2026-03-28T14:05:56Z</time></trkpt><trkpt lat="45.58533030740071" lon="10.718699566655097"><ele>167.33333333333331</ele><time>2026-03-28T14:05:57Z</time></trkpt><trkpt lat="45.58526184996389" lon="10.718706298270407"><ele>164.5</ele><time>2026-03-28T14:05:58Z</time></trkpt><trkpt lat="45.58518195873063" lon="10.718745920652694"><ele>161.66666666666666</ele><time>2026-03-28T14:05:59Z</time></trkpt><trkpt lat="45.58511147042014" lon="10.718769988259666"><ele>158.83333333333334</ele><time>2026-03-28T14:06:00Z</time></trkpt><trkpt lat="45.58503203409566" lon="10.718789299654151"><ele>156.0</ele><time>2026-03-28T14:06:01Z</time></trkpt><trkpt lat="45.5849477543705" lon="10.718783067109458"><ele>156.0</ele><time>2026-03-28T14:06:02Z</time></trkpt><trkpt lat="45.58486637952453" lon="10.718752829714475"><ele>156.0</ele><time>2026-03-28T14:06:03Z</time></trkpt><trkpt lat="45.58478986504859" lon="10.718678256136883"><ele>156.0</ele><time>2026-03-28T14:06:04Z</time></trkpt><trkpt lat="45.58472408737416" lon="10.718606665353127"><ele>156.0</ele><time>2026-03-28T14:06:05Z</time></trkpt><trkpt lat="45.584663472624904" lon="10.718521780723199"><ele>156.0</ele><time>2026-03-28T14:06:06Z</time></trkpt><trkpt lat="45.58460987349253" lon="10.718425676256217"><ele>156.0</ele><time>2026-03-28T14:06:07Z</time></trkpt><trkpt lat="45.58456476584137" lon="10.718322752438521"><ele>157.0</ele><time>2026-03-28T14:06:08Z</time></trkpt><trkpt lat="45.58452327619224" lon="10.718218597033509"><ele>158.0</ele><time>2026-03-28T14:06:09Z</time></trkpt><trkpt lat="45.584479396568874" lon="10.718114434190454"><ele>159.0</ele><time>2026-03-28T14:06:10Z</time></trkpt><trkpt lat="45.584430545777316" lon="10.718013491238406"><ele>160.0</ele><time>2026-03-28T14:06:11Z</time></trkpt><trkpt lat="45.5843830086217" lon="10.717913596867895"><ele>161.0</ele><time>2026-03-28T14:06:12Z</time></trkpt><trkpt lat="45.58433775373413" lon="10.717809474738063"><ele>162.0</ele><time>2026-03-28T14:06:13Z</time></trkpt><trkpt lat="45.584290575857665" lon="10.717707916695531"><ele>157.2</ele><time>2026-03-28T14:06:14Z</time></trkpt><trkpt lat="45.58424219710398" lon="10.717604230286618"><ele>152.39999999999998</ele><time>2026-03-28T14:06:15Z</time></trkpt><trkpt lat="45.58419153364344" lon="10.717495150813225"><ele>147.60000000000002</ele><time>2026-03-28T14:06:16Z</time></trkpt><trkpt lat="45.58413880322455" lon="10.717374843532022"><ele>142.8</ele><time>2026-03-28T14:06:17Z</time></trkpt><trkpt lat="45.58409010961985" lon="10.71725919241474"><ele>138.0</ele><time>2026-03-28T14:06:18Z</time></trkpt><trkpt lat="45.58404115634667" lon="10.717140749176671"><ele>138.0</ele><time>2026-03-28T14:06:19Z</time></trkpt><trkpt lat="45.583996211716574" lon="10.717019664017664"><ele>138.0</ele><time>2026-03-28T14:06:20Z</time></trkpt><trkpt lat="45.583960256229844" lon="10.716896195133323"><ele>138.0</ele><time>2026-03-28T14:06:21Z</time></trkpt><trkpt lat="45.58392206826859" lon="10.716776347908748"><ele>138.0</ele><time>2026-03-28T14:06:22Z</time></trkpt><trkpt lat="45.583875231625086" lon="10.716680620331491"><ele>138.0</ele><time>2026-03-28T14:06:23Z</time></trkpt><trkpt lat="45.58381911971562" lon="10.716613430906085"><ele>138.0</ele><time>2026-03-28T14:06:24Z</time></trkpt><trkpt lat="45.583748476308" lon="10.716568687065761"><ele>133.4</ele><time>2026-03-28T14:06:25Z</time></trkpt><trkpt lat="45.583665634306925" lon="10.716549468123679"><ele>128.8</ele><time>2026-03-28T14:06:26Z</time></trkpt><trkpt lat="45.583569269889" lon="10.716568530397875"><ele>124.2</ele><time>2026-03-28T14:06:27Z</time></trkpt><trkpt lat="45.583454140407405" lon="10.716595564949994"><ele>119.6</ele><time>2026-03-28T14:06:28Z</time></trkpt><trkpt lat="45.58332226764354" lon="10.716621923020607"><ele>115.0</ele><time>2026-03-28T14:06:29Z</time></trkpt><trkpt lat="45.58318829205211" lon="10.716612817904991"><ele>115.0</ele><time>2026-03-28T14:06:30Z</time></trkpt><trkpt lat="45.583058016810554" lon="10.71661505174019"><ele>115.0</ele><time>2026-03-28T14:06:31Z</time></trkpt><trkpt lat="45.58293468476878" lon="10.71661433225895"><ele>115.0</ele><time>2026-03-28T14:06:32Z</time></trkpt><trkpt lat="45.58280614907419" lon="10.716611171154973"><ele>115.0</ele><time>2026-03-28T14:06:33Z</time></trkpt><trkpt lat="45.582674511374435" lon="10.716605168044802"><ele>112.75</ele><time>2026-03-28T14:06:34Z</time></trkpt><trkpt lat="45.58254061015295" lon="10.71659254431147"><ele>110.5</ele><time>2026-03-28T14:06:35Z</time></trkpt><trkpt lat="45.58240435512889" lon="10.71656599634408"><ele>108.25</ele><time>2026-03-28T14:06:36Z</time></trkpt><trkpt lat="45.58226944940834" lon="10.716530841548769"><ele>106.0</ele><time>2026-03-28T14:06:37Z</time></trkpt><trkpt lat="45.58213707924344" lon="10.716501815952183"><ele>105.0</ele><time>2026-03-28T14:06:38Z</time></trkpt><trkpt lat="45.58200165582651" lon="10.716502900858881"><ele>104.0</ele><time>2026-03-28T14:06:39Z</time></trkpt><trkpt lat="45.58187602824019" lon="10.716535172530158"><ele>103.0</ele><time>2026-03-28T14:06:40Z</time></trkpt><trkpt lat="45.58176199198292" lon="10.716574511985534"><ele>102.0</ele><time>2026-03-28T14:06:41Z</time></trkpt><trkpt lat="45.58165443418479" lon="10.716609706091882"><ele>102.0</ele><time>2026-03-28T14:06:42Z</time></trkpt><trkpt lat="45.581551590603866" lon="10.716640388046555"><ele>102.0</ele><time>2026-03-28T14:06:43Z</time></trkpt><trkpt lat="45.58143746163077" lon="10.716662490727073"><ele>102.0</ele><time>2026-03-28T14:06:44Z</time></trkpt><trkpt lat="45.581322007616016" lon="10.716662065385883"><ele>102.0</ele><time>2026-03-28T14:06:45Z</time></trkpt><trkpt lat="45.58121039054527" lon="10.716635227350038"><ele>102.0</ele><time>2026-03-28T14:06:46Z</time></trkpt><trkpt lat="45.58109734536923" lon="10.716608826166269"><ele>100.25</ele><time>2026-03-28T14:06:47Z</time></trkpt><trkpt lat="45.58099402246147" lon="10.716570262204938"><ele>98.5</ele><time>2026-03-28T14:06:48Z</time></trkpt><trkpt lat="45.58088181044366" lon="10.716547004594817"><ele>96.75</ele><time>2026-03-28T14:06:49Z</time></trkpt><trkpt lat="45.580761776911906" lon="10.716612970220382"><ele>95.0</ele><time>2026-03-28T14:06:50Z</time></trkpt><trkpt lat="45.58064490415481" lon="10.716635674046753"><ele>95.0</ele><time>2026-03-28T14:06:51Z</time></trkpt><trkpt lat="45.58054845597385" lon="10.716686670447555"><ele>95.0</ele><time>2026-03-28T14:06:52Z</time></trkpt><trkpt lat="45.58046493230144" lon="10.716690612912018"><ele>95.0</ele><time>2026-03-28T14:06:53Z</time></trkpt><trkpt lat="45.58037439360128" lon="10.716641457321217"><ele>95.0</ele><time>2026-03-28T14:06:55Z</time></trkpt><trkpt lat="45.580307449813134" lon="10.71663372240972"><ele>95.0</ele><time>2026-03-28T14:06:57Z</time></trkpt><trkpt lat="45.58031722859917" lon="10.71643965456608"><ele>94.5</ele><time>2026-03-28T14:06:58Z</time></trkpt><trkpt lat="45.58032846996504" lon="10.716283885247543"><ele>94.0</ele><time>2026-03-28T14:06:59Z</time></trkpt><trkpt lat="45.58032625173625" lon="10.716123399413366"><ele>93.5</ele><time>2026-03-28T14:07:00Z</time></trkpt><trkpt lat="45.58032597114513" lon="10.715930749321593"><ele>93.0</ele><time>2026-03-28T14:07:01Z</time></trkpt><trkpt lat="45.5803155466117" lon="10.715721135952991"><ele>92.5</ele><time>2026-03-28T14:07:02Z</time></trkpt><trkpt lat="45.580302730792354" lon="10.71552387503543"><ele>92.0</ele><time>2026-03-28T14:07:03Z</time></trkpt><trkpt lat="45.580276763985765" lon="10.715324107615363"><ele>91.5</ele><time>2026-03-28T14:07:04Z</time></trkpt><trkpt lat="45.58023255868643" lon="10.715094087423523"><ele>91.0</ele><time>2026-03-28T14:07:05Z</time></trkpt><trkpt lat="45.580184506641096" lon="10.714819914807652"><ele>90.66666666666666</ele><time>2026-03-28T14:07:06Z</time></trkpt><trkpt lat="45.58014136008943" lon="10.714511200483514"><ele>90.33333333333333</ele><time>2026-03-28T14:07:07Z</time></trkpt><trkpt lat="45.58008794878265" lon="10.714201498210498"><ele>90.0</ele><time>2026-03-28T14:07:08Z</time></trkpt><trkpt lat="45.58003420475543" lon="10.713941318609258"><ele>90.5</ele><time>2026-03-28T14:07:09Z</time></trkpt><trkpt lat="45.579984551709934" lon="10.713721801612559"><ele>91.0</ele><time>2026-03-28T14:07:10Z</time></trkpt><trkpt lat="45.57994665643431" lon="10.713526825620923"><ele>91.5</ele><time>2026-03-28T14:07:11Z</time></trkpt><trkpt lat="45.57991097793465" lon="10.713339450371294"><ele>92.0</ele><time>2026-03-28T14:07:12Z</time></trkpt><trkpt lat="45.57988039649796" lon="10.71316246671264"><ele>92.25</ele><time>2026-03-28T14:07:13Z</time></trkpt><trkpt lat="45.579847921102306" lon="10.712980372468808"><ele>92.5</ele><time>2026-03-28T14:07:14Z</time></trkpt><trkpt lat="45.579815789311894" lon="10.712808690804732"><ele>92.75</ele><time>2026-03-28T14:07:15Z</time></trkpt><trkpt lat="45.57978585753906" lon="10.712637306092248"><ele>93.0</ele><time>2026-03-28T14:07:16Z</time></trkpt><trkpt lat="45.5797509422307" lon="10.712441355474203"><ele>93.75</ele><time>2026-03-28T14:07:17Z</time></trkpt><trkpt lat="45.5797157215476" lon="10.712244014005979"><ele>94.5</ele><time>2026-03-28T14:07:18Z</time></trkpt><trkpt lat="45.579689023989246" lon="10.712082078041352"><ele>95.25</ele><time>2026-03-28T14:07:19Z</time></trkpt><trkpt lat="45.57966286286651" lon="10.71192148110899"><ele>96.0</ele><time>2026-03-28T14:07:20Z</time></trkpt><trkpt lat="45.579637041293836" lon="10.711752569230878"><ele>96.75</ele><time>2026-03-28T14:07:21Z</time></trkpt><trkpt lat="45.579614093383256" lon="10.711577564235167"><ele>97.5</ele><time>2026-03-28T14:07:22Z</time></trkpt><trkpt lat="45.57959228705065" lon="10.711398368308787"><ele>98.25</ele><time>2026-03-28T14:07:23Z</time></trkpt><trkpt lat="45.57957637145443" lon="10.711218399075007"><ele>99.0</ele><time>2026-03-28T14:07:24Z</time></trkpt><trkpt lat="45.579562906596834" lon="10.711041237364752"><ele>99.75</ele><time>2026-03-28T14:07:25Z</time></trkpt><trkpt lat="45.579542088564615" lon="10.710862472435002"><ele>100.5</ele><time>2026-03-28T14:07:26Z</time></trkpt><trkpt lat="45.57951255956468" lon="10.710683445310226"><ele>101.25</ele><time>2026-03-28T14:07:27Z</time></trkpt><trkpt lat="45.57947670812936" lon="10.710514242078524"><ele>102.0</ele><time>2026-03-28T14:07:28Z</time></trkpt><trkpt lat="45.57944234290968" lon="10.71036344767622"><ele>100.39999999999999</ele><time>2026-03-28T14:07:29Z</time></trkpt><trkpt lat="45.579404300123926" lon="10.710228337215373"><ele>98.8</ele><time>2026-03-28T14:07:30Z</time></trkpt><trkpt lat="45.57936022562545" lon="10.71009777504333"><ele>97.2</ele><time>2026-03-28T14:07:31Z</time></trkpt><trkpt lat="45.57930514234549" lon="10.709964731495003"><ele>95.6</ele><time>2026-03-28T14:07:32Z</time></trkpt><trkpt lat="45.5792480388399" lon="10.709860106889657"><ele>94.0</ele><time>2026-03-28T14:07:33Z</time></trkpt><trkpt lat="45.57919193048436" lon="10.709790783486351"><ele>94.0</ele><time>2026-03-28T14:07:34Z</time></trkpt><trkpt lat="45.57913561329711" lon="10.709714096895599"><ele>94.0</ele><time>2026-03-28T14:07:36Z</time></trkpt><trkpt lat="45.579269123151605" lon="10.709627095529575"><ele>94.0</ele><time>2026-03-28T14:07:40Z</time></trkpt><trkpt lat="45.57935689915739" lon="10.709689347755656"><ele>94.0</ele><time>2026-03-28T14:07:41Z</time></trkpt><trkpt lat="45.579453797378584" lon="10.709719501017368"><ele>94.0</ele><time>2026-03-28T14:07:42Z</time></trkpt><trkpt lat="45.57954909149345" lon="10.709747239185141"><ele>95.6</ele><time>2026-03-28T14:07:43Z</time></trkpt><trkpt lat="45.57964618656044" lon="10.709765779169992"><ele>97.2</ele><time>2026-03-28T14:07:44Z</time></trkpt><trkpt lat="45.5797407419402" lon="10.709773155383413"><ele>98.8</ele><time>2026-03-28T14:07:45Z</time></trkpt><trkpt lat="45.579835985043225" lon="10.709783027368221"><ele>100.39999999999999</ele><time>2026-03-28T14:07:46Z</time></trkpt><trkpt lat="45.57992758610382" lon="10.70979262208761"><ele>102.0</ele><time>2026-03-28T14:07:47Z</time></trkpt><trkpt lat="45.58002113446769" lon="10.709796996284295"><ele>102.0</ele><time>2026-03-28T14:07:48Z</time></trkpt><trkpt lat="45.58011147540929" lon="10.709804625644939"><ele>102.0</ele><time>2026-03-28T14:07:49Z</time></trkpt><trkpt lat="45.58020141480674" lon="10.709812539719513"><ele>102.0</ele><time>2026-03-28T14:07:50Z</time></trkpt><trkpt lat="45.580291644394904" lon="10.709814375362459"><ele>102.0</ele><time>2026-03-28T14:07:51Z</time></trkpt><trkpt lat="45.58038372885921" lon="10.709830005748072"><ele>102.0</ele><time>2026-03-28T14:07:52Z</time></trkpt><trkpt lat="45.58047805342763" lon="10.709876160470563"><ele>103.16666666666667</ele><time>2026-03-28T14:07:53Z</time></trkpt><trkpt lat="45.58056365303839" lon="10.70992243233285"><ele>104.33333333333334</ele><time>2026-03-28T14:07:54Z</time></trkpt><trkpt lat="45.580645497492" lon="10.709987133627576"><ele>105.5</ele><time>2026-03-28T14:07:55Z</time></trkpt><trkpt lat="45.58072321517" lon="10.71004996883953"><ele>106.66666666666667</ele><time>2026-03-28T14:07:56Z</time></trkpt><trkpt lat="45.580804971058264" lon="10.710103398233095"><ele>107.83333333333334</ele><time>2026-03-28T14:07:57Z</time></trkpt><trkpt lat="45.580884381104" lon="10.71014662774674"><ele>109.0</ele><time>2026-03-28T14:07:58Z</time></trkpt><trkpt lat="45.58096530091659" lon="10.71018647654991"><ele>109.0</ele><time>2026-03-28T14:07:59Z</time></trkpt><trkpt lat="45.58105457304753" lon="10.710212765618431"><ele>109.0</ele><time>2026-03-28T14:08:00Z</time></trkpt><trkpt lat="45.58115058874659" lon="10.710229230886275"><ele>109.0</ele><time>2026-03-28T14:08:01Z</time></trkpt><trkpt lat="45.58125193885872" lon="10.710245247809839"><ele>109.0</ele><time>2026-03-28T14:08:02Z</time></trkpt><trkpt lat="45.58135770997711" lon="10.710263606942448"><ele>109.0</ele><time>2026-03-28T14:08:03Z</time></trkpt><trkpt lat="45.58146070494635" lon="10.710283107098574"><ele>111.5</ele><time>2026-03-28T14:08:04Z</time></trkpt><trkpt lat="45.58157088329388" lon="10.71030393606629"><ele>114.0</ele><time>2026-03-28T14:08:05Z</time></trkpt><trkpt lat="45.5816837024732" lon="10.710343200880681"><ele>116.5</ele><time>2026-03-28T14:08:06Z</time></trkpt><trkpt lat="45.581799782524" lon="10.710372040052421"><ele>119.0</ele><time>2026-03-28T14:08:07Z</time></trkpt><trkpt lat="45.58192104573587" lon="10.710398876899507"><ele>121.5</ele><time>2026-03-28T14:08:08Z</time></trkpt><trkpt lat="45.58203813082032" lon="10.710425287508338"><ele>124.0</ele><time>2026-03-28T14:08:09Z</time></trkpt><trkpt lat="45.58216634732285" lon="10.710450218561066"><ele>126.5</ele><time>2026-03-28T14:08:10Z</time></trkpt><trkpt lat="45.58230311196973" lon="10.7104646029037"><ele>129.0</ele><time>2026-03-28T14:08:11Z</time></trkpt><trkpt lat="45.58243002039762" lon="10.710474525412709"><ele>129.0</ele><time>2026-03-28T14:08:12Z</time></trkpt><trkpt lat="45.582560795614164" lon="10.710475951215583"><ele>129.0</ele><time>2026-03-28T14:08:13Z</time></trkpt><trkpt lat="45.582696614895276" lon="10.710476756740324"><ele>129.0</ele><time>2026-03-28T14:08:14Z</time></trkpt><trkpt lat="45.58283006561955" lon="10.710470367508774"><ele>129.0</ele><time>2026-03-28T14:08:15Z</time></trkpt><trkpt lat="45.5829581120255" lon="10.710452679696715"><ele>131.75</ele><time>2026-03-28T14:08:16Z</time></trkpt><trkpt lat="45.583086309948314" lon="10.710425175208195"><ele>134.5</ele><time>2026-03-28T14:08:17Z</time></trkpt><trkpt lat="45.583212960965035" lon="10.710404573521076"><ele>137.25</ele><time>2026-03-28T14:08:18Z</time></trkpt><trkpt lat="45.58334033854531" lon="10.710373105575043"><ele>140.0</ele><time>2026-03-28T14:08:19Z</time></trkpt><trkpt lat="45.58346625199716" lon="10.710336801814652"><ele>140.0</ele><time>2026-03-28T14:08:20Z</time></trkpt><trkpt lat="45.5835818125872" lon="10.71031423283821"><ele>140.0</ele><time>2026-03-28T14:08:21Z</time></trkpt><trkpt lat="45.583707854200455" lon="10.710311501172095"><ele>140.0</ele><time>2026-03-28T14:08:22Z</time></trkpt><trkpt lat="45.58383148993159" lon="10.710321889816678"><ele>140.0</ele><time>2026-03-28T14:08:23Z</time></trkpt><trkpt lat="45.583956017640055" lon="10.710334808510858"><ele>142.5</ele><time>2026-03-28T14:08:24Z</time></trkpt><trkpt lat="45.58408742467718" lon="10.710367813519117"><ele>145.0</ele><time>2026-03-28T14:08:25Z</time></trkpt><trkpt lat="45.58421855484811" lon="10.710408525033406"><ele>147.5</ele><time>2026-03-28T14:08:26Z</time></trkpt><trkpt lat="45.5843495881108" lon="10.71045351168718"><ele>150.0</ele><time>2026-03-28T14:08:27Z</time></trkpt><trkpt lat="45.5844811094619" lon="10.71049203175638"><ele>153.5</ele><time>2026-03-28T14:08:28Z</time></trkpt><trkpt lat="45.584607213711806" lon="10.710529395142013"><ele>157.0</ele><time>2026-03-28T14:08:29Z</time></trkpt><trkpt lat="45.58473006386089" lon="10.710579313199588"><ele>160.5</ele><time>2026-03-28T14:08:30Z</time></trkpt><trkpt lat="45.58485178384715" lon="10.710604847903888"><ele>164.0</ele><time>2026-03-28T14:08:31Z</time></trkpt><trkpt lat="45.584971712953845" lon="10.710630279022324"><ele>164.0</ele><time>2026-03-28T14:08:32Z</time></trkpt><trkpt lat="45.58509503066973" lon="10.710643301373725"><ele>164.0</ele><time>2026-03-28T14:08:33Z</time></trkpt><trkpt lat="45.58522238879523" lon="10.710637457901145"><ele>164.0</ele><time>2026-03-28T14:08:34Z</time></trkpt><trkpt lat="45.58534770345585" lon="10.710610994618984"><ele>164.0</ele><time>2026-03-28T14:08:35Z</time></trkpt><trkpt lat="45.58547817325245" lon="10.710573192303215"><ele>168.5</ele><time>2026-03-28T14:08:36Z</time></trkpt><trkpt lat="45.5856069507325" lon="10.710511229174699"><ele>173.0</ele><time>2026-03-28T14:08:37Z</time></trkpt><trkpt lat="45.58573997157449" lon="10.710429240826473"><ele>177.5</ele><time>2026-03-28T14:08:38Z</time></trkpt><trkpt lat="45.585881642847184" lon="10.710389899584964"><ele>182.0</ele><time>2026-03-28T14:08:39Z</time></trkpt><trkpt lat="45.586026445127736" lon="10.710374143290647"><ele>182.0</ele><time>2026-03-28T14:08:40Z</time></trkpt><trkpt lat="45.58616514838617" lon="10.71037742876858"><ele>182.0</ele><time>2026-03-28T14:08:41Z</time></trkpt><trkpt lat="45.58629825098915" lon="10.71039218006425"><ele>182.0</ele><time>2026-03-28T14:08:42Z</time></trkpt><trkpt lat="45.5864329806332" lon="10.710418467374662"><ele>182.0</ele><time>2026-03-28T14:08:43Z</time></trkpt><trkpt lat="45.586565195814906" lon="10.71042204302839"><ele>187.25</ele><time>2026-03-28T14:08:44Z</time></trkpt><trkpt lat="45.586697332955566" lon="10.710388051840251"><ele>192.5</ele><time>2026-03-28T14:08:45Z</time></trkpt><trkpt lat="45.58682701627611" lon="10.710338698602184"><ele>197.75</ele><time>2026-03-28T14:08:46Z</time></trkpt><trkpt lat="45.58693183979669" lon="10.710265708770724"><ele>203.0</ele><time>2026-03-28T14:08:47Z</time></trkpt><trkpt lat="45.58702078870547" lon="10.710218794686893"><ele>203.4</ele><time>2026-03-28T14:08:48Z</time></trkpt><trkpt lat="45.58708855025665" lon="10.710189276874242"><ele>203.8</ele><time>2026-03-28T14:08:49Z</time></trkpt><trkpt lat="45.58715358213473" lon="10.710160530814537"><ele>204.2</ele><time>2026-03-28T14:08:50Z</time></trkpt><trkpt lat="45.58724077011081" lon="10.710212825995145"><ele>204.6</ele><time>2026-03-28T14:08:52Z</time></trkpt><trkpt lat="45.587211467346286" lon="10.710387730041607"><ele>205.0</ele><time>2026-03-28T14:08:54Z</time></trkpt><trkpt lat="45.587140997058846" lon="10.710479823139856"><ele>204.66666666666666</ele><time>2026-03-28T14:08:55Z</time></trkpt><trkpt lat="45.58707553690878" lon="10.710532319257451"><ele>204.33333333333331</ele><time>2026-03-28T14:08:56Z</time></trkpt><trkpt lat="45.587030009156" lon="10.710600421140025"><ele>204.0</ele><time>2026-03-28T14:08:57Z</time></trkpt><trkpt lat="45.58699420483074" lon="10.7107041706416"><ele>203.66666666666669</ele><time>2026-03-28T14:08:59Z</time></trkpt><trkpt lat="45.586959495989795" lon="10.710816137674994"><ele>203.33333333333334</ele><time>2026-03-28T14:09:01Z</time></trkpt><trkpt lat="45.586855356429204" lon="10.710937674850445"><ele>203.0</ele><time>2026-03-28T14:09:03Z</time></trkpt><trkpt lat="45.58679477869639" lon="10.71098608621019"><ele>203.0</ele><time>2026-03-28T14:09:04Z</time></trkpt><trkpt lat="45.586735585752535" lon="10.711037561413335"><ele>203.0</ele><time>2026-03-28T14:09:05Z</time></trkpt><trkpt lat="45.586638518922626" lon="10.711147105696734"><ele>203.0</ele><time>2026-03-28T14:09:07Z</time></trkpt><trkpt lat="45.586613228215874" lon="10.711321798204041"><ele>203.0</ele><time>2026-03-28T14:09:09Z</time></trkpt><trkpt lat="45.58663162012812" lon="10.711422622579644"><ele>203.0</ele><time>2026-03-28T14:09:10Z</time></trkpt><trkpt lat="45.586677877228674" lon="10.711524822779733"><ele>203.5</ele><time>2026-03-28T14:09:11Z</time></trkpt><trkpt lat="45.586745122233786" lon="10.711640848134898"><ele>204.0</ele><time>2026-03-28T14:09:12Z</time></trkpt><trkpt lat="45.58681252747935" lon="10.711752341860722"><ele>204.5</ele><time>2026-03-28T14:09:13Z</time></trkpt><trkpt lat="45.58688983152791" lon="10.711880983386111"><ele>205.0</ele><time>2026-03-28T14:09:14Z</time></trkpt><trkpt lat="45.58697101300276" lon="10.712017395353659"><ele>212.0</ele><time>2026-03-28T14:09:15Z</time></trkpt><trkpt lat="45.587048663368975" lon="10.71214786139629"><ele>219.0</ele><time>2026-03-28T14:09:16Z</time></trkpt><trkpt lat="45.587121711822526" lon="10.71228179530262"><ele>226.0</ele><time>2026-03-28T14:09:16.999Z</time></trkpt><trkpt lat="45.58718349404395" lon="10.712411563760465"><ele>233.0</ele><time>2026-03-28T14:09:17.999Z</time></trkpt><trkpt lat="45.58723748493558" lon="10.712559291550422"><ele>233.0</ele><time>2026-03-28T14:09:18.999Z</time></trkpt><trkpt lat="45.58727546353255" lon="10.712736001912258"><ele>233.0</ele><time>2026-03-28T14:09:19.999Z</time></trkpt><trkpt lat="45.587330622479094" lon="10.712912719808154"><ele>233.0</ele><time>2026-03-28T14:09:20.999Z</time></trkpt><trkpt lat="45.58739204805154" lon="10.713090415862725"><ele>233.0</ele><time>2026-03-28T14:09:21.999Z</time></trkpt><trkpt lat="45.58744030340105" lon="10.713276148798567"><ele>232.25</ele><time>2026-03-28T14:09:22.999Z</time></trkpt><trkpt lat="45.587484545878624" lon="10.713454293395687"><ele>231.5</ele><time>2026-03-28T14:09:23.999Z</time></trkpt><trkpt lat="45.58752698412002" lon="10.713628395430893"><ele>230.75</ele><time>2026-03-28T14:09:24.999Z</time></trkpt><trkpt lat="45.587559628141385" lon="10.713782156802315"><ele>230.0</ele><time>2026-03-28T14:09:25.999Z</time></trkpt><trkpt lat="45.58758736545865" lon="10.713910514913923"><ele>230.0</ele><time>2026-03-28T14:09:26.999Z</time></trkpt><trkpt lat="45.58762919590282" lon="10.714037531702497"><ele>230.0</ele><time>2026-03-28T14:09:28Z</time></trkpt><trkpt lat="45.5876751837027" lon="10.714185471708058"><ele>230.0</ele><time>2026-03-28T14:09:29Z</time></trkpt><trkpt lat="45.58776096262567" lon="10.714285730073293"><ele>230.0</ele><time>2026-03-28T14:09:30Z</time></trkpt><trkpt lat="45.58780550636766" lon="10.714429672753544"><ele>230.0</ele><time>2026-03-28T14:09:31Z</time></trkpt><trkpt lat="45.58785885680031" lon="10.714555988726877"><ele>233.6</ele><time>2026-03-28T14:09:32Z</time></trkpt><trkpt lat="45.58789108743137" lon="10.714688774670046"><ele>237.2</ele><time>2026-03-28T14:09:33Z</time></trkpt><trkpt lat="45.587940962087096" lon="10.714809125332035"><ele>240.8</ele><time>2026-03-28T14:09:34Z</time></trkpt><trkpt lat="45.58801613827219" lon="10.714904463914372"><ele>244.4</ele><time>2026-03-28T14:09:35Z</time></trkpt><trkpt lat="45.5880863893587" lon="10.714976026481597"><ele>248.0</ele><time>2026-03-28T14:09:36Z</time></trkpt><trkpt lat="45.58815186816613" lon="10.71504486255958"><ele>248.00000000000003</ele><time>2026-03-28T14:09:37Z</time></trkpt><trkpt lat="45.588216001997075" lon="10.715130721647775"><ele>248.0</ele><time>2026-03-28T14:09:38Z</time></trkpt><trkpt lat="45.58826914177665" lon="10.71523527631459"><ele>248.0</ele><time>2026-03-28T14:09:39Z</time></trkpt><trkpt lat="45.58829496773683" lon="10.715361298331768"><ele>248.0</ele><time>2026-03-28T14:09:40Z</time></trkpt><trkpt lat="45.588338814721965" lon="10.715475078946458"><ele>248.00000000000003</ele><time>2026-03-28T14:09:41Z</time></trkpt><trkpt lat="45.58836386517658" lon="10.715586776094892"><ele>248.0</ele><time>2026-03-28T14:09:42Z</time></trkpt><trkpt lat="45.58838900950257" lon="10.715690986069596"><ele>247.50000000000003</ele><time>2026-03-28T14:09:43Z</time></trkpt><trkpt lat="45.588423121287185" lon="10.715790816039618"><ele>247.0</ele><time>2026-03-28T14:09:44Z</time></trkpt><trkpt lat="45.58845767308428" lon="10.715889990131624"><ele>246.5</ele><time>2026-03-28T14:09:45Z</time></trkpt><trkpt lat="45.58848726324396" lon="10.715990833049112"><ele>246.0</ele><time>2026-03-28T14:09:46Z</time></trkpt><trkpt lat="45.5885147307144" lon="10.716097711696113"><ele>245.50000000000003</ele><time>2026-03-28T14:09:47Z</time></trkpt><trkpt lat="45.58854430827766" lon="10.71620205738701"><ele>245.0</ele><time>2026-03-28T14:09:48Z</time></trkpt><trkpt lat="45.58857644328439" lon="10.716307941624976"><ele>244.33333333333334</ele><time>2026-03-28T14:09:49Z</time></trkpt><trkpt lat="45.58861381360011" lon="10.716400180355"><ele>243.66666666666669</ele><time>2026-03-28T14:09:50Z</time></trkpt><trkpt lat="45.58868223874552" lon="10.716519113914764"><ele>243.0</ele><time>2026-03-28T14:09:52Z</time></trkpt><trkpt lat="45.58873615702154" lon="10.716596043941411"><ele>242.33333333333331</ele><time>2026-03-28T14:09:55Z</time></trkpt><trkpt lat="45.58881220922289" lon="10.716703212853144"><ele>241.66666666666666</ele><time>2026-03-28T14:09:57Z</time></trkpt><trkpt lat="45.58885810765914" lon="10.716798368065517"><ele>241.0</ele><time>2026-03-28T14:09:58Z</time></trkpt><trkpt lat="45.58889930392252" lon="10.716927275018781"><ele>242.8</ele><time>2026-03-28T14:09:59Z</time></trkpt><trkpt lat="45.58893769863381" lon="10.717059996696706"><ele>244.60000000000002</ele><time>2026-03-28T14:10:00Z</time></trkpt><trkpt lat="45.588974314701765" lon="10.717198476065171"><ele>246.4</ele><time>2026-03-28T14:10:01Z</time></trkpt><trkpt lat="45.589008687346265" lon="10.717325791986895"><ele>248.2</ele><time>2026-03-28T14:10:02Z</time></trkpt><trkpt lat="45.58904672245879" lon="10.717448963230048"><ele>250.0</ele><time>2026-03-28T14:10:03Z</time></trkpt><trkpt lat="45.589088654822355" lon="10.717546205537971"><ele>249.99999999999997</ele><time>2026-03-28T14:10:04Z</time></trkpt><trkpt lat="45.58913323580189" lon="10.717614232218613"><ele>250.0</ele><time>2026-03-28T14:10:05Z</time></trkpt><trkpt lat="45.589193185223664" lon="10.717670348116474"><ele>250.0</ele><time>2026-03-28T14:10:06Z</time></trkpt><trkpt lat="45.589267817943735" lon="10.7177122527477"><ele>250.0</ele><time>2026-03-28T14:10:07Z</time></trkpt><trkpt lat="45.589363237720754" lon="10.717734547812926"><ele>249.99999999999997</ele><time>2026-03-28T14:10:08Z</time></trkpt><trkpt lat="45.58946509044178" lon="10.717736098920794"><ele>250.0</ele><time>2026-03-28T14:10:09Z</time></trkpt><trkpt lat="45.589559970835694" lon="10.717721166444607"><ele>251.99999999999997</ele><time>2026-03-28T14:10:10Z</time></trkpt><trkpt lat="45.5896523318115" lon="10.717691957094422"><ele>254.0</ele><time>2026-03-28T14:10:11Z</time></trkpt><trkpt lat="45.58974417877229" lon="10.717667807397467"><ele>256.0</ele><time>2026-03-28T14:10:12Z</time></trkpt><trkpt lat="45.58983064731954" lon="10.717638651245583"><ele>258.0</ele><time>2026-03-28T14:10:13Z</time></trkpt><trkpt lat="45.589918530498565" lon="10.717607976237463"><ele>260.0</ele><time>2026-03-28T14:10:14Z</time></trkpt><trkpt lat="45.59000031431948" lon="10.717596961174905"><ele>262.0</ele><time>2026-03-28T14:10:15Z</time></trkpt><trkpt lat="45.59007644297265" lon="10.717623968490635"><ele>262.0</ele><time>2026-03-28T14:10:16Z</time></trkpt><trkpt lat="45.59013897731238" lon="10.717686704705288"><ele>262.0</ele><time>2026-03-28T14:10:17Z</time></trkpt><trkpt lat="45.590197827987126" lon="10.717769461518115"><ele>262.0</ele><time>2026-03-28T14:10:18Z</time></trkpt><trkpt lat="45.59026359764232" lon="10.717877581918515"><ele>262.0</ele><time>2026-03-28T14:10:19Z</time></trkpt><trkpt lat="45.59032946860135" lon="10.718001998235724"><ele>262.0</ele><time>2026-03-28T14:10:20Z</time></trkpt><trkpt lat="45.59039104870562" lon="10.71812989433182"><ele>262.16666666666663</ele><time>2026-03-28T14:10:21Z</time></trkpt><trkpt lat="45.59044353839115" lon="10.718243867778396"><ele>262.3333333333333</ele><time>2026-03-28T14:10:22Z</time></trkpt><trkpt lat="45.59048982373794" lon="10.718346411991936"><ele>262.5</ele><time>2026-03-28T14:10:23Z</time></trkpt><trkpt lat="45.59052562363031" lon="10.718440230714515"><ele>262.6666666666667</ele><time>2026-03-28T14:10:24Z</time></trkpt><trkpt lat="45.59055417262689" lon="10.718529130042388"><ele>262.83333333333337</ele><time>2026-03-28T14:10:25Z</time></trkpt><trkpt lat="45.590582711630304" lon="10.718612583751908"><ele>263.0</ele><time>2026-03-28T14:10:26Z</time></trkpt><trkpt lat="45.590616632801506" lon="10.718705032270712"><ele>262.6</ele><time>2026-03-28T14:10:27Z</time></trkpt><trkpt lat="45.59066779310756" lon="10.718799402298245"><ele>262.20000000000005</ele><time>2026-03-28T14:10:28Z</time></trkpt><trkpt lat="45.59073265280955" lon="10.71889113260278"><ele>261.8</ele><time>2026-03-28T14:10:29Z</time></trkpt><trkpt lat="45.59080694600811" lon="10.718973066478005"><ele>261.40000000000003</ele><time>2026-03-28T14:10:30Z</time></trkpt><trkpt lat="45.59089257314675" lon="10.719032482663179"><ele>261.0</ele><time>2026-03-28T14:10:31Z</time></trkpt><trkpt lat="45.59098869183178" lon="10.719086198264938"><ele>261.0</ele><time>2026-03-28T14:10:32Z</time></trkpt><trkpt lat="45.591049141066726" lon="10.719156649355424"><ele>261.0</ele><time>2026-03-28T14:10:33Z</time></trkpt><trkpt lat="45.59112061526205" lon="10.71923403206284"><ele>261.0</ele><time>2026-03-28T14:10:34Z</time></trkpt><trkpt lat="45.591192112033" lon="10.71933246261738"><ele>261.0</ele><time>2026-03-28T14:10:35Z</time></trkpt><trkpt lat="45.591275098875094" lon="10.719417965921284"><ele>261.0</ele><time>2026-03-28T14:10:36Z</time></trkpt><trkpt lat="45.591357728721434" lon="10.71951933748377"><ele>261.0</ele><time>2026-03-28T14:10:37Z</time></trkpt><trkpt lat="45.59143816511492" lon="10.71960654193568"><ele>261.0</ele><time>2026-03-28T14:10:38Z</time></trkpt><trkpt lat="45.591513954226805" lon="10.71969936225735"><ele>261.0</ele><time>2026-03-28T14:10:39Z</time></trkpt><trkpt lat="45.591595934459434" lon="10.71979335194241"><ele>261.0</ele><time>2026-03-28T14:10:40Z</time></trkpt><trkpt lat="45.59165639635237" lon="10.719902421991701"><ele>261.0</ele><time>2026-03-28T14:10:41Z</time></trkpt><trkpt lat="45.5917420725785" lon="10.719990987925618"><ele>261.0</ele><time>2026-03-28T14:10:42Z</time></trkpt><trkpt lat="45.59182152946132" lon="10.720095142597932"><ele>261.0</ele><time>2026-03-28T14:10:43Z</time></trkpt><trkpt lat="45.59190160874959" lon="10.720190965609591"><ele>261.0</ele><time>2026-03-28T14:10:44Z</time></trkpt><trkpt lat="45.591982262917945" lon="10.720286921906096"><ele>261.0</ele><time>2026-03-28T14:10:45Z</time></trkpt><trkpt lat="45.59206219820756" lon="10.720390697118326"><ele>261.0</ele><time>2026-03-28T14:10:46Z</time></trkpt><trkpt lat="45.592142727644266" lon="10.720487997729702"><ele>261.40000000000003</ele><time>2026-03-28T14:10:47Z</time></trkpt><trkpt lat="45.59221302511503" lon="10.720590609090133"><ele>261.8</ele><time>2026-03-28T14:10:48Z</time></trkpt><trkpt lat="45.592286992508775" lon="10.720673839193486"><ele>262.20000000000005</ele><time>2026-03-28T14:10:49Z</time></trkpt><trkpt lat="45.5923619382179" lon="10.720746218585765"><ele>262.6</ele><time>2026-03-28T14:10:50Z</time></trkpt><trkpt lat="45.5924534949929" lon="10.720816044705211"><ele>263.0</ele><time>2026-03-28T14:10:51Z</time></trkpt><trkpt lat="45.59254453494663" lon="10.720867041357712"><ele>263.0</ele><time>2026-03-28T14:10:52Z</time></trkpt><trkpt lat="45.59264167508585" lon="10.720914495522774"><ele>263.0</ele><time>2026-03-28T14:10:53Z</time></trkpt><trkpt lat="45.592725787957654" lon="10.720991805469245"><ele>263.0</ele><time>2026-03-28T14:10:54Z</time></trkpt><trkpt lat="45.592813903911214" lon="10.721060896135794"><ele>263.0</ele><time>2026-03-28T14:10:55Z</time></trkpt><trkpt lat="45.59287128313145" lon="10.721179125151824"><ele>263.0</ele><time>2026-03-28T14:10:56Z</time></trkpt><trkpt lat="45.592927089731575" lon="10.721284916028283"><ele>264.2</ele><time>2026-03-28T14:10:57Z</time></trkpt><trkpt lat="45.59299151846804" lon="10.721390799044656"><ele>265.4</ele><time>2026-03-28T14:10:58Z</time></trkpt><trkpt lat="45.5930486088389" lon="10.721507333872207"><ele>266.59999999999997</ele><time>2026-03-28T14:10:59Z</time></trkpt><trkpt lat="45.593101812204715" lon="10.7216253195459"><ele>267.8</ele><time>2026-03-28T14:11:00Z</time></trkpt><trkpt lat="45.59316294415405" lon="10.721749022775672"><ele>269.0</ele><time>2026-03-28T14:11:01Z</time></trkpt><trkpt lat="45.5932318183156" lon="10.721866609824518"><ele>267.59999999999997</ele><time>2026-03-28T14:11:02Z</time></trkpt><trkpt lat="45.593291529221155" lon="10.722006180547579"><ele>266.2</ele><time>2026-03-28T14:11:03Z</time></trkpt><trkpt lat="45.593360954988796" lon="10.722115042591579"><ele>264.79999999999995</ele><time>2026-03-28T14:11:04Z</time></trkpt><trkpt lat="45.59341861143658" lon="10.722244925477986"><ele>263.4</ele><time>2026-03-28T14:11:05Z</time></trkpt><trkpt lat="45.593478012841736" lon="10.722375317694478"><ele>262.0</ele><time>2026-03-28T14:11:06Z</time></trkpt><trkpt lat="45.59353854384729" lon="10.722499753308908"><ele>262.0</ele><time>2026-03-28T14:11:07Z</time></trkpt><trkpt lat="45.59360711963713" lon="10.722623229985956"><ele>262.0</ele><time>2026-03-28T14:11:08Z</time></trkpt><trkpt lat="45.59368502463626" lon="10.722755428456791"><ele>262.0</ele><time>2026-03-28T14:11:09Z</time></trkpt><trkpt lat="45.593751336398384" lon="10.722896485896277"><ele>262.0</ele><time>2026-03-28T14:11:10Z</time></trkpt><trkpt lat="45.59380594334089" lon="10.723038248090045"><ele>261.2</ele><time>2026-03-28T14:11:11Z</time></trkpt><trkpt lat="45.59386866734001" lon="10.723162054923284"><ele>260.4</ele><time>2026-03-28T14:11:12Z</time></trkpt><trkpt lat="45.59392994110763" lon="10.723271375917577"><ele>259.6</ele><time>2026-03-28T14:11:13Z</time></trkpt><trkpt lat="45.59398805382728" lon="10.723366519463559"><ele>258.8</ele><time>2026-03-28T14:11:14Z</time></trkpt><trkpt lat="45.59404811431806" lon="10.723451105265857"><ele>258.0</ele><time>2026-03-28T14:11:15Z</time></trkpt><trkpt lat="45.59410539189098" lon="10.72352904975026"><ele>258.0</ele><time>2026-03-28T14:11:16Z</time></trkpt><trkpt lat="45.594162646091306" lon="10.723599011646265"><ele>258.0</ele><time>2026-03-28T14:11:17Z</time></trkpt><trkpt lat="45.59421828545183" lon="10.723662047188467"><ele>258.0</ele><time>2026-03-28T14:11:18Z</time></trkpt><trkpt lat="45.59431408663289" lon="10.723738816767638"><ele>258.0</ele><time>2026-03-28T14:11:20Z</time></trkpt><trkpt lat="45.594424507205375" lon="10.723786863418932"><ele>258.0</ele><time>2026-03-28T14:11:22Z</time></trkpt><trkpt lat="45.594488808880584" lon="10.7238078191021"><ele>258.0</ele><time>2026-03-28T14:11:23Z</time></trkpt><trkpt lat="45.59458572662341" lon="10.723874975498694"><ele>258.2</ele><time>2026-03-28T14:11:25Z</time></trkpt><trkpt lat="45.59459077625762" lon="10.724032320125213"><ele>258.4</ele><time>2026-03-28T14:11:27Z</time></trkpt><trkpt lat="45.59460354795806" lon="10.724144072434962"><ele>258.59999999999997</ele><time>2026-03-28T14:11:28Z</time></trkpt><trkpt lat="45.5946169785634" lon="10.724296298390446"><ele>258.8</ele><time>2026-03-28T14:11:29Z</time></trkpt><trkpt lat="45.5946348684053" lon="10.7244850721204"><ele>259.0</ele><time>2026-03-28T14:11:30Z</time></trkpt><trkpt lat="45.59465428046303" lon="10.72468013102463"><ele>258.0</ele><time>2026-03-28T14:11:31Z</time></trkpt><trkpt lat="45.59468514978856" lon="10.724885504151514"><ele>257.0</ele><time>2026-03-28T14:11:32Z</time></trkpt><trkpt lat="45.594723770373356" lon="10.72508651841091"><ele>256.0</ele><time>2026-03-28T14:11:33Z</time></trkpt><trkpt lat="45.59476724343527" lon="10.725270334908897"><ele>255.0</ele><time>2026-03-28T14:11:34Z</time></trkpt><trkpt lat="45.59480365617517" lon="10.725449021814212"><ele>254.4</ele><time>2026-03-28T14:11:35Z</time></trkpt><trkpt lat="45.594830521303535" lon="10.725610828383738"><ele>253.8</ele><time>2026-03-28T14:11:36Z</time></trkpt><trkpt lat="45.59484791203335" lon="10.725743476692715"><ele>253.2</ele><time>2026-03-28T14:11:37Z</time></trkpt><trkpt lat="45.594869047674514" lon="10.725874180649184"><ele>252.6</ele><time>2026-03-28T14:11:38Z</time></trkpt><trkpt lat="45.59488844768843" lon="10.725991537460695"><ele>252.0</ele><time>2026-03-28T14:11:39Z</time></trkpt><trkpt lat="45.59490938348317" lon="10.726107266822659"><ele>251.85714285714286</ele><time>2026-03-28T14:11:40Z</time></trkpt><trkpt lat="45.59493219467296" lon="10.726218449981465"><ele>251.71428571428572</ele><time>2026-03-28T14:11:41Z</time></trkpt><trkpt lat="45.59495378543109" lon="10.726320834164811"><ele>251.57142857142856</ele><time>2026-03-28T14:11:42Z</time></trkpt><trkpt lat="45.59497885007994" lon="10.72641764681752"><ele>251.42857142857142</ele><time>2026-03-28T14:11:43Z</time></trkpt><trkpt lat="45.59500744686677" lon="10.726508163859584"><ele>251.28571428571428</ele><time>2026-03-28T14:11:44Z</time></trkpt><trkpt lat="45.595034612236724" lon="10.72659692464936"><ele>251.1428571428571</ele><time>2026-03-28T14:11:45Z</time></trkpt><trkpt lat="45.595057549243975" lon="10.726695458604759"><ele>250.99999999999997</ele><time>2026-03-28T14:11:46Z</time></trkpt><trkpt lat="45.595082188824485" lon="10.726813857098726"><ele>250.66666666666669</ele><time>2026-03-28T14:11:47Z</time></trkpt><trkpt lat="45.59510169461875" lon="10.726933602595452"><ele>250.33333333333334</ele><time>2026-03-28T14:11:48Z</time></trkpt><trkpt lat="45.595116041058226" lon="10.727051114286898"><ele>250.0</ele><time>2026-03-28T14:11:49Z</time></trkpt><trkpt lat="45.59513532953623" lon="10.727160333830849"><ele>249.66666666666669</ele><time>2026-03-28T14:11:50Z</time></trkpt><trkpt lat="45.595165504124985" lon="10.72726812323223"><ele>249.33333333333334</ele><time>2026-03-28T14:11:51Z</time></trkpt><trkpt lat="45.59520684196475" lon="10.727360896536904"><ele>249.0</ele><time>2026-03-28T14:11:52Z</time></trkpt><trkpt lat="45.59525886865368" lon="10.72745968835253"><ele>249.0</ele><time>2026-03-28T14:11:53Z</time></trkpt><trkpt lat="45.595304212820636" lon="10.727553208756191"><ele>249.0</ele><time>2026-03-28T14:11:54Z</time></trkpt><trkpt lat="45.59535298607152" lon="10.72764387982966"><ele>249.0</ele><time>2026-03-28T14:11:55Z</time></trkpt><trkpt lat="45.59540390640877" lon="10.72774302682317"><ele>249.0</ele><time>2026-03-28T14:11:56Z</time></trkpt><trkpt lat="45.595445364219756" lon="10.727844276997248"><ele>249.0</ele><time>2026-03-28T14:11:57Z</time></trkpt><trkpt lat="45.59547836852304" lon="10.72794376878294"><ele>249.0</ele><time>2026-03-28T14:11:58Z</time></trkpt><trkpt lat="45.595498955131724" lon="10.728033380398983"><ele>249.66666666666666</ele><time>2026-03-28T14:11:59Z</time></trkpt><trkpt lat="45.59549071727194" lon="10.72814096964114"><ele>250.33333333333331</ele><time>2026-03-28T14:12:00Z</time></trkpt><trkpt lat="45.59547636297184" lon="10.728253891727556"><ele>251.0</ele><time>2026-03-28T14:12:01Z</time></trkpt><trkpt lat="45.5954647555988" lon="10.728375796671346"><ele>251.66666666666666</ele><time>2026-03-28T14:12:02Z</time></trkpt><trkpt lat="45.595434924121605" lon="10.72848142108167"><ele>252.33333333333331</ele><time>2026-03-28T14:12:03Z</time></trkpt><trkpt lat="45.595476723037216" lon="10.72864305222938"><ele>253.0</ele><time>2026-03-28T14:12:04Z</time></trkpt><trkpt lat="45.59549273052453" lon="10.728784106412695"><ele>252.83333333333331</ele><time>2026-03-28T14:12:05Z</time></trkpt><trkpt lat="45.595500457779195" lon="10.728911833885917"><ele>252.66666666666666</ele><time>2026-03-28T14:12:06Z</time></trkpt><trkpt lat="45.59550142466192" lon="10.729034910244597"><ele>252.5</ele><time>2026-03-28T14:12:07Z</time></trkpt><trkpt lat="45.59549568534261" lon="10.729155243907876"><ele>252.33333333333331</ele><time>2026-03-28T14:12:08Z</time></trkpt><trkpt lat="45.59548439255123" lon="10.729274803709515"><ele>252.16666666666666</ele><time>2026-03-28T14:12:09Z</time></trkpt><trkpt lat="45.59547348576862" lon="10.729392379253152"><ele>252.0</ele><time>2026-03-28T14:12:10Z</time></trkpt><trkpt lat="45.595460336328124" lon="10.729515461172797"><ele>252.0</ele><time>2026-03-28T14:12:11Z</time></trkpt><trkpt lat="45.59544958644935" lon="10.72963882038221"><ele>252.0</ele><time>2026-03-28T14:12:12Z</time></trkpt><trkpt lat="45.59544425908967" lon="10.729756669102786"><ele>252.0</ele><time>2026-03-28T14:12:13Z</time></trkpt><trkpt lat="45.595446235163394" lon="10.729876168704308"><ele>252.0</ele><time>2026-03-28T14:12:14Z</time></trkpt><trkpt lat="45.59545791434891" lon="10.729994851961974"><ele>252.0</ele><time>2026-03-28T14:12:15Z</time></trkpt><trkpt lat="45.59547464592697" lon="10.730091928651461"><ele>252.0</ele><time>2026-03-28T14:12:16Z</time></trkpt><trkpt lat="45.5954708822458" lon="10.730186567525724"><ele>252.39999999999998</ele><time>2026-03-28T14:12:17Z</time></trkpt><trkpt lat="45.595491511052806" lon="10.730331588623095"><ele>252.79999999999998</ele><time>2026-03-28T14:12:19Z</time></trkpt><trkpt lat="45.59551418475546" lon="10.730457108523357"><ele>253.2</ele><time>2026-03-28T14:12:21Z</time></trkpt><trkpt lat="45.595568299957016" lon="10.730539718079664"><ele>253.6</ele><time>2026-03-28T14:12:23Z</time></trkpt><trkpt lat="45.59567017785969" lon="10.730520881063226"><ele>254.0</ele><time>2026-03-28T14:12:25Z</time></trkpt><trkpt lat="45.5957574559521" lon="10.730449525002212"><ele>254.00000000000003</ele><time>2026-03-28T14:12:27Z</time></trkpt><trkpt lat="45.5958142819078" lon="10.730408383480688"><ele>254.0</ele><time>2026-03-28T14:12:28Z</time></trkpt><trkpt lat="45.59586539055063" lon="10.730353248716026"><ele>254.0</ele><time>2026-03-28T14:12:29Z</time></trkpt><trkpt lat="45.59594630320389" lon="10.730342334749041"><ele>254.0</ele><time>2026-03-28T14:12:31Z</time></trkpt><trkpt lat="45.59604554479006" lon="10.730341132175747"><ele>254.00000000000003</ele><time>2026-03-28T14:12:33Z</time></trkpt><trkpt lat="45.59615456935079" lon="10.730318087175391"><ele>254.0</ele><time>2026-03-28T14:12:35Z</time></trkpt><trkpt lat="45.59627742143578" lon="10.730271002549683"><ele>255.6</ele><time>2026-03-28T14:12:37Z</time></trkpt><trkpt lat="45.59635398225047" lon="10.730239654915966"><ele>257.2</ele><time>2026-03-28T14:12:38Z</time></trkpt><trkpt lat="45.59647070328325" lon="10.730194782386143"><ele>258.79999999999995</ele><time>2026-03-28T14:12:40Z</time></trkpt><trkpt lat="45.596585888853376" lon="10.730142303710098"><ele>260.4</ele><time>2026-03-28T14:12:42Z</time></trkpt><trkpt lat="45.59665553720918" lon="10.730103085700248"><ele>262.0</ele><time>2026-03-28T14:12:43Z</time></trkpt><trkpt lat="45.59672331814982" lon="10.730087085421697"><ele>262.0</ele><time>2026-03-28T14:12:44Z</time></trkpt><trkpt lat="45.596781842603804" lon="10.730046905849138"><ele>262.0</ele><time>2026-03-28T14:12:45Z</time></trkpt><trkpt lat="45.596845920067715" lon="10.730031352824774"><ele>262.0</ele><time>2026-03-28T14:12:46Z</time></trkpt><trkpt lat="45.59691075564179" lon="10.730021971762696"><ele>262.0</ele><time>2026-03-28T14:12:47Z</time></trkpt><trkpt lat="45.59697481846062" lon="10.730055623409559"><ele>262.0</ele><time>2026-03-28T14:12:48Z</time></trkpt><trkpt lat="45.597089307123305" lon="10.73005034758125"><ele>262.0</ele><time>2026-03-28T14:12:50Z</time></trkpt><trkpt lat="45.59715450116035" lon="10.730027480841756"><ele>262.0</ele><time>2026-03-28T14:12:51Z</time></trkpt><trkpt lat="45.597251617239394" lon="10.729979548516523"><ele>263.6</ele><time>2026-03-28T14:12:53Z</time></trkpt><trkpt lat="45.597348375407606" lon="10.729930878201706"><ele>265.2</ele><time>2026-03-28T14:12:55Z</time></trkpt><trkpt lat="45.59746000171171" lon="10.729876283945242"><ele>266.8</ele><time>2026-03-28T14:12:57Z</time></trkpt><trkpt lat="45.597533075552285" lon="10.729779633627272"><ele>268.4</ele><time>2026-03-28T14:12:59Z</time></trkpt><trkpt lat="45.59761133100766" lon="10.729732638419799"><ele>270.0</ele><time>2026-03-28T14:13:01Z</time></trkpt><trkpt lat="45.59770562930367" lon="10.729711355292634"><ele>270.0</ele><time>2026-03-28T14:13:03Z</time></trkpt><trkpt lat="45.59782013215603" lon="10.729698379177549"><ele>270.0</ele><time>2026-03-28T14:13:05Z</time></trkpt><trkpt lat="45.59793164950247" lon="10.7296641308739"><ele>270.0</ele><time>2026-03-28T14:13:07Z</time></trkpt><trkpt lat="45.59799397148308" lon="10.729646471791213"><ele>270.0</ele><time>2026-03-28T14:13:08Z</time></trkpt><trkpt lat="45.59805613272688" lon="10.72961327668402"><ele>270.0</ele><time>2026-03-28T14:13:09Z</time></trkpt><trkpt lat="45.59812690143524" lon="10.729591332849369"><ele>270.0</ele><time>2026-03-28T14:13:10Z</time></trkpt><trkpt lat="45.59819144963446" lon="10.729526915896688"><ele>270.5</ele><time>2026-03-28T14:13:11Z</time></trkpt><trkpt lat="45.598250448850244" lon="10.729473208450345"><ele>271.0</ele><time>2026-03-28T14:13:12Z</time></trkpt><trkpt lat="45.59831140423814" lon="10.729423194411288"><ele>271.5</ele><time>2026-03-28T14:13:13Z</time></trkpt><trkpt lat="45.59837326805952" lon="10.72937243497043"><ele>272.0</ele><time>2026-03-28T14:13:14Z</time></trkpt><trkpt lat="45.598430030362735" lon="10.729325861368325"><ele>272.5</ele><time>2026-03-28T14:13:15Z</time></trkpt><trkpt lat="45.59852109566774" lon="10.729242458386997"><ele>273.0</ele><time>2026-03-28T14:13:17Z</time></trkpt><trkpt lat="45.59859012863248" lon="10.729132207706332"><ele>273.3333333333333</ele><time>2026-03-28T14:13:19Z</time></trkpt><trkpt lat="45.598616293822786" lon="10.72895816278328"><ele>273.6666666666667</ele><time>2026-03-28T14:13:21Z</time></trkpt><trkpt lat="45.59862791547009" lon="10.728846388400852"><ele>274.0</ele><time>2026-03-28T14:13:22Z</time></trkpt><trkpt lat="45.59863873761935" lon="10.728723277832989"><ele>274.33333333333337</ele><time>2026-03-28T14:13:23Z</time></trkpt><trkpt lat="45.59864509942781" lon="10.728603008292536"><ele>274.6666666666667</ele><time>2026-03-28T14:13:24Z</time></trkpt><trkpt lat="45.59864981544628" lon="10.72849908121427"><ele>275.0</ele><time>2026-03-28T14:13:25Z</time></trkpt><trkpt lat="45.598661613674466" lon="10.728366570955599"><ele>276.8</ele><time>2026-03-28T14:13:27Z</time></trkpt><trkpt lat="45.598719738454726" lon="10.728248080145615"><ele>278.6</ele><time>2026-03-28T14:13:30Z</time></trkpt><trkpt lat="45.59883059893366" lon="10.728162226219862"><ele>280.4</ele><time>2026-03-28T14:13:32Z</time></trkpt><trkpt lat="45.59893113432174" lon="10.72808465173583"><ele>282.2</ele><time>2026-03-28T14:13:34Z</time></trkpt><trkpt lat="45.598990761833946" lon="10.728025761337989"><ele>284.0</ele><time>2026-03-28T14:13:36Z</time></trkpt><trkpt lat="45.5990425855747" lon="10.728189569715799"><ele>284.0</ele><time>2026-03-28T14:13:59Z</time></trkpt><trkpt lat="45.59906550681579" lon="10.728299303750084"><ele>284.0</ele><time>2026-03-28T14:14:02Z</time></trkpt><trkpt lat="45.59909064495005" lon="10.728382118116237"><ele>284.0</ele><time>2026-03-28T14:14:04Z</time></trkpt><trkpt lat="45.59912118178256" lon="10.728475410129189"><ele>284.0</ele><time>2026-03-28T14:14:06Z</time></trkpt><trkpt lat="45.59915186475459" lon="10.728564916992006"><ele>284.0</ele><time>2026-03-28T14:14:07Z</time></trkpt><trkpt lat="45.59918283345489" lon="10.72865332787362"><ele>284.0</ele><time>2026-03-28T14:14:08Z</time></trkpt><trkpt lat="45.59923366082664" lon="10.728801853319187"><ele>284.2</ele><time>2026-03-28T14:14:10Z</time></trkpt><trkpt lat="45.59928482399871" lon="10.72895210493273"><ele>284.4</ele><time>2026-03-28T14:14:12Z</time></trkpt><trkpt lat="45.59933882062921" lon="10.729098240191867"><ele>284.6</ele><time>2026-03-28T14:14:14Z</time></trkpt><trkpt lat="45.599382997337024" lon="10.729250905006603"><ele>284.8</ele><time>2026-03-28T14:14:16Z</time></trkpt><trkpt lat="45.59941519085949" lon="10.729335245876891"><ele>285.0</ele><time>2026-03-28T14:14:17Z</time></trkpt><trkpt lat="45.59943614750626" lon="10.729438982521819"><ele>285.2</ele><time>2026-03-28T14:14:18Z</time></trkpt><trkpt lat="45.59945470951448" lon="10.729542926137105"><ele>285.4</ele><time>2026-03-28T14:14:19Z</time></trkpt><trkpt lat="45.59947337092881" lon="10.729629148077006"><ele>285.6</ele><time>2026-03-28T14:14:20Z</time></trkpt><trkpt lat="45.599527029935935" lon="10.729746095018001"><ele>285.8</ele><time>2026-03-28T14:14:22Z</time></trkpt><trkpt lat="45.599667048440914" lon="10.729753718406695"><ele>286.0</ele><time>2026-03-28T14:14:24Z</time></trkpt><trkpt lat="45.59974576103572" lon="10.72974619781935"><ele>287.0</ele><time>2026-03-28T14:14:25Z</time></trkpt><trkpt lat="45.59980971008431" lon="10.729737946960464"><ele>288.0</ele><time>2026-03-28T14:14:26Z</time></trkpt><trkpt lat="45.599890310685346" lon="10.729778135794112"><ele>289.0</ele><time>2026-03-28T14:14:28Z</time></trkpt><trkpt lat="45.59997229420389" lon="10.729731120806184"><ele>290.0</ele><time>2026-03-28T14:14:29Z</time></trkpt><trkpt lat="45.60004369195818" lon="10.729649558289623"><ele>291.0</ele><time>2026-03-28T14:14:30Z</time></trkpt><trkpt lat="45.600148445028076" lon="10.72958352796228"><ele>292.0</ele><time>2026-03-28T14:14:31Z</time></trkpt><trkpt lat="45.600255918832474" lon="10.72951643445073"><ele>293.25</ele><time>2026-03-28T14:14:32Z</time></trkpt><trkpt lat="45.600380195361794" lon="10.72944272616993"><ele>294.5</ele><time>2026-03-28T14:14:33Z</time></trkpt><trkpt lat="45.60050864639941" lon="10.729374133919027"><ele>295.75</ele><time>2026-03-28T14:14:34Z</time></trkpt><trkpt lat="45.600635663983596" lon="10.72930934251218"><ele>297.0</ele><time>2026-03-28T14:14:35Z</time></trkpt><trkpt lat="45.6007643562365" lon="10.729239796391067"><ele>297.0</ele><time>2026-03-28T14:14:36Z</time></trkpt><trkpt lat="45.60089064820173" lon="10.729162500251116"><ele>297.0</ele><time>2026-03-28T14:14:37Z</time></trkpt><trkpt lat="45.601014611584084" lon="10.729078879415278"><ele>297.0</ele><time>2026-03-28T14:14:38Z</time></trkpt><trkpt lat="45.60112804342776" lon="10.72898042846478"><ele>297.0</ele><time>2026-03-28T14:14:39Z</time></trkpt><trkpt lat="45.6012313198662" lon="10.72886658223491"><ele>298.75</ele><time>2026-03-28T14:14:40Z</time></trkpt><trkpt lat="45.60132305756775" lon="10.728739922947193"><ele>300.5</ele><time>2026-03-28T14:14:41Z</time></trkpt><trkpt lat="45.60140572263839" lon="10.728618643024827"><ele>302.25</ele><time>2026-03-28T14:14:42Z</time></trkpt><trkpt lat="45.601489023464936" lon="10.72852746518127"><ele>304.0</ele><time>2026-03-28T14:14:43Z</time></trkpt><trkpt lat="45.60158780598524" lon="10.728472777867525"><ele>304.0</ele><time>2026-03-28T14:14:44Z</time></trkpt><trkpt lat="45.601701741474365" lon="10.728434984894074"><ele>304.0</ele><time>2026-03-28T14:14:45Z</time></trkpt><trkpt lat="45.601828339128986" lon="10.728409569603636"><ele>304.0</ele><time>2026-03-28T14:14:46Z</time></trkpt><trkpt lat="45.60196298799217" lon="10.72837344153785"><ele>304.0</ele><time>2026-03-28T14:14:47Z</time></trkpt><trkpt lat="45.60210640592086" lon="10.728319489170401"><ele>305.5</ele><time>2026-03-28T14:14:48Z</time></trkpt><trkpt lat="45.60224704162467" lon="10.72825411476569"><ele>307.0</ele><time>2026-03-28T14:14:49Z</time></trkpt><trkpt lat="45.60238470215294" lon="10.728189057684633"><ele>308.5</ele><time>2026-03-28T14:14:50Z</time></trkpt><trkpt lat="45.60251546577269" lon="10.728128350268879"><ele>310.0</ele><time>2026-03-28T14:14:51Z</time></trkpt><trkpt lat="45.60264530552399" lon="10.728059028674167"><ele>310.0</ele><time>2026-03-28T14:14:52Z</time></trkpt><trkpt lat="45.60276889021309" lon="10.727988229448341"><ele>310.0</ele><time>2026-03-28T14:14:53Z</time></trkpt><trkpt lat="45.60288990733405" lon="10.727918712312226"><ele>310.0</ele><time>2026-03-28T14:14:54Z</time></trkpt><trkpt lat="45.60301012423197" lon="10.727853028809996"><ele>310.0</ele><time>2026-03-28T14:14:55Z</time></trkpt><trkpt lat="45.60312848147852" lon="10.72778557047686"><ele>309.75</ele><time>2026-03-28T14:14:56Z</time></trkpt><trkpt lat="45.60324739337353" lon="10.727720853192125"><ele>309.5</ele><time>2026-03-28T14:14:57Z</time></trkpt><trkpt lat="45.603365852625124" lon="10.727658778948655"><ele>309.25</ele><time>2026-03-28T14:14:58Z</time></trkpt><trkpt lat="45.60348436817126" lon="10.72760045780698"><ele>309.0</ele><time>2026-03-28T14:14:59Z</time></trkpt><trkpt lat="45.60360286286003" lon="10.727552149216233"><ele>310.25</ele><time>2026-03-28T14:15:00Z</time></trkpt><trkpt lat="45.60372358929073" lon="10.727512797060143"><ele>311.5</ele><time>2026-03-28T14:15:01Z</time></trkpt><trkpt lat="45.603843197090264" lon="10.727479646464149"><ele>312.75</ele><time>2026-03-28T14:15:02Z</time></trkpt><trkpt lat="45.603963719916344" lon="10.727445855842529"><ele>314.0</ele><time>2026-03-28T14:15:03Z</time></trkpt><trkpt lat="45.60408563587633" lon="10.72741108208207"><ele>314.0</ele><time>2026-03-28T14:15:04Z</time></trkpt><trkpt lat="45.604204932901055" lon="10.727372779713955"><ele>314.0</ele><time>2026-03-28T14:15:05Z</time></trkpt><trkpt lat="45.60432185254311" lon="10.727334329942808"><ele>314.0</ele><time>2026-03-28T14:15:06Z</time></trkpt><trkpt lat="45.60443561899119" lon="10.727295022334825"><ele>314.0</ele><time>2026-03-28T14:15:07Z</time></trkpt><trkpt lat="45.604549093625145" lon="10.7272623411366"><ele>314.0</ele><time>2026-03-28T14:15:08Z</time></trkpt><trkpt lat="45.604666972449586" lon="10.727246191208353"><ele>314.0</ele><time>2026-03-28T14:15:09Z</time></trkpt><trkpt lat="45.60478857410904" lon="10.727250798305064"><ele>314.0</ele><time>2026-03-28T14:15:10Z</time></trkpt><trkpt lat="45.604911120254556" lon="10.727256945863818"><ele>314.0</ele><time>2026-03-28T14:15:11Z</time></trkpt><trkpt lat="45.605037106529096" lon="10.727272313289186"><ele>314.0</ele><time>2026-03-28T14:15:12Z</time></trkpt><trkpt lat="45.60516620465818" lon="10.727293473695257"><ele>314.0</ele><time>2026-03-28T14:15:13Z</time></trkpt><trkpt lat="45.6052895870415" lon="10.727311245986982"><ele>314.0</ele><time>2026-03-28T14:15:14Z</time></trkpt><trkpt lat="45.605410711823126" lon="10.727327778574189"><ele>314.0</ele><time>2026-03-28T14:15:15Z</time></trkpt><trkpt lat="45.60551710448696" lon="10.727342039328285"><ele>313.8</ele><time>2026-03-28T14:15:16Z</time></trkpt><trkpt lat="45.60561642695618" lon="10.727347678532121"><ele>313.59999999999997</ele><time>2026-03-28T14:15:17Z</time></trkpt><trkpt lat="45.60570868997071" lon="10.72734974771353"><ele>313.4</ele><time>2026-03-28T14:15:18Z</time></trkpt><trkpt lat="45.605795438807085" lon="10.727342168708855"><ele>313.2</ele><time>2026-03-28T14:15:19Z</time></trkpt><trkpt lat="45.605881389502" lon="10.727322768669378"><ele>313.0</ele><time>2026-03-28T14:15:20Z</time></trkpt><trkpt lat="45.60596577031445" lon="10.727289629423854"><ele>313.0</ele><time>2026-03-28T14:15:21Z</time></trkpt><trkpt lat="45.60604472242296" lon="10.727246550941476"><ele>313.0</ele><time>2026-03-28T14:15:22Z</time></trkpt><trkpt lat="45.60612642821999" lon="10.727192451182036"><ele>313.0</ele><time>2026-03-28T14:15:23Z</time></trkpt><trkpt lat="45.606208889151" lon="10.727123200647954"><ele>313.0</ele><time>2026-03-28T14:15:24.001Z</time></trkpt><trkpt lat="45.6062944158067" lon="10.727050643909323"><ele>313.0</ele><time>2026-03-28T14:15:25.001Z</time></trkpt><trkpt lat="45.60637298524647" lon="10.726985713991166"><ele>313.6</ele><time>2026-03-28T14:15:26.001Z</time></trkpt><trkpt lat="45.606445371346226" lon="10.72693281106233"><ele>314.20000000000005</ele><time>2026-03-28T14:15:27.001Z</time></trkpt><trkpt lat="45.60651237128307" lon="10.726891903752351"><ele>314.8</ele><time>2026-03-28T14:15:28.001Z</time></trkpt><trkpt lat="45.6066063030493" lon="10.726894284346697"><ele>315.40000000000003</ele><time>2026-03-28T14:15:30.001Z</time></trkpt><trkpt lat="45.60660749237052" lon="10.727114741216464"><ele>316.0</ele><time>2026-03-28T14:15:33.001Z</time></trkpt><trkpt lat="45.606595172348705" lon="10.727246892708639"><ele>316.0</ele><time>2026-03-28T14:15:34.001Z</time></trkpt><trkpt lat="45.60657296593534" lon="10.727375546935184"><ele>316.0</ele><time>2026-03-28T14:15:35Z</time></trkpt><trkpt lat="45.606537935123235" lon="10.727505259074189"><ele>316.0</ele><time>2026-03-28T14:15:36Z</time></trkpt><trkpt lat="45.606495660907015" lon="10.727641523047991"><ele>316.0</ele><time>2026-03-28T14:15:37Z</time></trkpt><trkpt lat="45.60644803873536" lon="10.727777683430283"><ele>316.0</ele><time>2026-03-28T14:15:38Z</time></trkpt><trkpt lat="45.60640651678568" lon="10.727906538435882"><ele>315.0</ele><time>2026-03-28T14:15:39Z</time></trkpt><trkpt lat="45.60637487839043" lon="10.728025262969417"><ele>314.0</ele><time>2026-03-28T14:15:40Z</time></trkpt><trkpt lat="45.60634762953572" lon="10.728140153748033"><ele>313.0</ele><time>2026-03-28T14:15:41Z</time></trkpt><trkpt lat="45.606340203559476" lon="10.728259534681566"><ele>312.0</ele><time>2026-03-28T14:15:42Z</time></trkpt><trkpt lat="45.60636068249381" lon="10.728382041408805"><ele>311.0</ele><time>2026-03-28T14:15:43Z</time></trkpt><trkpt lat="45.6064036349692" lon="10.728516263777346"><ele>310.0</ele><time>2026-03-28T14:15:44Z</time></trkpt><trkpt lat="45.60645902785649" lon="10.728665186317855"><ele>309.5</ele><time>2026-03-28T14:15:45Z</time></trkpt><trkpt lat="45.606516998549445" lon="10.72881689212588"><ele>309.0</ele><time>2026-03-28T14:15:46Z</time></trkpt><trkpt lat="45.606574704935255" lon="10.728967130386316"><ele>308.5</ele><time>2026-03-28T14:15:47Z</time></trkpt><trkpt lat="45.606638345103846" lon="10.729132618311258"><ele>308.0</ele><time>2026-03-28T14:15:48Z</time></trkpt><trkpt lat="45.606692241664575" lon="10.729307128876139"><ele>306.75</ele><time>2026-03-28T14:15:49Z</time></trkpt><trkpt lat="45.60672929930974" lon="10.729490706707166"><ele>305.5</ele><time>2026-03-28T14:15:50Z</time></trkpt><trkpt lat="45.60674494995928" lon="10.729685098930583"><ele>304.25</ele><time>2026-03-28T14:15:51Z</time></trkpt><trkpt lat="45.606737493010804" lon="10.729880427526194"><ele>303.0</ele><time>2026-03-28T14:15:52Z</time></trkpt><trkpt lat="45.60672986640566" lon="10.730085378041727"><ele>301.75</ele><time>2026-03-28T14:15:53Z</time></trkpt><trkpt lat="45.606731064665695" lon="10.73029090498141"><ele>300.5</ele><time>2026-03-28T14:15:54Z</time></trkpt><trkpt lat="45.60673775127746" lon="10.730485870761697"><ele>299.25</ele><time>2026-03-28T14:15:55Z</time></trkpt><trkpt lat="45.6067430355985" lon="10.730679207807677"><ele>298.0</ele><time>2026-03-28T14:15:56Z</time></trkpt><trkpt lat="45.60674959085729" lon="10.730867230752839"><ele>298.0</ele><time>2026-03-28T14:15:57Z</time></trkpt><trkpt lat="45.60675708663148" lon="10.731051941772927"><ele>298.0</ele><time>2026-03-28T14:15:58Z</time></trkpt><trkpt lat="45.606760655876265" lon="10.73122923558255"><ele>298.0</ele><time>2026-03-28T14:15:59Z</time></trkpt><trkpt lat="45.60676607734366" lon="10.731399095807562"><ele>298.0</ele><time>2026-03-28T14:16:00Z</time></trkpt><trkpt lat="45.606769215604146" lon="10.731561395875946"><ele>297.25</ele><time>2026-03-28T14:16:01Z</time></trkpt><trkpt lat="45.60676252127012" lon="10.731732469879129"><ele>296.5</ele><time>2026-03-28T14:16:02Z</time></trkpt><trkpt lat="45.60675806097176" lon="10.731905535802804"><ele>295.75</ele><time>2026-03-28T14:16:03Z</time></trkpt><trkpt lat="45.60674780243017" lon="10.732079651102998"><ele>295.0</ele><time>2026-03-28T14:16:04Z</time></trkpt><trkpt lat="45.60672114008856" lon="10.73225008205836"><ele>295.0</ele><time>2026-03-28T14:16:05Z</time></trkpt><trkpt lat="45.60668149409947" lon="10.732419457831833"><ele>295.0</ele><time>2026-03-28T14:16:06Z</time></trkpt><trkpt lat="45.60662569421424" lon="10.732585659087977"><ele>295.0</ele><time>2026-03-28T14:16:07Z</time></trkpt><trkpt lat="45.60655057053019" lon="10.732743497127032"><ele>295.0</ele><time>2026-03-28T14:16:08Z</time></trkpt><trkpt lat="45.606456353090124" lon="10.732886424803644"><ele>296.5</ele><time>2026-03-28T14:16:09Z</time></trkpt><trkpt lat="45.606341237848056" lon="10.733014352612091"><ele>298.0</ele><time>2026-03-28T14:16:10Z</time></trkpt><trkpt lat="45.60621937980237" lon="10.73313582927092"><ele>299.5</ele><time>2026-03-28T14:16:11Z</time></trkpt><trkpt lat="45.606101838162125" lon="10.733268333495133"><ele>301.0</ele><time>2026-03-28T14:16:12Z</time></trkpt><trkpt lat="45.6060028825541" lon="10.733377383603045"><ele>300.3333333333333</ele><time>2026-03-28T14:16:13Z</time></trkpt><trkpt lat="45.60593378440401" lon="10.733446393461149"><ele>299.66666666666663</ele><time>2026-03-28T14:16:14Z</time></trkpt><trkpt lat="45.60586446364763" lon="10.733528212973805"><ele>299.0</ele><time>2026-03-28T14:16:16Z</time></trkpt><trkpt lat="45.60581090494017" lon="10.733595587355945"><ele>298.3333333333333</ele><time>2026-03-28T14:16:19Z</time></trkpt><trkpt lat="45.60585750433775" lon="10.7336728696334"><ele>297.6666666666667</ele><time>2026-03-28T14:16:20Z</time></trkpt><trkpt lat="45.60593699003872" lon="10.73373427097736"><ele>297.0</ele><time>2026-03-28T14:16:22Z</time></trkpt><trkpt lat="45.60597098254824" lon="10.733824085056414"><ele>297.0</ele><time>2026-03-28T14:16:24Z</time></trkpt><trkpt lat="45.60590552944861" lon="10.733941788921102"><ele>297.0</ele><time>2026-03-28T14:16:26Z</time></trkpt><trkpt lat="45.60585697437784" lon="10.734013888503979"><ele>297.0</ele><time>2026-03-28T14:16:27Z</time></trkpt><trkpt lat="45.60580168196448" lon="10.734110963098086"><ele>297.0</ele><time>2026-03-28T14:16:28Z</time></trkpt><trkpt lat="45.605755596368446" lon="10.734174874713512"><ele>297.0</ele><time>2026-03-28T14:16:29Z</time></trkpt><trkpt lat="45.60568936837256" lon="10.734267365183735"><ele>297.0</ele><time>2026-03-28T14:16:31Z</time></trkpt><trkpt lat="45.605937101063724" lon="10.734443853044468"><ele>297.0</ele><time>2026-03-28T14:16:45Z</time></trkpt><trkpt lat="45.60600237828366" lon="10.734459713187318"><ele>297.0</ele><time>2026-03-28T14:16:46Z</time></trkpt><trkpt lat="45.60597464950763" lon="10.73455759905259"><ele>297.0</ele><time>2026-03-28T14:16:47Z</time></trkpt><trkpt lat="45.60598194537443" lon="10.734054959338627"><ele>297.0</ele><time>2026-03-28T14:16:50Z</time></trkpt><trkpt lat="45.606029382128504" lon="10.73396498155112"><ele>297.0</ele><time>2026-03-28T14:16:51Z</time></trkpt><trkpt lat="45.60606862618966" lon="10.733890543481895"><ele>297.0</ele><time>2026-03-28T14:16:52Z</time></trkpt><trkpt lat="45.60612872006158" lon="10.733772916667887"><ele>297.0</ele><time>2026-03-28T14:16:54Z</time></trkpt><trkpt lat="45.606189665705074" lon="10.733651768105148"><ele>297.0</ele><time>2026-03-28T14:16:56Z</time></trkpt><trkpt lat="45.60627097255642" lon="10.73349079979778"><ele>299.0</ele><time>2026-03-28T14:16:58.001Z</time></trkpt><trkpt lat="45.60634313069366" lon="10.733443054198887"><ele>301.0</ele><time>2026-03-28T14:17:01.001Z</time></trkpt><trkpt lat="45.606726355207904" lon="10.733841791578397"><ele>301.0</ele><time>2026-03-28T14:17:02.001Z</time></trkpt><trkpt lat="45.60678928579225" lon="10.733825732483803"><ele>301.0</ele><time>2026-03-28T14:17:15.001Z</time></trkpt><trkpt lat="45.60687997026978" lon="10.733709741911985"><ele>301.0</ele><time>2026-03-28T14:17:17.001Z</time></trkpt><trkpt lat="45.60694183927671" lon="10.733587058546778"><ele>301.0</ele><time>2026-03-28T14:17:19.001Z</time></trkpt><trkpt lat="45.606992729154456" lon="10.733451476107126"><ele>301.0</ele><time>2026-03-28T14:17:21.001Z</time></trkpt><trkpt lat="45.60704184254434" lon="10.733309426586123"><ele>304.6</ele><time>2026-03-28T14:17:23.001Z</time></trkpt><trkpt lat="45.60708059996075" lon="10.733227975508157"><ele>308.20000000000005</ele><time>2026-03-28T14:17:24.001Z</time></trkpt><trkpt lat="45.60716605899492" lon="10.73312615855311"><ele>311.79999999999995</ele><time>2026-03-28T14:17:26.001Z</time></trkpt><trkpt lat="45.60723659190658" lon="10.733089362440834"><ele>315.4</ele><time>2026-03-28T14:17:28.001Z</time></trkpt><trkpt lat="45.607319337944844" lon="10.733107847745803"><ele>319.0</ele><time>2026-03-28T14:17:30.001Z</time></trkpt><trkpt lat="45.607431552311304" lon="10.7331970091087"><ele>319.0</ele><time>2026-03-28T14:17:32.001Z</time></trkpt><trkpt lat="45.6074984170714" lon="10.733233477422923"><ele>319.0</ele><time>2026-03-28T14:17:33.001Z</time></trkpt><trkpt lat="45.60756374106439" lon="10.733228132561374"><ele>319.0</ele><time>2026-03-28T14:17:34.001Z</time></trkpt><trkpt lat="45.607637740326865" lon="10.733203189533908"><ele>319.0</ele><time>2026-03-28T14:17:35.001Z</time></trkpt><trkpt lat="45.60770401342204" lon="10.733188294993186"><ele>319.0</ele><time>2026-03-28T14:17:36.001Z</time></trkpt><trkpt lat="45.60778936843702" lon="10.733231690547601"><ele>319.0</ele><time>2026-03-28T14:17:38.001Z</time></trkpt><trkpt lat="45.607858874690976" lon="10.733366110657816"><ele>321.0</ele><time>2026-03-28T14:17:40.001Z</time></trkpt><trkpt lat="45.60790003464054" lon="10.733450125323694"><ele>323.0</ele><time>2026-03-28T14:17:41Z</time></trkpt><trkpt lat="45.60794649288561" lon="10.733588784947761"><ele>325.0</ele><time>2026-03-28T14:17:43Z</time></trkpt><trkpt lat="45.60793917227588" lon="10.73367974720568"><ele>327.0</ele><time>2026-03-28T14:17:45Z</time></trkpt><trkpt lat="45.60790124120191" lon="10.73376015829539"><ele>329.0</ele><time>2026-03-28T14:17:47Z</time></trkpt><trkpt lat="45.60783395292747" lon="10.73381416259837"><ele>331.0</ele><time>2026-03-28T14:17:52Z</time></trkpt><trkpt lat="45.60772467515075" lon="10.733861379077931"><ele>332.8</ele><time>2026-03-28T14:17:54Z</time></trkpt><trkpt lat="45.60760672850402" lon="10.73387383868653"><ele>334.6</ele><time>2026-03-28T14:17:56Z</time></trkpt><trkpt lat="45.60748765779018" lon="10.73390317445475"><ele>336.4</ele><time>2026-03-28T14:17:58Z</time></trkpt><trkpt lat="45.607420822241544" lon="10.733917164040546"><ele>338.2</ele><time>2026-03-28T14:17:59Z</time></trkpt><trkpt lat="45.60730281368334" lon="10.733943669267008"><ele>340.0</ele><time>2026-03-28T14:18:01Z</time></trkpt><trkpt lat="45.60720881831699" lon="10.734022922669274"><ele>340.0</ele><time>2026-03-28T14:18:03Z</time></trkpt><trkpt lat="45.607130547769" lon="10.734138463065472"><ele>340.0</ele><time>2026-03-28T14:18:05Z</time></trkpt><trkpt lat="45.60714575952538" lon="10.73424001676911"><ele>340.0</ele><time>2026-03-28T14:18:09Z</time></trkpt><trkpt lat="45.60720969261704" lon="10.734262104801948"><ele>340.0</ele><time>2026-03-28T14:18:10Z</time></trkpt><trkpt lat="45.60728912891682" lon="10.734211949967408"><ele>340.0</ele><time>2026-03-28T14:18:11Z</time></trkpt><trkpt lat="45.60740205319711" lon="10.734210049283428"><ele>340.0</ele><time>2026-03-28T14:18:13Z</time></trkpt><trkpt lat="45.60747262526817" lon="10.734192351347332"><ele>340.0</ele><time>2026-03-28T14:18:14Z</time></trkpt><trkpt lat="45.60758655332581" lon="10.73415876649019"><ele>340.0</ele><time>2026-03-28T14:18:16Z</time></trkpt><trkpt lat="45.60765678216511" lon="10.73413222519826"><ele>340.0</ele><time>2026-03-28T14:18:18Z</time></trkpt><trkpt lat="45.60779004057356" lon="10.73410603270023"><ele>340.0</ele><time>2026-03-28T14:18:40Z</time></trkpt><trkpt lat="45.607875830180596" lon="10.734058199587919"><ele>341.4</ele><time>2026-03-28T14:18:41Z</time></trkpt><trkpt lat="45.60799160834586" lon="10.734007002769843"><ele>342.8</ele><time>2026-03-28T14:18:42Z</time></trkpt><trkpt lat="45.608080849606935" lon="10.733981243030422"><ele>344.20000000000005</ele><time>2026-03-28T14:18:43Z</time></trkpt><trkpt lat="45.60817246053803" lon="10.73396095832641"><ele>345.6</ele><time>2026-03-28T14:18:44Z</time></trkpt><trkpt lat="45.60825468991441" lon="10.733952398086805"><ele>347.0</ele><time>2026-03-28T14:18:45Z</time></trkpt><trkpt lat="45.60833555296316" lon="10.733970658299246"><ele>347.0</ele><time>2026-03-28T14:18:46Z</time></trkpt><trkpt lat="45.608421188175036" lon="10.733988300253401"><ele>347.0</ele><time>2026-03-28T14:18:47Z</time></trkpt><trkpt lat="45.60849518537092" lon="10.734009407290037"><ele>347.0</ele><time>2026-03-28T14:18:48Z</time></trkpt><trkpt lat="45.608559145201234" lon="10.733979301722112"><ele>347.0</ele><time>2026-03-28T14:18:49Z</time></trkpt><trkpt lat="45.60867587251854" lon="10.733841667401753"><ele>347.0</ele><time>2026-03-28T14:18:51Z</time></trkpt><trkpt lat="45.6087457846176" lon="10.73373096267559"><ele>346.8</ele><time>2026-03-28T14:18:52Z</time></trkpt><trkpt lat="45.608820572577685" lon="10.733617540337121"><ele>346.6</ele><time>2026-03-28T14:18:53Z</time></trkpt><trkpt lat="45.60889858753291" lon="10.733505236111284"><ele>346.40000000000003</ele><time>2026-03-28T14:18:54Z</time></trkpt><trkpt lat="45.60897507825203" lon="10.73340386264477"><ele>346.20000000000005</ele><time>2026-03-28T14:18:55Z</time></trkpt><trkpt lat="45.60904616637077" lon="10.733300747525801"><ele>346.0</ele><time>2026-03-28T14:18:56Z</time></trkpt><trkpt lat="45.60912000564947" lon="10.733201412084865"><ele>346.0</ele><time>2026-03-28T14:18:57Z</time></trkpt><trkpt lat="45.609197162292205" lon="10.733094188362093"><ele>346.0</ele><time>2026-03-28T14:18:58Z</time></trkpt><trkpt lat="45.609272456773155" lon="10.732989673014314"><ele>346.0</ele><time>2026-03-28T14:18:59Z</time></trkpt><trkpt lat="45.609349338223524" lon="10.732891015676087"><ele>346.0</ele><time>2026-03-28T14:19:00.001Z</time></trkpt><trkpt lat="45.6094237596572" lon="10.732810925260113"><ele>346.0</ele><time>2026-03-28T14:19:01.001Z</time></trkpt><trkpt lat="45.60950329753965" lon="10.73273821802277"><ele>347.0</ele><time>2026-03-28T14:19:02.001Z</time></trkpt><trkpt lat="45.60958813175618" lon="10.732666792818756"><ele>348.0</ele><time>2026-03-28T14:19:03.001Z</time></trkpt><trkpt lat="45.6096709554811" lon="10.732594371410716"><ele>349.0</ele><time>2026-03-28T14:19:04.001Z</time></trkpt><trkpt lat="45.60976232871159" lon="10.732543218847528"><ele>350.0</ele><time>2026-03-28T14:19:05.001Z</time></trkpt><trkpt lat="45.60984625845271" lon="10.732507599887555"><ele>351.0</ele><time>2026-03-28T14:19:06.001Z</time></trkpt><trkpt lat="45.60991503027773" lon="10.73248592197781"><ele>351.0</ele><time>2026-03-28T14:19:07.001Z</time></trkpt><trkpt lat="45.61003485119172" lon="10.732457347626196"><ele>351.0</ele><time>2026-03-28T14:19:09.001Z</time></trkpt><trkpt lat="45.610115888476585" lon="10.732451624378205"><ele>351.0</ele><time>2026-03-28T14:19:10.001Z</time></trkpt><trkpt lat="45.61020602585848" lon="10.73244717691964"><ele>351.0</ele><time>2026-03-28T14:19:11.001Z</time></trkpt><trkpt lat="45.61028253215199" lon="10.732435296959222"><ele>351.0</ele><time>2026-03-28T14:19:12.001Z</time></trkpt><trkpt lat="45.61035500920173" lon="10.732443154803684"><ele>351.0</ele><time>2026-03-28T14:19:13.001Z</time></trkpt><trkpt lat="45.610423549097774" lon="10.73247327572416"><ele>353.5</ele><time>2026-03-28T14:19:14.001Z</time></trkpt><trkpt lat="45.61049390705805" lon="10.732559036156644"><ele>356.0</ele><time>2026-03-28T14:19:15.001Z</time></trkpt><trkpt lat="45.610565210687106" lon="10.732638177621736"><ele>358.5</ele><time>2026-03-28T14:19:16.001Z</time></trkpt><trkpt lat="45.610627749726575" lon="10.732653360362233"><ele>361.0</ele><time>2026-03-28T14:19:17.001Z</time></trkpt><trkpt lat="45.610730411090906" lon="10.732676574255105"><ele>363.5</ele><time>2026-03-28T14:19:19.001Z</time></trkpt><trkpt lat="45.6108173414399" lon="10.73270143530167"><ele>366.0</ele><time>2026-03-28T14:19:21.001Z</time></trkpt><trkpt lat="45.61092718606229" lon="10.732755160207917"><ele>368.1666666666667</ele><time>2026-03-28T14:19:23.001Z</time></trkpt><trkpt lat="45.61098838798249" lon="10.732779315113591"><ele>370.3333333333333</ele><time>2026-03-28T14:19:24.001Z</time></trkpt><trkpt lat="45.61103379558106" lon="10.7328685656557"><ele>372.5</ele><time>2026-03-28T14:19:26.001Z</time></trkpt><trkpt lat="45.611068998325756" lon="10.733012627994901"><ele>374.66666666666663</ele><time>2026-03-28T14:19:28.001Z</time></trkpt><trkpt lat="45.61103993815786" lon="10.733116619931723"><ele>376.8333333333333</ele><time>2026-03-28T14:19:30.001Z</time></trkpt><trkpt lat="45.611047227239766" lon="10.733230472324674"><ele>379.0</ele><time>2026-03-28T14:19:31.001Z</time></trkpt><trkpt lat="45.61105627362687" lon="10.733413282631311"><ele>381.8333333333333</ele><time>2026-03-28T14:19:33.001Z</time></trkpt><trkpt lat="45.6110636439772" lon="10.733565299578805"><ele>384.66666666666663</ele><time>2026-03-28T14:19:35.001Z</time></trkpt><trkpt lat="45.61106663561149" lon="10.733695331201192"><ele>387.5</ele><time>2026-03-28T14:19:37.001Z</time></trkpt><trkpt lat="45.61108350874504" lon="10.73378426611429"><ele>390.3333333333333</ele><time>2026-03-28T14:19:38.001Z</time></trkpt><trkpt lat="45.61108395217834" lon="10.733900603451698"><ele>393.1666666666667</ele><time>2026-03-28T14:19:40.001Z</time></trkpt><trkpt lat="45.61107167729495" lon="10.734012159471398"><ele>396.0</ele><time>2026-03-28T14:35:15Z</time></trkpt><trkpt lat="45.61107875662892" lon="10.734115439849472"><ele>396.0</ele><time>2026-03-28T14:36:54Z</time></trkpt><trkpt lat="45.61107664814323" lon="10.734205722557828"><ele>396.0</ele><time>2026-03-28T14:36:58Z</time></trkpt><trkpt lat="45.611085953759286" lon="10.734300696489159"><ele>396.0</ele><time>2026-03-28T14:37:24Z</time></trkpt><trkpt lat="45.61113944328318" lon="10.73440307178632"><ele>396.0</ele><time>2026-03-28T14:37:28Z</time></trkpt><trkpt lat="45.61120065834775" lon="10.734497840687169"><ele>396.0</ele><time>2026-03-28T14:37:31Z</time></trkpt><trkpt lat="45.61127258086125" lon="10.734567660641975"><ele>396.0</ele><time>2026-03-28T14:37:33Z</time></trkpt><trkpt lat="45.6113401139105" lon="10.734584547461951"><ele>399.5714285714286</ele><time>2026-03-28T14:37:35Z</time></trkpt><trkpt lat="45.611402131707464" lon="10.734638331499303"><ele>403.1428571428571</ele><time>2026-03-28T14:43:38Z</time></trkpt><trkpt lat="45.61146575194264" lon="10.734655423344577"><ele>406.7142857142857</ele><time>2026-03-28T14:43:49Z</time></trkpt><trkpt lat="45.611397281516716" lon="10.734625281069388"><ele>410.28571428571433</ele><time>2026-03-28T14:47:56Z</time></trkpt><trkpt lat="45.61146304203723" lon="10.734642192989972"><ele>413.8571428571429</ele><time>2026-03-28T14:48:14Z</time></trkpt><trkpt lat="45.6115377066245" lon="10.734634048820276"><ele>417.42857142857144</ele><time>2026-03-28T14:49:11Z</time></trkpt><trkpt lat="45.61161790637332" lon="10.734621474293931"><ele>421.0</ele><time>2026-03-28T14:49:14Z</time></trkpt><trkpt lat="45.61167820702163" lon="10.734651615568305"><ele>421.00000000000006</ele><time>2026-03-28T14:49:17Z</time></trkpt><trkpt lat="45.61175302677766" lon="10.734691652813488"><ele>421.0</ele><time>2026-03-28T14:49:20Z</time></trkpt><trkpt lat="45.611805710888504" lon="10.734749040392098"><ele>421.0</ele><time>2026-03-28T14:49:23Z</time></trkpt><trkpt lat="45.61188666001586" lon="10.734814081458993"><ele>421.0</ele><time>2026-03-28T14:52:00Z</time></trkpt><trkpt lat="45.6119484447925" lon="10.734876823923333"><ele>421.00000000000006</ele><time>2026-03-28T14:52:02Z</time></trkpt><trkpt lat="45.61203495708649" lon="10.734906787859936"><ele>421.0</ele><time>2026-03-28T14:52:05Z</time></trkpt><trkpt lat="45.61211017785653" lon="10.734876630764976"><ele>421.1666666666667</ele><time>2026-03-28T14:52:08Z</time></trkpt><trkpt lat="45.612192110255464" lon="10.73480118044329"><ele>421.33333333333337</ele><time>2026-03-28T14:52:11Z</time></trkpt><trkpt lat="45.612260548356495" lon="10.734785636123723"><ele>421.5</ele><time>2026-03-28T14:52:13Z</time></trkpt><trkpt lat="45.612331826289875" lon="10.73476630198046"><ele>421.66666666666663</ele><time>2026-03-28T14:52:16Z</time></trkpt><trkpt lat="45.612397011394435" lon="10.734713275632645"><ele>421.8333333333333</ele><time>2026-03-28T14:52:19Z</time></trkpt><trkpt lat="45.61234061590954" lon="10.73479640171772"><ele>422.0</ele><time>2026-03-28T14:55:01Z</time></trkpt><trkpt lat="45.612396896865484" lon="10.734749985260258"><ele>422.0</ele><time>2026-03-28T14:55:07Z</time></trkpt><trkpt lat="45.612460095705174" lon="10.734724841792442"><ele>422.0</ele><time>2026-03-28T14:55:16.999Z</time></trkpt><trkpt lat="45.61255920352418" lon="10.734841150399484"><ele>422.0</ele><time>2026-03-28T14:55:54Z</time></trkpt><trkpt lat="45.61264107196348" lon="10.734859783263838"><ele>422.0</ele><time>2026-03-28T14:55:56Z</time></trkpt><trkpt lat="45.61275121690386" lon="10.734870399323347"><ele>422.0</ele><time>2026-03-28T14:55:59Z</time></trkpt><trkpt lat="45.61282866947685" lon="10.734885311132656"><ele>422.0</ele><time>2026-03-28T14:56:01Z</time></trkpt><trkpt lat="45.61288036118038" lon="10.734942210231115"><ele>422.0</ele><time>2026-03-28T14:56:03Z</time></trkpt><trkpt lat="45.61294420099719" lon="10.734998926442302"><ele>422.0</ele><time>2026-03-28T14:56:06Z</time></trkpt><trkpt lat="45.61298632133232" lon="10.735095771865215"><ele>422.0</ele><time>2026-03-28T14:56:08Z</time></trkpt><trkpt lat="45.6130527985525" lon="10.735226976143418"><ele>422.0</ele><time>2026-03-28T14:56:10Z</time></trkpt><trkpt lat="45.613130593900394" lon="10.735354729151963"><ele>428.0</ele><time>2026-03-28T14:56:12Z</time></trkpt><trkpt lat="45.61321564332267" lon="10.735478371314157"><ele>434.0</ele><time>2026-03-28T14:56:14Z</time></trkpt><trkpt lat="45.61329059436775" lon="10.735615548233532"><ele>440.0</ele><time>2026-03-28T14:56:16Z</time></trkpt><trkpt lat="45.61337582540967" lon="10.735749157364536"><ele>446.0</ele><time>2026-03-28T14:56:18Z</time></trkpt><trkpt lat="45.6134432377717" lon="10.735863277602116"><ele>446.0</ele><time>2026-03-28T14:56:20Z</time></trkpt><trkpt lat="45.61353489459499" lon="10.735939937680829"><ele>446.0</ele><time>2026-03-28T14:56:22Z</time></trkpt><trkpt lat="45.613634874112364" lon="10.736015076178791"><ele>446.0</ele><time>2026-03-28T14:56:24Z</time></trkpt><trkpt lat="45.61368981518191" lon="10.736061199202325"><ele>446.0</ele><time>2026-03-28T14:56:25Z</time></trkpt><trkpt lat="45.613779362655656" lon="10.736162642142428"><ele>446.0</ele><time>2026-03-28T14:56:27Z</time></trkpt><trkpt lat="45.61383689273106" lon="10.7362077407354"><ele>448.49999999999994</ele><time>2026-03-28T14:56:28Z</time></trkpt><trkpt lat="45.61392257659559" lon="10.736273223552448"><ele>451.0</ele><time>2026-03-28T14:56:30Z</time></trkpt><trkpt lat="45.61401443586505" lon="10.736307126542549"><ele>453.5</ele><time>2026-03-28T14:56:32Z</time></trkpt><trkpt lat="45.614108659054004" lon="10.736316868231793"><ele>456.0</ele><time>2026-03-28T14:56:34Z</time></trkpt><trkpt lat="45.61416872018049" lon="10.736348587392808"><ele>458.49999999999994</ele><time>2026-03-28T14:56:36Z</time></trkpt><trkpt lat="45.61421726231525" lon="10.73641539235959"><ele>461.0</ele><time>2026-03-28T14:56:38Z</time></trkpt><trkpt lat="45.61422378288642" lon="10.736544038992145"><ele>461.0</ele><time>2026-03-28T14:56:40Z</time></trkpt><trkpt lat="45.614213521108574" lon="10.736637895018434"><ele>461.00000000000006</ele><time>2026-03-28T14:56:43Z</time></trkpt><trkpt lat="45.614227033405164" lon="10.736727039772514"><ele>461.0</ele><time>2026-03-28T14:56:53Z</time></trkpt><trkpt lat="45.61428168969907" lon="10.736779924999711"><ele>461.0</ele><time>2026-03-28T14:56:54Z</time></trkpt><trkpt lat="45.614361970464074" lon="10.736768012630039"><ele>461.00000000000006</ele><time>2026-03-28T14:56:57Z</time></trkpt><trkpt lat="45.6144386773879" lon="10.736785955518693"><ele>461.0</ele><time>2026-03-28T14:56:59Z</time></trkpt><trkpt lat="45.61450545368474" lon="10.736813778751879"><ele>461.0</ele><time>2026-03-28T14:57:01Z</time></trkpt><trkpt lat="45.61457339467226" lon="10.736790546089916"><ele>458.8333333333333</ele><time>2026-03-28T14:57:03Z</time></trkpt><trkpt lat="45.61465928566836" lon="10.736719769305013"><ele>456.66666666666663</ele><time>2026-03-28T14:57:06Z</time></trkpt><trkpt lat="45.614727674417395" lon="10.736652161528303"><ele>454.5</ele><time>2026-03-28T14:57:08Z</time></trkpt><trkpt lat="45.61479102278449" lon="10.73659363041397"><ele>452.33333333333337</ele><time>2026-03-28T14:57:10Z</time></trkpt><trkpt lat="45.61485862636994" lon="10.736520617160435"><ele>450.1666666666667</ele><time>2026-03-28T14:57:12Z</time></trkpt><trkpt lat="45.61493294158166" lon="10.73644459337595"><ele>448.0</ele><time>2026-03-28T14:57:14Z</time></trkpt><trkpt lat="45.61501000470926" lon="10.736353033544544"><ele>448.0</ele><time>2026-03-28T14:57:16Z</time></trkpt><trkpt lat="45.615101490768986" lon="10.736254226422274"><ele>447.99999999999994</ele><time>2026-03-28T14:57:18Z</time></trkpt><trkpt lat="45.615196516154455" lon="10.736155913758816"><ele>447.99999999999994</ele><time>2026-03-28T14:57:20Z</time></trkpt><trkpt lat="45.615251828289864" lon="10.736047047514022"><ele>448.0</ele><time>2026-03-28T14:57:22Z</time></trkpt><trkpt lat="45.615284289093886" lon="10.735926312136446"><ele>448.0</ele><time>2026-03-28T14:57:24Z</time></trkpt><trkpt lat="45.615319881880545" lon="10.735841282492057"><ele>443.59999999999997</ele><time>2026-03-28T14:57:26Z</time></trkpt><trkpt lat="45.61538836201548" lon="10.735764134149203"><ele>439.19999999999993</ele><time>2026-03-28T14:57:28Z</time></trkpt><trkpt lat="45.61545709832744" lon="10.735745625481218"><ele>434.8</ele><time>2026-03-28T14:57:29Z</time></trkpt><trkpt lat="45.61557956001768" lon="10.735709103526593"><ele>430.4</ele><time>2026-03-28T14:57:31Z</time></trkpt><trkpt lat="45.615667377450606" lon="10.735650670604722"><ele>426.0</ele><time>2026-03-28T14:57:33Z</time></trkpt><trkpt lat="45.615748090456364" lon="10.735558971088171"><ele>426.0</ele><time>2026-03-28T14:57:34.999Z</time></trkpt><trkpt lat="45.61580216891932" lon="10.735494630257019"><ele>426.0</ele><time>2026-03-28T14:57:35.999Z</time></trkpt><trkpt lat="45.615854221829544" lon="10.735427118600834"><ele>426.0</ele><time>2026-03-28T14:57:36.999Z</time></trkpt><trkpt lat="45.61591291410242" lon="10.73534816613983"><ele>426.0</ele><time>2026-03-28T14:57:37.999Z</time></trkpt><trkpt lat="45.61596336830989" lon="10.735261850707648"><ele>426.0</ele><time>2026-03-28T14:57:38.999Z</time></trkpt><trkpt lat="45.616009697733666" lon="10.735179181289956"><ele>426.0</ele><time>2026-03-28T14:57:40Z</time></trkpt><trkpt lat="45.61606565202481" lon="10.735103385169273"><ele>426.1666666666667</ele><time>2026-03-28T14:57:41Z</time></trkpt><trkpt lat="45.616125060603395" lon="10.735024720075325"><ele>426.33333333333337</ele><time>2026-03-28T14:57:42Z</time></trkpt><trkpt lat="45.61616695919833" lon="10.73495396517423"><ele>426.5</ele><time>2026-03-28T14:57:43Z</time></trkpt><trkpt lat="45.616241024948685" lon="10.734816776807977"><ele>426.6666666666667</ele><time>2026-03-28T14:57:45Z</time></trkpt><trkpt lat="45.616283995954916" lon="10.734746800882881"><ele>426.83333333333337</ele><time>2026-03-28T14:57:46Z</time></trkpt><trkpt lat="45.61633131266396" lon="10.734675772761065"><ele>427.0</ele><time>2026-03-28T14:57:47Z</time></trkpt><trkpt lat="45.61638301198623" lon="10.734620598339667"><ele>427.0</ele><time>2026-03-28T14:57:48Z</time></trkpt><trkpt lat="45.616437199384386" lon="10.734565255328189"><ele>427.0</ele><time>2026-03-28T14:57:49Z</time></trkpt><trkpt lat="45.61649440890603" lon="10.7344980869418"><ele>427.0</ele><time>2026-03-28T14:57:50Z</time></trkpt><trkpt lat="45.61653864020347" lon="10.734408873394838"><ele>427.0</ele><time>2026-03-28T14:57:51Z</time></trkpt><trkpt lat="45.61657013598147" lon="10.734318101812367"><ele>427.0</ele><time>2026-03-28T14:57:52Z</time></trkpt><trkpt lat="45.61659753535238" lon="10.73422127099837"><ele>427.0</ele><time>2026-03-28T14:57:53Z</time></trkpt><trkpt lat="45.61662393398758" lon="10.734107076263873"><ele>427.0</ele><time>2026-03-28T14:57:54Z</time></trkpt><trkpt lat="45.616652737127154" lon="10.7339915775892"><ele>427.8</ele><time>2026-03-28T14:57:55Z</time></trkpt><trkpt lat="45.61669910413265" lon="10.733812718313818"><ele>428.6</ele><time>2026-03-28T14:57:57Z</time></trkpt><trkpt lat="45.61672606595627" lon="10.73372222545654"><ele>429.40000000000003</ele><time>2026-03-28T14:57:58Z</time></trkpt><trkpt lat="45.61677554748957" lon="10.73359098971051"><ele>430.20000000000005</ele><time>2026-03-28T14:58:00Z</time></trkpt><trkpt lat="45.616811104478636" lon="10.733490009580356"><ele>431.0</ele><time>2026-03-28T14:58:02Z</time></trkpt><trkpt lat="45.6168411522088" lon="10.733385257817691"><ele>430.99999999999994</ele><time>2026-03-28T14:58:04Z</time></trkpt><trkpt lat="45.61687879008078" lon="10.733249875498034"><ele>431.0</ele><time>2026-03-28T14:58:06Z</time></trkpt><trkpt lat="45.61690380812749" lon="10.733153070185876"><ele>431.0</ele><time>2026-03-28T14:58:07Z</time></trkpt><trkpt lat="45.61692409308516" lon="10.733062552269773"><ele>431.0</ele><time>2026-03-28T14:58:08Z</time></trkpt><trkpt lat="45.61694488492881" lon="10.732883926345377"><ele>430.99999999999994</ele><time>2026-03-28T14:58:10Z</time></trkpt><trkpt lat="45.616947244514755" lon="10.732788433104954"><ele>431.0</ele><time>2026-03-28T14:58:11Z</time></trkpt><trkpt lat="45.61695411258682" lon="10.732620249428445"><ele>429.66666666666663</ele><time>2026-03-28T14:58:13Z</time></trkpt><trkpt lat="45.616944802688764" lon="10.732440606860374"><ele>428.3333333333333</ele><time>2026-03-28T14:58:15Z</time></trkpt><trkpt lat="45.61692952186408" lon="10.7323465909364"><ele>427.0</ele><time>2026-03-28T14:58:16Z</time></trkpt><trkpt lat="45.61692021742027" lon="10.732250705031225"><ele>425.66666666666663</ele><time>2026-03-28T14:58:17Z</time></trkpt><trkpt lat="45.616900904913145" lon="10.732151130672094"><ele>424.3333333333333</ele><time>2026-03-28T14:58:18Z</time></trkpt><trkpt lat="45.61687408299809" lon="10.732051408837238"><ele>423.0</ele><time>2026-03-28T14:58:19Z</time></trkpt><trkpt lat="45.61684417918264" lon="10.731956679465059"><ele>420.57142857142856</ele><time>2026-03-28T14:58:20Z</time></trkpt><trkpt lat="45.6168119483051" lon="10.731869109211909"><ele>418.14285714285717</ele><time>2026-03-28T14:58:21Z</time></trkpt><trkpt lat="45.616777594849715" lon="10.731776051531934"><ele>415.7142857142857</ele><time>2026-03-28T14:58:22Z</time></trkpt><trkpt lat="45.61674214457867" lon="10.731691902780383"><ele>413.2857142857143</ele><time>2026-03-28T14:58:23Z</time></trkpt><trkpt lat="45.61670343996351" lon="10.731606411843352"><ele>410.8571428571429</ele><time>2026-03-28T14:58:24Z</time></trkpt><trkpt lat="45.61666762080221" lon="10.731523250762816"><ele>408.42857142857144</ele><time>2026-03-28T14:58:25Z</time></trkpt><trkpt lat="45.616629972957334" lon="10.731436143618716"><ele>406.0</ele><time>2026-03-28T14:58:26Z</time></trkpt><trkpt lat="45.61659011052267" lon="10.73135581026837"><ele>406.0</ele><time>2026-03-28T14:58:27Z</time></trkpt><trkpt lat="45.61654039024959" lon="10.731283273213954"><ele>406.0</ele><time>2026-03-28T14:58:28Z</time></trkpt><trkpt lat="45.61648782213257" lon="10.73122187027163"><ele>406.0</ele><time>2026-03-28T14:58:29Z</time></trkpt><trkpt lat="45.616391463032066" lon="10.731128921313482"><ele>406.0</ele><time>2026-03-28T14:58:31Z</time></trkpt><trkpt lat="45.616348964975224" lon="10.731000429734097"><ele>406.0</ele><time>2026-03-28T14:58:33Z</time></trkpt><trkpt lat="45.61631556707445" lon="10.730873078929077"><ele>404.6666666666667</ele><time>2026-03-28T14:58:35Z</time></trkpt><trkpt lat="45.61630901892355" lon="10.730703031395157"><ele>403.33333333333337</ele><time>2026-03-28T14:58:37Z</time></trkpt><trkpt lat="45.616316241590724" lon="10.73060679093597"><ele>402.0</ele><time>2026-03-28T14:58:38Z</time></trkpt><trkpt lat="45.616317361828074" lon="10.730509964627764"><ele>400.66666666666663</ele><time>2026-03-28T14:58:39Z</time></trkpt><trkpt lat="45.61631336902474" lon="10.730419946121701"><ele>399.3333333333333</ele><time>2026-03-28T14:58:40Z</time></trkpt><trkpt lat="45.61630804600913" lon="10.730249210460038"><ele>398.0</ele><time>2026-03-28T14:58:42Z</time></trkpt><trkpt lat="45.61628595213809" lon="10.730088093602847"><ele>398.0</ele><time>2026-03-28T14:58:44Z</time></trkpt><trkpt lat="45.61622791008555" lon="10.729935317789504"><ele>398.0</ele><time>2026-03-28T14:58:46Z</time></trkpt><trkpt lat="45.61615911564882" lon="10.729796235081967"><ele>398.0</ele><time>2026-03-28T14:58:48Z</time></trkpt><trkpt lat="45.61606278208002" lon="10.729691329269748"><ele>398.0</ele><time>2026-03-28T14:58:50Z</time></trkpt><trkpt lat="45.61600169455844" lon="10.729662853405413"><ele>398.0</ele><time>2026-03-28T14:58:51Z</time></trkpt><trkpt lat="45.615938097448414" lon="10.729628695661999"><ele>394.16666666666663</ele><time>2026-03-28T14:58:52Z</time></trkpt><trkpt lat="45.61587673194194" lon="10.72960425693456"><ele>390.3333333333333</ele><time>2026-03-28T14:58:53Z</time></trkpt><trkpt lat="45.61581493568219" lon="10.72958479147579"><ele>386.5</ele><time>2026-03-28T14:58:54Z</time></trkpt><trkpt lat="45.615749048820476" lon="10.729567883599639"><ele>382.66666666666663</ele><time>2026-03-28T14:58:55Z</time></trkpt><trkpt lat="45.615623291015574" lon="10.729557356720242"><ele>378.8333333333333</ele><time>2026-03-28T14:58:57Z</time></trkpt><trkpt lat="45.61552400122801" lon="10.729579108639262"><ele>375.0</ele><time>2026-03-28T14:58:59Z</time></trkpt><trkpt lat="45.6154319611435" lon="10.729658708661344"><ele>375.0</ele><time>2026-03-28T14:59:01Z</time></trkpt><trkpt lat="45.61536664329617" lon="10.729788344674077"><ele>375.0</ele><time>2026-03-28T14:59:03Z</time></trkpt><trkpt lat="45.61533331167687" lon="10.729965694970815"><ele>375.0</ele><time>2026-03-28T14:59:05Z</time></trkpt><trkpt lat="45.61532469873141" lon="10.730063131642625"><ele>375.0</ele><time>2026-03-28T14:59:06Z</time></trkpt><trkpt lat="45.61532047580048" lon="10.730169030570304"><ele>375.0</ele><time>2026-03-28T14:59:07Z</time></trkpt><trkpt lat="45.61531846176197" lon="10.730343200624672"><ele>373.0</ele><time>2026-03-28T14:59:09Z</time></trkpt><trkpt lat="45.61531151455032" lon="10.730482245196695"><ele>371.0</ele><time>2026-03-28T14:59:11Z</time></trkpt><trkpt lat="45.615276743505" lon="10.730575083885016"><ele>369.0</ele><time>2026-03-28T14:59:13Z</time></trkpt><trkpt lat="45.61520136043398" lon="10.730565587939125"><ele>367.0</ele><time>2026-03-28T14:59:16Z</time></trkpt><trkpt lat="45.61519264379168" lon="10.730454974120178"><ele>365.0</ele><time>2026-03-28T14:59:18Z</time></trkpt><trkpt lat="45.615171028365154" lon="10.730365918549454"><ele>363.0</ele><time>2026-03-28T14:59:20Z</time></trkpt><trkpt lat="45.61514554267791" lon="10.73024945594751"><ele>361.59999999999997</ele><time>2026-03-28T14:59:22Z</time></trkpt><trkpt lat="45.61511410750617" lon="10.730140934508816"><ele>360.2</ele><time>2026-03-28T14:59:24Z</time></trkpt><trkpt lat="45.61505589048069" lon="10.730024725870924"><ele>358.8</ele><time>2026-03-28T14:59:26Z</time></trkpt><trkpt lat="45.61499665619695" lon="10.729966832272712"><ele>357.4</ele><time>2026-03-28T14:59:27Z</time></trkpt><trkpt lat="45.61490589194941" lon="10.729921231581715"><ele>356.0</ele><time>2026-03-28T14:59:28Z</time></trkpt><trkpt lat="45.61481499428523" lon="10.729840989345087"><ele>356.0</ele><time>2026-03-28T14:59:29Z</time></trkpt><trkpt lat="45.61471495524419" lon="10.729796299646058"><ele>356.0</ele><time>2026-03-28T14:59:30Z</time></trkpt><trkpt lat="45.61462346717453" lon="10.729726817904663"><ele>356.0</ele><time>2026-03-28T14:59:31Z</time></trkpt><trkpt lat="45.61453843716291" lon="10.729657339770972"><ele>356.0</ele><time>2026-03-28T14:59:32Z</time></trkpt><trkpt lat="45.61445808708286" lon="10.729591908032235"><ele>356.0</ele><time>2026-03-28T14:59:33Z</time></trkpt><trkpt lat="45.61438363992488" lon="10.729530365429428"><ele>354.6666666666667</ele><time>2026-03-28T14:59:34Z</time></trkpt><trkpt lat="45.61430994620333" lon="10.729467706081607"><ele>353.33333333333337</ele><time>2026-03-28T14:59:35Z</time></trkpt><trkpt lat="45.61423887468438" lon="10.729410724695992"><ele>352.0</ele><time>2026-03-28T14:59:36Z</time></trkpt><trkpt lat="45.61416848843575" lon="10.729349091482844"><ele>350.6666666666667</ele><time>2026-03-28T14:59:37Z</time></trkpt><trkpt lat="45.61409558143794" lon="10.729290963385312"><ele>349.3333333333333</ele><time>2026-03-28T14:59:37.999Z</time></trkpt><trkpt lat="45.6140222488097" lon="10.7292356244452"><ele>348.0</ele><time>2026-03-28T14:59:38.999Z</time></trkpt><trkpt lat="45.613952094842816" lon="10.72918261919869"><ele>348.0</ele><time>2026-03-28T14:59:39.999Z</time></trkpt><trkpt lat="45.6138885073701" lon="10.729113965741943"><ele>348.0</ele><time>2026-03-28T14:59:40.999Z</time></trkpt><trkpt lat="45.613831944736155" lon="10.72904758300011"><ele>348.0</ele><time>2026-03-28T14:59:41.999Z</time></trkpt><trkpt lat="45.61377529368964" lon="10.728998060185411"><ele>348.0</ele><time>2026-03-28T14:59:42.999Z</time></trkpt><trkpt lat="45.61371990323788" lon="10.72893940881055"><ele>348.0</ele><time>2026-03-28T14:59:44.999Z</time></trkpt><trkpt lat="45.6136478576837" lon="10.7288415057112"><ele>348.0</ele><time>2026-03-28T14:59:47.999Z</time></trkpt><trkpt lat="45.613678592491404" lon="10.728744898750508"><ele>347.5</ele><time>2026-03-28T14:59:48.999Z</time></trkpt><trkpt lat="45.61373783031466" lon="10.728591420057713"><ele>347.0</ele><time>2026-03-28T14:59:50.999Z</time></trkpt><trkpt lat="45.613791155464476" lon="10.728504801160717"><ele>346.5</ele><time>2026-03-28T14:59:51.999Z</time></trkpt><trkpt lat="45.61384947439363" lon="10.728425984853217"><ele>346.0</ele><time>2026-03-28T14:59:52.999Z</time></trkpt><trkpt lat="45.61389585030655" lon="10.72834160326249"><ele>345.5</ele><time>2026-03-28T14:59:53.999Z</time></trkpt><trkpt lat="45.61392704524389" lon="10.728244675804044"><ele>345.0</ele><time>2026-03-28T14:59:54.999Z</time></trkpt><trkpt lat="45.61394146800932" lon="10.728149457350742"><ele>346.4</ele><time>2026-03-28T14:59:55.999Z</time></trkpt><trkpt lat="45.61394662451249" lon="10.728016822885492"><ele>347.8</ele><time>2026-03-28T14:59:58Z</time></trkpt><trkpt lat="45.613877692207375" lon="10.727827073213161"><ele>349.20000000000005</ele><time>2026-03-28T15:00:00Z</time></trkpt><trkpt lat="45.613823665226704" lon="10.727726815825859"><ele>350.6</ele><time>2026-03-28T15:00:01Z</time></trkpt><trkpt lat="45.61376786151811" lon="10.727644640861985"><ele>352.0</ele><time>2026-03-28T15:00:02Z</time></trkpt><trkpt lat="45.613706680944276" lon="10.727589354746598"><ele>352.6</ele><time>2026-03-28T15:00:03Z</time></trkpt><trkpt lat="45.61363227545965" lon="10.727528553261033"><ele>353.20000000000005</ele><time>2026-03-28T15:00:04Z</time></trkpt><trkpt lat="45.61354238189814" lon="10.727498766527141"><ele>353.8</ele><time>2026-03-28T15:00:05Z</time></trkpt><trkpt lat="45.61344318317567" lon="10.727481169633116"><ele>354.4</ele><time>2026-03-28T15:00:06Z</time></trkpt><trkpt lat="45.61334339115994" lon="10.727495301784883"><ele>355.0</ele><time>2026-03-28T15:00:07Z</time></trkpt><trkpt lat="45.61325305957918" lon="10.7275096944673"><ele>355.0</ele><time>2026-03-28T15:00:08Z</time></trkpt><trkpt lat="45.61316771746399" lon="10.727513753822993"><ele>355.0</ele><time>2026-03-28T15:00:09Z</time></trkpt><trkpt lat="45.61308121819695" lon="10.72750515591609"><ele>355.0</ele><time>2026-03-28T15:00:10Z</time></trkpt><trkpt lat="45.61300621583642" lon="10.727478892184099"><ele>355.0</ele><time>2026-03-28T15:00:11Z</time></trkpt><trkpt lat="45.61293652840252" lon="10.727435558217381"><ele>355.0</ele><time>2026-03-28T15:00:12Z</time></trkpt><trkpt lat="45.612869884633255" lon="10.727380162236857"><ele>355.0</ele><time>2026-03-28T15:00:13Z</time></trkpt><trkpt lat="45.612808327079726" lon="10.727323493012797"><ele>356.2</ele><time>2026-03-28T15:00:14Z</time></trkpt><trkpt lat="45.6127478905137" lon="10.727288328143096"><ele>357.4</ele><time>2026-03-28T15:00:15Z</time></trkpt><trkpt lat="45.61268814949041" lon="10.727177195363028"><ele>358.6</ele><time>2026-03-28T15:00:17Z</time></trkpt><trkpt lat="45.61263493208123" lon="10.726996140948488"><ele>359.8</ele><time>2026-03-28T15:00:19Z</time></trkpt><trkpt lat="45.612590994500124" lon="10.726901977501598"><ele>361.0</ele><time>2026-03-28T15:00:20Z</time></trkpt><trkpt lat="45.61253737959742" lon="10.726803582617062"><ele>362.16666666666663</ele><time>2026-03-28T15:00:21Z</time></trkpt><trkpt lat="45.61247655142819" lon="10.726704906946868"><ele>363.3333333333333</ele><time>2026-03-28T15:00:22Z</time></trkpt><trkpt lat="45.61240739891204" lon="10.726643438039572"><ele>364.5</ele><time>2026-03-28T15:00:23Z</time></trkpt><trkpt lat="45.61235860238874" lon="10.726569679963411"><ele>365.6666666666667</ele><time>2026-03-28T15:00:24Z</time></trkpt><trkpt lat="45.61230798095302" lon="10.726499901029904"><ele>366.83333333333337</ele><time>2026-03-28T15:00:25Z</time></trkpt><trkpt lat="45.61225947101858" lon="10.726432352153628"><ele>368.0</ele><time>2026-03-28T15:00:26Z</time></trkpt><trkpt lat="45.61218161426516" lon="10.726302635520401"><ele>368.0</ele><time>2026-03-28T15:00:28Z</time></trkpt><trkpt lat="45.612134465652446" lon="10.726189305587802"><ele>368.0</ele><time>2026-03-28T15:00:30Z</time></trkpt><trkpt lat="45.612099487546665" lon="10.72606984301305"><ele>368.0</ele><time>2026-03-28T15:00:32Z</time></trkpt><trkpt lat="45.61211344528999" lon="10.725910039563386"><ele>368.0</ele><time>2026-03-28T15:00:34Z</time></trkpt><trkpt lat="45.612120326157424" lon="10.72580613196176"><ele>368.0</ele><time>2026-03-28T15:00:36Z</time></trkpt><trkpt lat="45.61234400718252" lon="10.725689184879844"><ele>368.0</ele><time>2026-03-28T15:00:38Z</time></trkpt><trkpt lat="45.612425042445246" lon="10.725559740964677"><ele>368.0</ele><time>2026-03-28T15:00:40Z</time></trkpt><trkpt lat="45.61247461050271" lon="10.725484549276597"><ele>368.0</ele><time>2026-03-28T15:00:41Z</time></trkpt><trkpt lat="45.61253861948103" lon="10.725412014637381"><ele>368.0</ele><time>2026-03-28T15:00:42Z</time></trkpt><trkpt lat="45.61261092479381" lon="10.725337872173432"><ele>368.0</ele><time>2026-03-28T15:00:43Z</time></trkpt><trkpt lat="45.61267716911158" lon="10.72527601851732"><ele>368.0</ele><time>2026-03-28T15:00:44Z</time></trkpt><trkpt lat="45.612732772817104" lon="10.725214328678408"><ele>368.0</ele><time>2026-03-28T15:00:45Z</time></trkpt><trkpt lat="45.61278045730866" lon="10.725147070751817"><ele>368.0</ele><time>2026-03-28T15:00:46Z</time></trkpt><trkpt lat="45.61284443861367" lon="10.725002650046742"><ele>368.0</ele><time>2026-03-28T15:00:48Z</time></trkpt><trkpt lat="45.612851248212074" lon="10.724856471552998"><ele>368.0</ele><time>2026-03-28T15:00:50Z</time></trkpt><trkpt lat="45.612761148364264" lon="10.72473090584962"><ele>368.0</ele><time>2026-03-28T15:00:52Z</time></trkpt><trkpt lat="45.612693671824395" lon="10.724702614232076"><ele>368.0</ele><time>2026-03-28T15:00:53Z</time></trkpt><trkpt lat="45.612617309602356" lon="10.724691657551887"><ele>368.0</ele><time>2026-03-28T15:00:54Z</time></trkpt><trkpt lat="45.61252230482761" lon="10.724681827992105"><ele>368.0</ele><time>2026-03-28T15:00:55Z</time></trkpt><trkpt lat="45.61242299417481" lon="10.724677954171414"><ele>368.0</ele><time>2026-03-28T15:00:56Z</time></trkpt><trkpt lat="45.612337445330475" lon="10.72468170201478"><ele>368.0</ele><time>2026-03-28T15:00:57Z</time></trkpt><trkpt lat="45.61226150474875" lon="10.72468049161935"><ele>368.0</ele><time>2026-03-28T15:00:58Z</time></trkpt><trkpt lat="45.61217966232028" lon="10.724687863529034"><ele>368.0</ele><time>2026-03-28T15:00:59Z</time></trkpt><trkpt lat="45.61209491938325" lon="10.724724116869506"><ele>368.0</ele><time>2026-03-28T15:01:00Z</time></trkpt><trkpt lat="45.61202205860586" lon="10.72475661008246"><ele>368.0</ele><time>2026-03-28T15:01:01Z</time></trkpt><trkpt lat="45.611957799728465" lon="10.724786008621798"><ele>368.0</ele><time>2026-03-28T15:01:02Z</time></trkpt><trkpt lat="45.6118920400754" lon="10.724817460776222"><ele>368.0</ele><time>2026-03-28T15:01:03Z</time></trkpt><trkpt lat="45.611815495915884" lon="10.724848351650266"><ele>368.0</ele><time>2026-03-28T15:01:04Z</time></trkpt><trkpt lat="45.61172797763373" lon="10.724889086312388"><ele>366.2857142857143</ele><time>2026-03-28T15:01:05Z</time></trkpt><trkpt lat="45.61164225933232" lon="10.724929080335071"><ele>364.57142857142856</ele><time>2026-03-28T15:01:06Z</time></trkpt><trkpt lat="45.61156704597383" lon="10.724961510774255"><ele>362.85714285714283</ele><time>2026-03-28T15:01:07Z</time></trkpt><trkpt lat="45.611496027356104" lon="10.72498944183653"><ele>361.1428571428571</ele><time>2026-03-28T15:01:08Z</time></trkpt><trkpt lat="45.61142996908562" lon="10.725013793926962"><ele>359.42857142857144</ele><time>2026-03-28T15:01:09Z</time></trkpt><trkpt lat="45.61136607226554" lon="10.725035014436541"><ele>357.71428571428567</ele><time>2026-03-28T15:01:10Z</time></trkpt><trkpt lat="45.61130284259926" lon="10.725040341661488"><ele>356.0</ele><time>2026-03-28T15:01:11Z</time></trkpt><trkpt lat="45.611210736891756" lon="10.725050166799672"><ele>355.0</ele><time>2026-03-28T15:01:12Z</time></trkpt><trkpt lat="45.61111742422363" lon="10.72509383717949"><ele>354.0</ele><time>2026-03-28T15:01:13Z</time></trkpt><trkpt lat="45.61104041451012" lon="10.725144859176341"><ele>353.0</ele><time>2026-03-28T15:01:14Z</time></trkpt><trkpt lat="45.610963000266075" lon="10.725178592451904"><ele>352.0</ele><time>2026-03-28T15:01:15Z</time></trkpt><trkpt lat="45.61088560337695" lon="10.72519836002121"><ele>351.0</ele><time>2026-03-28T15:01:16Z</time></trkpt><trkpt lat="45.61079278853547" lon="10.725215771838903"><ele>350.0</ele><time>2026-03-28T15:01:17Z</time></trkpt><trkpt lat="45.61069493688645" lon="10.725227197258727"><ele>350.0</ele><time>2026-03-28T15:01:18Z</time></trkpt><trkpt lat="45.61059546155006" lon="10.725227895092335"><ele>350.0</ele><time>2026-03-28T15:01:19Z</time></trkpt><trkpt lat="45.61050260938312" lon="10.725209899316104"><ele>350.0</ele><time>2026-03-28T15:01:20Z</time></trkpt><trkpt lat="45.61041110159946" lon="10.725183317533135"><ele>350.0</ele><time>2026-03-28T15:01:21Z</time></trkpt><trkpt lat="45.610315483943765" lon="10.72515937234459"><ele>350.0</ele><time>2026-03-28T15:01:22Z</time></trkpt><trkpt lat="45.61021625395831" lon="10.72513755100088"><ele>348.83333333333337</ele><time>2026-03-28T15:01:23Z</time></trkpt><trkpt lat="45.61011754011851" lon="10.725116719902466"><ele>347.6666666666667</ele><time>2026-03-28T15:01:24Z</time></trkpt><trkpt lat="45.610027186548095" lon="10.725098192267206"><ele>346.5</ele><time>2026-03-28T15:01:25Z</time></trkpt><trkpt lat="45.60994034296433" lon="10.725089671836173"><ele>345.3333333333333</ele><time>2026-03-28T15:01:26Z</time></trkpt><trkpt lat="45.60985614834689" lon="10.725088139064974"><ele>344.16666666666663</ele><time>2026-03-28T15:01:27Z</time></trkpt><trkpt lat="45.60977722833653" lon="10.725094362357009"><ele>343.0</ele><time>2026-03-28T15:01:28Z</time></trkpt><trkpt lat="45.60971315429225" lon="10.725103818939045"><ele>343.0</ele><time>2026-03-28T15:01:29Z</time></trkpt><trkpt lat="45.60964107240677" lon="10.725111510090718"><ele>343.0</ele><time>2026-03-28T15:01:30Z</time></trkpt><trkpt lat="45.60956525660982" lon="10.725121535946924"><ele>343.0</ele><time>2026-03-28T15:01:31Z</time></trkpt><trkpt lat="45.609483640381896" lon="10.725144718200452"><ele>343.0</ele><time>2026-03-28T15:01:32Z</time></trkpt><trkpt lat="45.60938020086571" lon="10.725155647313501"><ele>343.0</ele><time>2026-03-28T15:01:33Z</time></trkpt><trkpt lat="45.609275644854655" lon="10.725166032983243"><ele>343.0</ele><time>2026-03-28T15:01:34Z</time></trkpt><trkpt lat="45.6091789204682" lon="10.725182813026267"><ele>341.79999999999995</ele><time>2026-03-28T15:01:35Z</time></trkpt><trkpt lat="45.60907999208308" lon="10.725197543815026"><ele>340.6</ele><time>2026-03-28T15:01:36Z</time></trkpt><trkpt lat="45.60898483537448" lon="10.72520766112818"><ele>339.4</ele><time>2026-03-28T15:01:37Z</time></trkpt><trkpt lat="45.608894925923366" lon="10.725222174486172"><ele>338.20000000000005</ele><time>2026-03-28T15:01:38Z</time></trkpt><trkpt lat="45.60880631819874" lon="10.725233988650482"><ele>337.0</ele><time>2026-03-28T15:01:39Z</time></trkpt><trkpt lat="45.608720752719506" lon="10.725243786289218"><ele>336.0</ele><time>2026-03-28T15:01:40Z</time></trkpt><trkpt lat="45.60863492290126" lon="10.725249443934603"><ele>335.0</ele><time>2026-03-28T15:01:41Z</time></trkpt><trkpt lat="45.60855496590389" lon="10.725285369141444"><ele>334.0</ele><time>2026-03-28T15:01:42Z</time></trkpt><trkpt lat="45.608480520316114" lon="10.725319487903581"><ele>333.0</ele><time>2026-03-28T15:01:43Z</time></trkpt><trkpt lat="45.60842939800794" lon="10.725408090112717"><ele>332.0</ele><time>2026-03-28T15:01:44Z</time></trkpt><trkpt lat="45.60841186426497" lon="10.725523007069993"><ele>331.0</ele><time>2026-03-28T15:01:45Z</time></trkpt><trkpt lat="45.60845006193404" lon="10.725637912454024"><ele>331.0</ele><time>2026-03-28T15:01:46Z</time></trkpt><trkpt lat="45.60850502199949" lon="10.7257366794658"><ele>331.0</ele><time>2026-03-28T15:01:46.999Z</time></trkpt><trkpt lat="45.6085811994098" lon="10.725788608910763"><ele>331.0</ele><time>2026-03-28T15:01:47.999Z</time></trkpt><trkpt lat="45.608664055325725" lon="10.725789513098995"><ele>331.0</ele><time>2026-03-28T15:01:48.999Z</time></trkpt><trkpt lat="45.608746033734455" lon="10.725742637596397"><ele>331.0</ele><time>2026-03-28T15:01:49.999Z</time></trkpt><trkpt lat="45.608815751529356" lon="10.725676337389164"><ele>331.0</ele><time>2026-03-28T15:01:50.999Z</time></trkpt><trkpt lat="45.608875978467395" lon="10.72562160788589"><ele>331.6</ele><time>2026-03-28T15:01:51.999Z</time></trkpt><trkpt lat="45.60898024397772" lon="10.725616249096984"><ele>332.20000000000005</ele><time>2026-03-28T15:01:53.999Z</time></trkpt><trkpt lat="45.608986920756664" lon="10.725763449868968"><ele>332.79999999999995</ele><time>2026-03-28T15:01:55.999Z</time></trkpt><trkpt lat="45.608912234660785" lon="10.725800119908476"><ele>333.4</ele><time>2026-03-28T15:01:56.999Z</time></trkpt><trkpt lat="45.60882720251967" lon="10.725825518993231"><ele>334.0</ele><time>2026-03-28T15:01:57.999Z</time></trkpt><trkpt lat="45.60872597605657" lon="10.72587882970098"><ele>333.4</ele><time>2026-03-28T15:01:58.999Z</time></trkpt><trkpt lat="45.60863057576801" lon="10.72593194189639"><ele>332.79999999999995</ele><time>2026-03-28T15:02:00Z</time></trkpt><trkpt lat="45.608530169598204" lon="10.725990796626961"><ele>332.20000000000005</ele><time>2026-03-28T15:02:01Z</time></trkpt><trkpt lat="45.60843077919561" lon="10.726050192085768"><ele>331.6</ele><time>2026-03-28T15:02:02Z</time></trkpt><trkpt lat="45.60833454843255" lon="10.726106146215313"><ele>331.0</ele><time>2026-03-28T15:02:03Z</time></trkpt><trkpt lat="45.60824032013437" lon="10.726169862314286"><ele>329.4</ele><time>2026-03-28T15:02:04Z</time></trkpt><trkpt lat="45.608149363815336" lon="10.726221110730963"><ele>327.8</ele><time>2026-03-28T15:02:05Z</time></trkpt><trkpt lat="45.608051128259625" lon="10.726256627232031"><ele>326.2</ele><time>2026-03-28T15:02:06Z</time></trkpt><trkpt lat="45.607943146801595" lon="10.726265424544367"><ele>324.59999999999997</ele><time>2026-03-28T15:02:07Z</time></trkpt><trkpt lat="45.607834726344876" lon="10.72627173083062"><ele>323.0</ele><time>2026-03-28T15:02:08Z</time></trkpt><trkpt lat="45.60772974807958" lon="10.726279998689503"><ele>322.2</ele><time>2026-03-28T15:02:09Z</time></trkpt><trkpt lat="45.60762251511702" lon="10.726286793833731"><ele>321.4</ele><time>2026-03-28T15:02:10Z</time></trkpt><trkpt lat="45.607517236120316" lon="10.726296006733826"><ele>320.59999999999997</ele><time>2026-03-28T15:02:11Z</time></trkpt><trkpt lat="45.60741242138122" lon="10.7263041308146"><ele>319.79999999999995</ele><time>2026-03-28T15:02:12Z</time></trkpt><trkpt lat="45.60731537107477" lon="10.726310584821281"><ele>319.0</ele><time>2026-03-28T15:02:13Z</time></trkpt><trkpt lat="45.607223934770424" lon="10.726321405777107"><ele>319.0</ele><time>2026-03-28T15:02:14Z</time></trkpt><trkpt lat="45.60713695250891" lon="10.726339975191628"><ele>319.0</ele><time>2026-03-28T15:02:15Z</time></trkpt><trkpt lat="45.60705693378251" lon="10.726366176044163"><ele>319.0</ele><time>2026-03-28T15:02:16Z</time></trkpt><trkpt lat="45.606987307354245" lon="10.726404550355266"><ele>319.0</ele><time>2026-03-28T15:02:17Z</time></trkpt><trkpt lat="45.606930185853514" lon="10.72645152680944"><ele>319.0</ele><time>2026-03-28T15:02:18Z</time></trkpt><trkpt lat="45.606844754468185" lon="10.726545373112868"><ele>319.0</ele><time>2026-03-28T15:02:20Z</time></trkpt><trkpt lat="45.606769634122905" lon="10.726630124109343"><ele>318.7142857142857</ele><time>2026-03-28T15:02:22Z</time></trkpt><trkpt lat="45.60672031048128" lon="10.726706822667065"><ele>318.4285714285714</ele><time>2026-03-28T15:02:24Z</time></trkpt><trkpt lat="45.606662976825426" lon="10.72677297590896"><ele>318.1428571428571</ele><time>2026-03-28T15:02:26Z</time></trkpt><trkpt lat="45.606622735218956" lon="10.726844680955478"><ele>317.8571428571429</ele><time>2026-03-28T15:02:36Z</time></trkpt><trkpt lat="45.606600305548945" lon="10.726940595993328"><ele>317.57142857142856</ele><time>2026-03-28T15:03:34Z</time></trkpt><trkpt lat="45.606527988137266" lon="10.72687279805367"><ele>317.2857142857143</ele><time>2026-03-28T15:03:51Z</time></trkpt><trkpt lat="45.60647841321594" lon="10.726952549042418"><ele>317.0</ele><time>2026-03-28T15:18:02Z</time></trkpt><trkpt lat="45.60656773948396" lon="10.72696931260353"><ele>317.0</ele><time>2026-03-28T15:18:06Z</time></trkpt><trkpt lat="45.606603675288035" lon="10.726888266765567"><ele>317.0</ele><time>2026-03-28T15:18:10Z</time></trkpt><trkpt lat="45.60653717310723" lon="10.726613480012812"><ele>317.0</ele><time>2026-03-28T15:18:16Z</time></trkpt><trkpt lat="45.606529633395674" lon="10.726450483581718"><ele>317.0</ele><time>2026-03-28T15:18:18Z</time></trkpt><trkpt lat="45.606505853045554" lon="10.726245490800046"><ele>317.0</ele><time>2026-03-28T15:18:20Z</time></trkpt><trkpt lat="45.60649027478813" lon="10.726139734262267"><ele>317.0</ele><time>2026-03-28T15:18:21Z</time></trkpt><trkpt lat="45.60647759900218" lon="10.726013557336913"><ele>317.0</ele><time>2026-03-28T15:18:22Z</time></trkpt><trkpt lat="45.60645943075845" lon="10.725878435586763"><ele>317.0</ele><time>2026-03-28T15:18:23Z</time></trkpt><trkpt lat="45.60643994577244" lon="10.725741347375527"><ele>317.0</ele><time>2026-03-28T15:18:24Z</time></trkpt><trkpt lat="45.60643366049197" lon="10.725613121233545"><ele>317.0</ele><time>2026-03-28T15:18:25Z</time></trkpt><trkpt lat="45.606442431171" lon="10.725474439587263"><ele>316.6666666666667</ele><time>2026-03-28T15:18:26Z</time></trkpt><trkpt lat="45.606453565118855" lon="10.725355512269616"><ele>316.33333333333337</ele><time>2026-03-28T15:18:27Z</time></trkpt><trkpt lat="45.60647019523655" lon="10.72524441986699"><ele>316.0</ele><time>2026-03-28T15:18:28Z</time></trkpt><trkpt lat="45.60649233043425" lon="10.725139861594462"><ele>315.6666666666667</ele><time>2026-03-28T15:18:29Z</time></trkpt><trkpt lat="45.60652280905511" lon="10.725033508558822"><ele>315.3333333333333</ele><time>2026-03-28T15:18:30Z</time></trkpt><trkpt lat="45.606554640027355" lon="10.724928176611606"><ele>315.0</ele><time>2026-03-28T15:18:31Z</time></trkpt><trkpt lat="45.6065927462445" lon="10.724823082226543"><ele>314.0</ele><time>2026-03-28T15:18:32Z</time></trkpt><trkpt lat="45.60663206923041" lon="10.724712693221496"><ele>313.0</ele><time>2026-03-28T15:18:33Z</time></trkpt><trkpt lat="45.60668007314611" lon="10.724596729292953"><ele>312.0</ele><time>2026-03-28T15:18:34Z</time></trkpt><trkpt lat="45.60674141369723" lon="10.724475661185293"><ele>311.0</ele><time>2026-03-28T15:18:34.997Z</time></trkpt><trkpt lat="45.60679343822362" lon="10.724351266254827"><ele>310.0</ele><time>2026-03-28T15:18:35.997Z</time></trkpt><trkpt lat="45.60684674719838" lon="10.724230099894566"><ele>308.8333333333333</ele><time>2026-03-28T15:18:36.997Z</time></trkpt><trkpt lat="45.606887637735134" lon="10.724128778831199"><ele>307.66666666666663</ele><time>2026-03-28T15:18:37.997Z</time></trkpt><trkpt lat="45.60690979541443" lon="10.724014205820751"><ele>306.5</ele><time>2026-03-28T15:18:38.997Z</time></trkpt><trkpt lat="45.60693845739024" lon="10.72391694603161"><ele>305.3333333333333</ele><time>2026-03-28T15:18:39.997Z</time></trkpt><trkpt lat="45.60694130288627" lon="10.72381421361913"><ele>304.1666666666667</ele><time>2026-03-28T15:18:40.998Z</time></trkpt><trkpt lat="45.60689111276142" lon="10.723721329478039"><ele>303.0</ele><time>2026-03-28T15:18:41.998Z</time></trkpt><trkpt lat="45.60686266694299" lon="10.723621384761408"><ele>302.8</ele><time>2026-03-28T15:18:42.998Z</time></trkpt><trkpt lat="45.60684221195282" lon="10.723517399902816"><ele>302.6</ele><time>2026-03-28T15:18:43.998Z</time></trkpt><trkpt lat="45.60683432080619" lon="10.723357999630798"><ele>302.4</ele><time>2026-03-28T15:18:45.998Z</time></trkpt><trkpt lat="45.60678581371406" lon="10.723234473490173"><ele>302.2</ele><time>2026-03-28T15:18:47.998Z</time></trkpt><trkpt lat="45.60681379170095" lon="10.723112535243553"><ele>302.0</ele><time>2026-03-28T15:18:48.998Z</time></trkpt><trkpt lat="45.60678683259912" lon="10.723008045211666"><ele>302.0</ele><time>2026-03-28T15:18:49.998Z</time></trkpt><trkpt lat="45.60676350351111" lon="10.722885377599539"><ele>302.0</ele><time>2026-03-28T15:18:50.998Z</time></trkpt><trkpt lat="45.60669278156265" lon="10.722787207570905"><ele>302.0</ele><time>2026-03-28T15:18:51.998Z</time></trkpt><trkpt lat="45.60660231128328" lon="10.722719065432779"><ele>302.0</ele><time>2026-03-28T15:18:52.998Z</time></trkpt><trkpt lat="45.60651452159815" lon="10.722660005657502"><ele>302.0</ele><time>2026-03-28T15:18:53.998Z</time></trkpt><trkpt lat="45.60644071331753" lon="10.722611980086825"><ele>304.0</ele><time>2026-03-28T15:18:54.998Z</time></trkpt><trkpt lat="45.606358973371506" lon="10.722580990629522"><ele>306.0</ele><time>2026-03-28T15:18:55.998Z</time></trkpt><trkpt lat="45.60627804042596" lon="10.722536648152639"><ele>308.0</ele><time>2026-03-28T15:18:56.998Z</time></trkpt><trkpt lat="45.60618324660133" lon="10.72250618462152"><ele>310.0</ele><time>2026-03-28T15:18:57.998Z</time></trkpt><trkpt lat="45.606091991053475" lon="10.72248649676359"><ele>312.0</ele><time>2026-03-28T15:18:58.998Z</time></trkpt><trkpt lat="45.60600349739854" lon="10.722472348034405"><ele>312.5</ele><time>2026-03-28T15:18:59.999Z</time></trkpt><trkpt lat="45.60592271298226" lon="10.722456679807912"><ele>313.0</ele><time>2026-03-28T15:19:00.999Z</time></trkpt><trkpt lat="45.605844173736486" lon="10.722440602580049"><ele>313.5</ele><time>2026-03-28T15:19:01.999Z</time></trkpt><trkpt lat="45.60577538114577" lon="10.722427473932335"><ele>314.0</ele><time>2026-03-28T15:19:02.999Z</time></trkpt><trkpt lat="45.60570557306243" lon="10.722414974392624"><ele>314.5</ele><time>2026-03-28T15:19:03.999Z</time></trkpt><trkpt lat="45.60563029836839" lon="10.722402739199442"><ele>315.0</ele><time>2026-03-28T15:19:04.999Z</time></trkpt><trkpt lat="45.60555567258886" lon="10.722344320932555"><ele>315.0</ele><time>2026-03-28T15:19:05.999Z</time></trkpt><trkpt lat="45.605483376784676" lon="10.722322886502688"><ele>315.0</ele><time>2026-03-28T15:19:06.999Z</time></trkpt><trkpt lat="45.60537862203129" lon="10.722276320887932"><ele>315.0</ele><time>2026-03-28T15:19:08.999Z</time></trkpt><trkpt lat="45.605324001381625" lon="10.722125801658152"><ele>315.0</ele><time>2026-03-28T15:19:10.999Z</time></trkpt><trkpt lat="45.6052868709435" lon="10.722034977401027"><ele>315.0</ele><time>2026-03-28T15:19:11.999Z</time></trkpt><trkpt lat="45.60525853939932" lon="10.721871435764898"><ele>316.2</ele><time>2026-03-28T15:19:13.999Z</time></trkpt><trkpt lat="45.605325163927766" lon="10.721713325686483"><ele>317.4</ele><time>2026-03-28T15:19:15.999Z</time></trkpt><trkpt lat="45.60538768259227" lon="10.721629862952149"><ele>318.6</ele><time>2026-03-28T15:19:16.999Z</time></trkpt><trkpt lat="45.605451567348055" lon="10.721526131415361"><ele>319.8</ele><time>2026-03-28T15:19:17.999Z</time></trkpt><trkpt lat="45.60550726847836" lon="10.721437053566813"><ele>321.0</ele><time>2026-03-28T15:19:18.999Z</time></trkpt><trkpt lat="45.60556764700226" lon="10.721366204430923"><ele>322.1666666666667</ele><time>2026-03-28T15:19:19.999Z</time></trkpt><trkpt lat="45.60563388542211" lon="10.721326999878764"><ele>323.3333333333333</ele><time>2026-03-28T15:19:20.999Z</time></trkpt><trkpt lat="45.605717855677106" lon="10.721311404778676"><ele>324.5</ele><time>2026-03-28T15:19:21.999Z</time></trkpt><trkpt lat="45.605806975523116" lon="10.721286006190024"><ele>325.66666666666663</ele><time>2026-03-28T15:19:22.999Z</time></trkpt><trkpt lat="45.60589163505426" lon="10.721243276570908"><ele>326.8333333333333</ele><time>2026-03-28T15:19:23.999Z</time></trkpt><trkpt lat="45.60596009449159" lon="10.721193727726442"><ele>328.0</ele><time>2026-03-28T15:19:24.999Z</time></trkpt><trkpt lat="45.6060221278931" lon="10.721110393180593"><ele>328.2</ele><time>2026-03-28T15:19:25.999Z</time></trkpt><trkpt lat="45.60607083215216" lon="10.72099070073892"><ele>328.4</ele><time>2026-03-28T15:19:26.999Z</time></trkpt><trkpt lat="45.60610722737168" lon="10.720857834704718"><ele>328.59999999999997</ele><time>2026-03-28T15:19:27.999Z</time></trkpt><trkpt lat="45.606128322548" lon="10.720732600522746"><ele>328.79999999999995</ele><time>2026-03-28T15:19:28.999Z</time></trkpt><trkpt lat="45.60615356873264" lon="10.72061485400135"><ele>329.0</ele><time>2026-03-28T15:19:29.999Z</time></trkpt><trkpt lat="45.60618607898402" lon="10.720505456903652"><ele>330.1666666666667</ele><time>2026-03-28T15:19:30.999Z</time></trkpt><trkpt lat="45.60622947279677" lon="10.720409396326337"><ele>331.33333333333337</ele><time>2026-03-28T15:19:31.999Z</time></trkpt><trkpt lat="45.60629643952506" lon="10.720341622336027"><ele>332.5</ele><time>2026-03-28T15:19:32.999Z</time></trkpt><trkpt lat="45.60635327929463" lon="10.720244876916096"><ele>333.6666666666667</ele><time>2026-03-28T15:19:33.999Z</time></trkpt><trkpt lat="45.60642659677914" lon="10.720175995659613"><ele>334.8333333333333</ele><time>2026-03-28T15:19:34.999Z</time></trkpt><trkpt lat="45.60650591913951" lon="10.720111418787921"><ele>336.0</ele><time>2026-03-28T15:19:35.999Z</time></trkpt><trkpt lat="45.60657422677005" lon="10.720059260211256"><ele>337.20000000000005</ele><time>2026-03-28T15:19:36.999Z</time></trkpt><trkpt lat="45.606674124653864" lon="10.719967968988081"><ele>338.40000000000003</ele><time>2026-03-28T15:19:38.999Z</time></trkpt><trkpt lat="45.60674301493394" lon="10.71985035199615"><ele>339.6</ele><time>2026-03-28T15:19:40.999Z</time></trkpt><trkpt lat="45.60675493692395" lon="10.719729364179328"><ele>340.8</ele><time>2026-03-28T15:19:42.999Z</time></trkpt><trkpt lat="45.60678295391473" lon="10.71960913022434"><ele>342.0</ele><time>2026-03-28T15:19:44.999Z</time></trkpt><trkpt lat="45.60671955455776" lon="10.719500597126029"><ele>342.0</ele><time>2026-03-28T15:19:46.999Z</time></trkpt><trkpt lat="45.60669176385004" lon="10.719414196946124"><ele>342.0</ele><time>2026-03-28T15:19:51.999Z</time></trkpt><trkpt lat="45.60666953487029" lon="10.719322454518714"><ele>342.0</ele><time>2026-03-28T15:19:53.999Z</time></trkpt><trkpt lat="45.60662607557376" lon="10.71921470132943"><ele>342.0</ele><time>2026-03-28T15:19:55.999Z</time></trkpt><trkpt lat="45.606631065336416" lon="10.71908417981281"><ele>342.0</ele><time>2026-03-28T15:19:58.999Z</time></trkpt><trkpt lat="45.60663358886851" lon="10.71898552578954"><ele>342.0</ele><time>2026-03-28T15:20:01.999Z</time></trkpt><trkpt lat="45.60714444004419" lon="10.718661984423852"><ele>345.3333333333333</ele><time>2026-03-28T15:20:22.999Z</time></trkpt><trkpt lat="45.60720879493482" lon="10.718597172340193"><ele>348.6666666666667</ele><time>2026-03-28T15:20:24.999Z</time></trkpt><trkpt lat="45.607241949462285" lon="10.718480284601279"><ele>352.0</ele><time>2026-03-28T15:20:26.999Z</time></trkpt><trkpt lat="45.607257666445626" lon="10.718350699470157"><ele>355.33333333333337</ele><time>2026-03-28T15:20:28.999Z</time></trkpt><trkpt lat="45.607236566536656" lon="10.718224013229465"><ele>358.6666666666667</ele><time>2026-03-28T15:20:30.999Z</time></trkpt><trkpt lat="45.607210776564564" lon="10.718106901129143"><ele>362.0</ele><time>2026-03-28T15:20:32.999Z</time></trkpt><trkpt lat="45.60719935427083" lon="10.717961139418247"><ele>362.20000000000005</ele><time>2026-03-28T15:20:34.999Z</time></trkpt><trkpt lat="45.60719447948607" lon="10.717814655556323"><ele>362.4</ele><time>2026-03-28T15:20:36.999Z</time></trkpt><trkpt lat="45.607178796452075" lon="10.717678039419306"><ele>362.6</ele><time>2026-03-28T15:20:38.999Z</time></trkpt><trkpt lat="45.607180730210544" lon="10.717526963300537"><ele>362.79999999999995</ele><time>2026-03-28T15:20:40.998Z</time></trkpt><trkpt lat="45.60720264130526" lon="10.717401284726433"><ele>363.0</ele><time>2026-03-28T15:20:41.998Z</time></trkpt><trkpt lat="45.60721158920671" lon="10.717274590998692"><ele>362.6666666666667</ele><time>2026-03-28T15:20:43.998Z</time></trkpt><trkpt lat="45.607262304172984" lon="10.717199476911032"><ele>362.3333333333333</ele><time>2026-03-28T15:20:45.998Z</time></trkpt><trkpt lat="45.60733289118724" lon="10.717166994729846"><ele>362.0</ele><time>2026-03-28T15:20:48.998Z</time></trkpt><trkpt lat="45.60740370812631" lon="10.71717340993412"><ele>361.66666666666663</ele><time>2026-03-28T15:20:50.998Z</time></trkpt><trkpt lat="45.60746978464293" lon="10.717159329398958"><ele>361.3333333333333</ele><time>2026-03-28T15:20:52.999Z</time></trkpt><trkpt lat="45.60753844771539" lon="10.71712424294075"><ele>361.0</ele><time>2026-03-28T15:21:22.999Z</time></trkpt><trkpt lat="45.6076312178398" lon="10.717118140756561"><ele>361.0</ele><time>2026-03-28T15:21:49Z</time></trkpt><trkpt lat="45.607699355147375" lon="10.717126063205262"><ele>361.0</ele><time>2026-03-28T15:21:51Z</time></trkpt><trkpt lat="45.607797159657515" lon="10.717124050180422"><ele>361.0</ele><time>2026-03-28T15:21:53Z</time></trkpt><trkpt lat="45.60790431293079" lon="10.717122593968952"><ele>361.0</ele><time>2026-03-28T15:21:55Z</time></trkpt><trkpt lat="45.60800911006894" lon="10.717131709676519"><ele>361.0</ele><time>2026-03-28T15:21:57Z</time></trkpt><trkpt lat="45.60810216167753" lon="10.717141298234882"><ele>363.3333333333333</ele><time>2026-03-28T15:21:59Z</time></trkpt><trkpt lat="45.60817879493846" lon="10.717109594096648"><ele>365.66666666666663</ele><time>2026-03-28T15:22:01Z</time></trkpt><trkpt lat="45.60825823786493" lon="10.717124610027431"><ele>368.0</ele><time>2026-03-28T15:22:03Z</time></trkpt><trkpt lat="45.60834298912749" lon="10.71714145784002"><ele>370.3333333333333</ele><time>2026-03-28T15:22:05Z</time></trkpt><trkpt lat="45.60844769977412" lon="10.717164158358843"><ele>372.6666666666667</ele><time>2026-03-28T15:22:07Z</time></trkpt><trkpt lat="45.608520947361725" lon="10.717167006037135"><ele>375.0</ele><time>2026-03-28T15:22:09Z</time></trkpt><trkpt lat="45.60860929567267" lon="10.717111081782718"><ele>377.6666666666667</ele><time>2026-03-28T15:22:13Z</time></trkpt><trkpt lat="45.608672591014844" lon="10.717091488939282"><ele>380.33333333333337</ele><time>2026-03-28T15:22:16Z</time></trkpt><trkpt lat="45.60874637545658" lon="10.717083586341534"><ele>383.0</ele><time>2026-03-28T15:22:36Z</time></trkpt><trkpt lat="45.60879471758079" lon="10.717020333189742"><ele>385.6666666666667</ele><time>2026-03-28T15:22:40Z</time></trkpt><trkpt lat="45.608893055744694" lon="10.716985765936398"><ele>388.33333333333337</ele><time>2026-03-28T15:22:56Z</time></trkpt><trkpt lat="45.60895441463698" lon="10.716962340772188"><ele>391.0</ele><time>2026-03-28T15:22:58Z</time></trkpt><trkpt lat="45.609037912924215" lon="10.716903827787377"><ele>392.20000000000005</ele><time>2026-03-28T15:23:00Z</time></trkpt><trkpt lat="45.609128692786875" lon="10.716859181766257"><ele>393.40000000000003</ele><time>2026-03-28T15:23:02Z</time></trkpt><trkpt lat="45.60924024751417" lon="10.716819405332402"><ele>394.6</ele><time>2026-03-28T15:23:04Z</time></trkpt><trkpt lat="45.6093413973575" lon="10.71677344436454"><ele>395.8</ele><time>2026-03-28T15:23:06Z</time></trkpt><trkpt lat="45.60942410502606" lon="10.716716222124866"><ele>397.0</ele><time>2026-03-28T15:23:08Z</time></trkpt><trkpt lat="45.60952342857658" lon="10.716682833335664"><ele>397.0</ele><time>2026-03-28T15:23:10Z</time></trkpt><trkpt lat="45.60962960226006" lon="10.716660484031122"><ele>397.0</ele><time>2026-03-28T15:23:12Z</time></trkpt><trkpt lat="45.609757680018724" lon="10.716623026866499"><ele>397.0</ele><time>2026-03-28T15:23:14Z</time></trkpt><trkpt lat="45.609826979368236" lon="10.716608783179316"><ele>397.0</ele><time>2026-03-28T15:23:15Z</time></trkpt><trkpt lat="45.609904635467906" lon="10.716583748282217"><ele>397.0</ele><time>2026-03-28T15:23:16Z</time></trkpt><trkpt lat="45.609983216435765" lon="10.716561049819756"><ele>397.0</ele><time>2026-03-28T15:23:17Z</time></trkpt><trkpt lat="45.61005633751842" lon="10.716528834815083"><ele>397.0</ele><time>2026-03-28T15:23:18Z</time></trkpt><trkpt lat="45.61012245261336" lon="10.716501838390291"><ele>397.0</ele><time>2026-03-28T15:23:19Z</time></trkpt><trkpt lat="45.61019438529392" lon="10.716468127500077"><ele>397.0</ele><time>2026-03-28T15:23:20Z</time></trkpt><trkpt lat="45.610265214692824" lon="10.716448241538545"><ele>397.0</ele><time>2026-03-28T15:23:21Z</time></trkpt><trkpt lat="45.61032670751858" lon="10.716420422969083"><ele>397.0</ele><time>2026-03-28T15:23:22Z</time></trkpt><trkpt lat="45.61039352297884" lon="10.71639570714973"><ele>397.0</ele><time>2026-03-28T15:23:23Z</time></trkpt><trkpt lat="45.61046640762997" lon="10.716363074437565"><ele>398.42857142857144</ele><time>2026-03-28T15:23:24Z</time></trkpt><trkpt lat="45.61054671961732" lon="10.71633689767018"><ele>399.85714285714283</ele><time>2026-03-28T15:23:25Z</time></trkpt><trkpt lat="45.610616096722474" lon="10.716316836794512"><ele>401.28571428571433</ele><time>2026-03-28T15:23:26Z</time></trkpt><trkpt lat="45.6106897939093" lon="10.716300548747729"><ele>402.7142857142857</ele><time>2026-03-28T15:23:27Z</time></trkpt><trkpt lat="45.61075425788262" lon="10.716281615028835"><ele>404.14285714285717</ele><time>2026-03-28T15:23:28Z</time></trkpt><trkpt lat="45.61082574121201" lon="10.716258076452885"><ele>405.5714285714286</ele><time>2026-03-28T15:23:29Z</time></trkpt><trkpt lat="45.610897249591474" lon="10.716238407450755"><ele>407.0</ele><time>2026-03-28T15:23:30Z</time></trkpt><trkpt lat="45.61097131599282" lon="10.716219093975148"><ele>407.00000000000006</ele><time>2026-03-28T15:23:31Z</time></trkpt><trkpt lat="45.611046188236685" lon="10.71620843801817"><ele>407.0</ele><time>2026-03-28T15:23:32Z</time></trkpt><trkpt lat="45.61111547800304" lon="10.716184495731017"><ele>407.0</ele><time>2026-03-28T15:23:33Z</time></trkpt><trkpt lat="45.61118247869121" lon="10.716151995626358"><ele>407.0</ele><time>2026-03-28T15:23:34Z</time></trkpt><trkpt lat="45.61124716307823" lon="10.716112092793981"><ele>407.0</ele><time>2026-03-28T15:23:35Z</time></trkpt><trkpt lat="45.611320582938724" lon="10.716085554285048"><ele>407.00000000000006</ele><time>2026-03-28T15:23:36Z</time></trkpt><trkpt lat="45.6113832703452" lon="10.716062770716272"><ele>407.0</ele><time>2026-03-28T15:23:37Z</time></trkpt><trkpt lat="45.611441994849834" lon="10.71602629115937"><ele>404.8</ele><time>2026-03-28T15:23:38Z</time></trkpt><trkpt lat="45.61157251993229" lon="10.715956373093029"><ele>402.6</ele><time>2026-03-28T15:23:40Z</time></trkpt><trkpt lat="45.61163869845702" lon="10.715935018748338"><ele>400.40000000000003</ele><time>2026-03-28T15:23:41Z</time></trkpt><trkpt lat="45.611751866712964" lon="10.715909262408584"><ele>398.20000000000005</ele><time>2026-03-28T15:23:43Z</time></trkpt><trkpt lat="45.61184780065657" lon="10.715867569498998"><ele>396.0</ele><time>2026-03-28T15:23:45Z</time></trkpt><trkpt lat="45.61191034796624" lon="10.715835502185818"><ele>395.6</ele><time>2026-03-28T15:23:46Z</time></trkpt><trkpt lat="45.61200784642625" lon="10.715801477690817"><ele>395.20000000000005</ele><time>2026-03-28T15:23:48Z</time></trkpt><trkpt lat="45.61212852633693" lon="10.715826371344816"><ele>394.79999999999995</ele><time>2026-03-28T15:23:50Z</time></trkpt><trkpt lat="45.61220463827986" lon="10.715871689448223"><ele>394.4</ele><time>2026-03-28T15:23:51Z</time></trkpt><trkpt lat="45.61228354881227" lon="10.71591135811103"><ele>394.0</ele><time>2026-03-28T15:23:52Z</time></trkpt><trkpt lat="45.61236243148024" lon="10.715942252473303"><ele>394.00000000000006</ele><time>2026-03-28T15:23:53Z</time></trkpt><trkpt lat="45.61243613576308" lon="10.71595628348238"><ele>394.0</ele><time>2026-03-28T15:23:54Z</time></trkpt><trkpt lat="45.612517298906006" lon="10.71594613423585"><ele>394.0</ele><time>2026-03-28T15:23:55Z</time></trkpt><trkpt lat="45.61259581115946" lon="10.715909302962197"><ele>394.0</ele><time>2026-03-28T15:23:56Z</time></trkpt><trkpt lat="45.61266592818817" lon="10.715876983140289"><ele>394.00000000000006</ele><time>2026-03-28T15:23:57Z</time></trkpt><trkpt lat="45.61277473333882" lon="10.715891199201174"><ele>394.0</ele><time>2026-03-28T15:23:59Z</time></trkpt><trkpt lat="45.61285897638966" lon="10.715932934839202"><ele>393.2</ele><time>2026-03-28T15:24:01Z</time></trkpt><trkpt lat="45.6129323255185" lon="10.71602026258731"><ele>392.4</ele><time>2026-03-28T15:24:03Z</time></trkpt><trkpt lat="45.61299639119143" lon="10.716091791441842"><ele>391.6</ele><time>2026-03-28T15:24:05Z</time></trkpt><trkpt lat="45.613086361376965" lon="10.716129654653349"><ele>390.8</ele><time>2026-03-28T15:24:07Z</time></trkpt><trkpt lat="45.61319358651276" lon="10.716115060236579"><ele>390.0</ele><time>2026-03-28T15:24:09Z</time></trkpt><trkpt lat="45.613271748928966" lon="10.716076228064814"><ele>390.0</ele><time>2026-03-28T15:24:11Z</time></trkpt><trkpt lat="45.61336306808062" lon="10.716029019506504"><ele>390.0</ele><time>2026-03-28T15:24:13Z</time></trkpt><trkpt lat="45.61345642891491" lon="10.715970621117018"><ele>390.0</ele><time>2026-03-28T15:24:15Z</time></trkpt><trkpt lat="45.61354437456757" lon="10.71595527151644"><ele>390.0</ele><time>2026-03-28T15:24:17Z</time></trkpt><trkpt lat="45.61366024327639" lon="10.715977125908063"><ele>390.0</ele><time>2026-03-28T15:24:19Z</time></trkpt><trkpt lat="45.613757065227546" lon="10.716010246947974"><ele>390.3333333333333</ele><time>2026-03-28T15:24:21Z</time></trkpt><trkpt lat="45.613844391702074" lon="10.716032139052311"><ele>390.66666666666663</ele><time>2026-03-28T15:24:23Z</time></trkpt><trkpt lat="45.61392223609942" lon="10.716059315936086"><ele>391.0</ele><time>2026-03-28T15:24:25.001Z</time></trkpt><trkpt lat="45.614013175931035" lon="10.716098381613188"><ele>391.3333333333333</ele><time>2026-03-28T15:24:27.001Z</time></trkpt><trkpt lat="45.61408476537106" lon="10.716138381199736"><ele>391.66666666666663</ele><time>2026-03-28T15:24:29.001Z</time></trkpt><trkpt lat="45.61415861705288" lon="10.716151734294892"><ele>392.0</ele><time>2026-03-28T15:24:31.001Z</time></trkpt><trkpt lat="45.61423852178914" lon="10.716135086871112"><ele>391.99999999999994</ele><time>2026-03-28T15:24:33.001Z</time></trkpt><trkpt lat="45.61433584937944" lon="10.716095664755791"><ele>392.0</ele><time>2026-03-28T15:24:35.001Z</time></trkpt><trkpt lat="45.61440178210386" lon="10.716053296285747"><ele>392.0</ele><time>2026-03-28T15:24:36.001Z</time></trkpt><trkpt lat="45.614503616090396" lon="10.716038062008934"><ele>392.0</ele><time>2026-03-28T15:24:38.001Z</time></trkpt><trkpt lat="45.614575388870435" lon="10.716019654599753"><ele>391.99999999999994</ele><time>2026-03-28T15:24:40.001Z</time></trkpt><trkpt lat="45.614641359765166" lon="10.716027885223548"><ele>392.0</ele><time>2026-03-28T15:24:47.001Z</time></trkpt><trkpt lat="45.61470233204678" lon="10.715985143082854"><ele>391.8333333333333</ele><time>2026-03-28T15:25:21.001Z</time></trkpt><trkpt lat="45.614776805167956" lon="10.715927455619992"><ele>391.66666666666663</ele><time>2026-03-28T15:25:28.001Z</time></trkpt><trkpt lat="45.61485942813972" lon="10.715859269752395"><ele>391.5</ele><time>2026-03-28T15:25:30.001Z</time></trkpt><trkpt lat="45.61494699660429" lon="10.715767260037365"><ele>391.33333333333337</ele><time>2026-03-28T15:25:32.001Z</time></trkpt><trkpt lat="45.61501396183787" lon="10.715682093788702"><ele>391.1666666666667</ele><time>2026-03-28T15:25:34.001Z</time></trkpt><trkpt lat="45.61507238447597" lon="10.715628181344874"><ele>391.0</ele><time>2026-03-28T15:25:36.001Z</time></trkpt><trkpt lat="45.61513076689111" lon="10.71559360325674"><ele>391.00000000000006</ele><time>2026-03-28T15:25:38.001Z</time></trkpt><trkpt lat="45.615211529212495" lon="10.715566422548134"><ele>391.0</ele><time>2026-03-28T15:25:41.001Z</time></trkpt><trkpt lat="45.61528501975627" lon="10.715598203629208"><ele>391.0</ele><time>2026-03-28T15:25:46.001Z</time></trkpt><trkpt lat="45.6152111029628" lon="10.715554659005733"><ele>391.0</ele><time>2026-03-28T15:26:31.001Z</time></trkpt><trkpt lat="45.61513446662974" lon="10.715607481211283"><ele>391.00000000000006</ele><time>2026-03-28T15:26:34.001Z</time></trkpt><trkpt lat="45.615053604031615" lon="10.715680078784388"><ele>391.0</ele><time>2026-03-28T15:26:36.001Z</time></trkpt><trkpt lat="45.61495330463996" lon="10.715775982135666"><ele>391.00000000000006</ele><time>2026-03-28T15:26:38.001Z</time></trkpt><trkpt lat="45.614862514976984" lon="10.715872002485074"><ele>391.0</ele><time>2026-03-28T15:26:40.001Z</time></trkpt><trkpt lat="45.61480941863763" lon="10.715922621407937"><ele>391.0</ele><time>2026-03-28T15:26:41.001Z</time></trkpt><trkpt lat="45.61474887028188" lon="10.715968785875503"><ele>391.0</ele><time>2026-03-28T15:26:42.001Z</time></trkpt><trkpt lat="45.614642706786945" lon="10.71601816717207"><ele>391.00000000000006</ele><time>2026-03-28T15:26:44.001Z</time></trkpt><trkpt lat="45.61458010760175" lon="10.716050425211344"><ele>391.0</ele><time>2026-03-28T15:26:45.001Z</time></trkpt><trkpt lat="45.61448616910763" lon="10.716083597479928"><ele>392.50000000000006</ele><time>2026-03-28T15:26:47.001Z</time></trkpt><trkpt lat="45.61441542516258" lon="10.716105959851765"><ele>394.0</ele><time>2026-03-28T15:26:48.001Z</time></trkpt><trkpt lat="45.614324198041736" lon="10.716144864006516"><ele>395.5</ele><time>2026-03-28T15:26:50.001Z</time></trkpt><trkpt lat="45.61425424215371" lon="10.71617754960138"><ele>397.0</ele><time>2026-03-28T15:26:52.001Z</time></trkpt><trkpt lat="45.61415445034294" lon="10.716174803205393"><ele>398.50000000000006</ele><time>2026-03-28T15:26:55.001Z</time></trkpt><trkpt lat="45.61408872830549" lon="10.71613184406289"><ele>400.0</ele><time>2026-03-28T15:26:57.001Z</time></trkpt><trkpt lat="45.614005470156776" lon="10.716097187983564"><ele>398.4</ele><time>2026-03-28T15:26:59.001Z</time></trkpt><trkpt lat="45.61392723307103" lon="10.716068105027418"><ele>396.8</ele><time>2026-03-28T15:27:01.001Z</time></trkpt><trkpt lat="45.613823866239485" lon="10.716047719767522"><ele>395.20000000000005</ele><time>2026-03-28T15:27:03.001Z</time></trkpt><trkpt lat="45.61372827569213" lon="10.716035706529054"><ele>393.6</ele><time>2026-03-28T15:27:05.001Z</time></trkpt><trkpt lat="45.61363547037762" lon="10.716029200353338"><ele>392.0</ele><time>2026-03-28T15:27:07.001Z</time></trkpt><trkpt lat="45.613545000649246" lon="10.716032724661185"><ele>394.49999999999994</ele><time>2026-03-28T15:27:09.001Z</time></trkpt><trkpt lat="45.61344090508068" lon="10.716075950531161"><ele>397.0</ele><time>2026-03-28T15:27:11.001Z</time></trkpt><trkpt lat="45.61333018919326" lon="10.716122925309891"><ele>399.5</ele><time>2026-03-28T15:27:12.001Z</time></trkpt><trkpt lat="45.61324407819669" lon="10.716150135917445"><ele>402.0</ele><time>2026-03-28T15:27:13.001Z</time></trkpt><trkpt lat="45.6131760781209" lon="10.716159894627431"><ele>404.49999999999994</ele><time>2026-03-28T15:27:14.001Z</time></trkpt><trkpt lat="45.61310982407892" lon="10.716158585787282"><ele>407.0</ele><time>2026-03-28T15:27:15.001Z</time></trkpt><trkpt lat="45.61305361039234" lon="10.716111528049712"><ele>404.40000000000003</ele><time>2026-03-28T15:27:16.001Z</time></trkpt><trkpt lat="45.6129973347554" lon="10.715986256803106"><ele>401.8</ele><time>2026-03-28T15:27:18.001Z</time></trkpt><trkpt lat="45.612918323842635" lon="10.715910666453777"><ele>399.2</ele><time>2026-03-28T15:27:20.001Z</time></trkpt><trkpt lat="45.61281487763119" lon="10.715904462959415"><ele>396.6</ele><time>2026-03-28T15:27:21.001Z</time></trkpt><trkpt lat="45.612738093064095" lon="10.715934719875477"><ele>394.0</ele><time>2026-03-28T15:27:22.001Z</time></trkpt><trkpt lat="45.61265521883533" lon="10.715975026213068"><ele>394.00000000000006</ele><time>2026-03-28T15:27:23.001Z</time></trkpt><trkpt lat="45.612568076737325" lon="10.715989274900975"><ele>394.0</ele><time>2026-03-28T15:27:24.001Z</time></trkpt><trkpt lat="45.61248809907496" lon="10.715981842325597"><ele>394.0</ele><time>2026-03-28T15:27:25.001Z</time></trkpt><trkpt lat="45.61241277867778" lon="10.715953896643114"><ele>394.0</ele><time>2026-03-28T15:27:26.001Z</time></trkpt><trkpt lat="45.61233476672879" lon="10.715916940842618"><ele>394.00000000000006</ele><time>2026-03-28T15:27:27.001Z</time></trkpt><trkpt lat="45.6122534868228" lon="10.715875713206382"><ele>394.0</ele><time>2026-03-28T15:27:28.001Z</time></trkpt><trkpt lat="45.61218766724669" lon="10.71583955033734"><ele>394.00000000000006</ele><time>2026-03-28T15:27:29.001Z</time></trkpt><trkpt lat="45.612126925739574" lon="10.715809430133005"><ele>394.0</ele><time>2026-03-28T15:27:30.001Z</time></trkpt><trkpt lat="45.61200703774481" lon="10.715833757824416"><ele>394.0</ele><time>2026-03-28T15:27:32.001Z</time></trkpt><trkpt lat="45.61193188817949" lon="10.7158634604546"><ele>394.0</ele><time>2026-03-28T15:27:33.001Z</time></trkpt><trkpt lat="45.61185178772639" lon="10.715898023478587"><ele>394.00000000000006</ele><time>2026-03-28T15:27:34.001Z</time></trkpt><trkpt lat="45.61175736876116" lon="10.715927389550433"><ele>394.0</ele><time>2026-03-28T15:27:35.001Z</time></trkpt><trkpt lat="45.61166424311753" lon="10.71596056507592"><ele>394.4</ele><time>2026-03-28T15:27:36.001Z</time></trkpt><trkpt lat="45.611575877894325" lon="10.715995932607576"><ele>394.79999999999995</ele><time>2026-03-28T15:27:37.001Z</time></trkpt><trkpt lat="45.61147827860862" lon="10.716055309405158"><ele>395.20000000000005</ele><time>2026-03-28T15:27:38.001Z</time></trkpt><trkpt lat="45.61138453306202" lon="10.716094435206298"><ele>395.6</ele><time>2026-03-28T15:27:39.001Z</time></trkpt><trkpt lat="45.61129560875465" lon="10.716133085361564"><ele>396.0</ele><time>2026-03-28T15:27:40.001Z</time></trkpt><trkpt lat="45.6112111377607" lon="10.716158981337749"><ele>397.8333333333333</ele><time>2026-03-28T15:27:41.001Z</time></trkpt><trkpt lat="45.61112990782275" lon="10.716183105700742"><ele>399.66666666666663</ele><time>2026-03-28T15:27:42.001Z</time></trkpt><trkpt lat="45.611039712944326" lon="10.71620007343972"><ele>401.5</ele><time>2026-03-28T15:27:43.001Z</time></trkpt><trkpt lat="45.61095242255282" lon="10.71621687430907"><ele>403.3333333333333</ele><time>2026-03-28T15:27:44.001Z</time></trkpt><trkpt lat="45.610863900968766" lon="10.716239609737958"><ele>405.16666666666663</ele><time>2026-03-28T15:27:45.001Z</time></trkpt><trkpt lat="45.61077887784712" lon="10.716274968538194"><ele>407.0</ele><time>2026-03-28T15:27:46.001Z</time></trkpt><trkpt lat="45.610692779701346" lon="10.71630298736067"><ele>407.0</ele><time>2026-03-28T15:27:47.001Z</time></trkpt><trkpt lat="45.61060675646073" lon="10.716328626879479"><ele>407.0</ele><time>2026-03-28T15:27:48.001Z</time></trkpt><trkpt lat="45.610519473693074" lon="10.71636016385201"><ele>407.0</ele><time>2026-03-28T15:27:49.001Z</time></trkpt><trkpt lat="45.610426545322746" lon="10.716398187434008"><ele>407.0</ele><time>2026-03-28T15:27:50.001Z</time></trkpt><trkpt lat="45.610334888691824" lon="10.7164466406009"><ele>407.0</ele><time>2026-03-28T15:27:51.001Z</time></trkpt><trkpt lat="45.610254161363876" lon="10.716479863966653"><ele>405.3333333333333</ele><time>2026-03-28T15:27:52.001Z</time></trkpt><trkpt lat="45.61016628674325" lon="10.71652054114654"><ele>403.66666666666663</ele><time>2026-03-28T15:27:53.001Z</time></trkpt><trkpt lat="45.61008623591827" lon="10.71654788459356"><ele>402.0</ele><time>2026-03-28T15:27:54.001Z</time></trkpt><trkpt lat="45.610002242201254" lon="10.716583750566484"><ele>400.33333333333337</ele><time>2026-03-28T15:27:55.001Z</time></trkpt><trkpt lat="45.609916536618336" lon="10.71661423148599"><ele>398.6666666666667</ele><time>2026-03-28T15:27:56.001Z</time></trkpt><trkpt lat="45.60982678752842" lon="10.716638763214107"><ele>397.0</ele><time>2026-03-28T15:27:57.001Z</time></trkpt><trkpt lat="45.60974409018195" lon="10.716658959127"><ele>397.00000000000006</ele><time>2026-03-28T15:27:58.001Z</time></trkpt><trkpt lat="45.60966725054212" lon="10.716683974069355"><ele>397.0</ele><time>2026-03-28T15:27:59.001Z</time></trkpt><trkpt lat="45.60959923553476" lon="10.716715491753703"><ele>397.0</ele><time>2026-03-28T15:28:00.001Z</time></trkpt><trkpt lat="45.60953296406369" lon="10.716736904498857"><ele>397.0</ele><time>2026-03-28T15:28:01.001Z</time></trkpt><trkpt lat="45.60940660687475" lon="10.716790686946366"><ele>397.00000000000006</ele><time>2026-03-28T15:28:03.001Z</time></trkpt><trkpt lat="45.609342246663815" lon="10.716818531540243"><ele>397.0</ele><time>2026-03-28T15:28:04.001Z</time></trkpt><trkpt lat="45.60922173729728" lon="10.71684892146269"><ele>395.8</ele><time>2026-03-28T15:28:06.001Z</time></trkpt><trkpt lat="45.609123757255894" lon="10.716871305685006"><ele>394.6</ele><time>2026-03-28T15:28:08.001Z</time></trkpt><trkpt lat="45.60902393083665" lon="10.716917238157288"><ele>393.40000000000003</ele><time>2026-03-28T15:28:10.001Z</time></trkpt><trkpt lat="45.608925849219034" lon="10.716996521627403"><ele>392.20000000000005</ele><time>2026-03-28T15:28:12.001Z</time></trkpt><trkpt lat="45.60886475262567" lon="10.717037036999217"><ele>391.0</ele><time>2026-03-28T15:28:13.001Z</time></trkpt><trkpt lat="45.608767260580706" lon="10.717104537962634"><ele>391.00000000000006</ele><time>2026-03-28T15:28:15.001Z</time></trkpt><trkpt lat="45.608699657108474" lon="10.717152311552729"><ele>391.0</ele><time>2026-03-28T15:28:17.001Z</time></trkpt><trkpt lat="45.60862927837219" lon="10.717179386167109"><ele>391.0</ele><time>2026-03-28T15:28:20.001Z</time></trkpt><trkpt lat="45.60854123262952" lon="10.717185090840285"><ele>391.0</ele><time>2026-03-28T15:28:23.001Z</time></trkpt><trkpt lat="45.60847214005305" lon="10.71716864005098"><ele>391.00000000000006</ele><time>2026-03-28T15:28:25.001Z</time></trkpt><trkpt lat="45.6084003941633" lon="10.717151296266806"><ele>391.0</ele><time>2026-03-28T15:28:27.001Z</time></trkpt><trkpt lat="45.60829456673937" lon="10.717133921564567"><ele>388.71428571428567</ele><time>2026-03-28T15:28:30.001Z</time></trkpt><trkpt lat="45.608224107230114" lon="10.717124435175883"><ele>386.42857142857144</ele><time>2026-03-28T15:28:32.001Z</time></trkpt><trkpt lat="45.60815472015244" lon="10.717121520855757"><ele>384.1428571428571</ele><time>2026-03-28T15:28:34.001Z</time></trkpt><trkpt lat="45.608079414656416" lon="10.71712387898306"><ele>381.85714285714283</ele><time>2026-03-28T15:28:36.001Z</time></trkpt><trkpt lat="45.60800821888787" lon="10.717128957062009"><ele>379.57142857142856</ele><time>2026-03-28T15:28:38.001Z</time></trkpt><trkpt lat="45.607913784785545" lon="10.717129952657706"><ele>377.2857142857143</ele><time>2026-03-28T15:28:40.001Z</time></trkpt><trkpt lat="45.60784577212398" lon="10.717137197759644"><ele>375.0</ele><time>2026-03-28T15:28:41.001Z</time></trkpt><trkpt lat="45.60776001058601" lon="10.717132382404555"><ele>372.6666666666667</ele><time>2026-03-28T15:28:43.001Z</time></trkpt><trkpt lat="45.6076560432468" lon="10.717134386238278"><ele>370.3333333333333</ele><time>2026-03-28T15:28:45.001Z</time></trkpt><trkpt lat="45.60757857941483" lon="10.717136262554169"><ele>368.0</ele><time>2026-03-28T15:28:47.001Z</time></trkpt><trkpt lat="45.60750561597983" lon="10.717139619183785"><ele>365.66666666666663</ele><time>2026-03-28T15:28:50.001Z</time></trkpt><trkpt lat="45.60743988004357" lon="10.71714392192871"><ele>363.3333333333333</ele><time>2026-03-28T15:28:52.001Z</time></trkpt><trkpt lat="45.607364846421355" lon="10.717122861841796"><ele>361.0</ele><time>2026-03-28T15:28:55.001Z</time></trkpt><trkpt lat="45.60730761920841" lon="10.717185580089101"><ele>361.0</ele><time>2026-03-28T15:28:58.001Z</time></trkpt><trkpt lat="45.60728801013317" lon="10.717288158516373"><ele>361.0</ele><time>2026-03-28T15:29:01.001Z</time></trkpt><trkpt lat="45.60722207735451" lon="10.717353931083878"><ele>361.0</ele><time>2026-03-28T15:29:04.001Z</time></trkpt><trkpt lat="45.60724258087414" lon="10.717521889371973"><ele>361.0</ele><time>2026-03-28T15:29:07.001Z</time></trkpt><trkpt lat="45.607248559410664" lon="10.718002345810442"><ele>361.20000000000005</ele><time>2026-03-28T15:29:08.001Z</time></trkpt><trkpt lat="45.607238004693826" lon="10.71811751073213"><ele>361.40000000000003</ele><time>2026-03-28T15:29:09.001Z</time></trkpt><trkpt lat="45.60726236609965" lon="10.71821871493593"><ele>361.6</ele><time>2026-03-28T15:29:10.001Z</time></trkpt><trkpt lat="45.60729395440759" lon="10.718344549920726"><ele>361.8</ele><time>2026-03-28T15:29:11.001Z</time></trkpt><trkpt lat="45.60732239132851" lon="10.718481239193272"><ele>362.0</ele><time>2026-03-28T15:29:12.001Z</time></trkpt><trkpt lat="45.60727243465956" lon="10.718658966460827"><ele>362.0</ele><time>2026-03-28T15:29:15.001Z</time></trkpt><trkpt lat="45.6071916065478" lon="10.718654246217467"><ele>362.0</ele><time>2026-03-28T15:29:16.001Z</time></trkpt><trkpt lat="45.60711232657533" lon="10.718722798772236"><ele>362.0</ele><time>2026-03-28T15:29:18.001Z</time></trkpt><trkpt lat="45.607010642840685" lon="10.71881214626159"><ele>362.0</ele><time>2026-03-28T15:29:20.001Z</time></trkpt><trkpt lat="45.60693664311699" lon="10.718904727745246"><ele>362.0</ele><time>2026-03-28T15:29:22.001Z</time></trkpt><trkpt lat="45.60682763381484" lon="10.719014636018128"><ele>358.8</ele><time>2026-03-28T15:29:24.001Z</time></trkpt><trkpt lat="45.60671734436707" lon="10.719102884588501"><ele>355.6</ele><time>2026-03-28T15:29:26.001Z</time></trkpt><trkpt lat="45.60667008429323" lon="10.719170240099322"><ele>352.40000000000003</ele><time>2026-03-28T15:29:29.001Z</time></trkpt><trkpt lat="45.60666417876002" lon="10.719301866623855"><ele>349.20000000000005</ele><time>2026-03-28T15:29:31.001Z</time></trkpt><trkpt lat="45.60669555848757" lon="10.719428076638048"><ele>346.0</ele><time>2026-03-28T15:29:33.001Z</time></trkpt><trkpt lat="45.60673100332106" lon="10.71954449536945"><ele>345.20000000000005</ele><time>2026-03-28T15:29:35.001Z</time></trkpt><trkpt lat="45.60674159301952" lon="10.719703502603343"><ele>344.40000000000003</ele><time>2026-03-28T15:29:37.001Z</time></trkpt><trkpt lat="45.60675627467609" lon="10.719847261796426"><ele>343.6</ele><time>2026-03-28T15:29:39.001Z</time></trkpt><trkpt lat="45.606755968894355" lon="10.719957036753824"><ele>342.8</ele><time>2026-03-28T15:29:42.001Z</time></trkpt><trkpt lat="45.60668214138756" lon="10.719896248472388"><ele>342.0</ele><time>2026-03-28T15:31:59Z</time></trkpt><trkpt lat="45.60671729777056" lon="10.720071883437"><ele>342.0</ele><time>2026-03-28T15:32:04Z</time></trkpt><trkpt lat="45.60639522172174" lon="10.720182240920526"><ele>342.0</ele><time>2026-03-28T15:32:05Z</time></trkpt><trkpt lat="45.60633623160677" lon="10.720232669488327"><ele>342.0</ele><time>2026-03-28T15:32:06Z</time></trkpt><trkpt lat="45.606277382338725" lon="10.720302332034889"><ele>341.0</ele><time>2026-03-28T15:32:07Z</time></trkpt><trkpt lat="45.606211365942656" lon="10.72043133711968"><ele>340.0</ele><time>2026-03-28T15:32:09Z</time></trkpt><trkpt lat="45.60616604081122" lon="10.720517472338097"><ele>339.0</ele><time>2026-03-28T15:32:10Z</time></trkpt><trkpt lat="45.60613070078899" lon="10.720615370133505"><ele>338.0</ele><time>2026-03-28T15:32:11Z</time></trkpt><trkpt lat="45.60610891636498" lon="10.720720413158995"><ele>337.0</ele><time>2026-03-28T15:32:12Z</time></trkpt><trkpt lat="45.606085864900805" lon="10.720844620988467"><ele>336.0</ele><time>2026-03-28T15:32:13Z</time></trkpt><trkpt lat="45.606054773406434" lon="10.720974475467068"><ele>334.4</ele><time>2026-03-28T15:32:14Z</time></trkpt><trkpt lat="45.60601677527097" lon="10.721092539357246"><ele>332.8</ele><time>2026-03-28T15:32:15Z</time></trkpt><trkpt lat="45.60596072620749" lon="10.721182104917903"><ele>331.2</ele><time>2026-03-28T15:32:16Z</time></trkpt><trkpt lat="45.60587593674068" lon="10.721217012916611"><ele>329.59999999999997</ele><time>2026-03-28T15:32:17Z</time></trkpt><trkpt lat="45.605786706156444" lon="10.721283489614308"><ele>328.0</ele><time>2026-03-28T15:32:18Z</time></trkpt><trkpt lat="45.605693685847186" lon="10.721278027640482"><ele>328.0</ele><time>2026-03-28T15:32:19Z</time></trkpt><trkpt lat="45.60561170174554" lon="10.721313559697101"><ele>328.0</ele><time>2026-03-28T15:32:20Z</time></trkpt><trkpt lat="45.6055365008923" lon="10.721359335678716"><ele>328.0</ele><time>2026-03-28T15:32:21Z</time></trkpt><trkpt lat="45.605469907136666" lon="10.721428996986596"><ele>328.0</ele><time>2026-03-28T15:32:22Z</time></trkpt><trkpt lat="45.60542079917118" lon="10.721516746454851"><ele>328.0</ele><time>2026-03-28T15:32:23Z</time></trkpt><trkpt lat="45.60536788610112" lon="10.721608193297769"><ele>328.0</ele><time>2026-03-28T15:32:24Z</time></trkpt><trkpt lat="45.605317670513735" lon="10.72169180457518"><ele>326.8333333333333</ele><time>2026-03-28T15:32:25Z</time></trkpt><trkpt lat="45.60527383292468" lon="10.721760088523155"><ele>325.66666666666663</ele><time>2026-03-28T15:32:26Z</time></trkpt><trkpt lat="45.60523706966991" lon="10.721864585733815"><ele>324.5</ele><time>2026-03-28T15:32:28Z</time></trkpt><trkpt lat="45.60525196045512" lon="10.72195402313211"><ele>323.3333333333333</ele><time>2026-03-28T15:32:30Z</time></trkpt><trkpt lat="45.60528503026378" lon="10.722070470891849"><ele>322.1666666666667</ele><time>2026-03-28T15:32:32Z</time></trkpt><trkpt lat="45.60531021476985" lon="10.722189612405785"><ele>321.0</ele><time>2026-03-28T15:32:34Z</time></trkpt><trkpt lat="45.60534132201581" lon="10.722277397904959"><ele>320.0</ele><time>2026-03-28T15:32:37Z</time></trkpt><trkpt lat="45.60537718475452" lon="10.722364604365064"><ele>319.0</ele><time>2026-03-28T15:33:05Z</time></trkpt><trkpt lat="45.605478945600886" lon="10.722360025757334"><ele>318.0</ele><time>2026-03-28T15:33:07Z</time></trkpt><trkpt lat="45.60556302512639" lon="10.72237824534371"><ele>317.0</ele><time>2026-03-28T15:33:09Z</time></trkpt><trkpt lat="45.60563904810755" lon="10.72244621186519"><ele>316.0</ele><time>2026-03-28T15:34:16Z</time></trkpt><trkpt lat="45.60573308081001" lon="10.722440993082916"><ele>315.0</ele><time>2026-03-28T15:34:19Z</time></trkpt><trkpt lat="45.60584003115012" lon="10.722477332647745"><ele>315.0</ele><time>2026-03-28T15:34:21Z</time></trkpt><trkpt lat="45.60595982613888" lon="10.72248515781372"><ele>315.0</ele><time>2026-03-28T15:34:23Z</time></trkpt><trkpt lat="45.60607073447225" lon="10.722515217806714"><ele>315.0</ele><time>2026-03-28T15:34:25Z</time></trkpt><trkpt lat="45.6061380613695" lon="10.722536022758739"><ele>315.0</ele><time>2026-03-28T15:34:26Z</time></trkpt><trkpt lat="45.60622732884528" lon="10.722562631079978"><ele>315.0</ele><time>2026-03-28T15:34:27Z</time></trkpt><trkpt lat="45.60633201898721" lon="10.72260379449371"><ele>314.5</ele><time>2026-03-28T15:34:28Z</time></trkpt><trkpt lat="45.60640867848049" lon="10.722655287060265"><ele>314.0</ele><time>2026-03-28T15:34:29Z</time></trkpt><trkpt lat="45.606485465954655" lon="10.72271097777281"><ele>313.5</ele><time>2026-03-28T15:34:30Z</time></trkpt><trkpt lat="45.60655696265086" lon="10.722766143347378"><ele>313.0</ele><time>2026-03-28T15:34:31Z</time></trkpt><trkpt lat="45.606625932129376" lon="10.722826236689336"><ele>312.5</ele><time>2026-03-28T15:34:32Z</time></trkpt><trkpt lat="45.60668881572504" lon="10.722874969828638"><ele>312.0</ele><time>2026-03-28T15:34:33Z</time></trkpt><trkpt lat="45.606732498557655" lon="10.722949635104117"><ele>310.0</ele><time>2026-03-28T15:34:34Z</time></trkpt><trkpt lat="45.606752976859504" lon="10.723043986405884"><ele>308.0</ele><time>2026-03-28T15:34:35Z</time></trkpt><trkpt lat="45.606748932773534" lon="10.723154552232518"><ele>306.0</ele><time>2026-03-28T15:34:36Z</time></trkpt><trkpt lat="45.60664837903818" lon="10.723178757117687"><ele>304.0</ele><time>2026-03-28T15:34:37Z</time></trkpt><trkpt lat="45.60651156833954" lon="10.723156420233444"><ele>302.0</ele><time>2026-03-28T15:34:39Z</time></trkpt><trkpt lat="45.606434861190785" lon="10.723077992500736"><ele>302.0</ele><time>2026-03-28T15:34:40Z</time></trkpt><trkpt lat="45.60635622945332" lon="10.722984661524817"><ele>302.0</ele><time>2026-03-28T15:34:41Z</time></trkpt><trkpt lat="45.60628585045987" lon="10.722868731829546"><ele>302.0</ele><time>2026-03-28T15:34:42Z</time></trkpt><trkpt lat="45.60617447724798" lon="10.722814107535784"><ele>302.0</ele><time>2026-03-28T15:34:43Z</time></trkpt><trkpt lat="45.60606852289735" lon="10.722729334582361"><ele>302.0</ele><time>2026-03-28T15:34:44Z</time></trkpt><trkpt lat="45.60595865171525" lon="10.72271426094413"><ele>305.25</ele><time>2026-03-28T15:34:45Z</time></trkpt><trkpt lat="45.60584953434262" lon="10.72268648370727"><ele>308.5</ele><time>2026-03-28T15:34:46Z</time></trkpt><trkpt lat="45.60573346029697" lon="10.72267831968921"><ele>311.75</ele><time>2026-03-28T15:34:47Z</time></trkpt><trkpt lat="45.60561514662648" lon="10.722692653125177"><ele>315.0</ele><time>2026-03-28T15:34:48Z</time></trkpt><trkpt lat="45.605493215694054" lon="10.722729456163748"><ele>310.75</ele><time>2026-03-28T15:34:49Z</time></trkpt><trkpt lat="45.60536935128416" lon="10.722778759516121"><ele>306.5</ele><time>2026-03-28T15:34:50Z</time></trkpt><trkpt lat="45.605238052354665" lon="10.722824513794613"><ele>302.25</ele><time>2026-03-28T15:34:51Z</time></trkpt><trkpt lat="45.60511566635284" lon="10.722860267556813"><ele>298.0</ele><time>2026-03-28T15:34:52Z</time></trkpt><trkpt lat="45.60499876170529" lon="10.722897168013024"><ele>297.0</ele><time>2026-03-28T15:34:53Z</time></trkpt><trkpt lat="45.604872729957606" lon="10.722920050131734"><ele>296.0</ele><time>2026-03-28T15:34:54Z</time></trkpt><trkpt lat="45.60475289900608" lon="10.722926532003145"><ele>295.0</ele><time>2026-03-28T15:34:55Z</time></trkpt><trkpt lat="45.60462730750984" lon="10.722922012774434"><ele>294.0</ele><time>2026-03-28T15:34:56Z</time></trkpt><trkpt lat="45.604497300728084" lon="10.722897111534863"><ele>293.0</ele><time>2026-03-28T15:34:57Z</time></trkpt><trkpt lat="45.6043701680649" lon="10.722862603723849"><ele>292.0</ele><time>2026-03-28T15:34:58Z</time></trkpt><trkpt lat="45.60421584407964" lon="10.722819128653748"><ele>291.0</ele><time>2026-03-28T15:34:59Z</time></trkpt><trkpt lat="45.604080313113315" lon="10.72278681328967"><ele>290.0</ele><time>2026-03-28T15:35:00Z</time></trkpt><trkpt lat="45.603940448438536" lon="10.722756311857431"><ele>291.5</ele><time>2026-03-28T15:35:01Z</time></trkpt><trkpt lat="45.603803836845316" lon="10.722716371207405"><ele>293.0</ele><time>2026-03-28T15:35:02Z</time></trkpt><trkpt lat="45.60365854179865" lon="10.72267872013165"><ele>294.5</ele><time>2026-03-28T15:35:03Z</time></trkpt><trkpt lat="45.60352603774705" lon="10.722639122312035"><ele>296.0</ele><time>2026-03-28T15:35:04Z</time></trkpt><trkpt lat="45.60338742024489" lon="10.7225989517748"><ele>296.0</ele><time>2026-03-28T15:35:05Z</time></trkpt><trkpt lat="45.60324779026492" lon="10.722564950197889"><ele>296.0</ele><time>2026-03-28T15:35:06Z</time></trkpt><trkpt lat="45.603111235244434" lon="10.722537901287316"><ele>296.0</ele><time>2026-03-28T15:35:07Z</time></trkpt><trkpt lat="45.60297687246224" lon="10.722542755958823"><ele>296.0</ele><time>2026-03-28T15:35:08Z</time></trkpt><trkpt lat="45.60284371970896" lon="10.722542116576912"><ele>294.75</ele><time>2026-03-28T15:35:09Z</time></trkpt><trkpt lat="45.602721190351666" lon="10.72254905242966"><ele>293.5</ele><time>2026-03-28T15:35:10Z</time></trkpt><trkpt lat="45.60260336537146" lon="10.722539613461056"><ele>292.25</ele><time>2026-03-28T15:35:11Z</time></trkpt><trkpt lat="45.60249375549001" lon="10.72250564095012"><ele>291.0</ele><time>2026-03-28T15:35:12Z</time></trkpt><trkpt lat="45.60239647818159" lon="10.722441899473944"><ele>291.0</ele><time>2026-03-28T15:35:13Z</time></trkpt><trkpt lat="45.60230244425604" lon="10.722366051800309"><ele>291.0</ele><time>2026-03-28T15:35:14Z</time></trkpt><trkpt lat="45.602200784619214" lon="10.722290918870678"><ele>291.0</ele><time>2026-03-28T15:35:15Z</time></trkpt><trkpt lat="45.602067948966486" lon="10.722307945221841"><ele>291.0</ele><time>2026-03-28T15:35:16Z</time></trkpt><trkpt lat="45.601943215725235" lon="10.722265045463406"><ele>290.25</ele><time>2026-03-28T15:35:17Z</time></trkpt><trkpt lat="45.60182880599044" lon="10.722187953490662"><ele>289.5</ele><time>2026-03-28T15:35:18Z</time></trkpt><trkpt lat="45.60174511982868" lon="10.722054390980768"><ele>288.75</ele><time>2026-03-28T15:35:19Z</time></trkpt><trkpt lat="45.60167227256932" lon="10.721913147048891"><ele>288.0</ele><time>2026-03-28T15:35:20Z</time></trkpt><trkpt lat="45.601602420251425" lon="10.721761886343728"><ele>288.0</ele><time>2026-03-28T15:35:21Z</time></trkpt><trkpt lat="45.60153055826369" lon="10.721598734827035"><ele>288.0</ele><time>2026-03-28T15:35:22Z</time></trkpt><trkpt lat="45.60143995718378" lon="10.721444833304375"><ele>288.0</ele><time>2026-03-28T15:35:22.999Z</time></trkpt><trkpt lat="45.6013487701361" lon="10.721283766497557"><ele>288.0</ele><time>2026-03-28T15:35:23.999Z</time></trkpt><trkpt lat="45.60126177809233" lon="10.72110390991416"><ele>286.6666666666667</ele><time>2026-03-28T15:35:24.999Z</time></trkpt><trkpt lat="45.601132428080504" lon="10.720973633203617"><ele>285.33333333333337</ele><time>2026-03-28T15:35:25.999Z</time></trkpt><trkpt lat="45.60100574694112" lon="10.720849698456798"><ele>284.0</ele><time>2026-03-28T15:35:26.999Z</time></trkpt><trkpt lat="45.60086455277477" lon="10.720755058663824"><ele>284.0</ele><time>2026-03-28T15:35:27.999Z</time></trkpt><trkpt lat="45.6007253485598" lon="10.720638614387434"><ele>284.0</ele><time>2026-03-28T15:35:28.999Z</time></trkpt><trkpt lat="45.60057694656172" lon="10.720539832464608"><ele>284.0</ele><time>2026-03-28T15:35:29.999Z</time></trkpt><trkpt lat="45.60043514358005" lon="10.720431569736304"><ele>284.0</ele><time>2026-03-28T15:35:30.999Z</time></trkpt><trkpt lat="45.60029881367478" lon="10.720304871188494"><ele>284.0</ele><time>2026-03-28T15:35:31.999Z</time></trkpt><trkpt lat="45.600167970068405" lon="10.720163226595286"><ele>284.0</ele><time>2026-03-28T15:35:32.999Z</time></trkpt><trkpt lat="45.60004603116416" lon="10.72002571618089"><ele>284.0</ele><time>2026-03-28T15:35:34Z</time></trkpt><trkpt lat="45.599920563355795" lon="10.71990401449767"><ele>284.0</ele><time>2026-03-28T15:35:35Z</time></trkpt><trkpt lat="45.59982671948004" lon="10.719764036173837"><ele>284.0</ele><time>2026-03-28T15:35:36Z</time></trkpt><trkpt lat="45.599741892548685" lon="10.719600093571437"><ele>284.0</ele><time>2026-03-28T15:35:37Z</time></trkpt><trkpt lat="45.59966660331623" lon="10.719430734377893"><ele>284.75</ele><time>2026-03-28T15:35:38Z</time></trkpt><trkpt lat="45.59959448415622" lon="10.719263128890429"><ele>285.5</ele><time>2026-03-28T15:35:39Z</time></trkpt><trkpt lat="45.599526129985684" lon="10.719093064180303"><ele>286.25</ele><time>2026-03-28T15:35:40Z</time></trkpt><trkpt lat="45.59945408257875" lon="10.718929086957397"><ele>287.0</ele><time>2026-03-28T15:35:41Z</time></trkpt><trkpt lat="45.59938051887182" lon="10.718774127849793"><ele>284.75</ele><time>2026-03-28T15:35:42Z</time></trkpt><trkpt lat="45.59929982340511" lon="10.718631891428817"><ele>282.5</ele><time>2026-03-28T15:35:43Z</time></trkpt><trkpt lat="45.5992113454295" lon="10.718498494057666"><ele>280.25</ele><time>2026-03-28T15:35:44Z</time></trkpt><trkpt lat="45.599117421529954" lon="10.718381605049707"><ele>278.0</ele><time>2026-03-28T15:35:45Z</time></trkpt><trkpt lat="45.59902511962281" lon="10.718268000172868"><ele>277.8</ele><time>2026-03-28T15:35:46Z</time></trkpt><trkpt lat="45.598933922777306" lon="10.718156061727756"><ele>277.6</ele><time>2026-03-28T15:35:47Z</time></trkpt><trkpt lat="45.598848584232314" lon="10.718054764654424"><ele>277.4</ele><time>2026-03-28T15:35:48Z</time></trkpt><trkpt lat="45.59876495192752" lon="10.717958396295922"><ele>277.2</ele><time>2026-03-28T15:35:49Z</time></trkpt><trkpt lat="45.59868250390566" lon="10.71787052604216"><ele>277.0</ele><time>2026-03-28T15:35:50Z</time></trkpt><trkpt lat="45.59859467424694" lon="10.717812083878588"><ele>277.8</ele><time>2026-03-28T15:35:51Z</time></trkpt><trkpt lat="45.59851129252098" lon="10.717722878830266"><ele>278.6</ele><time>2026-03-28T15:35:52Z</time></trkpt><trkpt lat="45.59842236594964" lon="10.717670477105964"><ele>279.40000000000003</ele><time>2026-03-28T15:35:53Z</time></trkpt><trkpt lat="45.598324602655396" lon="10.717619147041868"><ele>280.2</ele><time>2026-03-28T15:35:54Z</time></trkpt><trkpt lat="45.59821288787615" lon="10.717566311226387"><ele>281.0</ele><time>2026-03-28T15:35:55Z</time></trkpt><trkpt lat="45.598095022446" lon="10.717511296072542"><ele>281.0</ele><time>2026-03-28T15:35:56Z</time></trkpt><trkpt lat="45.59797064735903" lon="10.71745342391134"><ele>281.0</ele><time>2026-03-28T15:35:57Z</time></trkpt><trkpt lat="45.597837331368275" lon="10.71739296829219"><ele>281.0</ele><time>2026-03-28T15:35:58Z</time></trkpt><trkpt lat="45.59769151301835" lon="10.717345408965546"><ele>281.0</ele><time>2026-03-28T15:35:59Z</time></trkpt><trkpt lat="45.59754481292542" lon="10.717265122083575"><ele>280.25</ele><time>2026-03-28T15:36:00Z</time></trkpt><trkpt lat="45.59740713595021" lon="10.717201883749706"><ele>279.5</ele><time>2026-03-28T15:36:01Z</time></trkpt><trkpt lat="45.597275111976344" lon="10.71712278804638"><ele>278.75</ele><time>2026-03-28T15:36:02Z</time></trkpt><trkpt lat="45.597143109321436" lon="10.717027065587956"><ele>278.0</ele><time>2026-03-28T15:36:03Z</time></trkpt><trkpt lat="45.597025118141076" lon="10.71689280611487"><ele>279.0</ele><time>2026-03-28T15:36:04Z</time></trkpt><trkpt lat="45.596924054280784" lon="10.716736975413866"><ele>280.0</ele><time>2026-03-28T15:36:05Z</time></trkpt><trkpt lat="45.596813399948374" lon="10.716585886261168"><ele>281.0</ele><time>2026-03-28T15:36:06Z</time></trkpt><trkpt lat="45.59669701903288" lon="10.716445592308435"><ele>281.0</ele><time>2026-03-28T15:36:07Z</time></trkpt><trkpt lat="45.59658160198292" lon="10.716291158661273"><ele>281.0</ele><time>2026-03-28T15:36:08Z</time></trkpt><trkpt lat="45.596467812605276" lon="10.71612730139698"><ele>281.0</ele><time>2026-03-28T15:36:09Z</time></trkpt><trkpt lat="45.59635050442631" lon="10.715964083126687"><ele>281.33333333333337</ele><time>2026-03-28T15:36:10Z</time></trkpt><trkpt lat="45.59623487124825" lon="10.715801076119963"><ele>281.6666666666667</ele><time>2026-03-28T15:36:11Z</time></trkpt><trkpt lat="45.596121673382925" lon="10.715637253822383"><ele>282.0</ele><time>2026-03-28T15:36:12Z</time></trkpt><trkpt lat="45.59600609586877" lon="10.715474202590942"><ele>283.0</ele><time>2026-03-28T15:36:13Z</time></trkpt><trkpt lat="45.59588907070268" lon="10.715312073170756"><ele>284.0</ele><time>2026-03-28T15:36:14Z</time></trkpt><trkpt lat="45.59577367725262" lon="10.715147695044287"><ele>285.0</ele><time>2026-03-28T15:36:15Z</time></trkpt><trkpt lat="45.59565945766115" lon="10.714982334906292"><ele>287.0</ele><time>2026-03-28T15:36:16Z</time></trkpt><trkpt lat="45.59554661727487" lon="10.714818945184406"><ele>289.0</ele><time>2026-03-28T15:36:17Z</time></trkpt><trkpt lat="45.59543457177758" lon="10.714654546660517"><ele>291.0</ele><time>2026-03-28T15:36:18Z</time></trkpt><trkpt lat="45.59532204339703" lon="10.71448985511721"><ele>292.0</ele><time>2026-03-28T15:36:19Z</time></trkpt><trkpt lat="45.59521015655886" lon="10.714324734328406"><ele>293.0</ele><time>2026-03-28T15:36:20Z</time></trkpt><trkpt lat="45.595098329893474" lon="10.714171065237878"><ele>294.0</ele><time>2026-03-28T15:36:21Z</time></trkpt><trkpt lat="45.59500223532599" lon="10.714043439038425"><ele>295.0</ele><time>2026-03-28T15:36:22Z</time></trkpt><trkpt lat="45.594912861085305" lon="10.713927347824303"><ele>295.0</ele><time>2026-03-28T15:36:23Z</time></trkpt><trkpt lat="45.5948141523665" lon="10.7138267808395"><ele>295.0</ele><time>2026-03-28T15:36:24Z</time></trkpt><trkpt lat="45.59470571850947" lon="10.713744424236301"><ele>295.0</ele><time>2026-03-28T15:36:25Z</time></trkpt><trkpt lat="45.59458671901707" lon="10.713736144725221"><ele>295.0</ele><time>2026-03-28T15:36:26Z</time></trkpt><trkpt lat="45.5944660266979" lon="10.713699800685944"><ele>296.0</ele><time>2026-03-28T15:36:27Z</time></trkpt><trkpt lat="45.59436736961922" lon="10.713640082700376"><ele>297.0</ele><time>2026-03-28T15:36:28Z</time></trkpt><trkpt lat="45.594290147493616" lon="10.713546616086296"><ele>298.0</ele><time>2026-03-28T15:36:29Z</time></trkpt><trkpt lat="45.59421299019258" lon="10.713431929861347"><ele>299.0</ele><time>2026-03-28T15:36:30Z</time></trkpt><trkpt lat="45.59414137153308" lon="10.71330810108169"><ele>300.0</ele><time>2026-03-28T15:36:31Z</time></trkpt><trkpt lat="45.59408390023322" lon="10.713175439936617"><ele>300.0</ele><time>2026-03-28T15:36:32Z</time></trkpt><trkpt lat="45.594057998819885" lon="10.71302183226606"><ele>300.0</ele><time>2026-03-28T15:36:33Z</time></trkpt><trkpt lat="45.594007619537656" lon="10.712884219027503"><ele>300.0</ele><time>2026-03-28T15:36:34Z</time></trkpt><trkpt lat="45.59396218935038" lon="10.712748233788723"><ele>300.0</ele><time>2026-03-28T15:36:35Z</time></trkpt><trkpt lat="45.59389618215895" lon="10.712633046927236"><ele>300.0</ele><time>2026-03-28T15:36:36Z</time></trkpt><trkpt lat="45.59380969074859" lon="10.712543064357654"><ele>299.75</ele><time>2026-03-28T15:36:37Z</time></trkpt><trkpt lat="45.59370786951909" lon="10.712485661650922"><ele>299.5</ele><time>2026-03-28T15:36:38Z</time></trkpt><trkpt lat="45.59359294117101" lon="10.712454366076987"><ele>299.25</ele><time>2026-03-28T15:36:39Z</time></trkpt><trkpt lat="45.59346499295797" lon="10.712439350499732"><ele>299.0</ele><time>2026-03-28T15:36:40Z</time></trkpt><trkpt lat="45.59333772407949" lon="10.712423743050378"><ele>296.4</ele><time>2026-03-28T15:36:41Z</time></trkpt><trkpt lat="45.59321959117325" lon="10.712402190184298"><ele>293.79999999999995</ele><time>2026-03-28T15:36:42Z</time></trkpt><trkpt lat="45.593104636706435" lon="10.71237541124091"><ele>291.20000000000005</ele><time>2026-03-28T15:36:43Z</time></trkpt><trkpt lat="45.59299823201309" lon="10.71235728322926"><ele>288.6</ele><time>2026-03-28T15:36:44Z</time></trkpt><trkpt lat="45.59290235064583" lon="10.712337470461586"><ele>286.0</ele><time>2026-03-28T15:36:45Z</time></trkpt><trkpt lat="45.59281898637909" lon="10.712312505974095"><ele>285.8</ele><time>2026-03-28T15:36:46Z</time></trkpt><trkpt lat="45.59276161015024" lon="10.712270839417096"><ele>285.6</ele><time>2026-03-28T15:36:47Z</time></trkpt><trkpt lat="45.592766730783495" lon="10.712044634945592"><ele>285.4</ele><time>2026-03-28T15:36:50Z</time></trkpt><trkpt lat="45.592799560397204" lon="10.71192920225844"><ele>285.2</ele><time>2026-03-28T15:36:51Z</time></trkpt><trkpt lat="45.59282673661084" lon="10.711788561018572"><ele>285.0</ele><time>2026-03-28T15:36:52Z</time></trkpt><trkpt lat="45.59284753022735" lon="10.711646646208887"><ele>284.75</ele><time>2026-03-28T15:36:53Z</time></trkpt><trkpt lat="45.592858631682745" lon="10.711478645707915"><ele>284.5</ele><time>2026-03-28T15:36:54Z</time></trkpt><trkpt lat="45.59285935474457" lon="10.711300248422756"><ele>284.25</ele><time>2026-03-28T15:36:55Z</time></trkpt><trkpt lat="45.59285855005746" lon="10.711101366723016"><ele>284.0</ele><time>2026-03-28T15:36:56Z</time></trkpt><trkpt lat="45.59285455374897" lon="10.710916397919352"><ele>285.0</ele><time>2026-03-28T15:36:57Z</time></trkpt><trkpt lat="45.59285129403509" lon="10.710727939248656"><ele>286.0</ele><time>2026-03-28T15:36:58Z</time></trkpt><trkpt lat="45.59284575455452" lon="10.710536605211313"><ele>287.0</ele><time>2026-03-28T15:36:59Z</time></trkpt><trkpt lat="45.59283554457105" lon="10.71034180783687"><ele>288.0</ele><time>2026-03-28T15:37:00Z</time></trkpt><trkpt lat="45.59282140742299" lon="10.710143816287452"><ele>291.5</ele><time>2026-03-28T15:37:01Z</time></trkpt><trkpt lat="45.592806884679284" lon="10.709944311866064"><ele>295.0</ele><time>2026-03-28T15:37:02Z</time></trkpt><trkpt lat="45.592795034170045" lon="10.709741889246787"><ele>298.5</ele><time>2026-03-28T15:37:03Z</time></trkpt><trkpt lat="45.59278342393748" lon="10.709538659470887"><ele>302.0</ele><time>2026-03-28T15:37:04Z</time></trkpt><trkpt lat="45.5927714337774" lon="10.709336459686744"><ele>303.25</ele><time>2026-03-28T15:37:05Z</time></trkpt><trkpt lat="45.59275807671827" lon="10.709139418687059"><ele>304.5</ele><time>2026-03-28T15:37:06Z</time></trkpt><trkpt lat="45.592738485710385" lon="10.708952200148817"><ele>305.75</ele><time>2026-03-28T15:37:07Z</time></trkpt><trkpt lat="45.59271844294362" lon="10.708770871062601"><ele>307.0</ele><time>2026-03-28T15:37:08Z</time></trkpt><trkpt lat="45.592694134972746" lon="10.70860150044325"><ele>306.6</ele><time>2026-03-28T15:37:09Z</time></trkpt><trkpt lat="45.592655378653724" lon="10.708451367381045"><ele>306.2</ele><time>2026-03-28T15:37:10Z</time></trkpt><trkpt lat="45.592596854353054" lon="10.708324897515835"><ele>305.8</ele><time>2026-03-28T15:37:11Z</time></trkpt><trkpt lat="45.59253020497653" lon="10.708205567369674"><ele>305.4</ele><time>2026-03-28T15:37:12Z</time></trkpt><trkpt lat="45.592478404312544" lon="10.708064338887377"><ele>305.0</ele><time>2026-03-28T15:37:13Z</time></trkpt><trkpt lat="45.592445512399614" lon="10.707903470093122"><ele>305.0</ele><time>2026-03-28T15:37:14Z</time></trkpt><trkpt lat="45.592419542353156" lon="10.707729691803609"><ele>305.0</ele><time>2026-03-28T15:37:15Z</time></trkpt><trkpt lat="45.59239843265465" lon="10.707561198519212"><ele>305.0</ele><time>2026-03-28T15:37:16Z</time></trkpt><trkpt lat="45.592351800121925" lon="10.707408520805352"><ele>305.0</ele><time>2026-03-28T15:37:17Z</time></trkpt><trkpt lat="45.59229945892327" lon="10.707249885962787"><ele>305.0</ele><time>2026-03-28T15:37:18Z</time></trkpt><trkpt lat="45.59222681799803" lon="10.707099309256035"><ele>305.0</ele><time>2026-03-28T15:37:19Z</time></trkpt><trkpt lat="45.59214971325745" lon="10.706935784448836"><ele>305.0</ele><time>2026-03-28T15:37:20Z</time></trkpt><trkpt lat="45.59206949063179" lon="10.706764171558191"><ele>305.0</ele><time>2026-03-28T15:37:21Z</time></trkpt><trkpt lat="45.59198747282603" lon="10.706598169184842"><ele>304.5</ele><time>2026-03-28T15:37:22Z</time></trkpt><trkpt lat="45.59193095477002" lon="10.706422022031648"><ele>304.0</ele><time>2026-03-28T15:37:23Z</time></trkpt><trkpt lat="45.59187904703621" lon="10.706247649071262"><ele>303.5</ele><time>2026-03-28T15:37:24Z</time></trkpt><trkpt lat="45.59183292446309" lon="10.70606911981377"><ele>303.0</ele><time>2026-03-28T15:37:25Z</time></trkpt><trkpt lat="45.59179325572486" lon="10.705885888682394"><ele>304.5</ele><time>2026-03-28T15:37:26Z</time></trkpt><trkpt lat="45.59175488930501" lon="10.705695223219019"><ele>306.0</ele><time>2026-03-28T15:37:27Z</time></trkpt><trkpt lat="45.59172108277973" lon="10.705499199514753"><ele>307.5</ele><time>2026-03-28T15:37:28Z</time></trkpt><trkpt lat="45.591696491340166" lon="10.705302993568475"><ele>309.0</ele><time>2026-03-28T15:37:29Z</time></trkpt><trkpt lat="45.591677799682856" lon="10.705106758128418"><ele>309.5</ele><time>2026-03-28T15:37:30Z</time></trkpt><trkpt lat="45.59166277742613" lon="10.704914989969092"><ele>310.0</ele><time>2026-03-28T15:37:31Z</time></trkpt><trkpt lat="45.59165144065565" lon="10.70472412266052"><ele>310.5</ele><time>2026-03-28T15:37:32Z</time></trkpt><trkpt lat="45.59164717929738" lon="10.70452094292917"><ele>311.0</ele><time>2026-03-28T15:37:33Z</time></trkpt><trkpt lat="45.591643696762944" lon="10.704316323247328"><ele>312.25</ele><time>2026-03-28T15:37:34Z</time></trkpt><trkpt lat="45.59164684986532" lon="10.704111113056637"><ele>313.5</ele><time>2026-03-28T15:37:35Z</time></trkpt><trkpt lat="45.59164926269917" lon="10.70390081098961"><ele>314.75</ele><time>2026-03-28T15:37:36Z</time></trkpt><trkpt lat="45.59165360874888" lon="10.703701142149567"><ele>316.0</ele><time>2026-03-28T15:37:37Z</time></trkpt><trkpt lat="45.59165762616161" lon="10.703503827379748"><ele>316.25</ele><time>2026-03-28T15:37:38Z</time></trkpt><trkpt lat="45.59166664074395" lon="10.703305624520697"><ele>316.5</ele><time>2026-03-28T15:37:39Z</time></trkpt><trkpt lat="45.591667424683806" lon="10.703113070983196"><ele>316.75</ele><time>2026-03-28T15:37:40Z</time></trkpt><trkpt lat="45.591654959255756" lon="10.702921927776176"><ele>317.0</ele><time>2026-03-28T15:37:41Z</time></trkpt><trkpt lat="45.59162824323473" lon="10.702745184520872"><ele>318.0</ele><time>2026-03-28T15:37:42Z</time></trkpt><trkpt lat="45.59158825643234" lon="10.702574287572727"><ele>319.0</ele><time>2026-03-28T15:37:43Z</time></trkpt><trkpt lat="45.59153450811804" lon="10.702413022455074"><ele>320.0</ele><time>2026-03-28T15:37:44Z</time></trkpt><trkpt lat="45.59146122734578" lon="10.702266123553981"><ele>321.0</ele><time>2026-03-28T15:37:45Z</time></trkpt><trkpt lat="45.5913988879699" lon="10.70210609388288"><ele>321.0</ele><time>2026-03-28T15:37:46Z</time></trkpt><trkpt lat="45.59132374130138" lon="10.701965417495144"><ele>321.0</ele><time>2026-03-28T15:37:47Z</time></trkpt><trkpt lat="45.59125797520291" lon="10.701842296911744"><ele>321.0</ele><time>2026-03-28T15:37:48Z</time></trkpt><trkpt lat="45.59118475299181" lon="10.701742462203564"><ele>321.0</ele><time>2026-03-28T15:37:49Z</time></trkpt><trkpt lat="45.59114870566567" lon="10.701619700578847"><ele>321.0</ele><time>2026-03-28T15:37:50Z</time></trkpt><trkpt lat="45.59113756435247" lon="10.70148950470029"><ele>320.40000000000003</ele><time>2026-03-28T15:37:51Z</time></trkpt><trkpt lat="45.59114191194479" lon="10.701359586419395"><ele>319.8</ele><time>2026-03-28T15:37:52Z</time></trkpt><trkpt lat="45.591175728596895" lon="10.701234895409266"><ele>319.20000000000005</ele><time>2026-03-28T15:37:53Z</time></trkpt><trkpt lat="45.591230248182725" lon="10.701128763025848"><ele>318.6</ele><time>2026-03-28T15:37:54Z</time></trkpt><trkpt lat="45.59132055475731" lon="10.701040614445867"><ele>318.0</ele><time>2026-03-28T15:37:55Z</time></trkpt><trkpt lat="45.59142574947068" lon="10.700970348174565"><ele>318.0</ele><time>2026-03-28T15:37:56Z</time></trkpt><trkpt lat="45.59154566113815" lon="10.700926096113387"><ele>318.0</ele><time>2026-03-28T15:37:57Z</time></trkpt><trkpt lat="45.59168123584286" lon="10.700867428116052"><ele>318.0</ele><time>2026-03-28T15:37:58Z</time></trkpt><trkpt lat="45.5918261780241" lon="10.700838459012937"><ele>318.0</ele><time>2026-03-28T15:37:59Z</time></trkpt><trkpt lat="45.59197102730552" lon="10.700808348080665"><ele>319.0</ele><time>2026-03-28T15:38:00Z</time></trkpt><trkpt lat="45.59210887555073" lon="10.700768666286839"><ele>320.0</ele><time>2026-03-28T15:38:01Z</time></trkpt><trkpt lat="45.592243958130716" lon="10.700722226759796"><ele>321.0</ele><time>2026-03-28T15:38:02Z</time></trkpt><trkpt lat="45.59238091342577" lon="10.700687486229935"><ele>322.0</ele><time>2026-03-28T15:38:03Z</time></trkpt><trkpt lat="45.59251837009878" lon="10.700674997902414"><ele>322.0</ele><time>2026-03-28T15:38:04Z</time></trkpt><trkpt lat="45.592668319103566" lon="10.700690694511211"><ele>322.0</ele><time>2026-03-28T15:38:05Z</time></trkpt><trkpt lat="45.592825109410974" lon="10.700714163063793"><ele>322.0</ele><time>2026-03-28T15:38:06Z</time></trkpt><trkpt lat="45.59297286514692" lon="10.700741575598153"><ele>321.0</ele><time>2026-03-28T15:38:07Z</time></trkpt><trkpt lat="45.59311835655995" lon="10.70077079259398"><ele>320.0</ele><time>2026-03-28T15:38:08Z</time></trkpt><trkpt lat="45.593263176299395" lon="10.70080394465372"><ele>319.0</ele><time>2026-03-28T15:38:09Z</time></trkpt><trkpt lat="45.59341041563807" lon="10.700843791399969"><ele>318.0</ele><time>2026-03-28T15:38:10Z</time></trkpt><trkpt lat="45.593554161394266" lon="10.700865995588217"><ele>314.5</ele><time>2026-03-28T15:38:11Z</time></trkpt><trkpt lat="45.59370192873721" lon="10.700901926398142"><ele>311.0</ele><time>2026-03-28T15:38:12Z</time></trkpt><trkpt lat="45.593844785072775" lon="10.700936708020587"><ele>307.5</ele><time>2026-03-28T15:38:13Z</time></trkpt><trkpt lat="45.59398693499215" lon="10.700967697173937"><ele>304.0</ele><time>2026-03-28T15:38:14Z</time></trkpt><trkpt lat="45.59412830983142" lon="10.701023541929295"><ele>304.0</ele><time>2026-03-28T15:38:15Z</time></trkpt><trkpt lat="45.59427385843459" lon="10.701055258216734"><ele>304.0</ele><time>2026-03-28T15:38:16Z</time></trkpt><trkpt lat="45.59441929376541" lon="10.70107945465933"><ele>304.0</ele><time>2026-03-28T15:38:17Z</time></trkpt><trkpt lat="45.59457857205429" lon="10.701073488560674"><ele>301.25</ele><time>2026-03-28T15:38:18Z</time></trkpt><trkpt lat="45.59473372546812" lon="10.701051116542981"><ele>298.5</ele><time>2026-03-28T15:38:19Z</time></trkpt><trkpt lat="45.594878878161666" lon="10.70103346198185"><ele>295.75</ele><time>2026-03-28T15:38:20Z</time></trkpt><trkpt lat="45.59502470602073" lon="10.701010413582766"><ele>293.0</ele><time>2026-03-28T15:38:21Z</time></trkpt><trkpt lat="45.59517153537063" lon="10.701027334076942"><ele>296.5</ele><time>2026-03-28T15:38:22Z</time></trkpt><trkpt lat="45.595310170608144" lon="10.701097785827915"><ele>300.0</ele><time>2026-03-28T15:38:23Z</time></trkpt><trkpt lat="45.595449617425274" lon="10.701159118992498"><ele>303.5</ele><time>2026-03-28T15:38:24Z</time></trkpt><trkpt lat="45.59558957386788" lon="10.701196483880627"><ele>307.0</ele><time>2026-03-28T15:38:25Z</time></trkpt><trkpt lat="45.59573742400737" lon="10.701153793846652"><ele>307.0</ele><time>2026-03-28T15:38:26Z</time></trkpt><trkpt lat="45.59588285793264" lon="10.701102772679977"><ele>307.0</ele><time>2026-03-28T15:38:27Z</time></trkpt><trkpt lat="45.59602195098625" lon="10.701032540414747"><ele>307.0</ele><time>2026-03-28T15:38:28Z</time></trkpt><trkpt lat="45.59616363756167" lon="10.700955449876092"><ele>307.0</ele><time>2026-03-28T15:38:29Z</time></trkpt><trkpt lat="45.596314362074246" lon="10.70092927449553"><ele>301.75</ele><time>2026-03-28T15:38:30Z</time></trkpt><trkpt lat="45.59645233063871" lon="10.70088689773058"><ele>296.5</ele><time>2026-03-28T15:38:31Z</time></trkpt><trkpt lat="45.596586974928236" lon="10.700885645595775"><ele>291.25</ele><time>2026-03-28T15:38:32Z</time></trkpt><trkpt lat="45.59671545725274" lon="10.700881702656272"><ele>286.0</ele><time>2026-03-28T15:38:33Z</time></trkpt><trkpt lat="45.596840518151936" lon="10.700871467653618"><ele>286.0</ele><time>2026-03-28T15:38:34Z</time></trkpt><trkpt lat="45.59696550852557" lon="10.700839460468238"><ele>286.0</ele><time>2026-03-28T15:38:35Z</time></trkpt><trkpt lat="45.597095660256386" lon="10.700812197554349"><ele>286.0</ele><time>2026-03-28T15:38:36Z</time></trkpt><trkpt lat="45.597222177029934" lon="10.700774036346203"><ele>286.0</ele><time>2026-03-28T15:38:37Z</time></trkpt><trkpt lat="45.597341507765805" lon="10.70072090776161"><ele>286.25</ele><time>2026-03-28T15:38:38Z</time></trkpt><trkpt lat="45.597472734108656" lon="10.700681063314123"><ele>286.5</ele><time>2026-03-28T15:38:39Z</time></trkpt><trkpt lat="45.5976029262844" lon="10.700646636392701"><ele>286.75</ele><time>2026-03-28T15:38:40Z</time></trkpt><trkpt lat="45.5977315193906" lon="10.700622091410805"><ele>287.0</ele><time>2026-03-28T15:38:41Z</time></trkpt><trkpt lat="45.597847632659445" lon="10.70057474530849"><ele>289.5</ele><time>2026-03-28T15:38:42Z</time></trkpt><trkpt lat="45.59796695824832" lon="10.700544428592057"><ele>292.0</ele><time>2026-03-28T15:38:43Z</time></trkpt><trkpt lat="45.59807706825071" lon="10.700474027226655"><ele>294.5</ele><time>2026-03-28T15:38:44Z</time></trkpt><trkpt lat="45.59817702630907" lon="10.700393429744466"><ele>297.0</ele><time>2026-03-28T15:38:45Z</time></trkpt><trkpt lat="45.59826711075634" lon="10.700322292905385"><ele>297.0</ele><time>2026-03-28T15:38:46Z</time></trkpt><trkpt lat="45.59835453886129" lon="10.700273227858885"><ele>297.0</ele><time>2026-03-28T15:38:47Z</time></trkpt><trkpt lat="45.5984412969753" lon="10.70025350715585"><ele>297.0</ele><time>2026-03-28T15:38:48Z</time></trkpt><trkpt lat="45.598530551086476" lon="10.70023921007632"><ele>297.0</ele><time>2026-03-28T15:38:49Z</time></trkpt><trkpt lat="45.59859411425332" lon="10.700225836809063"><ele>297.0</ele><time>2026-03-28T15:38:50Z</time></trkpt><trkpt lat="45.59870478461003" lon="10.700140712447544"><ele>294.0</ele><time>2026-03-28T15:38:52Z</time></trkpt><trkpt lat="45.59880403933072" lon="10.700128474876763"><ele>291.0</ele><time>2026-03-28T15:38:53Z</time></trkpt><trkpt lat="45.59891270265162" lon="10.700121577953352"><ele>288.0</ele><time>2026-03-28T15:38:54Z</time></trkpt><trkpt lat="45.59904252252201" lon="10.700112838227474"><ele>285.0</ele><time>2026-03-28T15:38:55Z</time></trkpt><trkpt lat="45.599178135833846" lon="10.70010826349953"><ele>285.0</ele><time>2026-03-28T15:38:56Z</time></trkpt><trkpt lat="45.59931719990373" lon="10.700099864796364"><ele>285.0</ele><time>2026-03-28T15:38:57Z</time></trkpt><trkpt lat="45.59946432470727" lon="10.700091551408335"><ele>285.0</ele><time>2026-03-28T15:38:58Z</time></trkpt><trkpt lat="45.59961581699774" lon="10.700087458948548"><ele>285.0</ele><time>2026-03-28T15:38:59Z</time></trkpt><trkpt lat="45.5997730047522" lon="10.700086038769959"><ele>285.6666666666667</ele><time>2026-03-28T15:39:00Z</time></trkpt><trkpt lat="45.599935340592054" lon="10.700084699693182"><ele>286.33333333333337</ele><time>2026-03-28T15:39:01Z</time></trkpt><trkpt lat="45.60008227071721" lon="10.700084624038922"><ele>287.0</ele><time>2026-03-28T15:39:02Z</time></trkpt><trkpt lat="45.60022550585887" lon="10.700100440730267"><ele>285.6666666666667</ele><time>2026-03-28T15:39:03Z</time></trkpt><trkpt lat="45.600372964899634" lon="10.700134849725478"><ele>284.3333333333333</ele><time>2026-03-28T15:39:04Z</time></trkpt><trkpt lat="45.60052406740487" lon="10.700158070626353"><ele>283.0</ele><time>2026-03-28T15:39:05Z</time></trkpt><trkpt lat="45.600681370141096" lon="10.70016210718449"><ele>283.0</ele><time>2026-03-28T15:39:06Z</time></trkpt><trkpt lat="45.600835293906215" lon="10.70015405168028"><ele>283.0</ele><time>2026-03-28T15:39:07Z</time></trkpt><trkpt lat="45.6009840534216" lon="10.700139545137713"><ele>283.0</ele><time>2026-03-28T15:39:08Z</time></trkpt><trkpt lat="45.60112453007044" lon="10.700127903264159"><ele>283.0</ele><time>2026-03-28T15:39:09Z</time></trkpt><trkpt lat="45.601259809138064" lon="10.700119222695411"><ele>283.0</ele><time>2026-03-28T15:39:10Z</time></trkpt><trkpt lat="45.60139700790496" lon="10.70011249923156"><ele>283.0</ele><time>2026-03-28T15:39:11Z</time></trkpt><trkpt lat="45.60153713186859" lon="10.700099312251067"><ele>283.0</ele><time>2026-03-28T15:39:12Z</time></trkpt><trkpt lat="45.601677998790095" lon="10.700084199703674"><ele>283.0</ele><time>2026-03-28T15:39:13Z</time></trkpt><trkpt lat="45.6018174134027" lon="10.700069794081827"><ele>283.0</ele><time>2026-03-28T15:39:14Z</time></trkpt><trkpt lat="45.60195581707838" lon="10.700056889934295"><ele>283.0</ele><time>2026-03-28T15:39:15Z</time></trkpt><trkpt lat="45.60209232131103" lon="10.7000440749833"><ele>283.0</ele><time>2026-03-28T15:39:16Z</time></trkpt><trkpt lat="45.60222579971617" lon="10.700033313657377"><ele>283.0</ele><time>2026-03-28T15:39:17Z</time></trkpt><trkpt lat="45.60234752443162" lon="10.700022884499436"><ele>283.2</ele><time>2026-03-28T15:39:18Z</time></trkpt><trkpt lat="45.60245707596344" lon="10.700013326068747"><ele>283.4</ele><time>2026-03-28T15:39:19Z</time></trkpt><trkpt lat="45.60255973589725" lon="10.700003335900208"><ele>283.59999999999997</ele><time>2026-03-28T15:39:20Z</time></trkpt><trkpt lat="45.60265592700174" lon="10.699996268185325"><ele>283.8</ele><time>2026-03-28T15:39:21Z</time></trkpt><trkpt lat="45.602751661408455" lon="10.699989566563636"><ele>284.0</ele><time>2026-03-28T15:39:22Z</time></trkpt><trkpt lat="45.602849349841655" lon="10.699980457032515"><ele>284.59999999999997</ele><time>2026-03-28T15:39:23Z</time></trkpt><trkpt lat="45.60294846466739" lon="10.699970098185869"><ele>285.2</ele><time>2026-03-28T15:39:24Z</time></trkpt><trkpt lat="45.60304837118364" lon="10.699959914194565"><ele>285.79999999999995</ele><time>2026-03-28T15:39:25Z</time></trkpt><trkpt lat="45.603148043507524" lon="10.699949567197837"><ele>286.4</ele><time>2026-03-28T15:39:26Z</time></trkpt><trkpt lat="45.60324341221179" lon="10.699942643458755"><ele>287.0</ele><time>2026-03-28T15:39:27Z</time></trkpt><trkpt lat="45.603347859768505" lon="10.699935829313285"><ele>287.0</ele><time>2026-03-28T15:39:28Z</time></trkpt><trkpt lat="45.60345588119579" lon="10.699925682327024"><ele>287.0</ele><time>2026-03-28T15:39:29Z</time></trkpt><trkpt lat="45.60356283419683" lon="10.699914944680456"><ele>287.0</ele><time>2026-03-28T15:39:30Z</time></trkpt><trkpt lat="45.603668344012235" lon="10.699904251608638"><ele>287.0</ele><time>2026-03-28T15:39:31Z</time></trkpt><trkpt lat="45.60377196712501" lon="10.699898017300121"><ele>287.0</ele><time>2026-03-28T15:39:32Z</time></trkpt><trkpt lat="45.60387039658655" lon="10.699889982832351"><ele>287.2</ele><time>2026-03-28T15:39:33Z</time></trkpt><trkpt lat="45.603970940216556" lon="10.699877330087148"><ele>287.4</ele><time>2026-03-28T15:39:34Z</time></trkpt><trkpt lat="45.60407136530896" lon="10.699851396962785"><ele>287.6</ele><time>2026-03-28T15:39:35Z</time></trkpt><trkpt lat="45.60417579399999" lon="10.699817063384705"><ele>287.8</ele><time>2026-03-28T15:39:36Z</time></trkpt><trkpt lat="45.60429144343451" lon="10.69976889000458"><ele>288.0</ele><time>2026-03-28T15:39:37Z</time></trkpt><trkpt lat="45.60442038822844" lon="10.699717493489636"><ele>289.0</ele><time>2026-03-28T15:39:38Z</time></trkpt><trkpt lat="45.60455555349044" lon="10.699677877528824"><ele>290.0</ele><time>2026-03-28T15:39:39Z</time></trkpt><trkpt lat="45.60468800580019" lon="10.699649020788842"><ele>291.0</ele><time>2026-03-28T15:39:40Z</time></trkpt><trkpt lat="45.60482150200832" lon="10.699638290590908"><ele>292.0</ele><time>2026-03-28T15:39:41Z</time></trkpt><trkpt lat="45.604946900781385" lon="10.699633727195677"><ele>292.0</ele><time>2026-03-28T15:39:42Z</time></trkpt><trkpt lat="45.60507014204987" lon="10.69963190570483"><ele>292.0</ele><time>2026-03-28T15:39:43Z</time></trkpt><trkpt lat="45.60518341281702" lon="10.699658359435672"><ele>292.0</ele><time>2026-03-28T15:39:44Z</time></trkpt><trkpt lat="45.605298148673725" lon="10.699702140117502"><ele>292.0</ele><time>2026-03-28T15:39:45Z</time></trkpt><trkpt lat="45.60540609186713" lon="10.699758760978565"><ele>292.75</ele><time>2026-03-28T15:39:46Z</time></trkpt><trkpt lat="45.60551075544109" lon="10.699833941475301"><ele>293.5</ele><time>2026-03-28T15:39:47Z</time></trkpt><trkpt lat="45.60561895766466" lon="10.699925972173014"><ele>294.25</ele><time>2026-03-28T15:39:48Z</time></trkpt><trkpt lat="45.605724900145724" lon="10.700021979279487"><ele>295.0</ele><time>2026-03-28T15:39:49Z</time></trkpt><trkpt lat="45.60582838535052" lon="10.700116300951382"><ele>295.0</ele><time>2026-03-28T15:39:50Z</time></trkpt><trkpt lat="45.605933103169754" lon="10.700202858979308"><ele>295.0</ele><time>2026-03-28T15:39:51Z</time></trkpt><trkpt lat="45.606045279069114" lon="10.700269111068208"><ele>295.0</ele><time>2026-03-28T15:39:52Z</time></trkpt><trkpt lat="45.60616484762787" lon="10.700313426595926"><ele>295.0</ele><time>2026-03-28T15:39:53Z</time></trkpt><trkpt lat="45.60628301243117" lon="10.700348203775704"><ele>296.3333333333333</ele><time>2026-03-28T15:39:54Z</time></trkpt><trkpt lat="45.60638410955467" lon="10.700371974840445"><ele>297.66666666666663</ele><time>2026-03-28T15:39:55Z</time></trkpt><trkpt lat="45.606481411349236" lon="10.700397794773437"><ele>299.0</ele><time>2026-03-28T15:39:56Z</time></trkpt><trkpt lat="45.60656799031396" lon="10.700415514997996"><ele>300.3333333333333</ele><time>2026-03-28T15:39:57Z</time></trkpt><trkpt lat="45.606645083775085" lon="10.700407317969162"><ele>301.6666666666667</ele><time>2026-03-28T15:39:58Z</time></trkpt><trkpt lat="45.60671274399397" lon="10.700371040651815"><ele>303.0</ele><time>2026-03-28T15:39:59Z</time></trkpt><trkpt lat="45.60677026165007" lon="10.700304162459489"><ele>301.0</ele><time>2026-03-28T15:40:00Z</time></trkpt><trkpt lat="45.60682218151435" lon="10.700208915813072"><ele>299.0</ele><time>2026-03-28T15:40:01Z</time></trkpt><trkpt lat="45.60688683474394" lon="10.700156558423627"><ele>297.0</ele><time>2026-03-28T15:40:02Z</time></trkpt><trkpt lat="45.606962778459824" lon="10.700151067896158"><ele>295.0</ele><time>2026-03-28T15:40:03Z</time></trkpt><trkpt lat="45.607072579673584" lon="10.700125339571445"><ele>293.0</ele><time>2026-03-28T15:40:04Z</time></trkpt><trkpt lat="45.60717925984831" lon="10.70011742682081"><ele>292.6</ele><time>2026-03-28T15:40:05Z</time></trkpt><trkpt lat="45.607280231283625" lon="10.70010726571536"><ele>292.20000000000005</ele><time>2026-03-28T15:40:06Z</time></trkpt><trkpt lat="45.607385606379" lon="10.70009064018688"><ele>291.8</ele><time>2026-03-28T15:40:07Z</time></trkpt><trkpt lat="45.6074929180055" lon="10.700067141043856"><ele>291.40000000000003</ele><time>2026-03-28T15:40:08Z</time></trkpt><trkpt lat="45.60759554226049" lon="10.700031170305849"><ele>291.0</ele><time>2026-03-28T15:40:09Z</time></trkpt><trkpt lat="45.607699604343985" lon="10.699978354581624"><ele>291.0</ele><time>2026-03-28T15:40:10Z</time></trkpt><trkpt lat="45.60780635912833" lon="10.699938473662522"><ele>291.0</ele><time>2026-03-28T15:40:11Z</time></trkpt><trkpt lat="45.607906554860975" lon="10.699927165668285"><ele>291.0</ele><time>2026-03-28T15:40:12Z</time></trkpt><trkpt lat="45.60800184311467" lon="10.699935055181049"><ele>291.0</ele><time>2026-03-28T15:40:13Z</time></trkpt><trkpt lat="45.60810069118435" lon="10.699971734918883"><ele>291.0</ele><time>2026-03-28T15:40:14Z</time></trkpt><trkpt lat="45.6082068686976" lon="10.70001677213326"><ele>290.0</ele><time>2026-03-28T15:40:15Z</time></trkpt><trkpt lat="45.60832043915942" lon="10.700062013777229"><ele>289.0</ele><time>2026-03-28T15:40:16Z</time></trkpt><trkpt lat="45.60843074525951" lon="10.700093487998101"><ele>288.0</ele><time>2026-03-28T15:40:17Z</time></trkpt><trkpt lat="45.60854006247171" lon="10.700129637706375"><ele>287.0</ele><time>2026-03-28T15:40:18Z</time></trkpt><trkpt lat="45.608643848591015" lon="10.700154465716365"><ele>286.0</ele><time>2026-03-28T15:40:19Z</time></trkpt><trkpt lat="45.60873839211407" lon="10.70016256734744"><ele>284.0</ele><time>2026-03-28T15:40:20Z</time></trkpt><trkpt lat="45.60883220320913" lon="10.700177632050226"><ele>282.0</ele><time>2026-03-28T15:40:21Z</time></trkpt><trkpt lat="45.60891167159396" lon="10.700172211534156"><ele>280.0</ele><time>2026-03-28T15:40:22Z</time></trkpt><trkpt lat="45.60898859657008" lon="10.700178090368528"><ele>278.0</ele><time>2026-03-28T15:40:23Z</time></trkpt><trkpt lat="45.60905551317473" lon="10.700199387382996"><ele>276.0</ele><time>2026-03-28T15:40:24Z</time></trkpt><trkpt lat="45.6091581188119" lon="10.70018301516467"><ele>274.0</ele><time>2026-03-28T15:40:26Z</time></trkpt><trkpt lat="45.60917215013575" lon="10.700070747753905"><ele>274.0</ele><time>2026-03-28T15:40:28Z</time></trkpt><trkpt lat="45.6091134808113" lon="10.699991108342271"><ele>274.0</ele><time>2026-03-28T15:40:29Z</time></trkpt><trkpt lat="45.6090145207551" lon="10.699969477154296"><ele>274.0</ele><time>2026-03-28T15:40:30Z</time></trkpt><trkpt lat="45.6089120619517" lon="10.699948773864568"><ele>274.0</ele><time>2026-03-28T15:40:31Z</time></trkpt><trkpt lat="45.608817858953984" lon="10.699923546829744"><ele>274.0</ele><time>2026-03-28T15:40:32Z</time></trkpt><trkpt lat="45.608709411818786" lon="10.699883285391937"><ele>277.0</ele><time>2026-03-28T15:40:33Z</time></trkpt><trkpt lat="45.608595867878805" lon="10.699832261710508"><ele>280.0</ele><time>2026-03-28T15:40:34Z</time></trkpt><trkpt lat="45.60848457977513" lon="10.699781475066503"><ele>283.0</ele><time>2026-03-28T15:40:35Z</time></trkpt><trkpt lat="45.608375272031466" lon="10.699710117324466"><ele>286.0</ele><time>2026-03-28T15:40:36Z</time></trkpt><trkpt lat="45.608272023349" lon="10.699642967026781"><ele>286.0</ele><time>2026-03-28T15:40:37Z</time></trkpt><trkpt lat="45.608175015735945" lon="10.699561945685204"><ele>286.0</ele><time>2026-03-28T15:40:38Z</time></trkpt><trkpt lat="45.60808416586866" lon="10.699479760241227"><ele>286.0</ele><time>2026-03-28T15:40:39Z</time></trkpt><trkpt lat="45.60798226807049" lon="10.699428852550293"><ele>286.0</ele><time>2026-03-28T15:40:40Z</time></trkpt><trkpt lat="45.607871085258815" lon="10.699416708407075"><ele>286.0</ele><time>2026-03-28T15:40:41Z</time></trkpt><trkpt lat="45.60775542039842" lon="10.699404967146117"><ele>282.25</ele><time>2026-03-28T15:40:42Z</time></trkpt><trkpt lat="45.607644391981985" lon="10.699357606790572"><ele>278.5</ele><time>2026-03-28T15:40:43Z</time></trkpt><trkpt lat="45.607533085007326" lon="10.699271962625412"><ele>274.75</ele><time>2026-03-28T15:40:44Z</time></trkpt><trkpt lat="45.607437766549296" lon="10.699171853201118"><ele>271.0</ele><time>2026-03-28T15:40:45Z</time></trkpt><trkpt lat="45.607375128721536" lon="10.699037141488253"><ele>271.0</ele><time>2026-03-28T15:40:46Z</time></trkpt><trkpt lat="45.60731511376232" lon="10.698917347382764"><ele>271.0</ele><time>2026-03-28T15:40:47Z</time></trkpt><trkpt lat="45.607271118712305" lon="10.69878385681181"><ele>271.0</ele><time>2026-03-28T15:40:48Z</time></trkpt><trkpt lat="45.60723781298374" lon="10.698632423914237"><ele>271.0</ele><time>2026-03-28T15:40:49Z</time></trkpt><trkpt lat="45.60717725737158" lon="10.69849589789496"><ele>271.0</ele><time>2026-03-28T15:40:50Z</time></trkpt><trkpt lat="45.60711909077647" lon="10.698357553497475"><ele>270.2</ele><time>2026-03-28T15:40:51Z</time></trkpt><trkpt lat="45.6070451837468" lon="10.698227712879381"><ele>269.40000000000003</ele><time>2026-03-28T15:40:52Z</time></trkpt><trkpt lat="45.60696824877956" lon="10.698108657971142"><ele>268.6</ele><time>2026-03-28T15:40:53Z</time></trkpt><trkpt lat="45.60689038177748" lon="10.697994448656537"><ele>267.8</ele><time>2026-03-28T15:40:54Z</time></trkpt><trkpt lat="45.60681866465481" lon="10.697883643367186"><ele>267.0</ele><time>2026-03-28T15:40:55Z</time></trkpt><trkpt lat="45.60674882255911" lon="10.697778644412503"><ele>265.3333333333333</ele><time>2026-03-28T15:40:56Z</time></trkpt><trkpt lat="45.60668603853184" lon="10.697680534765274"><ele>263.6666666666667</ele><time>2026-03-28T15:40:57Z</time></trkpt><trkpt lat="45.60662745932387" lon="10.697579499045766"><ele>262.0</ele><time>2026-03-28T15:40:58Z</time></trkpt><trkpt lat="45.60657451045281" lon="10.697485703627688"><ele>260.33333333333337</ele><time>2026-03-28T15:40:59Z</time></trkpt><trkpt lat="45.60652313922554" lon="10.69739508058172"><ele>258.6666666666667</ele><time>2026-03-28T15:41:00Z</time></trkpt><trkpt lat="45.606481731427735" lon="10.697291356065133"><ele>257.0</ele><time>2026-03-28T15:41:01Z</time></trkpt><trkpt lat="45.606464100523354" lon="10.697191089289918"><ele>257.0</ele><time>2026-03-28T15:41:02Z</time></trkpt><trkpt lat="45.60646632800063" lon="10.69706935737871"><ele>257.0</ele><time>2026-03-28T15:41:03Z</time></trkpt><trkpt lat="45.606472797696085" lon="10.696934745323475"><ele>257.0</ele><time>2026-03-28T15:41:04Z</time></trkpt><trkpt lat="45.60648136830847" lon="10.696808105492149"><ele>257.0</ele><time>2026-03-28T15:41:05Z</time></trkpt><trkpt lat="45.606490338475716" lon="10.696688041060286"><ele>257.0</ele><time>2026-03-28T15:41:06Z</time></trkpt><trkpt lat="45.60649373229631" lon="10.696565156612795"><ele>257.0</ele><time>2026-03-28T15:41:07Z</time></trkpt><trkpt lat="45.60648159737684" lon="10.69645114413763"><ele>255.50000000000003</ele><time>2026-03-28T15:41:08Z</time></trkpt><trkpt lat="45.60644564571745" lon="10.696354958570312"><ele>254.0</ele><time>2026-03-28T15:41:09Z</time></trkpt><trkpt lat="45.6063886725768" lon="10.696270480739052"><ele>252.5</ele><time>2026-03-28T15:41:10Z</time></trkpt><trkpt lat="45.606327171537664" lon="10.696177674417125"><ele>251.0</ele><time>2026-03-28T15:41:11Z</time></trkpt><trkpt lat="45.606249518312545" lon="10.696106050531853"><ele>249.50000000000003</ele><time>2026-03-28T15:41:12Z</time></trkpt><trkpt lat="45.606176439371" lon="10.696045382092887"><ele>248.0</ele><time>2026-03-28T15:41:13Z</time></trkpt><trkpt lat="45.606101999536385" lon="10.69600033262991"><ele>247.8</ele><time>2026-03-28T15:41:14Z</time></trkpt><trkpt lat="45.60601682124925" lon="10.695926635040172"><ele>247.60000000000002</ele><time>2026-03-28T15:41:15Z</time></trkpt><trkpt lat="45.605929537541165" lon="10.695840678053024"><ele>247.39999999999998</ele><time>2026-03-28T15:41:16Z</time></trkpt><trkpt lat="45.60585268047973" lon="10.69574223275687"><ele>247.2</ele><time>2026-03-28T15:41:17Z</time></trkpt><trkpt lat="45.60579736657517" lon="10.695630913068568"><ele>247.0</ele><time>2026-03-28T15:41:18Z</time></trkpt><trkpt lat="45.605736871573285" lon="10.695545729188673"><ele>246.99999999999997</ele><time>2026-03-28T15:41:19Z</time></trkpt><trkpt lat="45.605680664932166" lon="10.695466562274085"><ele>247.0</ele><time>2026-03-28T15:41:20Z</time></trkpt><trkpt lat="45.60562723949375" lon="10.69540236763374"><ele>247.0</ele><time>2026-03-28T15:41:21Z</time></trkpt><trkpt lat="45.605578909768575" lon="10.69534377480631"><ele>247.0</ele><time>2026-03-28T15:41:22Z</time></trkpt><trkpt lat="45.6055447062272" lon="10.695255834877976"><ele>246.99999999999997</ele><time>2026-03-28T15:41:24Z</time></trkpt><trkpt lat="45.60566976818461" lon="10.695242346007763"><ele>247.0</ele><time>2026-03-28T15:41:26Z</time></trkpt><trkpt lat="45.605740091968165" lon="10.695321109797248"><ele>246.99999999999997</ele><time>2026-03-28T15:41:27Z</time></trkpt><trkpt lat="45.605820531644156" lon="10.69537368797174"><ele>247.0</ele><time>2026-03-28T15:41:28Z</time></trkpt><trkpt lat="45.60590136395842" lon="10.695431941674281"><ele>247.0</ele><time>2026-03-28T15:41:29Z</time></trkpt><trkpt lat="45.6059760782077" lon="10.69549124506839"><ele>247.0</ele><time>2026-03-28T15:41:30Z</time></trkpt><trkpt lat="45.60605718753114" lon="10.695547195509429"><ele>246.99999999999997</ele><time>2026-03-28T15:41:31Z</time></trkpt><trkpt lat="45.606141503505036" lon="10.69560376248588"><ele>247.0</ele><time>2026-03-28T15:41:32Z</time></trkpt><trkpt lat="45.60623104340071" lon="10.69565559431327"><ele>244.2</ele><time>2026-03-28T15:41:33Z</time></trkpt><trkpt lat="45.60632432392067" lon="10.69570898026999"><ele>241.39999999999998</ele><time>2026-03-28T15:41:34Z</time></trkpt><trkpt lat="45.606414800373315" lon="10.695767105454916"><ele>238.60000000000002</ele><time>2026-03-28T15:41:35Z</time></trkpt><trkpt lat="45.606502939336885" lon="10.695821490573957"><ele>235.8</ele><time>2026-03-28T15:41:36Z</time></trkpt><trkpt lat="45.60658256542429" lon="10.695865227311227"><ele>233.0</ele><time>2026-03-28T15:41:37Z</time></trkpt><trkpt lat="45.60666761126256" lon="10.69589398292721"><ele>233.00000000000003</ele><time>2026-03-28T15:41:38Z</time></trkpt><trkpt lat="45.6067536623157" lon="10.695931136382583"><ele>233.0</ele><time>2026-03-28T15:41:39Z</time></trkpt><trkpt lat="45.60683170030934" lon="10.695980348871093"><ele>233.0</ele><time>2026-03-28T15:41:40Z</time></trkpt><trkpt lat="45.60690550653516" lon="10.696045331390858"><ele>233.0</ele><time>2026-03-28T15:41:41Z</time></trkpt><trkpt lat="45.606974730025925" lon="10.696117851883407"><ele>233.00000000000003</ele><time>2026-03-28T15:41:42Z</time></trkpt><trkpt lat="45.60703863808565" lon="10.69618485230855"><ele>233.0</ele><time>2026-03-28T15:41:43Z</time></trkpt><trkpt lat="45.60709688770139" lon="10.696235633280484"><ele>232.25</ele><time>2026-03-28T15:41:44Z</time></trkpt><trkpt lat="45.60718831221888" lon="10.696250488870476"><ele>231.5</ele><time>2026-03-28T15:41:46Z</time></trkpt><trkpt lat="45.607184264717226" lon="10.696011618836312"><ele>230.75</ele><time>2026-03-28T15:41:49Z</time></trkpt><trkpt lat="45.607103585520186" lon="10.695916888333235"><ele>230.0</ele><time>2026-03-28T15:41:50Z</time></trkpt><trkpt lat="45.60702817623335" lon="10.695810517034255"><ele>230.75</ele><time>2026-03-28T15:41:51Z</time></trkpt><trkpt lat="45.60695524524238" lon="10.695708528544424"><ele>231.5</ele><time>2026-03-28T15:41:52Z</time></trkpt><trkpt lat="45.606857655626776" lon="10.695594758246058"><ele>232.25</ele><time>2026-03-28T15:41:53Z</time></trkpt><trkpt lat="45.60673960795933" lon="10.695478829010039"><ele>233.0</ele><time>2026-03-28T15:41:54Z</time></trkpt><trkpt lat="45.60661447192297" lon="10.695364588472417"><ele>232.0</ele><time>2026-03-28T15:41:55Z</time></trkpt><trkpt lat="45.60649041957594" lon="10.69525007734772"><ele>231.0</ele><time>2026-03-28T15:41:56Z</time></trkpt><trkpt lat="45.606375492323146" lon="10.695139403434386"><ele>230.0</ele><time>2026-03-28T15:41:57Z</time></trkpt><trkpt lat="45.60626404745558" lon="10.695041767091498"><ele>229.0</ele><time>2026-03-28T15:41:58Z</time></trkpt><trkpt lat="45.606157649444285" lon="10.694923415235033"><ele>229.0</ele><time>2026-03-28T15:41:59Z</time></trkpt><trkpt lat="45.60604936672093" lon="10.69479370813386"><ele>229.0</ele><time>2026-03-28T15:42:00Z</time></trkpt><trkpt lat="45.60594255062493" lon="10.694659328029099"><ele>229.0</ele><time>2026-03-28T15:42:01Z</time></trkpt><trkpt lat="45.60583779781481" lon="10.694519564571245"><ele>229.0</ele><time>2026-03-28T15:42:02Z</time></trkpt><trkpt lat="45.60573875604788" lon="10.694375980920626"><ele>227.25</ele><time>2026-03-28T15:42:03Z</time></trkpt><trkpt lat="45.605638182882956" lon="10.694234014997656"><ele>225.5</ele><time>2026-03-28T15:42:04Z</time></trkpt><trkpt lat="45.60553401106579" lon="10.69410269625799"><ele>223.75</ele><time>2026-03-28T15:42:05Z</time></trkpt><trkpt lat="45.6054237673754" lon="10.693977126691182"><ele>222.0</ele><time>2026-03-28T15:42:06Z</time></trkpt><trkpt lat="45.605311456681896" lon="10.693856904635028"><ele>222.0</ele><time>2026-03-28T15:42:07Z</time></trkpt><trkpt lat="45.60519387727164" lon="10.69373823011678"><ele>222.0</ele><time>2026-03-28T15:42:08Z</time></trkpt><trkpt lat="45.60507243189526" lon="10.69362523540146"><ele>222.0</ele><time>2026-03-28T15:42:09Z</time></trkpt><trkpt lat="45.60495063265488" lon="10.693514670749774"><ele>222.0</ele><time>2026-03-28T15:42:10Z</time></trkpt><trkpt lat="45.60483065240287" lon="10.693405848667345"><ele>220.5</ele><time>2026-03-28T15:42:11Z</time></trkpt><trkpt lat="45.60470582696017" lon="10.693296503025271"><ele>219.0</ele><time>2026-03-28T15:42:12Z</time></trkpt><trkpt lat="45.60458680880629" lon="10.6931936978389"><ele>217.5</ele><time>2026-03-28T15:42:13Z</time></trkpt><trkpt lat="45.604474572497764" lon="10.693093212961157"><ele>216.0</ele><time>2026-03-28T15:42:14Z</time></trkpt><trkpt lat="45.604363606204245" lon="10.69299093010407"><ele>216.0</ele><time>2026-03-28T15:42:15Z</time></trkpt><trkpt lat="45.60425090661381" lon="10.692883244740635"><ele>216.0</ele><time>2026-03-28T15:42:16Z</time></trkpt><trkpt lat="45.60414349949288" lon="10.69276429924164"><ele>216.0</ele><time>2026-03-28T15:42:17Z</time></trkpt><trkpt lat="45.604039712033675" lon="10.69263139451924"><ele>216.0</ele><time>2026-03-28T15:42:18Z</time></trkpt><trkpt lat="45.603942076907934" lon="10.69250584322217"><ele>216.0</ele><time>2026-03-28T15:42:19Z</time></trkpt><trkpt lat="45.603832650242786" lon="10.692400630301849"><ele>216.0</ele><time>2026-03-28T15:42:20Z</time></trkpt><trkpt lat="45.60371805064135" lon="10.692310274973833"><ele>216.0</ele><time>2026-03-28T15:42:21Z</time></trkpt><trkpt lat="45.60359863378827" lon="10.692219815778014"><ele>216.0</ele><time>2026-03-28T15:42:22Z</time></trkpt><trkpt lat="45.603475820487645" lon="10.692130082142933"><ele>216.0</ele><time>2026-03-28T15:42:23Z</time></trkpt><trkpt lat="45.60334100652732" lon="10.692037080608914"><ele>216.0</ele><time>2026-03-28T15:42:24Z</time></trkpt><trkpt lat="45.603215072478484" lon="10.691937644438237"><ele>216.0</ele><time>2026-03-28T15:42:25Z</time></trkpt><trkpt lat="45.60309127764467" lon="10.691846167471947"><ele>216.0</ele><time>2026-03-28T15:42:26Z</time></trkpt><trkpt lat="45.60296535250118" lon="10.691751192496927"><ele>213.0</ele><time>2026-03-28T15:42:27Z</time></trkpt><trkpt lat="45.60284399188518" lon="10.69164933613093"><ele>210.0</ele><time>2026-03-28T15:42:28Z</time></trkpt><trkpt lat="45.602731960643446" lon="10.691540850705081"><ele>207.0</ele><time>2026-03-28T15:42:29Z</time></trkpt><trkpt lat="45.602636013796086" lon="10.691428323673973"><ele>204.0</ele><time>2026-03-28T15:42:30Z</time></trkpt><trkpt lat="45.602555029651526" lon="10.691289252450678"><ele>204.0</ele><time>2026-03-28T15:42:31Z</time></trkpt><trkpt lat="45.602461467668554" lon="10.691181803331194"><ele>204.0</ele><time>2026-03-28T15:42:32Z</time></trkpt><trkpt lat="45.60234704728712" lon="10.691086525513663"><ele>204.0</ele><time>2026-03-28T15:42:33Z</time></trkpt><trkpt lat="45.602222690141204" lon="10.69101148833554"><ele>204.0</ele><time>2026-03-28T15:42:34Z</time></trkpt><trkpt lat="45.60208956625577" lon="10.690945107774667"><ele>200.0</ele><time>2026-03-28T15:42:35Z</time></trkpt><trkpt lat="45.60195429383984" lon="10.690879878139448"><ele>196.0</ele><time>2026-03-28T15:42:36Z</time></trkpt><trkpt lat="45.60182104714914" lon="10.69081423579164"><ele>192.0</ele><time>2026-03-28T15:42:37Z</time></trkpt><trkpt lat="45.601684515596965" lon="10.690775811720844"><ele>188.0</ele><time>2026-03-28T15:42:38Z</time></trkpt><trkpt lat="45.60156238154707" lon="10.690716639762858"><ele>188.0</ele><time>2026-03-28T15:42:39Z</time></trkpt><trkpt lat="45.60144746463625" lon="10.690647705858593"><ele>188.0</ele><time>2026-03-28T15:42:40Z</time></trkpt><trkpt lat="45.60133344659064" lon="10.690598169287336"><ele>188.0</ele><time>2026-03-28T15:42:41Z</time></trkpt><trkpt lat="45.601225560857735" lon="10.690549394740549"><ele>188.0</ele><time>2026-03-28T15:42:42Z</time></trkpt><trkpt lat="45.60112876869991" lon="10.690484430597339"><ele>189.8</ele><time>2026-03-28T15:42:43Z</time></trkpt><trkpt lat="45.6010336685002" lon="10.690415622127665"><ele>191.60000000000002</ele><time>2026-03-28T15:42:44Z</time></trkpt><trkpt lat="45.60094046970302" lon="10.690364792155519"><ele>193.39999999999998</ele><time>2026-03-28T15:42:45Z</time></trkpt><trkpt lat="45.60085784933019" lon="10.690359973088094"><ele>195.2</ele><time>2026-03-28T15:42:46Z</time></trkpt><trkpt lat="45.600762300607016" lon="10.690307748316554"><ele>197.0</ele><time>2026-03-28T15:42:48Z</time></trkpt><trkpt lat="45.6007518754755" lon="10.690205721851466"><ele>192.50000000000003</ele><time>2026-03-28T15:42:50Z</time></trkpt><trkpt lat="45.600829216390494" lon="10.690191391879722"><ele>188.0</ele><time>2026-03-28T15:42:51Z</time></trkpt><trkpt lat="45.60092869475141" lon="10.690216143164852"><ele>183.5</ele><time>2026-03-28T15:42:52Z</time></trkpt><trkpt lat="45.60101680122095" lon="10.690230680509902"><ele>179.0</ele><time>2026-03-28T15:42:53Z</time></trkpt><trkpt lat="45.601097841909215" lon="10.690232813228883"><ele>174.5</ele><time>2026-03-28T15:42:54Z</time></trkpt><trkpt lat="45.60119037185889" lon="10.69024097340577"><ele>170.0</ele><time>2026-03-28T15:42:55Z</time></trkpt><trkpt lat="45.601290247164314" lon="10.690247313701056"><ele>168.8</ele><time>2026-03-28T15:42:56Z</time></trkpt><trkpt lat="45.601394230180375" lon="10.690244434250806"><ele>167.6</ele><time>2026-03-28T15:42:57Z</time></trkpt><trkpt lat="45.601507189227014" lon="10.690241507151255"><ele>166.39999999999998</ele><time>2026-03-28T15:42:58Z</time></trkpt><trkpt lat="45.60162327669387" lon="10.690244621292182"><ele>165.2</ele><time>2026-03-28T15:42:59Z</time></trkpt><trkpt lat="45.60173475517907" lon="10.690250430666067"><ele>164.0</ele><time>2026-03-28T15:43:00Z</time></trkpt><trkpt lat="45.60184612605133" lon="10.690255780288483"><ele>168.25</ele><time>2026-03-28T15:43:01Z</time></trkpt><trkpt lat="45.60195949809984" lon="10.690263532988672"><ele>172.5</ele><time>2026-03-28T15:43:02Z</time></trkpt><trkpt lat="45.60208437157513" lon="10.690275405132258"><ele>176.75</ele><time>2026-03-28T15:43:03Z</time></trkpt><trkpt lat="45.60221185910784" lon="10.69027777430463"><ele>181.0</ele><time>2026-03-28T15:43:04Z</time></trkpt><trkpt lat="45.60233835154413" lon="10.690280245409506"><ele>181.0</ele><time>2026-03-28T15:43:05Z</time></trkpt><trkpt lat="45.602462799424806" lon="10.690296185006032"><ele>181.0</ele><time>2026-03-28T15:43:06Z</time></trkpt><trkpt lat="45.602584753358194" lon="10.690315580749829"><ele>181.0</ele><time>2026-03-28T15:43:07Z</time></trkpt><trkpt lat="45.602710350360624" lon="10.690345437173605"><ele>181.0</ele><time>2026-03-28T15:43:08Z</time></trkpt><trkpt lat="45.602832548106726" lon="10.690344912046843"><ele>178.75</ele><time>2026-03-28T15:43:09Z</time></trkpt><trkpt lat="45.60295053452727" lon="10.690331471793291"><ele>176.5</ele><time>2026-03-28T15:43:10Z</time></trkpt><trkpt lat="45.60307235872781" lon="10.690322806101674"><ele>174.25</ele><time>2026-03-28T15:43:11Z</time></trkpt><trkpt lat="45.603193888278604" lon="10.690304649539048"><ele>172.0</ele><time>2026-03-28T15:43:12Z</time></trkpt><trkpt lat="45.6033188092775" lon="10.690307553658092"><ele>172.0</ele><time>2026-03-28T15:43:13Z</time></trkpt><trkpt lat="45.60344695501624" lon="10.690290415843776"><ele>172.0</ele><time>2026-03-28T15:43:14Z</time></trkpt><trkpt lat="45.603564438034084" lon="10.690306135021292"><ele>172.0</ele><time>2026-03-28T15:43:15Z</time></trkpt><trkpt lat="45.6036880120288" lon="10.69030483728335"><ele>172.0</ele><time>2026-03-28T15:43:16Z</time></trkpt><trkpt lat="45.603805223176806" lon="10.690303227432079"><ele>170.25</ele><time>2026-03-28T15:43:17Z</time></trkpt><trkpt lat="45.60392249884743" lon="10.690282112647878"><ele>168.5</ele><time>2026-03-28T15:43:18Z</time></trkpt><trkpt lat="45.604039729176" lon="10.690282538244746"><ele>166.75</ele><time>2026-03-28T15:43:19Z</time></trkpt><trkpt lat="45.604158670489056" lon="10.690280588662104"><ele>165.0</ele><time>2026-03-28T15:43:20Z</time></trkpt><trkpt lat="45.60427695497705" lon="10.690280723715663"><ele>165.0</ele><time>2026-03-28T15:43:21Z</time></trkpt><trkpt lat="45.60439730388294" lon="10.690328228114279"><ele>165.0</ele><time>2026-03-28T15:43:22Z</time></trkpt><trkpt lat="45.604517042546654" lon="10.69037471696616"><ele>165.0</ele><time>2026-03-28T15:43:23Z</time></trkpt><trkpt lat="45.604639019386305" lon="10.690406745169787"><ele>165.0</ele><time>2026-03-28T15:43:24Z</time></trkpt><trkpt lat="45.60475976019757" lon="10.690461764419585"><ele>162.0</ele><time>2026-03-28T15:43:25Z</time></trkpt><trkpt lat="45.60487764301935" lon="10.690497555765496"><ele>159.0</ele><time>2026-03-28T15:43:26Z</time></trkpt><trkpt lat="45.60499856533009" lon="10.690522097245"><ele>156.0</ele><time>2026-03-28T15:43:27Z</time></trkpt><trkpt lat="45.60510410464156" lon="10.690519877084405"><ele>153.0</ele><time>2026-03-28T15:43:28Z</time></trkpt><trkpt lat="45.60520740141196" lon="10.690518789162665"><ele>153.0</ele><time>2026-03-28T15:43:29Z</time></trkpt><trkpt lat="45.60530460860489" lon="10.6905474078998"><ele>153.0</ele><time>2026-03-28T15:43:30Z</time></trkpt><trkpt lat="45.60538936114631" lon="10.690616573801723"><ele>153.0</ele><time>2026-03-28T15:43:31Z</time></trkpt><trkpt lat="45.605480171804494" lon="10.690673359271235"><ele>153.0</ele><time>2026-03-28T15:43:32Z</time></trkpt><trkpt lat="45.60556565585663" lon="10.690735429343198"><ele>153.0</ele><time>2026-03-28T15:43:33Z</time></trkpt><trkpt lat="45.60565565702092" lon="10.690797061848972"><ele>150.33333333333334</ele><time>2026-03-28T15:43:34Z</time></trkpt><trkpt lat="45.605727575283446" lon="10.690870130271511"><ele>147.66666666666666</ele><time>2026-03-28T15:43:35Z</time></trkpt><trkpt lat="45.60579545383032" lon="10.690938758464949"><ele>145.0</ele><time>2026-03-28T15:43:36Z</time></trkpt><trkpt lat="45.60585174551563" lon="10.690989614019994"><ele>142.33333333333331</ele><time>2026-03-28T15:43:37Z</time></trkpt><trkpt lat="45.6059365094199" lon="10.690982074384374"><ele>139.66666666666666</ele><time>2026-03-28T15:43:40Z</time></trkpt><trkpt lat="45.605927788855645" lon="10.690816560395659"><ele>137.0</ele><time>2026-03-28T15:43:41Z</time></trkpt><trkpt lat="45.60583954464502" lon="10.690730938790969"><ele>137.0</ele><time>2026-03-28T15:43:42Z</time></trkpt><trkpt lat="45.605769978173996" lon="10.69064600124462"><ele>137.0</ele><time>2026-03-28T15:43:43Z</time></trkpt><trkpt lat="45.605696247704955" lon="10.6905594040958"><ele>137.0</ele><time>2026-03-28T15:43:44Z</time></trkpt><trkpt lat="45.60561685771848" lon="10.690466159823213"><ele>137.0</ele><time>2026-03-28T15:43:45Z</time></trkpt><trkpt lat="45.60552910110731" lon="10.690363088904688"><ele>137.0</ele><time>2026-03-28T15:43:46Z</time></trkpt><trkpt lat="45.60543218777082" lon="10.69025074502937"><ele>136.0</ele><time>2026-03-28T15:43:47Z</time></trkpt><trkpt lat="45.60532097001733" lon="10.690135440645221"><ele>135.0</ele><time>2026-03-28T15:43:48Z</time></trkpt><trkpt lat="45.605184255619875" lon="10.690002334382532"><ele>134.0</ele><time>2026-03-28T15:43:49Z</time></trkpt><trkpt lat="45.6050439054972" lon="10.68987027124818"><ele>134.0</ele><time>2026-03-28T15:43:50Z</time></trkpt><trkpt lat="45.604918431558346" lon="10.6897595346612"><ele>134.0</ele><time>2026-03-28T15:43:51Z</time></trkpt><trkpt lat="45.60479121495583" lon="10.68967919392312"><ele>134.0</ele><time>2026-03-28T15:43:52Z</time></trkpt><trkpt lat="45.60468260650636" lon="10.689581848604083"><ele>134.0</ele><time>2026-03-28T15:43:53Z</time></trkpt><trkpt lat="45.604574793278616" lon="10.689503995465154"><ele>132.83333333333331</ele><time>2026-03-28T15:43:54Z</time></trkpt><trkpt lat="45.60447973522974" lon="10.689423164434004"><ele>131.66666666666666</ele><time>2026-03-28T15:43:55Z</time></trkpt><trkpt lat="45.60440825365105" lon="10.68936003290774"><ele>130.5</ele><time>2026-03-28T15:43:56Z</time></trkpt><trkpt lat="45.604359569243265" lon="10.68930083039841"><ele>129.33333333333334</ele><time>2026-03-28T15:43:57Z</time></trkpt><trkpt lat="45.604371954664025" lon="10.689202890558345"><ele>128.16666666666669</ele><time>2026-03-28T15:43:59Z</time></trkpt><trkpt lat="45.604436532041845" lon="10.689177921528426"><ele>127.0</ele><time>2026-03-28T15:44:00Z</time></trkpt><trkpt lat="45.60454730825455" lon="10.689218983020337"><ele>125.25</ele><time>2026-03-28T15:44:01Z</time></trkpt><trkpt lat="45.60465827497508" lon="10.689249100271036"><ele>123.5</ele><time>2026-03-28T15:44:02Z</time></trkpt><trkpt lat="45.604762115235566" lon="10.68929190452931"><ele>121.75</ele><time>2026-03-28T15:44:03Z</time></trkpt><trkpt lat="45.60489114409942" lon="10.68932822539795"><ele>120.0</ele><time>2026-03-28T15:44:04Z</time></trkpt><trkpt lat="45.605016181326036" lon="10.6893384548168"><ele>120.0</ele><time>2026-03-28T15:44:05Z</time></trkpt><trkpt lat="45.60513865899705" lon="10.689359736968331"><ele>120.0</ele><time>2026-03-28T15:44:06Z</time></trkpt><trkpt lat="45.6052474500536" lon="10.68940693639441"><ele>120.0</ele><time>2026-03-28T15:44:07Z</time></trkpt><trkpt lat="45.605354089333844" lon="10.689464428495116"><ele>120.0</ele><time>2026-03-28T15:44:08Z</time></trkpt><trkpt lat="45.60547274245457" lon="10.689534844407989"><ele>120.25</ele><time>2026-03-28T15:44:09Z</time></trkpt><trkpt lat="45.60559276588064" lon="10.68959058344902"><ele>120.5</ele><time>2026-03-28T15:44:10Z</time></trkpt><trkpt lat="45.60571713450412" lon="10.689648833799303"><ele>120.75</ele><time>2026-03-28T15:44:11Z</time></trkpt><trkpt lat="45.60583981794834" lon="10.689709863703998"><ele>121.0</ele><time>2026-03-28T15:44:12Z</time></trkpt><trkpt lat="45.6059545649461" lon="10.689782210575183"><ele>121.0</ele><time>2026-03-28T15:44:13Z</time></trkpt><trkpt lat="45.606063783263565" lon="10.689875084684846"><ele>121.0</ele><time>2026-03-28T15:44:14Z</time></trkpt><trkpt lat="45.60614884494695" lon="10.689978691505212"><ele>121.0</ele><time>2026-03-28T15:44:15Z</time></trkpt><trkpt lat="45.606217099363356" lon="10.6901039230743"><ele>121.0</ele><time>2026-03-28T15:44:16Z</time></trkpt><trkpt lat="45.606294899816994" lon="10.690212191120063"><ele>121.25</ele><time>2026-03-28T15:44:17Z</time></trkpt><trkpt lat="45.6063788451782" lon="10.690316581960785"><ele>121.5</ele><time>2026-03-28T15:44:18Z</time></trkpt><trkpt lat="45.606469905147655" lon="10.690415744786751"><ele>121.75</ele><time>2026-03-28T15:44:19Z</time></trkpt><trkpt lat="45.606582592292156" lon="10.690503942978603"><ele>122.0</ele><time>2026-03-28T15:44:20Z</time></trkpt><trkpt lat="45.60670875649555" lon="10.690576527105781"><ele>122.0</ele><time>2026-03-28T15:44:21Z</time></trkpt><trkpt lat="45.60683237642212" lon="10.690645021374003"><ele>122.0</ele><time>2026-03-28T15:44:22Z</time></trkpt><trkpt lat="45.606959650135074" lon="10.69070816667976"><ele>122.0</ele><time>2026-03-28T15:44:23Z</time></trkpt><trkpt lat="45.607092690572884" lon="10.690755193134427"><ele>122.0</ele><time>2026-03-28T15:44:24Z</time></trkpt><trkpt lat="45.60722505532263" lon="10.690813656146256"><ele>117.5</ele><time>2026-03-28T15:44:25Z</time></trkpt><trkpt lat="45.60735761109594" lon="10.690865787114728"><ele>113.0</ele><time>2026-03-28T15:44:26Z</time></trkpt><trkpt lat="45.607490869172175" lon="10.690918410166063"><ele>108.5</ele><time>2026-03-28T15:44:27Z</time></trkpt><trkpt lat="45.607628278568086" lon="10.690980653782514"><ele>104.0</ele><time>2026-03-28T15:44:28Z</time></trkpt><trkpt lat="45.60776284752888" lon="10.691047542226029"><ele>105.25</ele><time>2026-03-28T15:44:29Z</time></trkpt><trkpt lat="45.607884255933925" lon="10.69112725179412"><ele>106.5</ele><time>2026-03-28T15:44:30Z</time></trkpt><trkpt lat="45.608004915124404" lon="10.69119420273556"><ele>107.75</ele><time>2026-03-28T15:44:31Z</time></trkpt><trkpt lat="45.608131795922496" lon="10.691227783387811"><ele>109.0</ele><time>2026-03-28T15:44:32Z</time></trkpt><trkpt lat="45.60826249040884" lon="10.691238941370338"><ele>109.0</ele><time>2026-03-28T15:44:33Z</time></trkpt><trkpt lat="45.608398040192505" lon="10.691233544264945"><ele>109.0</ele><time>2026-03-28T15:44:34Z</time></trkpt><trkpt lat="45.60853208880904" lon="10.691223781017095"><ele>109.0</ele><time>2026-03-28T15:44:35Z</time></trkpt><trkpt lat="45.60866329327007" lon="10.691219579962038"><ele>109.0</ele><time>2026-03-28T15:44:36Z</time></trkpt><trkpt lat="45.60880089492966" lon="10.69121092351451"><ele>106.5</ele><time>2026-03-28T15:44:37Z</time></trkpt><trkpt lat="45.60894323215597" lon="10.691200976959067"><ele>104.0</ele><time>2026-03-28T15:44:38Z</time></trkpt><trkpt lat="45.609082570852266" lon="10.691200443586759"><ele>101.5</ele><time>2026-03-28T15:44:39Z</time></trkpt><trkpt lat="45.60921360379486" lon="10.691207332026426"><ele>99.0</ele><time>2026-03-28T15:44:40Z</time></trkpt><trkpt lat="45.60934172091148" lon="10.69121667813633"><ele>99.0</ele><time>2026-03-28T15:44:41Z</time></trkpt><trkpt lat="45.60946753927694" lon="10.691221032274669"><ele>99.0</ele><time>2026-03-28T15:44:42Z</time></trkpt><trkpt lat="45.60958094029958" lon="10.69119880955602"><ele>99.0</ele><time>2026-03-28T15:44:43Z</time></trkpt><trkpt lat="45.609680500220854" lon="10.691141918128906"><ele>99.0</ele><time>2026-03-28T15:44:44Z</time></trkpt><trkpt lat="45.60975564914012" lon="10.691072749747066"><ele>99.0</ele><time>2026-03-28T15:44:45Z</time></trkpt><trkpt lat="45.60980519109188" lon="10.690944973982786"><ele>96.5</ele><time>2026-03-28T15:44:46Z</time></trkpt><trkpt lat="45.60983614271008" lon="10.69079865238524"><ele>94.0</ele><time>2026-03-28T15:44:47Z</time></trkpt><trkpt lat="45.609849430007294" lon="10.690624488123339"><ele>91.5</ele><time>2026-03-28T15:44:48Z</time></trkpt><trkpt lat="45.60985552644652" lon="10.69045371160111"><ele>89.0</ele><time>2026-03-28T15:44:49Z</time></trkpt><trkpt lat="45.60985263412583" lon="10.690288246753177"><ele>87.80000000000001</ele><time>2026-03-28T15:44:50Z</time></trkpt><trkpt lat="45.6098429836885" lon="10.690117442986049"><ele>86.60000000000001</ele><time>2026-03-28T15:44:51Z</time></trkpt><trkpt lat="45.60982857930496" lon="10.689966045492598"><ele>85.4</ele><time>2026-03-28T15:44:52Z</time></trkpt><trkpt lat="45.60982071236394" lon="10.689816286240443"><ele>84.2</ele><time>2026-03-28T15:44:53Z</time></trkpt><trkpt lat="45.609815316938146" lon="10.689669148559886"><ele>83.0</ele><time>2026-03-28T15:44:54Z</time></trkpt><trkpt lat="45.60981595734194" lon="10.68953675786051"><ele>82.0</ele><time>2026-03-28T15:44:55Z</time></trkpt><trkpt lat="45.60983282517085" lon="10.689403692502623"><ele>81.0</ele><time>2026-03-28T15:44:56Z</time></trkpt><trkpt lat="45.60985736150325" lon="10.689279737860556"><ele>80.0</ele><time>2026-03-28T15:44:57Z</time></trkpt><trkpt lat="45.609885637170215" lon="10.689163905219356"><ele>79.0</ele><time>2026-03-28T15:44:58Z</time></trkpt><trkpt lat="45.60990950331891" lon="10.68905098738994"><ele>78.0</ele><time>2026-03-28T15:44:59Z</time></trkpt><trkpt lat="45.60992563072151" lon="10.688942089788654"><ele>77.0</ele><time>2026-03-28T15:45:00Z</time></trkpt><trkpt lat="45.60994224475025" lon="10.68883622647265"><ele>77.0</ele><time>2026-03-28T15:45:01Z</time></trkpt><trkpt lat="45.60995962980078" lon="10.688730949850155"><ele>77.0</ele><time>2026-03-28T15:45:02Z</time></trkpt><trkpt lat="45.60996955938408" lon="10.688636621213309"><ele>77.0</ele><time>2026-03-28T15:45:03Z</time></trkpt><trkpt lat="45.60998192882007" lon="10.688477768578396"><ele>77.0</ele><time>2026-03-28T15:45:05Z</time></trkpt><trkpt lat="45.60999751209778" lon="10.688386276048936"><ele>77.0</ele><time>2026-03-28T15:45:08Z</time></trkpt><trkpt lat="45.60988058568992" lon="10.688371015401032"><ele>77.0</ele><time>2026-03-28T15:45:10Z</time></trkpt><trkpt lat="45.60981718999882" lon="10.688408808281087"><ele>76.33333333333334</ele><time>2026-03-28T15:45:11Z</time></trkpt><trkpt lat="45.60973815724965" lon="10.688443284576381"><ele>75.66666666666667</ele><time>2026-03-28T15:45:13Z</time></trkpt><trkpt lat="45.60965816080405" lon="10.688468409202025"><ele>75.0</ele><time>2026-03-28T15:45:16Z</time></trkpt><trkpt lat="45.60955684421502" lon="10.68845568680135"><ele>74.33333333333333</ele><time>2026-03-28T15:45:19Z</time></trkpt><trkpt lat="45.60949886951632" lon="10.688407324713083"><ele>73.66666666666666</ele><time>2026-03-28T15:45:20Z</time></trkpt><trkpt lat="45.60943240109552" lon="10.68835352642604"><ele>73.0</ele><time>2026-03-28T15:45:21Z</time></trkpt><trkpt lat="45.609359776205025" lon="10.688302270792429"><ele>73.0</ele><time>2026-03-28T15:45:22Z</time></trkpt><trkpt lat="45.60929310309287" lon="10.68825480611721"><ele>73.0</ele><time>2026-03-28T15:45:23Z</time></trkpt><trkpt lat="45.609222839276704" lon="10.688196351419384"><ele>73.0</ele><time>2026-03-28T15:45:24Z</time></trkpt><trkpt lat="45.60915960494562" lon="10.68814741735064"><ele>73.0</ele><time>2026-03-28T15:45:25Z</time></trkpt><trkpt lat="45.60910093576385" lon="10.688103409652017"><ele>73.0</ele><time>2026-03-28T15:45:26Z</time></trkpt><trkpt lat="45.6090002153754" lon="10.68801739637543"><ele>73.0</ele><time>2026-03-28T15:45:28Z</time></trkpt><trkpt lat="45.60893836599985" lon="10.687981340826857"><ele>73.0</ele><time>2026-03-28T15:45:29Z</time></trkpt><trkpt lat="45.60887131039392" lon="10.687949037337374"><ele>73.0</ele><time>2026-03-28T15:45:30Z</time></trkpt><trkpt lat="45.608808957709215" lon="10.687890318743202"><ele>73.0</ele><time>2026-03-28T15:45:31Z</time></trkpt><trkpt lat="45.608731101178236" lon="10.687874317757437"><ele>73.0</ele><time>2026-03-28T15:45:32Z</time></trkpt><trkpt lat="45.60866456282285" lon="10.687845100172558"><ele>73.0</ele><time>2026-03-28T15:45:33Z</time></trkpt><trkpt lat="45.60860159281664" lon="10.687793674406482"><ele>73.0</ele><time>2026-03-28T15:45:34Z</time></trkpt><trkpt lat="45.6085330845938" lon="10.687765078606134"><ele>73.0</ele><time>2026-03-28T15:45:35Z</time></trkpt><trkpt lat="45.608438293276436" lon="10.687729107403522"><ele>73.0</ele><time>2026-03-28T15:45:36Z</time></trkpt><trkpt lat="45.60834517021747" lon="10.687696185629138"><ele>73.0</ele><time>2026-03-28T15:45:37Z</time></trkpt><trkpt lat="45.60825464294605" lon="10.687664798023526"><ele>73.0</ele><time>2026-03-28T15:45:38Z</time></trkpt><trkpt lat="45.60817003305916" lon="10.687635462091322"><ele>73.0</ele><time>2026-03-28T15:45:39Z</time></trkpt><trkpt lat="45.60808751546292" lon="10.687604684886695"><ele>73.0</ele><time>2026-03-28T15:45:40Z</time></trkpt><trkpt lat="45.6080018264367" lon="10.687570032493973"><ele>73.0</ele><time>2026-03-28T15:45:41Z</time></trkpt><trkpt lat="45.60791672474073" lon="10.687529759174511"><ele>73.0</ele><time>2026-03-28T15:45:42Z</time></trkpt><trkpt lat="45.607835497988084" lon="10.687486485817058"><ele>73.0</ele><time>2026-03-28T15:45:43Z</time></trkpt><trkpt lat="45.60775304264996" lon="10.687434499542201"><ele>73.0</ele><time>2026-03-28T15:45:44Z</time></trkpt><trkpt lat="45.60766819707777" lon="10.687376675852972"><ele>73.0</ele><time>2026-03-28T15:45:45Z</time></trkpt><trkpt lat="45.60758071823104" lon="10.687326141185167"><ele>73.4</ele><time>2026-03-28T15:45:46Z</time></trkpt><trkpt lat="45.60749136356795" lon="10.687277413081954"><ele>73.8</ele><time>2026-03-28T15:45:47Z</time></trkpt><trkpt lat="45.60740402137408" lon="10.687231748850227"><ele>74.2</ele><time>2026-03-28T15:45:48Z</time></trkpt><trkpt lat="45.60731141571464" lon="10.68719147734153"><ele>74.6</ele><time>2026-03-28T15:45:49Z</time></trkpt><trkpt lat="45.60721605949383" lon="10.6871596926387"><ele>75.0</ele><time>2026-03-28T15:45:50Z</time></trkpt><trkpt lat="45.60711987537035" lon="10.687145157135243"><ele>75.0</ele><time>2026-03-28T15:45:51Z</time></trkpt><trkpt lat="45.607029751871906" lon="10.687161385750453"><ele>75.0</ele><time>2026-03-28T15:45:52Z</time></trkpt><trkpt lat="45.60693463875714" lon="10.68716558817803"><ele>75.0</ele><time>2026-03-28T15:45:53Z</time></trkpt><trkpt lat="45.606842965209296" lon="10.687164012538693"><ele>75.0</ele><time>2026-03-28T15:45:54Z</time></trkpt><trkpt lat="45.606760201679315" lon="10.687162344683838"><ele>75.0</ele><time>2026-03-28T15:45:55Z</time></trkpt><trkpt lat="45.606680449952236" lon="10.687159212988092"><ele>75.0</ele><time>2026-03-28T15:45:56Z</time></trkpt><trkpt lat="45.60656068833255" lon="10.687148722277955"><ele>75.16666666666667</ele><time>2026-03-28T15:45:58Z</time></trkpt><trkpt lat="45.606459309090006" lon="10.687133594478464"><ele>75.33333333333333</ele><time>2026-03-28T15:46:00Z</time></trkpt><trkpt lat="45.606383983649366" lon="10.687123200911753"><ele>75.5</ele><time>2026-03-28T15:46:01Z</time></trkpt><trkpt lat="45.60630623546598" lon="10.68710462712958"><ele>75.66666666666666</ele><time>2026-03-28T15:46:02Z</time></trkpt><trkpt lat="45.606207563110004" lon="10.687086117455232"><ele>75.83333333333333</ele><time>2026-03-28T15:46:03Z</time></trkpt><trkpt lat="45.60611711710475" lon="10.687075151407168"><ele>76.0</ele><time>2026-03-28T15:46:04Z</time></trkpt><trkpt lat="45.60604094023012" lon="10.687070333648052"><ele>75.5</ele><time>2026-03-28T15:46:05Z</time></trkpt><trkpt lat="45.60598086480792" lon="10.687007543511152"><ele>75.0</ele><time>2026-03-28T15:46:07Z</time></trkpt><trkpt lat="45.60597013832231" lon="10.68686179879057"><ele>74.5</ele><time>2026-03-28T15:46:09Z</time></trkpt><trkpt lat="45.60596601068741" lon="10.686753183838455"><ele>74.0</ele><time>2026-03-28T15:46:10Z</time></trkpt><trkpt lat="45.60595409168457" lon="10.686622189656774"><ele>73.5</ele><time>2026-03-28T15:46:11Z</time></trkpt><trkpt lat="45.60594268347233" lon="10.686510748919453"><ele>73.0</ele><time>2026-03-28T15:46:12Z</time></trkpt><trkpt lat="45.60592940985046" lon="10.686409343252077"><ele>73.0</ele><time>2026-03-28T15:46:13Z</time></trkpt><trkpt lat="45.60592712608788" lon="10.68631094961588"><ele>73.0</ele><time>2026-03-28T15:46:14Z</time></trkpt><trkpt lat="45.60591682738961" lon="10.68619137201649"><ele>73.0</ele><time>2026-03-28T15:46:16Z</time></trkpt><trkpt lat="45.605904976619854" lon="10.686097401321032"><ele>73.0</ele><time>2026-03-28T15:46:23Z</time></trkpt><trkpt lat="45.605910976550874" lon="10.685937652380105"><ele>73.0</ele><time>2026-03-28T15:46:25Z</time></trkpt><trkpt lat="45.60590572689616" lon="10.685774642457142"><ele>73.0</ele><time>2026-03-28T15:46:27Z</time></trkpt><trkpt lat="45.60590270269344" lon="10.685680736342519"><ele>72.16666666666666</ele><time>2026-03-28T15:46:29Z</time></trkpt><trkpt lat="45.60585869804333" lon="10.685608018294904"><ele>71.33333333333333</ele><time>2026-03-28T15:46:33Z</time></trkpt><trkpt lat="45.60589503393298" lon="10.685526722692863"><ele>70.5</ele><time>2026-03-28T15:46:35Z</time></trkpt><trkpt lat="45.605873467921164" lon="10.685441194567495"><ele>69.66666666666667</ele><time>2026-03-28T15:46:38Z</time></trkpt><trkpt lat="45.605833801908084" lon="10.685314798524827"><ele>68.83333333333334</ele><time>2026-03-28T15:49:31Z</time></trkpt><trkpt lat="45.60576637110803" lon="10.685261196873276"><ele>68.0</ele><time>2026-03-28T15:49:49Z</time></trkpt><trkpt lat="45.60584889270603" lon="10.685339553321725"><ele>68.0</ele><time>2026-03-28T15:52:31Z</time></trkpt></trkseg></trk></gpx>